<?xml version="1.0" encoding="UTF-8" standalone="no" ?>
<gpx xmlns="http://www.topografix.com/GPX/1/1" xmlns:xsi="http://www.w3.org/2001/XMLSchema-instance" xsi:schemaLocation="http://www.topografix.com/GPX/1/1 http://www.topografix.com/GPX/1/1/gpx.xsd" version="1.1" creator="VisuGPX - https://www.visugpx.com">
  <metadata>
    <name>Pornichet 13/06/2021</name>
    <desc><![CDATA[Sortie VTT du dimanche 13 juin 2021]]></desc>
  </metadata>
  <trk>
    <name><![CDATA[Pornichet Cyclisme]]></name>
    <trkseg>
      <trkpt lat="47.26408" lon="-2.31598">
        <ele>9.7</ele>
        <time>2021-06-13T06:55:04.000Z</time>
      </trkpt>
      <trkpt lat="47.26412" lon="-2.31616">
        <ele>9.7</ele>
        <time>2021-06-13T06:55:07.000Z</time>
      </trkpt>
      <trkpt lat="47.26413" lon="-2.31621">
        <ele>9.6</ele>
        <time>2021-06-13T06:55:08.000Z</time>
      </trkpt>
      <trkpt lat="47.26421" lon="-2.31655">
        <ele>8.6</ele>
        <time>2021-06-13T06:55:15.000Z</time>
      </trkpt>
      <trkpt lat="47.26422" lon="-2.3168">
        <ele>8.2</ele>
        <time>2021-06-13T06:55:20.000Z</time>
      </trkpt>
      <trkpt lat="47.26422" lon="-2.31702">
        <ele>8.2</ele>
        <time>2021-06-13T06:55:25.000Z</time>
      </trkpt>
      <trkpt lat="47.26419" lon="-2.31707">
        <ele>8.1</ele>
        <time>2021-06-13T06:55:27.000Z</time>
      </trkpt>
      <trkpt lat="47.26413" lon="-2.3171">
        <ele>7.9</ele>
        <time>2021-06-13T06:55:29.000Z</time>
      </trkpt>
      <trkpt lat="47.26406" lon="-2.31713">
        <ele>7.6</ele>
        <time>2021-06-13T06:55:31.000Z</time>
      </trkpt>
      <trkpt lat="47.26394" lon="-2.31719">
        <ele>7.2</ele>
        <time>2021-06-13T06:55:34.000Z</time>
      </trkpt>
      <trkpt lat="47.26367" lon="-2.31732">
        <ele>-0.40000000596046</ele>
        <time>2021-06-13T06:55:40.000Z</time>
      </trkpt>
      <trkpt lat="47.26362" lon="-2.31734">
        <ele>-0.80000001192093</ele>
        <time>2021-06-13T06:55:41.000Z</time>
      </trkpt>
      <trkpt lat="47.26357" lon="-2.31736">
        <ele>-1.2000000476837</ele>
        <time>2021-06-13T06:55:42.000Z</time>
      </trkpt>
      <trkpt lat="47.26352" lon="-2.31738">
        <ele>-1.6000000238419</ele>
        <time>2021-06-13T06:55:43.000Z</time>
      </trkpt>
      <trkpt lat="47.26347" lon="-2.31739">
        <ele>-2</ele>
        <time>2021-06-13T06:55:44.000Z</time>
      </trkpt>
      <trkpt lat="47.26337" lon="-2.31743">
        <ele>-2</ele>
        <time>2021-06-13T06:55:46.000Z</time>
      </trkpt>
      <trkpt lat="47.26323" lon="-2.3175">
        <ele>-2.5999999046326</ele>
        <time>2021-06-13T06:55:49.000Z</time>
      </trkpt>
      <trkpt lat="47.26319" lon="-2.31754">
        <ele>-3</ele>
        <time>2021-06-13T06:55:50.000Z</time>
      </trkpt>
      <trkpt lat="47.26316" lon="-2.31759">
        <ele>-3.4000000953674</ele>
        <time>2021-06-13T06:55:51.000Z</time>
      </trkpt>
      <trkpt lat="47.26315" lon="-2.31763">
        <ele>-3.7999999523163</ele>
        <time>2021-06-13T06:55:52.000Z</time>
      </trkpt>
      <trkpt lat="47.26314" lon="-2.31766">
        <ele>-4.1999998092651</ele>
        <time>2021-06-13T06:55:53.000Z</time>
      </trkpt>
      <trkpt lat="47.26314" lon="-2.3177">
        <ele>-4.1999998092651</ele>
        <time>2021-06-13T06:55:54.000Z</time>
      </trkpt>
      <trkpt lat="47.26316" lon="-2.31794">
        <ele>-4.1999998092651</ele>
        <time>2021-06-13T06:55:59.000Z</time>
      </trkpt>
      <trkpt lat="47.26317" lon="-2.3182">
        <ele>-4.1999998092651</ele>
        <time>2021-06-13T06:56:04.000Z</time>
      </trkpt>
      <trkpt lat="47.26313" lon="-2.31852">
        <ele>-4.1999998092651</ele>
        <time>2021-06-13T06:56:10.000Z</time>
      </trkpt>
      <trkpt lat="47.2631" lon="-2.31881">
        <ele>-4.1999998092651</ele>
        <time>2021-06-13T06:56:16.000Z</time>
      </trkpt>
      <trkpt lat="47.26304" lon="-2.31897">
        <ele>-4.1999998092651</ele>
        <time>2021-06-13T06:56:20.000Z</time>
      </trkpt>
      <trkpt lat="47.26301" lon="-2.319">
        <ele>-4.1999998092651</ele>
        <time>2021-06-13T06:56:21.000Z</time>
      </trkpt>
      <trkpt lat="47.26287" lon="-2.31915">
        <ele>-4.1999998092651</ele>
        <time>2021-06-13T06:56:26.000Z</time>
      </trkpt>
      <trkpt lat="47.26274" lon="-2.31928">
        <ele>-4.1999998092651</ele>
        <time>2021-06-13T06:56:31.000Z</time>
      </trkpt>
      <trkpt lat="47.26262" lon="-2.31944">
        <ele>-4.1999998092651</ele>
        <time>2021-06-13T06:56:36.000Z</time>
      </trkpt>
      <trkpt lat="47.26248" lon="-2.31962">
        <ele>-4.1999998092651</ele>
        <time>2021-06-13T06:56:42.000Z</time>
      </trkpt>
      <trkpt lat="47.26235" lon="-2.31979">
        <ele>-4.1999998092651</ele>
        <time>2021-06-13T06:56:48.000Z</time>
      </trkpt>
      <trkpt lat="47.26226" lon="-2.3199">
        <ele>-4.1999998092651</ele>
        <time>2021-06-13T06:56:52.000Z</time>
      </trkpt>
      <trkpt lat="47.26223" lon="-2.31991">
        <ele>-4.1999998092651</ele>
        <time>2021-06-13T06:56:53.000Z</time>
      </trkpt>
      <trkpt lat="47.26217" lon="-2.31996">
        <ele>-4.1999998092651</ele>
        <time>2021-06-13T06:56:56.000Z</time>
      </trkpt>
      <trkpt lat="47.26216" lon="-2.32002">
        <ele>-4.1999998092651</ele>
        <time>2021-06-13T06:56:58.000Z</time>
      </trkpt>
      <trkpt lat="47.26214" lon="-2.32005">
        <ele>-4.1999998092651</ele>
        <time>2021-06-13T06:56:59.000Z</time>
      </trkpt>
      <trkpt lat="47.2621" lon="-2.32009">
        <ele>-4.1999998092651</ele>
        <time>2021-06-13T06:57:02.000Z</time>
      </trkpt>
      <trkpt lat="47.26198" lon="-2.32011">
        <ele>-4.1999998092651</ele>
        <time>2021-06-13T06:57:07.000Z</time>
      </trkpt>
      <trkpt lat="47.26193" lon="-2.32014">
        <ele>-4.1999998092651</ele>
        <time>2021-06-13T06:57:09.000Z</time>
      </trkpt>
      <trkpt lat="47.26187" lon="-2.32018">
        <ele>-4.1999998092651</ele>
        <time>2021-06-13T06:57:11.000Z</time>
      </trkpt>
      <trkpt lat="47.26172" lon="-2.32039">
        <ele>-4.1999998092651</ele>
        <time>2021-06-13T06:57:16.000Z</time>
      </trkpt>
      <trkpt lat="47.26167" lon="-2.3205">
        <ele>-4.1999998092651</ele>
        <time>2021-06-13T06:57:18.000Z</time>
      </trkpt>
      <trkpt lat="47.26161" lon="-2.32074">
        <ele>-4.1999998092651</ele>
        <time>2021-06-13T06:57:22.000Z</time>
      </trkpt>
      <trkpt lat="47.26147" lon="-2.32121">
        <ele>-4.1999998092651</ele>
        <time>2021-06-13T06:57:30.000Z</time>
      </trkpt>
      <trkpt lat="47.26138" lon="-2.32149">
        <ele>-4.1999998092651</ele>
        <time>2021-06-13T06:57:35.000Z</time>
      </trkpt>
      <trkpt lat="47.26134" lon="-2.32161">
        <ele>-4.1999998092651</ele>
        <time>2021-06-13T06:57:37.000Z</time>
      </trkpt>
      <trkpt lat="47.26132" lon="-2.32166">
        <ele>-4.1999998092651</ele>
        <time>2021-06-13T06:57:38.000Z</time>
      </trkpt>
      <trkpt lat="47.2612" lon="-2.32199">
        <ele>-4.1999998092651</ele>
        <time>2021-06-13T06:57:44.000Z</time>
      </trkpt>
      <trkpt lat="47.26106" lon="-2.32222">
        <ele>-4.1999998092651</ele>
        <time>2021-06-13T06:57:49.000Z</time>
      </trkpt>
      <trkpt lat="47.26089" lon="-2.32243">
        <ele>-4.1999998092651</ele>
        <time>2021-06-13T06:57:54.000Z</time>
      </trkpt>
      <trkpt lat="47.26082" lon="-2.3225">
        <ele>-4.1999998092651</ele>
        <time>2021-06-13T06:57:56.000Z</time>
      </trkpt>
      <trkpt lat="47.26074" lon="-2.32258">
        <ele>-4.1999998092651</ele>
        <time>2021-06-13T06:57:58.000Z</time>
      </trkpt>
      <trkpt lat="47.2606" lon="-2.32274">
        <ele>-4.1999998092651</ele>
        <time>2021-06-13T06:58:02.000Z</time>
      </trkpt>
      <trkpt lat="47.26035" lon="-2.32304">
        <ele>-4.1999998092651</ele>
        <time>2021-06-13T06:58:09.000Z</time>
      </trkpt>
      <trkpt lat="47.26027" lon="-2.32313">
        <ele>-4.1999998092651</ele>
        <time>2021-06-13T06:58:11.000Z</time>
      </trkpt>
      <trkpt lat="47.26017" lon="-2.32325">
        <ele>-4.1999998092651</ele>
        <time>2021-06-13T06:58:14.000Z</time>
      </trkpt>
      <trkpt lat="47.26006" lon="-2.32339">
        <ele>-4.1999998092651</ele>
        <time>2021-06-13T06:58:17.000Z</time>
      </trkpt>
      <trkpt lat="47.25974" lon="-2.32377">
        <ele>-4.1999998092651</ele>
        <time>2021-06-13T06:58:26.000Z</time>
      </trkpt>
      <trkpt lat="47.2595" lon="-2.32401">
        <ele>-4.1999998092651</ele>
        <time>2021-06-13T06:58:33.000Z</time>
      </trkpt>
      <trkpt lat="47.25919" lon="-2.32429">
        <ele>-4.1999998092651</ele>
        <time>2021-06-13T06:58:42.000Z</time>
      </trkpt>
      <trkpt lat="47.25903" lon="-2.32446">
        <ele>-4.1999998092651</ele>
        <time>2021-06-13T06:58:47.000Z</time>
      </trkpt>
      <trkpt lat="47.25896" lon="-2.32451">
        <ele>-4.1999998092651</ele>
        <time>2021-06-13T06:58:49.000Z</time>
      </trkpt>
      <trkpt lat="47.25872" lon="-2.32454">
        <ele>-4.1999998092651</ele>
        <time>2021-06-13T06:58:53.000Z</time>
      </trkpt>
      <trkpt lat="47.2586" lon="-2.32454">
        <ele>-4.1999998092651</ele>
        <time>2021-06-13T06:58:55.000Z</time>
      </trkpt>
      <trkpt lat="47.25845" lon="-2.32453">
        <ele>-4.1999998092651</ele>
        <time>2021-06-13T06:58:58.000Z</time>
      </trkpt>
      <trkpt lat="47.25827" lon="-2.32447">
        <ele>-4.1999998092651</ele>
        <time>2021-06-13T06:59:01.000Z</time>
      </trkpt>
      <trkpt lat="47.25796" lon="-2.32436">
        <ele>-4.1999998092651</ele>
        <time>2021-06-13T06:59:07.000Z</time>
      </trkpt>
      <trkpt lat="47.25785" lon="-2.3244">
        <ele>-4.1999998092651</ele>
        <time>2021-06-13T06:59:11.000Z</time>
      </trkpt>
      <trkpt lat="47.25772" lon="-2.32448">
        <ele>-3.7999999523163</ele>
        <time>2021-06-13T06:59:16.000Z</time>
      </trkpt>
      <trkpt lat="47.2577" lon="-2.32445">
        <ele>-3.4000000953674</ele>
        <time>2021-06-13T06:59:17.000Z</time>
      </trkpt>
      <trkpt lat="47.25769" lon="-2.32442">
        <ele>-3</ele>
        <time>2021-06-13T06:59:18.000Z</time>
      </trkpt>
      <trkpt lat="47.25767" lon="-2.32438">
        <ele>-2.5999999046326</ele>
        <time>2021-06-13T06:59:19.000Z</time>
      </trkpt>
      <trkpt lat="47.25765" lon="-2.32434">
        <ele>-2.2000000476837</ele>
        <time>2021-06-13T06:59:20.000Z</time>
      </trkpt>
      <trkpt lat="47.25753" lon="-2.32419">
        <ele>-2.2000000476837</ele>
        <time>2021-06-13T06:59:24.000Z</time>
      </trkpt>
      <trkpt lat="47.25749" lon="-2.32418">
        <ele>-2.2000000476837</ele>
        <time>2021-06-13T06:59:25.000Z</time>
      </trkpt>
      <trkpt lat="47.25722" lon="-2.32417">
        <ele>-2.2000000476837</ele>
        <time>2021-06-13T06:59:30.000Z</time>
      </trkpt>
      <trkpt lat="47.25717" lon="-2.32417">
        <ele>-2.2000000476837</ele>
        <time>2021-06-13T06:59:31.000Z</time>
      </trkpt>
      <trkpt lat="47.25698" lon="-2.32418">
        <ele>-2.2000000476837</ele>
        <time>2021-06-13T06:59:35.000Z</time>
      </trkpt>
      <trkpt lat="47.25675" lon="-2.32418">
        <ele>-2.2000000476837</ele>
        <time>2021-06-13T06:59:40.000Z</time>
      </trkpt>
      <trkpt lat="47.25671" lon="-2.32417">
        <ele>-2.2000000476837</ele>
        <time>2021-06-13T06:59:41.000Z</time>
      </trkpt>
      <trkpt lat="47.25667" lon="-2.32417">
        <ele>-2.2000000476837</ele>
        <time>2021-06-13T06:59:42.000Z</time>
      </trkpt>
      <trkpt lat="47.25659" lon="-2.32422">
        <ele>-2.2000000476837</ele>
        <time>2021-06-13T06:59:44.000Z</time>
      </trkpt>
      <trkpt lat="47.25656" lon="-2.32427">
        <ele>-2.2000000476837</ele>
        <time>2021-06-13T06:59:45.000Z</time>
      </trkpt>
      <trkpt lat="47.25656" lon="-2.32445">
        <ele>-2.2000000476837</ele>
        <time>2021-06-13T06:59:48.000Z</time>
      </trkpt>
      <trkpt lat="47.25657" lon="-2.32451">
        <ele>-1.7999999523163</ele>
        <time>2021-06-13T06:59:49.000Z</time>
      </trkpt>
      <trkpt lat="47.25659" lon="-2.32457">
        <ele>-1.2000000476837</ele>
        <time>2021-06-13T06:59:50.000Z</time>
      </trkpt>
      <trkpt lat="47.25661" lon="-2.32463">
        <ele>-0.80000001192093</ele>
        <time>2021-06-13T06:59:51.000Z</time>
      </trkpt>
      <trkpt lat="47.25664" lon="-2.32469">
        <ele>6</ele>
        <time>2021-06-13T06:59:52.000Z</time>
      </trkpt>
      <trkpt lat="47.25666" lon="-2.32475">
        <ele>6.1</ele>
        <time>2021-06-13T06:59:53.000Z</time>
      </trkpt>
      <trkpt lat="47.25682" lon="-2.32518">
        <ele>7.9</ele>
        <time>2021-06-13T07:00:00.000Z</time>
      </trkpt>
      <trkpt lat="47.25684" lon="-2.32524">
        <ele>0.40000000596046</ele>
        <time>2021-06-13T07:00:01.000Z</time>
      </trkpt>
      <trkpt lat="47.25686" lon="-2.3253">
        <ele>0.80000001192093</ele>
        <time>2021-06-13T07:00:02.000Z</time>
      </trkpt>
      <trkpt lat="47.25688" lon="-2.32536">
        <ele>1.2000000476837</ele>
        <time>2021-06-13T07:00:03.000Z</time>
      </trkpt>
      <trkpt lat="47.25691" lon="-2.32542">
        <ele>1.6000000238419</ele>
        <time>2021-06-13T07:00:04.000Z</time>
      </trkpt>
      <trkpt lat="47.25693" lon="-2.32548">
        <ele>2</ele>
        <time>2021-06-13T07:00:05.000Z</time>
      </trkpt>
      <trkpt lat="47.25698" lon="-2.32559">
        <ele>2</ele>
        <time>2021-06-13T07:00:07.000Z</time>
      </trkpt>
      <trkpt lat="47.25705" lon="-2.32575">
        <ele>2.4000000953674</ele>
        <time>2021-06-13T07:00:10.000Z</time>
      </trkpt>
      <trkpt lat="47.25706" lon="-2.32581">
        <ele>2.7999999523163</ele>
        <time>2021-06-13T07:00:11.000Z</time>
      </trkpt>
      <trkpt lat="47.25708" lon="-2.32586">
        <ele>3.2000000476837</ele>
        <time>2021-06-13T07:00:12.000Z</time>
      </trkpt>
      <trkpt lat="47.25709" lon="-2.32591">
        <ele>3.5999999046326</ele>
        <time>2021-06-13T07:00:13.000Z</time>
      </trkpt>
      <trkpt lat="47.2571" lon="-2.32597">
        <ele>4</ele>
        <time>2021-06-13T07:00:14.000Z</time>
      </trkpt>
      <trkpt lat="47.25712" lon="-2.32613">
        <ele>4</ele>
        <time>2021-06-13T07:00:17.000Z</time>
      </trkpt>
      <trkpt lat="47.25709" lon="-2.32622">
        <ele>4</ele>
        <time>2021-06-13T07:00:19.000Z</time>
      </trkpt>
      <trkpt lat="47.25706" lon="-2.32625">
        <ele>4</ele>
        <time>2021-06-13T07:00:20.000Z</time>
      </trkpt>
      <trkpt lat="47.25699" lon="-2.32629">
        <ele>4</ele>
        <time>2021-06-13T07:00:22.000Z</time>
      </trkpt>
      <trkpt lat="47.25683" lon="-2.32636">
        <ele>4.5999999046326</ele>
        <time>2021-06-13T07:00:26.000Z</time>
      </trkpt>
      <trkpt lat="47.2568" lon="-2.32638">
        <ele>5</ele>
        <time>2021-06-13T07:00:27.000Z</time>
      </trkpt>
      <trkpt lat="47.25676" lon="-2.3264">
        <ele>5.4000000953674</ele>
        <time>2021-06-13T07:00:28.000Z</time>
      </trkpt>
      <trkpt lat="47.25672" lon="-2.32642">
        <ele>5.8000001907349</ele>
        <time>2021-06-13T07:00:29.000Z</time>
      </trkpt>
      <trkpt lat="47.25668" lon="-2.32643">
        <ele>6.4000000953674</ele>
        <time>2021-06-13T07:00:30.000Z</time>
      </trkpt>
      <trkpt lat="47.25644" lon="-2.32654">
        <ele>6.8000001907349</ele>
        <time>2021-06-13T07:00:36.000Z</time>
      </trkpt>
      <trkpt lat="47.25639" lon="-2.32656">
        <ele>7.1999998092651</ele>
        <time>2021-06-13T07:00:37.000Z</time>
      </trkpt>
      <trkpt lat="47.25635" lon="-2.32658">
        <ele>7.5999999046326</ele>
        <time>2021-06-13T07:00:38.000Z</time>
      </trkpt>
      <trkpt lat="47.25631" lon="-2.32659">
        <ele>8</ele>
        <time>2021-06-13T07:00:39.000Z</time>
      </trkpt>
      <trkpt lat="47.25627" lon="-2.32661">
        <ele>8.3999996185303</ele>
        <time>2021-06-13T07:00:40.000Z</time>
      </trkpt>
      <trkpt lat="47.25594" lon="-2.32675">
        <ele>8.3999996185303</ele>
        <time>2021-06-13T07:00:48.000Z</time>
      </trkpt>
      <trkpt lat="47.25571" lon="-2.32685">
        <ele>8.8000001907349</ele>
        <time>2021-06-13T07:00:53.000Z</time>
      </trkpt>
      <trkpt lat="47.25567" lon="-2.32687">
        <ele>9.1999998092651</ele>
        <time>2021-06-13T07:00:54.000Z</time>
      </trkpt>
      <trkpt lat="47.25562" lon="-2.32689">
        <ele>9.6000003814697</ele>
        <time>2021-06-13T07:00:55.000Z</time>
      </trkpt>
      <trkpt lat="47.25558" lon="-2.32691">
        <ele>10</ele>
        <time>2021-06-13T07:00:56.000Z</time>
      </trkpt>
      <trkpt lat="47.25553" lon="-2.32693">
        <ele>10.39999961853</ele>
        <time>2021-06-13T07:00:57.000Z</time>
      </trkpt>
      <trkpt lat="47.2554" lon="-2.32701">
        <ele>10.39999961853</ele>
        <time>2021-06-13T07:01:00.000Z</time>
      </trkpt>
      <trkpt lat="47.2553" lon="-2.32704">
        <ele>10.39999961853</ele>
        <time>2021-06-13T07:01:02.000Z</time>
      </trkpt>
      <trkpt lat="47.25514" lon="-2.32705">
        <ele>10.39999961853</ele>
        <time>2021-06-13T07:01:05.000Z</time>
      </trkpt>
      <trkpt lat="47.25499" lon="-2.32706">
        <ele>10.39999961853</ele>
        <time>2021-06-13T07:01:08.000Z</time>
      </trkpt>
      <trkpt lat="47.25489" lon="-2.32709">
        <ele>10.39999961853</ele>
        <time>2021-06-13T07:01:10.000Z</time>
      </trkpt>
      <trkpt lat="47.2548" lon="-2.32717">
        <ele>10.39999961853</ele>
        <time>2021-06-13T07:01:12.000Z</time>
      </trkpt>
      <trkpt lat="47.25452" lon="-2.32751">
        <ele>10.39999961853</ele>
        <time>2021-06-13T07:01:19.000Z</time>
      </trkpt>
      <trkpt lat="47.25441" lon="-2.32768">
        <ele>10.39999961853</ele>
        <time>2021-06-13T07:01:22.000Z</time>
      </trkpt>
      <trkpt lat="47.25436" lon="-2.32781">
        <ele>10.39999961853</ele>
        <time>2021-06-13T07:01:24.000Z</time>
      </trkpt>
      <trkpt lat="47.25426" lon="-2.32798">
        <ele>10.39999961853</ele>
        <time>2021-06-13T07:01:27.000Z</time>
      </trkpt>
      <trkpt lat="47.25422" lon="-2.32804">
        <ele>10.39999961853</ele>
        <time>2021-06-13T07:01:28.000Z</time>
      </trkpt>
      <trkpt lat="47.2539" lon="-2.32846">
        <ele>10.39999961853</ele>
        <time>2021-06-13T07:01:35.000Z</time>
      </trkpt>
      <trkpt lat="47.25346" lon="-2.32893">
        <ele>10.39999961853</ele>
        <time>2021-06-13T07:01:44.000Z</time>
      </trkpt>
      <trkpt lat="47.2532" lon="-2.32917">
        <ele>10.39999961853</ele>
        <time>2021-06-13T07:01:49.000Z</time>
      </trkpt>
      <trkpt lat="47.25311" lon="-2.32928">
        <ele>10.39999961853</ele>
        <time>2021-06-13T07:01:51.000Z</time>
      </trkpt>
      <trkpt lat="47.25308" lon="-2.32949">
        <ele>10.39999961853</ele>
        <time>2021-06-13T07:01:54.000Z</time>
      </trkpt>
      <trkpt lat="47.25311" lon="-2.32963">
        <ele>10.39999961853</ele>
        <time>2021-06-13T07:01:56.000Z</time>
      </trkpt>
      <trkpt lat="47.25313" lon="-2.3297">
        <ele>10.39999961853</ele>
        <time>2021-06-13T07:01:57.000Z</time>
      </trkpt>
      <trkpt lat="47.25316" lon="-2.32977">
        <ele>10.39999961853</ele>
        <time>2021-06-13T07:01:58.000Z</time>
      </trkpt>
      <trkpt lat="47.25332" lon="-2.33019">
        <ele>10.39999961853</ele>
        <time>2021-06-13T07:02:04.000Z</time>
      </trkpt>
      <trkpt lat="47.25335" lon="-2.33025">
        <ele>10.39999961853</ele>
        <time>2021-06-13T07:02:05.000Z</time>
      </trkpt>
      <trkpt lat="47.25355" lon="-2.33072">
        <ele>10.39999961853</ele>
        <time>2021-06-13T07:02:13.000Z</time>
      </trkpt>
      <trkpt lat="47.25363" lon="-2.33091">
        <ele>10.39999961853</ele>
        <time>2021-06-13T07:02:18.000Z</time>
      </trkpt>
      <trkpt lat="47.25363" lon="-2.33092">
        <ele>10.39999961853</ele>
        <time>2021-06-13T07:02:21.000Z</time>
      </trkpt>
      <trkpt lat="47.25366" lon="-2.33091">
        <ele>18.39999961853</ele>
        <time>2021-06-13T07:05:57.000Z</time>
      </trkpt>
      <trkpt lat="47.25367" lon="-2.33093">
        <ele>18.39999961853</ele>
        <time>2021-06-13T07:05:58.000Z</time>
      </trkpt>
      <trkpt lat="47.25371" lon="-2.33099">
        <ele>18.39999961853</ele>
        <time>2021-06-13T07:06:01.000Z</time>
      </trkpt>
      <trkpt lat="47.25375" lon="-2.33109">
        <ele>18.39999961853</ele>
        <time>2021-06-13T07:06:04.000Z</time>
      </trkpt>
      <trkpt lat="47.25379" lon="-2.33124">
        <ele>18.39999961853</ele>
        <time>2021-06-13T07:06:07.000Z</time>
      </trkpt>
      <trkpt lat="47.25382" lon="-2.33129">
        <ele>18.39999961853</ele>
        <time>2021-06-13T07:06:08.000Z</time>
      </trkpt>
      <trkpt lat="47.25394" lon="-2.3313">
        <ele>19</ele>
        <time>2021-06-13T07:06:11.000Z</time>
      </trkpt>
      <trkpt lat="47.25398" lon="-2.33127">
        <ele>19.39999961853</ele>
        <time>2021-06-13T07:06:12.000Z</time>
      </trkpt>
      <trkpt lat="47.25402" lon="-2.33125">
        <ele>20</ele>
        <time>2021-06-13T07:06:13.000Z</time>
      </trkpt>
      <trkpt lat="47.25407" lon="-2.33123">
        <ele>20.39999961853</ele>
        <time>2021-06-13T07:06:14.000Z</time>
      </trkpt>
      <trkpt lat="47.25411" lon="-2.33121">
        <ele>20.799999237061</ele>
        <time>2021-06-13T07:06:15.000Z</time>
      </trkpt>
      <trkpt lat="47.25425" lon="-2.33116">
        <ele>20.799999237061</ele>
        <time>2021-06-13T07:06:18.000Z</time>
      </trkpt>
      <trkpt lat="47.2545" lon="-2.33105">
        <ele>20.799999237061</ele>
        <time>2021-06-13T07:06:23.000Z</time>
      </trkpt>
      <trkpt lat="47.25484" lon="-2.33089">
        <ele>20.799999237061</ele>
        <time>2021-06-13T07:06:30.000Z</time>
      </trkpt>
      <trkpt lat="47.25488" lon="-2.33086">
        <ele>20.799999237061</ele>
        <time>2021-06-13T07:06:31.000Z</time>
      </trkpt>
      <trkpt lat="47.25502" lon="-2.3307">
        <ele>20.799999237061</ele>
        <time>2021-06-13T07:06:35.000Z</time>
      </trkpt>
      <trkpt lat="47.25521" lon="-2.3305">
        <ele>20.799999237061</ele>
        <time>2021-06-13T07:06:40.000Z</time>
      </trkpt>
      <trkpt lat="47.2553" lon="-2.33045">
        <ele>20.799999237061</ele>
        <time>2021-06-13T07:06:42.000Z</time>
      </trkpt>
      <trkpt lat="47.2554" lon="-2.33043">
        <ele>20.799999237061</ele>
        <time>2021-06-13T07:06:44.000Z</time>
      </trkpt>
      <trkpt lat="47.25562" lon="-2.33037">
        <ele>20.799999237061</ele>
        <time>2021-06-13T07:06:49.000Z</time>
      </trkpt>
      <trkpt lat="47.25566" lon="-2.33036">
        <ele>20.799999237061</ele>
        <time>2021-06-13T07:06:50.000Z</time>
      </trkpt>
      <trkpt lat="47.25578" lon="-2.33033">
        <ele>21.39999961853</ele>
        <time>2021-06-13T07:06:53.000Z</time>
      </trkpt>
      <trkpt lat="47.25582" lon="-2.33032">
        <ele>21.799999237061</ele>
        <time>2021-06-13T07:06:54.000Z</time>
      </trkpt>
      <trkpt lat="47.25586" lon="-2.33032">
        <ele>22.200000762939</ele>
        <time>2021-06-13T07:06:55.000Z</time>
      </trkpt>
      <trkpt lat="47.25591" lon="-2.33031">
        <ele>22.60000038147</ele>
        <time>2021-06-13T07:06:56.000Z</time>
      </trkpt>
      <trkpt lat="47.25595" lon="-2.3303">
        <ele>23</ele>
        <time>2021-06-13T07:06:57.000Z</time>
      </trkpt>
      <trkpt lat="47.2561" lon="-2.33028">
        <ele>23</ele>
        <time>2021-06-13T07:07:01.000Z</time>
      </trkpt>
      <trkpt lat="47.25619" lon="-2.33018">
        <ele>23</ele>
        <time>2021-06-13T07:07:04.000Z</time>
      </trkpt>
      <trkpt lat="47.2562" lon="-2.33008">
        <ele>23.60000038147</ele>
        <time>2021-06-13T07:07:06.000Z</time>
      </trkpt>
      <trkpt lat="47.2562" lon="-2.33002">
        <ele>24</ele>
        <time>2021-06-13T07:07:07.000Z</time>
      </trkpt>
      <trkpt lat="47.25619" lon="-2.32997">
        <ele>24.39999961853</ele>
        <time>2021-06-13T07:07:08.000Z</time>
      </trkpt>
      <trkpt lat="47.25618" lon="-2.32991">
        <ele>25</ele>
        <time>2021-06-13T07:07:09.000Z</time>
      </trkpt>
      <trkpt lat="47.25616" lon="-2.32985">
        <ele>25.39999961853</ele>
        <time>2021-06-13T07:07:10.000Z</time>
      </trkpt>
      <trkpt lat="47.25612" lon="-2.32962">
        <ele>25.39999961853</ele>
        <time>2021-06-13T07:07:14.000Z</time>
      </trkpt>
      <trkpt lat="47.25611" lon="-2.32956">
        <ele>25.39999961853</ele>
        <time>2021-06-13T07:07:15.000Z</time>
      </trkpt>
      <trkpt lat="47.25603" lon="-2.32907">
        <ele>25.39999961853</ele>
        <time>2021-06-13T07:07:23.000Z</time>
      </trkpt>
      <trkpt lat="47.25601" lon="-2.32894">
        <ele>25.799999237061</ele>
        <time>2021-06-13T07:07:25.000Z</time>
      </trkpt>
      <trkpt lat="47.256" lon="-2.32887">
        <ele>26.200000762939</ele>
        <time>2021-06-13T07:07:26.000Z</time>
      </trkpt>
      <trkpt lat="47.25599" lon="-2.3288">
        <ele>26.60000038147</ele>
        <time>2021-06-13T07:07:27.000Z</time>
      </trkpt>
      <trkpt lat="47.25598" lon="-2.32874">
        <ele>27</ele>
        <time>2021-06-13T07:07:28.000Z</time>
      </trkpt>
      <trkpt lat="47.25597" lon="-2.32868">
        <ele>27.39999961853</ele>
        <time>2021-06-13T07:07:29.000Z</time>
      </trkpt>
      <trkpt lat="47.25596" lon="-2.32862">
        <ele>27.39999961853</ele>
        <time>2021-06-13T07:07:30.000Z</time>
      </trkpt>
      <trkpt lat="47.25594" lon="-2.32834">
        <ele>27.39999961853</ele>
        <time>2021-06-13T07:07:35.000Z</time>
      </trkpt>
      <trkpt lat="47.25594" lon="-2.32827">
        <ele>27.39999961853</ele>
        <time>2021-06-13T07:07:36.000Z</time>
      </trkpt>
      <trkpt lat="47.25602" lon="-2.32783">
        <ele>27.39999961853</ele>
        <time>2021-06-13T07:07:43.000Z</time>
      </trkpt>
      <trkpt lat="47.25605" lon="-2.32737">
        <ele>27.39999961853</ele>
        <time>2021-06-13T07:07:50.000Z</time>
      </trkpt>
      <trkpt lat="47.25605" lon="-2.32688">
        <ele>27.39999961853</ele>
        <time>2021-06-13T07:07:58.000Z</time>
      </trkpt>
      <trkpt lat="47.25604" lon="-2.32672">
        <ele>27.39999961853</ele>
        <time>2021-06-13T07:08:02.000Z</time>
      </trkpt>
      <trkpt lat="47.25613" lon="-2.32661">
        <ele>27.39999961853</ele>
        <time>2021-06-13T07:08:06.000Z</time>
      </trkpt>
      <trkpt lat="47.25625" lon="-2.32654">
        <ele>27.39999961853</ele>
        <time>2021-06-13T07:08:09.000Z</time>
      </trkpt>
      <trkpt lat="47.25635" lon="-2.3265">
        <ele>27.39999961853</ele>
        <time>2021-06-13T07:08:11.000Z</time>
      </trkpt>
      <trkpt lat="47.25683" lon="-2.3263">
        <ele>27.39999961853</ele>
        <time>2021-06-13T07:08:20.000Z</time>
      </trkpt>
      <trkpt lat="47.25702" lon="-2.32619">
        <ele>27.39999961853</ele>
        <time>2021-06-13T07:08:24.000Z</time>
      </trkpt>
      <trkpt lat="47.25705" lon="-2.32617">
        <ele>27.39999961853</ele>
        <time>2021-06-13T07:08:25.000Z</time>
      </trkpt>
      <trkpt lat="47.25713" lon="-2.32599">
        <ele>27.39999961853</ele>
        <time>2021-06-13T07:08:29.000Z</time>
      </trkpt>
      <trkpt lat="47.25709" lon="-2.32586">
        <ele>27.39999961853</ele>
        <time>2021-06-13T07:08:31.000Z</time>
      </trkpt>
      <trkpt lat="47.25705" lon="-2.32572">
        <ele>27.39999961853</ele>
        <time>2021-06-13T07:08:33.000Z</time>
      </trkpt>
      <trkpt lat="47.25687" lon="-2.32522">
        <ele>27.39999961853</ele>
        <time>2021-06-13T07:08:40.000Z</time>
      </trkpt>
      <trkpt lat="47.25676" lon="-2.32491">
        <ele>27</ele>
        <time>2021-06-13T07:08:44.000Z</time>
      </trkpt>
      <trkpt lat="47.25674" lon="-2.32483">
        <ele>26.60000038147</ele>
        <time>2021-06-13T07:08:45.000Z</time>
      </trkpt>
      <trkpt lat="47.25671" lon="-2.32476">
        <ele>26.200000762939</ele>
        <time>2021-06-13T07:08:46.000Z</time>
      </trkpt>
      <trkpt lat="47.25669" lon="-2.32468">
        <ele>25.799999237061</ele>
        <time>2021-06-13T07:08:47.000Z</time>
      </trkpt>
      <trkpt lat="47.25667" lon="-2.3246">
        <ele>25.39999961853</ele>
        <time>2021-06-13T07:08:48.000Z</time>
      </trkpt>
      <trkpt lat="47.25661" lon="-2.32436">
        <ele>25.39999961853</ele>
        <time>2021-06-13T07:08:51.000Z</time>
      </trkpt>
      <trkpt lat="47.25663" lon="-2.32417">
        <ele>25.39999961853</ele>
        <time>2021-06-13T07:08:54.000Z</time>
      </trkpt>
      <trkpt lat="47.25666" lon="-2.32416">
        <ele>25</ele>
        <time>2021-06-13T07:08:55.000Z</time>
      </trkpt>
      <trkpt lat="47.2567" lon="-2.32416">
        <ele>24.60000038147</ele>
        <time>2021-06-13T07:08:56.000Z</time>
      </trkpt>
      <trkpt lat="47.25675" lon="-2.32417">
        <ele>24.200000762939</ele>
        <time>2021-06-13T07:08:57.000Z</time>
      </trkpt>
      <trkpt lat="47.25681" lon="-2.32418">
        <ele>23.799999237061</ele>
        <time>2021-06-13T07:08:58.000Z</time>
      </trkpt>
      <trkpt lat="47.25687" lon="-2.32418">
        <ele>23.39999961853</ele>
        <time>2021-06-13T07:08:59.000Z</time>
      </trkpt>
      <trkpt lat="47.25693" lon="-2.3242">
        <ele>23.39999961853</ele>
        <time>2021-06-13T07:09:00.000Z</time>
      </trkpt>
      <trkpt lat="47.257" lon="-2.32421">
        <ele>23.39999961853</ele>
        <time>2021-06-13T07:09:01.000Z</time>
      </trkpt>
      <trkpt lat="47.25743" lon="-2.32422">
        <ele>23.39999961853</ele>
        <time>2021-06-13T07:09:08.000Z</time>
      </trkpt>
      <trkpt lat="47.25755" lon="-2.32421">
        <ele>23.39999961853</ele>
        <time>2021-06-13T07:09:10.000Z</time>
      </trkpt>
      <trkpt lat="47.25769" lon="-2.32415">
        <ele>23.39999961853</ele>
        <time>2021-06-13T07:09:13.000Z</time>
      </trkpt>
      <trkpt lat="47.25777" lon="-2.32413">
        <ele>23.39999961853</ele>
        <time>2021-06-13T07:09:15.000Z</time>
      </trkpt>
      <trkpt lat="47.25784" lon="-2.3242">
        <ele>23.39999961853</ele>
        <time>2021-06-13T07:09:17.000Z</time>
      </trkpt>
      <trkpt lat="47.25791" lon="-2.32432">
        <ele>23.39999961853</ele>
        <time>2021-06-13T07:09:19.000Z</time>
      </trkpt>
      <trkpt lat="47.25799" lon="-2.32444">
        <ele>23.39999961853</ele>
        <time>2021-06-13T07:09:21.000Z</time>
      </trkpt>
      <trkpt lat="47.25822" lon="-2.3246">
        <ele>23.39999961853</ele>
        <time>2021-06-13T07:09:25.000Z</time>
      </trkpt>
      <trkpt lat="47.25852" lon="-2.32472">
        <ele>23.39999961853</ele>
        <time>2021-06-13T07:09:30.000Z</time>
      </trkpt>
      <trkpt lat="47.25858" lon="-2.32473">
        <ele>23.39999961853</ele>
        <time>2021-06-13T07:09:31.000Z</time>
      </trkpt>
      <trkpt lat="47.2587" lon="-2.32474">
        <ele>23.39999961853</ele>
        <time>2021-06-13T07:09:33.000Z</time>
      </trkpt>
      <trkpt lat="47.25886" lon="-2.32472">
        <ele>23.39999961853</ele>
        <time>2021-06-13T07:09:36.000Z</time>
      </trkpt>
      <trkpt lat="47.259" lon="-2.32472">
        <ele>23.39999961853</ele>
        <time>2021-06-13T07:09:39.000Z</time>
      </trkpt>
      <trkpt lat="47.25907" lon="-2.32465">
        <ele>23.39999961853</ele>
        <time>2021-06-13T07:09:41.000Z</time>
      </trkpt>
      <trkpt lat="47.25914" lon="-2.32453">
        <ele>23.39999961853</ele>
        <time>2021-06-13T07:09:43.000Z</time>
      </trkpt>
      <trkpt lat="47.25926" lon="-2.32435">
        <ele>23.39999961853</ele>
        <time>2021-06-13T07:09:46.000Z</time>
      </trkpt>
      <trkpt lat="47.25961" lon="-2.32387">
        <ele>23.39999961853</ele>
        <time>2021-06-13T07:09:54.000Z</time>
      </trkpt>
      <trkpt lat="47.25995" lon="-2.32342">
        <ele>23.39999961853</ele>
        <time>2021-06-13T07:10:02.000Z</time>
      </trkpt>
      <trkpt lat="47.26017" lon="-2.32312">
        <ele>23.39999961853</ele>
        <time>2021-06-13T07:10:08.000Z</time>
      </trkpt>
      <trkpt lat="47.26047" lon="-2.32277">
        <ele>23.39999961853</ele>
        <time>2021-06-13T07:10:15.000Z</time>
      </trkpt>
      <trkpt lat="47.26067" lon="-2.32254">
        <ele>23.39999961853</ele>
        <time>2021-06-13T07:10:21.000Z</time>
      </trkpt>
      <trkpt lat="47.26085" lon="-2.3223">
        <ele>23.39999961853</ele>
        <time>2021-06-13T07:10:26.000Z</time>
      </trkpt>
      <trkpt lat="47.2609" lon="-2.32225">
        <ele>23.39999961853</ele>
        <time>2021-06-13T07:10:27.000Z</time>
      </trkpt>
      <trkpt lat="47.26105" lon="-2.32202">
        <ele>23.39999961853</ele>
        <time>2021-06-13T07:10:31.000Z</time>
      </trkpt>
      <trkpt lat="47.26108" lon="-2.32195">
        <ele>23.39999961853</ele>
        <time>2021-06-13T07:10:32.000Z</time>
      </trkpt>
      <trkpt lat="47.26117" lon="-2.32168">
        <ele>23.39999961853</ele>
        <time>2021-06-13T07:10:36.000Z</time>
      </trkpt>
      <trkpt lat="47.26123" lon="-2.32154">
        <ele>23.799999237061</ele>
        <time>2021-06-13T07:10:38.000Z</time>
      </trkpt>
      <trkpt lat="47.26125" lon="-2.32148">
        <ele>24.200000762939</ele>
        <time>2021-06-13T07:10:39.000Z</time>
      </trkpt>
      <trkpt lat="47.26128" lon="-2.3214">
        <ele>24.60000038147</ele>
        <time>2021-06-13T07:10:40.000Z</time>
      </trkpt>
      <trkpt lat="47.26131" lon="-2.32133">
        <ele>25</ele>
        <time>2021-06-13T07:10:41.000Z</time>
      </trkpt>
      <trkpt lat="47.26134" lon="-2.32125">
        <ele>25.39999961853</ele>
        <time>2021-06-13T07:10:42.000Z</time>
      </trkpt>
      <trkpt lat="47.26153" lon="-2.32054">
        <ele>25.39999961853</ele>
        <time>2021-06-13T07:10:51.000Z</time>
      </trkpt>
      <trkpt lat="47.26162" lon="-2.32026">
        <ele>25.39999961853</ele>
        <time>2021-06-13T07:10:56.000Z</time>
      </trkpt>
      <trkpt lat="47.26164" lon="-2.32024">
        <ele>25.39999961853</ele>
        <time>2021-06-13T07:10:57.000Z</time>
      </trkpt>
      <trkpt lat="47.26171" lon="-2.32022">
        <ele>25.39999961853</ele>
        <time>2021-06-13T07:11:00.000Z</time>
      </trkpt>
      <trkpt lat="47.26186" lon="-2.32023">
        <ele>25.39999961853</ele>
        <time>2021-06-13T07:11:06.000Z</time>
      </trkpt>
      <trkpt lat="47.26198" lon="-2.32022">
        <ele>25.39999961853</ele>
        <time>2021-06-13T07:11:11.000Z</time>
      </trkpt>
      <trkpt lat="47.26208" lon="-2.32012">
        <ele>25.39999961853</ele>
        <time>2021-06-13T07:11:16.000Z</time>
      </trkpt>
      <trkpt lat="47.26223" lon="-2.31992">
        <ele>25.39999961853</ele>
        <time>2021-06-13T07:11:22.000Z</time>
      </trkpt>
      <trkpt lat="47.26236" lon="-2.31976">
        <ele>25.39999961853</ele>
        <time>2021-06-13T07:11:27.000Z</time>
      </trkpt>
      <trkpt lat="47.26253" lon="-2.31941">
        <ele>25.39999961853</ele>
        <time>2021-06-13T07:11:33.000Z</time>
      </trkpt>
      <trkpt lat="47.26266" lon="-2.31908">
        <ele>25.39999961853</ele>
        <time>2021-06-13T07:11:39.000Z</time>
      </trkpt>
      <trkpt lat="47.26274" lon="-2.31906">
        <ele>25.799999237061</ele>
        <time>2021-06-13T07:11:40.000Z</time>
      </trkpt>
      <trkpt lat="47.2628" lon="-2.31904">
        <ele>26.200000762939</ele>
        <time>2021-06-13T07:11:41.000Z</time>
      </trkpt>
      <trkpt lat="47.26283" lon="-2.31903">
        <ele>26.60000038147</ele>
        <time>2021-06-13T07:11:42.000Z</time>
      </trkpt>
      <trkpt lat="47.26287" lon="-2.31902">
        <ele>27</ele>
        <time>2021-06-13T07:11:43.000Z</time>
      </trkpt>
      <trkpt lat="47.26289" lon="-2.31905">
        <ele>27.39999961853</ele>
        <time>2021-06-13T07:11:44.000Z</time>
      </trkpt>
      <trkpt lat="47.26291" lon="-2.31919">
        <ele>27.39999961853</ele>
        <time>2021-06-13T07:11:47.000Z</time>
      </trkpt>
      <trkpt lat="47.26294" lon="-2.31931">
        <ele>27.39999961853</ele>
        <time>2021-06-13T07:11:50.000Z</time>
      </trkpt>
      <trkpt lat="47.26297" lon="-2.31932">
        <ele>27.39999961853</ele>
        <time>2021-06-13T07:11:51.000Z</time>
      </trkpt>
      <trkpt lat="47.26311" lon="-2.31929">
        <ele>27.39999961853</ele>
        <time>2021-06-13T07:11:55.000Z</time>
      </trkpt>
      <trkpt lat="47.26332" lon="-2.31931">
        <ele>27.39999961853</ele>
        <time>2021-06-13T07:11:59.000Z</time>
      </trkpt>
      <trkpt lat="47.26336" lon="-2.31934">
        <ele>27.39999961853</ele>
        <time>2021-06-13T07:12:00.000Z</time>
      </trkpt>
      <trkpt lat="47.26346" lon="-2.31948">
        <ele>27.39999961853</ele>
        <time>2021-06-13T07:12:03.000Z</time>
      </trkpt>
      <trkpt lat="47.26349" lon="-2.31957">
        <ele>27.799999237061</ele>
        <time>2021-06-13T07:12:05.000Z</time>
      </trkpt>
      <trkpt lat="47.26351" lon="-2.31961">
        <ele>28.200000762939</ele>
        <time>2021-06-13T07:12:06.000Z</time>
      </trkpt>
      <trkpt lat="47.26355" lon="-2.31965">
        <ele>28.799999237061</ele>
        <time>2021-06-13T07:12:07.000Z</time>
      </trkpt>
      <trkpt lat="47.2636" lon="-2.31968">
        <ele>29.200000762939</ele>
        <time>2021-06-13T07:12:08.000Z</time>
      </trkpt>
      <trkpt lat="47.26364" lon="-2.31971">
        <ele>29.60000038147</ele>
        <time>2021-06-13T07:12:09.000Z</time>
      </trkpt>
      <trkpt lat="47.26369" lon="-2.31973">
        <ele>29.60000038147</ele>
        <time>2021-06-13T07:12:10.000Z</time>
      </trkpt>
      <trkpt lat="47.26381" lon="-2.31977">
        <ele>29.60000038147</ele>
        <time>2021-06-13T07:12:13.000Z</time>
      </trkpt>
      <trkpt lat="47.26385" lon="-2.31978">
        <ele>30</ele>
        <time>2021-06-13T07:12:14.000Z</time>
      </trkpt>
      <trkpt lat="47.26389" lon="-2.3198">
        <ele>30.39999961853</ele>
        <time>2021-06-13T07:12:15.000Z</time>
      </trkpt>
      <trkpt lat="47.26393" lon="-2.31981">
        <ele>30.799999237061</ele>
        <time>2021-06-13T07:12:16.000Z</time>
      </trkpt>
      <trkpt lat="47.26396" lon="-2.31982">
        <ele>31.39999961853</ele>
        <time>2021-06-13T07:12:17.000Z</time>
      </trkpt>
      <trkpt lat="47.264" lon="-2.31983">
        <ele>31.799999237061</ele>
        <time>2021-06-13T07:12:18.000Z</time>
      </trkpt>
      <trkpt lat="47.26414" lon="-2.31986">
        <ele>32.200000762939</ele>
        <time>2021-06-13T07:12:22.000Z</time>
      </trkpt>
      <trkpt lat="47.26417" lon="-2.31986">
        <ele>32.599998474121</ele>
        <time>2021-06-13T07:12:23.000Z</time>
      </trkpt>
      <trkpt lat="47.2642" lon="-2.31986">
        <ele>33</ele>
        <time>2021-06-13T07:12:24.000Z</time>
      </trkpt>
      <trkpt lat="47.26423" lon="-2.31987">
        <ele>33.400001525879</ele>
        <time>2021-06-13T07:12:25.000Z</time>
      </trkpt>
      <trkpt lat="47.26426" lon="-2.31986">
        <ele>33.799999237061</ele>
        <time>2021-06-13T07:12:26.000Z</time>
      </trkpt>
      <trkpt lat="47.26443" lon="-2.31988">
        <ele>34.200000762939</ele>
        <time>2021-06-13T07:12:31.000Z</time>
      </trkpt>
      <trkpt lat="47.26445" lon="-2.31987">
        <ele>34.599998474121</ele>
        <time>2021-06-13T07:12:32.000Z</time>
      </trkpt>
      <trkpt lat="47.26448" lon="-2.31987">
        <ele>35</ele>
        <time>2021-06-13T07:12:33.000Z</time>
      </trkpt>
      <trkpt lat="47.26452" lon="-2.31988">
        <ele>35.400001525879</ele>
        <time>2021-06-13T07:12:34.000Z</time>
      </trkpt>
      <trkpt lat="47.26455" lon="-2.31988">
        <ele>36</ele>
        <time>2021-06-13T07:12:35.000Z</time>
      </trkpt>
      <trkpt lat="47.26463" lon="-2.31987">
        <ele>36</ele>
        <time>2021-06-13T07:12:38.000Z</time>
      </trkpt>
      <trkpt lat="47.26469" lon="-2.31986">
        <ele>36.400001525879</ele>
        <time>2021-06-13T07:12:40.000Z</time>
      </trkpt>
      <trkpt lat="47.26473" lon="-2.31986">
        <ele>36.799999237061</ele>
        <time>2021-06-13T07:12:41.000Z</time>
      </trkpt>
      <trkpt lat="47.26478" lon="-2.31986">
        <ele>37.200000762939</ele>
        <time>2021-06-13T07:12:42.000Z</time>
      </trkpt>
      <trkpt lat="47.26481" lon="-2.31986">
        <ele>37.599998474121</ele>
        <time>2021-06-13T07:12:43.000Z</time>
      </trkpt>
      <trkpt lat="47.26485" lon="-2.31986">
        <ele>38</ele>
        <time>2021-06-13T07:12:44.000Z</time>
      </trkpt>
      <trkpt lat="47.26495" lon="-2.31986">
        <ele>38.400001525879</ele>
        <time>2021-06-13T07:12:47.000Z</time>
      </trkpt>
      <trkpt lat="47.26497" lon="-2.31986">
        <ele>38.799999237061</ele>
        <time>2021-06-13T07:12:48.000Z</time>
      </trkpt>
      <trkpt lat="47.265" lon="-2.31987">
        <ele>39.400001525879</ele>
        <time>2021-06-13T07:12:49.000Z</time>
      </trkpt>
      <trkpt lat="47.26503" lon="-2.31988">
        <ele>39.799999237061</ele>
        <time>2021-06-13T07:12:50.000Z</time>
      </trkpt>
      <trkpt lat="47.26506" lon="-2.31989">
        <ele>40.200000762939</ele>
        <time>2021-06-13T07:12:51.000Z</time>
      </trkpt>
      <trkpt lat="47.26518" lon="-2.31999">
        <ele>40.599998474121</ele>
        <time>2021-06-13T07:12:55.000Z</time>
      </trkpt>
      <trkpt lat="47.26522" lon="-2.32001">
        <ele>41</ele>
        <time>2021-06-13T07:12:56.000Z</time>
      </trkpt>
      <trkpt lat="47.26524" lon="-2.32004">
        <ele>41.400001525879</ele>
        <time>2021-06-13T07:12:57.000Z</time>
      </trkpt>
      <trkpt lat="47.26526" lon="-2.32007">
        <ele>42</ele>
        <time>2021-06-13T07:12:58.000Z</time>
      </trkpt>
      <trkpt lat="47.26528" lon="-2.3201">
        <ele>42.400001525879</ele>
        <time>2021-06-13T07:12:59.000Z</time>
      </trkpt>
      <trkpt lat="47.26531" lon="-2.32018">
        <ele>42.400001525879</ele>
        <time>2021-06-13T07:13:01.000Z</time>
      </trkpt>
      <trkpt lat="47.26539" lon="-2.32026">
        <ele>42.400001525879</ele>
        <time>2021-06-13T07:13:04.000Z</time>
      </trkpt>
      <trkpt lat="47.26542" lon="-2.32026">
        <ele>42.400001525879</ele>
        <time>2021-06-13T07:13:05.000Z</time>
      </trkpt>
      <trkpt lat="47.26546" lon="-2.32027">
        <ele>42.799999237061</ele>
        <time>2021-06-13T07:13:06.000Z</time>
      </trkpt>
      <trkpt lat="47.26549" lon="-2.32027">
        <ele>43.200000762939</ele>
        <time>2021-06-13T07:13:07.000Z</time>
      </trkpt>
      <trkpt lat="47.26553" lon="-2.32026">
        <ele>43.599998474121</ele>
        <time>2021-06-13T07:13:08.000Z</time>
      </trkpt>
      <trkpt lat="47.26558" lon="-2.32026">
        <ele>44</ele>
        <time>2021-06-13T07:13:09.000Z</time>
      </trkpt>
      <trkpt lat="47.26562" lon="-2.32026">
        <ele>44.400001525879</ele>
        <time>2021-06-13T07:13:10.000Z</time>
      </trkpt>
      <trkpt lat="47.26566" lon="-2.32025">
        <ele>44.400001525879</ele>
        <time>2021-06-13T07:13:11.000Z</time>
      </trkpt>
      <trkpt lat="47.26591" lon="-2.32018">
        <ele>44.799999237061</ele>
        <time>2021-06-13T07:13:17.000Z</time>
      </trkpt>
      <trkpt lat="47.26595" lon="-2.32017">
        <ele>45.200000762939</ele>
        <time>2021-06-13T07:13:18.000Z</time>
      </trkpt>
      <trkpt lat="47.266" lon="-2.32016">
        <ele>45.599998474121</ele>
        <time>2021-06-13T07:13:19.000Z</time>
      </trkpt>
      <trkpt lat="47.26604" lon="-2.32015">
        <ele>46</ele>
        <time>2021-06-13T07:13:20.000Z</time>
      </trkpt>
      <trkpt lat="47.26609" lon="-2.32015">
        <ele>46.400001525879</ele>
        <time>2021-06-13T07:13:21.000Z</time>
      </trkpt>
      <trkpt lat="47.26621" lon="-2.3201">
        <ele>46.400001525879</ele>
        <time>2021-06-13T07:13:24.000Z</time>
      </trkpt>
      <trkpt lat="47.26637" lon="-2.32006">
        <ele>46.400001525879</ele>
        <time>2021-06-13T07:13:30.000Z</time>
      </trkpt>
      <trkpt lat="47.26639" lon="-2.32006">
        <ele>46.400001525879</ele>
        <time>2021-06-13T07:13:33.000Z</time>
      </trkpt>
      <trkpt lat="47.2664" lon="-2.32">
        <ele>50.599998474121</ele>
        <time>2021-06-13T07:15:36.000Z</time>
      </trkpt>
      <trkpt lat="47.26641" lon="-2.31977">
        <ele>50.599998474121</ele>
        <time>2021-06-13T07:15:41.000Z</time>
      </trkpt>
      <trkpt lat="47.26641" lon="-2.31971">
        <ele>50.599998474121</ele>
        <time>2021-06-13T07:15:42.000Z</time>
      </trkpt>
      <trkpt lat="47.26644" lon="-2.31958">
        <ele>51</ele>
        <time>2021-06-13T07:15:44.000Z</time>
      </trkpt>
      <trkpt lat="47.26646" lon="-2.31951">
        <ele>51.400001525879</ele>
        <time>2021-06-13T07:15:45.000Z</time>
      </trkpt>
      <trkpt lat="47.26648" lon="-2.31944">
        <ele>51.799999237061</ele>
        <time>2021-06-13T07:15:46.000Z</time>
      </trkpt>
      <trkpt lat="47.26651" lon="-2.31938">
        <ele>52.200000762939</ele>
        <time>2021-06-13T07:15:47.000Z</time>
      </trkpt>
      <trkpt lat="47.26655" lon="-2.31933">
        <ele>52.599998474121</ele>
        <time>2021-06-13T07:15:48.000Z</time>
      </trkpt>
      <trkpt lat="47.26664" lon="-2.31923">
        <ele>52.599998474121</ele>
        <time>2021-06-13T07:15:50.000Z</time>
      </trkpt>
      <trkpt lat="47.26698" lon="-2.31891">
        <ele>52.599998474121</ele>
        <time>2021-06-13T07:15:57.000Z</time>
      </trkpt>
      <trkpt lat="47.26735" lon="-2.31854">
        <ele>52.599998474121</ele>
        <time>2021-06-13T07:16:05.000Z</time>
      </trkpt>
      <trkpt lat="47.26771" lon="-2.31825">
        <ele>52.599998474121</ele>
        <time>2021-06-13T07:16:12.000Z</time>
      </trkpt>
      <trkpt lat="47.26807" lon="-2.31803">
        <ele>52.599998474121</ele>
        <time>2021-06-13T07:16:19.000Z</time>
      </trkpt>
      <trkpt lat="47.26814" lon="-2.31803">
        <ele>52.599998474121</ele>
        <time>2021-06-13T07:16:21.000Z</time>
      </trkpt>
      <trkpt lat="47.26815" lon="-2.31808">
        <ele>52.599998474121</ele>
        <time>2021-06-13T07:16:22.000Z</time>
      </trkpt>
      <trkpt lat="47.26818" lon="-2.31829">
        <ele>52.599998474121</ele>
        <time>2021-06-13T07:16:26.000Z</time>
      </trkpt>
      <trkpt lat="47.26828" lon="-2.31859">
        <ele>52.599998474121</ele>
        <time>2021-06-13T07:16:30.000Z</time>
      </trkpt>
      <trkpt lat="47.26832" lon="-2.31868">
        <ele>52.200000762939</ele>
        <time>2021-06-13T07:16:31.000Z</time>
      </trkpt>
      <trkpt lat="47.26836" lon="-2.31877">
        <ele>51.799999237061</ele>
        <time>2021-06-13T07:16:32.000Z</time>
      </trkpt>
      <trkpt lat="47.26841" lon="-2.31885">
        <ele>51.400001525879</ele>
        <time>2021-06-13T07:16:33.000Z</time>
      </trkpt>
      <trkpt lat="47.26848" lon="-2.3189">
        <ele>50.799999237061</ele>
        <time>2021-06-13T07:16:34.000Z</time>
      </trkpt>
      <trkpt lat="47.26855" lon="-2.31894">
        <ele>50.400001525879</ele>
        <time>2021-06-13T07:16:35.000Z</time>
      </trkpt>
      <trkpt lat="47.2687" lon="-2.31897">
        <ele>50.400001525879</ele>
        <time>2021-06-13T07:16:37.000Z</time>
      </trkpt>
      <trkpt lat="47.26876" lon="-2.31901">
        <ele>50.400001525879</ele>
        <time>2021-06-13T07:16:38.000Z</time>
      </trkpt>
      <trkpt lat="47.26886" lon="-2.31909">
        <ele>50</ele>
        <time>2021-06-13T07:16:40.000Z</time>
      </trkpt>
      <trkpt lat="47.26891" lon="-2.31915">
        <ele>49.599998474121</ele>
        <time>2021-06-13T07:16:41.000Z</time>
      </trkpt>
      <trkpt lat="47.26896" lon="-2.31921">
        <ele>49.200000762939</ele>
        <time>2021-06-13T07:16:42.000Z</time>
      </trkpt>
      <trkpt lat="47.269" lon="-2.31927">
        <ele>48.599998474121</ele>
        <time>2021-06-13T07:16:43.000Z</time>
      </trkpt>
      <trkpt lat="47.26905" lon="-2.31934">
        <ele>48.200000762939</ele>
        <time>2021-06-13T07:16:44.000Z</time>
      </trkpt>
      <trkpt lat="47.2691" lon="-2.3194">
        <ele>48.200000762939</ele>
        <time>2021-06-13T07:16:45.000Z</time>
      </trkpt>
      <trkpt lat="47.26921" lon="-2.31952">
        <ele>47.799999237061</ele>
        <time>2021-06-13T07:16:47.000Z</time>
      </trkpt>
      <trkpt lat="47.26926" lon="-2.31958">
        <ele>47.400001525879</ele>
        <time>2021-06-13T07:16:48.000Z</time>
      </trkpt>
      <trkpt lat="47.26931" lon="-2.31966">
        <ele>46.799999237061</ele>
        <time>2021-06-13T07:16:49.000Z</time>
      </trkpt>
      <trkpt lat="47.26936" lon="-2.31973">
        <ele>46.400001525879</ele>
        <time>2021-06-13T07:16:50.000Z</time>
      </trkpt>
      <trkpt lat="47.26941" lon="-2.3198">
        <ele>46</ele>
        <time>2021-06-13T07:16:51.000Z</time>
      </trkpt>
      <trkpt lat="47.26946" lon="-2.31988">
        <ele>45.599998474121</ele>
        <time>2021-06-13T07:16:52.000Z</time>
      </trkpt>
      <trkpt lat="47.26952" lon="-2.31992">
        <ele>45.200000762939</ele>
        <time>2021-06-13T07:16:53.000Z</time>
      </trkpt>
      <trkpt lat="47.26958" lon="-2.31993">
        <ele>44.599998474121</ele>
        <time>2021-06-13T07:16:54.000Z</time>
      </trkpt>
      <trkpt lat="47.26964" lon="-2.31992">
        <ele>44.200000762939</ele>
        <time>2021-06-13T07:16:55.000Z</time>
      </trkpt>
      <trkpt lat="47.26971" lon="-2.31991">
        <ele>43.799999237061</ele>
        <time>2021-06-13T07:16:56.000Z</time>
      </trkpt>
      <trkpt lat="47.26977" lon="-2.31989">
        <ele>43.400001525879</ele>
        <time>2021-06-13T07:16:57.000Z</time>
      </trkpt>
      <trkpt lat="47.26983" lon="-2.31987">
        <ele>43</ele>
        <time>2021-06-13T07:16:58.000Z</time>
      </trkpt>
      <trkpt lat="47.26989" lon="-2.31985">
        <ele>42.599998474121</ele>
        <time>2021-06-13T07:16:59.000Z</time>
      </trkpt>
      <trkpt lat="47.26995" lon="-2.31983">
        <ele>42.200000762939</ele>
        <time>2021-06-13T07:17:00.000Z</time>
      </trkpt>
      <trkpt lat="47.27" lon="-2.31979">
        <ele>41.799999237061</ele>
        <time>2021-06-13T07:17:01.000Z</time>
      </trkpt>
      <trkpt lat="47.27011" lon="-2.31974">
        <ele>41.799999237061</ele>
        <time>2021-06-13T07:17:03.000Z</time>
      </trkpt>
      <trkpt lat="47.27022" lon="-2.31968">
        <ele>41.799999237061</ele>
        <time>2021-06-13T07:17:05.000Z</time>
      </trkpt>
      <trkpt lat="47.27041" lon="-2.31961">
        <ele>41.799999237061</ele>
        <time>2021-06-13T07:17:09.000Z</time>
      </trkpt>
      <trkpt lat="47.27059" lon="-2.3196">
        <ele>41.799999237061</ele>
        <time>2021-06-13T07:17:14.000Z</time>
      </trkpt>
      <trkpt lat="47.27078" lon="-2.3196">
        <ele>41.799999237061</ele>
        <time>2021-06-13T07:17:20.000Z</time>
      </trkpt>
      <trkpt lat="47.27084" lon="-2.31948">
        <ele>41.799999237061</ele>
        <time>2021-06-13T07:17:25.000Z</time>
      </trkpt>
      <trkpt lat="47.27086" lon="-2.31929">
        <ele>41.799999237061</ele>
        <time>2021-06-13T07:17:30.000Z</time>
      </trkpt>
      <trkpt lat="47.27086" lon="-2.31899">
        <ele>41.799999237061</ele>
        <time>2021-06-13T07:17:36.000Z</time>
      </trkpt>
      <trkpt lat="47.27085" lon="-2.31887">
        <ele>41.799999237061</ele>
        <time>2021-06-13T07:17:38.000Z</time>
      </trkpt>
      <trkpt lat="47.27081" lon="-2.3188">
        <ele>41.799999237061</ele>
        <time>2021-06-13T07:17:40.000Z</time>
      </trkpt>
      <trkpt lat="47.27071" lon="-2.31863">
        <ele>41.799999237061</ele>
        <time>2021-06-13T07:17:44.000Z</time>
      </trkpt>
      <trkpt lat="47.2707" lon="-2.31856">
        <ele>41.799999237061</ele>
        <time>2021-06-13T07:17:45.000Z</time>
      </trkpt>
      <trkpt lat="47.27068" lon="-2.31848">
        <ele>42.200000762939</ele>
        <time>2021-06-13T07:17:46.000Z</time>
      </trkpt>
      <trkpt lat="47.27066" lon="-2.3184">
        <ele>42.599998474121</ele>
        <time>2021-06-13T07:17:47.000Z</time>
      </trkpt>
      <trkpt lat="47.27065" lon="-2.31832">
        <ele>43</ele>
        <time>2021-06-13T07:17:48.000Z</time>
      </trkpt>
      <trkpt lat="47.27064" lon="-2.31824">
        <ele>43.400001525879</ele>
        <time>2021-06-13T07:17:49.000Z</time>
      </trkpt>
      <trkpt lat="47.27063" lon="-2.31817">
        <ele>44</ele>
        <time>2021-06-13T07:17:50.000Z</time>
      </trkpt>
      <trkpt lat="47.27061" lon="-2.31792">
        <ele>44</ele>
        <time>2021-06-13T07:17:54.000Z</time>
      </trkpt>
      <trkpt lat="47.27059" lon="-2.3178">
        <ele>44.400001525879</ele>
        <time>2021-06-13T07:17:56.000Z</time>
      </trkpt>
      <trkpt lat="47.27057" lon="-2.31773">
        <ele>44.799999237061</ele>
        <time>2021-06-13T07:17:57.000Z</time>
      </trkpt>
      <trkpt lat="47.27055" lon="-2.31767">
        <ele>45.200000762939</ele>
        <time>2021-06-13T07:17:58.000Z</time>
      </trkpt>
      <trkpt lat="47.27054" lon="-2.31762">
        <ele>45.599998474121</ele>
        <time>2021-06-13T07:17:59.000Z</time>
      </trkpt>
      <trkpt lat="47.27054" lon="-2.31756">
        <ele>46</ele>
        <time>2021-06-13T07:18:00.000Z</time>
      </trkpt>
      <trkpt lat="47.27052" lon="-2.31743">
        <ele>46</ele>
        <time>2021-06-13T07:18:03.000Z</time>
      </trkpt>
      <trkpt lat="47.27049" lon="-2.31741">
        <ele>46</ele>
        <time>2021-06-13T07:18:04.000Z</time>
      </trkpt>
      <trkpt lat="47.27034" lon="-2.31731">
        <ele>46</ele>
        <time>2021-06-13T07:18:09.000Z</time>
      </trkpt>
      <trkpt lat="47.27027" lon="-2.31717">
        <ele>46</ele>
        <time>2021-06-13T07:18:12.000Z</time>
      </trkpt>
      <trkpt lat="47.27027" lon="-2.31712">
        <ele>46.599998474121</ele>
        <time>2021-06-13T07:18:13.000Z</time>
      </trkpt>
      <trkpt lat="47.27026" lon="-2.31707">
        <ele>47</ele>
        <time>2021-06-13T07:18:14.000Z</time>
      </trkpt>
      <trkpt lat="47.27026" lon="-2.31701">
        <ele>47.400001525879</ele>
        <time>2021-06-13T07:18:15.000Z</time>
      </trkpt>
      <trkpt lat="47.27027" lon="-2.31696">
        <ele>47.799999237061</ele>
        <time>2021-06-13T07:18:16.000Z</time>
      </trkpt>
      <trkpt lat="47.27028" lon="-2.31691">
        <ele>48.200000762939</ele>
        <time>2021-06-13T07:18:17.000Z</time>
      </trkpt>
      <trkpt lat="47.27029" lon="-2.31679">
        <ele>48.200000762939</ele>
        <time>2021-06-13T07:18:19.000Z</time>
      </trkpt>
      <trkpt lat="47.27031" lon="-2.31657">
        <ele>48.599998474121</ele>
        <time>2021-06-13T07:18:23.000Z</time>
      </trkpt>
      <trkpt lat="47.27031" lon="-2.31653">
        <ele>49</ele>
        <time>2021-06-13T07:18:24.000Z</time>
      </trkpt>
      <trkpt lat="47.27031" lon="-2.31648">
        <ele>49.400001525879</ele>
        <time>2021-06-13T07:18:25.000Z</time>
      </trkpt>
      <trkpt lat="47.27032" lon="-2.31643">
        <ele>49.799999237061</ele>
        <time>2021-06-13T07:18:26.000Z</time>
      </trkpt>
      <trkpt lat="47.27031" lon="-2.31638">
        <ele>50.200000762939</ele>
        <time>2021-06-13T07:18:27.000Z</time>
      </trkpt>
      <trkpt lat="47.27029" lon="-2.31619">
        <ele>50.599998474121</ele>
        <time>2021-06-13T07:18:31.000Z</time>
      </trkpt>
      <trkpt lat="47.27028" lon="-2.31615">
        <ele>51</ele>
        <time>2021-06-13T07:18:32.000Z</time>
      </trkpt>
      <trkpt lat="47.27027" lon="-2.31611">
        <ele>51.599998474121</ele>
        <time>2021-06-13T07:18:33.000Z</time>
      </trkpt>
      <trkpt lat="47.27027" lon="-2.31606">
        <ele>52</ele>
        <time>2021-06-13T07:18:34.000Z</time>
      </trkpt>
      <trkpt lat="47.27026" lon="-2.31602">
        <ele>52.400001525879</ele>
        <time>2021-06-13T07:18:35.000Z</time>
      </trkpt>
      <trkpt lat="47.27025" lon="-2.31597">
        <ele>52.400001525879</ele>
        <time>2021-06-13T07:18:36.000Z</time>
      </trkpt>
      <trkpt lat="47.27022" lon="-2.3159">
        <ele>52.799999237061</ele>
        <time>2021-06-13T07:18:38.000Z</time>
      </trkpt>
      <trkpt lat="47.27021" lon="-2.31587">
        <ele>53.200000762939</ele>
        <time>2021-06-13T07:18:39.000Z</time>
      </trkpt>
      <trkpt lat="47.27019" lon="-2.31584">
        <ele>53.599998474121</ele>
        <time>2021-06-13T07:18:40.000Z</time>
      </trkpt>
      <trkpt lat="47.27017" lon="-2.31577">
        <ele>54</ele>
        <time>2021-06-13T07:18:41.000Z</time>
      </trkpt>
      <trkpt lat="47.27015" lon="-2.3157">
        <ele>54.400001525879</ele>
        <time>2021-06-13T07:18:42.000Z</time>
      </trkpt>
      <trkpt lat="47.27008" lon="-2.31544">
        <ele>54.799999237061</ele>
        <time>2021-06-13T07:18:46.000Z</time>
      </trkpt>
      <trkpt lat="47.27006" lon="-2.31538">
        <ele>55.200000762939</ele>
        <time>2021-06-13T07:18:47.000Z</time>
      </trkpt>
      <trkpt lat="47.27006" lon="-2.31533">
        <ele>56.200000762939</ele>
        <time>2021-06-13T07:18:48.000Z</time>
      </trkpt>
      <trkpt lat="47.27005" lon="-2.31526">
        <ele>56.599998474121</ele>
        <time>2021-06-13T07:18:49.000Z</time>
      </trkpt>
      <trkpt lat="47.27001" lon="-2.31509">
        <ele>56.599998474121</ele>
        <time>2021-06-13T07:18:52.000Z</time>
      </trkpt>
      <trkpt lat="47.26997" lon="-2.31498">
        <ele>57</ele>
        <time>2021-06-13T07:18:54.000Z</time>
      </trkpt>
      <trkpt lat="47.26996" lon="-2.31493">
        <ele>57.400001525879</ele>
        <time>2021-06-13T07:18:55.000Z</time>
      </trkpt>
      <trkpt lat="47.26994" lon="-2.31487">
        <ele>57.799999237061</ele>
        <time>2021-06-13T07:18:56.000Z</time>
      </trkpt>
      <trkpt lat="47.26993" lon="-2.31481">
        <ele>58.200000762939</ele>
        <time>2021-06-13T07:18:57.000Z</time>
      </trkpt>
      <trkpt lat="47.26991" lon="-2.31476">
        <ele>58.599998474121</ele>
        <time>2021-06-13T07:18:58.000Z</time>
      </trkpt>
      <trkpt lat="47.2699" lon="-2.31471">
        <ele>58.599998474121</ele>
        <time>2021-06-13T07:18:59.000Z</time>
      </trkpt>
      <trkpt lat="47.26987" lon="-2.31448">
        <ele>59</ele>
        <time>2021-06-13T07:19:03.000Z</time>
      </trkpt>
      <trkpt lat="47.26987" lon="-2.31442">
        <ele>59.400001525879</ele>
        <time>2021-06-13T07:19:04.000Z</time>
      </trkpt>
      <trkpt lat="47.26987" lon="-2.31436">
        <ele>59.799999237061</ele>
        <time>2021-06-13T07:19:05.000Z</time>
      </trkpt>
      <trkpt lat="47.26986" lon="-2.31432">
        <ele>60.200000762939</ele>
        <time>2021-06-13T07:19:06.000Z</time>
      </trkpt>
      <trkpt lat="47.26986" lon="-2.31427">
        <ele>60.599998474121</ele>
        <time>2021-06-13T07:19:07.000Z</time>
      </trkpt>
      <trkpt lat="47.26983" lon="-2.31407">
        <ele>60.599998474121</ele>
        <time>2021-06-13T07:19:11.000Z</time>
      </trkpt>
      <trkpt lat="47.26982" lon="-2.31383">
        <ele>61.200000762939</ele>
        <time>2021-06-13T07:19:16.000Z</time>
      </trkpt>
      <trkpt lat="47.26982" lon="-2.31379">
        <ele>61.599998474121</ele>
        <time>2021-06-13T07:19:17.000Z</time>
      </trkpt>
      <trkpt lat="47.26982" lon="-2.31374">
        <ele>62</ele>
        <time>2021-06-13T07:19:18.000Z</time>
      </trkpt>
      <trkpt lat="47.26982" lon="-2.31368">
        <ele>62.400001525879</ele>
        <time>2021-06-13T07:19:19.000Z</time>
      </trkpt>
      <trkpt lat="47.26982" lon="-2.31362">
        <ele>63</ele>
        <time>2021-06-13T07:19:20.000Z</time>
      </trkpt>
      <trkpt lat="47.26978" lon="-2.31334">
        <ele>63</ele>
        <time>2021-06-13T07:19:24.000Z</time>
      </trkpt>
      <trkpt lat="47.26974" lon="-2.31302">
        <ele>63.400001525879</ele>
        <time>2021-06-13T07:19:29.000Z</time>
      </trkpt>
      <trkpt lat="47.26974" lon="-2.31294">
        <ele>63.799999237061</ele>
        <time>2021-06-13T07:19:30.000Z</time>
      </trkpt>
      <trkpt lat="47.26974" lon="-2.31285">
        <ele>64.199996948242</ele>
        <time>2021-06-13T07:19:31.000Z</time>
      </trkpt>
      <trkpt lat="47.26974" lon="-2.31277">
        <ele>64.599998474121</ele>
        <time>2021-06-13T07:19:32.000Z</time>
      </trkpt>
      <trkpt lat="47.26974" lon="-2.31269">
        <ele>65</ele>
        <time>2021-06-13T07:19:33.000Z</time>
      </trkpt>
      <trkpt lat="47.26976" lon="-2.31238">
        <ele>65</ele>
        <time>2021-06-13T07:19:37.000Z</time>
      </trkpt>
      <trkpt lat="47.26977" lon="-2.3123">
        <ele>65</ele>
        <time>2021-06-13T07:19:38.000Z</time>
      </trkpt>
      <trkpt lat="47.26987" lon="-2.31175">
        <ele>65</ele>
        <time>2021-06-13T07:19:45.000Z</time>
      </trkpt>
      <trkpt lat="47.26989" lon="-2.31167">
        <ele>65</ele>
        <time>2021-06-13T07:19:46.000Z</time>
      </trkpt>
      <trkpt lat="47.2699" lon="-2.31159">
        <ele>64.599998474121</ele>
        <time>2021-06-13T07:19:47.000Z</time>
      </trkpt>
      <trkpt lat="47.26991" lon="-2.3115">
        <ele>64.199996948242</ele>
        <time>2021-06-13T07:19:48.000Z</time>
      </trkpt>
      <trkpt lat="47.26992" lon="-2.31141">
        <ele>63.799999237061</ele>
        <time>2021-06-13T07:19:49.000Z</time>
      </trkpt>
      <trkpt lat="47.26992" lon="-2.31132">
        <ele>63.400001525879</ele>
        <time>2021-06-13T07:19:50.000Z</time>
      </trkpt>
      <trkpt lat="47.26993" lon="-2.31123">
        <ele>63</ele>
        <time>2021-06-13T07:19:51.000Z</time>
      </trkpt>
      <trkpt lat="47.26991" lon="-2.31106">
        <ele>63</ele>
        <time>2021-06-13T07:19:53.000Z</time>
      </trkpt>
      <trkpt lat="47.26989" lon="-2.31092">
        <ele>63</ele>
        <time>2021-06-13T07:19:55.000Z</time>
      </trkpt>
      <trkpt lat="47.26989" lon="-2.31086">
        <ele>63</ele>
        <time>2021-06-13T07:19:56.000Z</time>
      </trkpt>
      <trkpt lat="47.26989" lon="-2.31079">
        <ele>62.599998474121</ele>
        <time>2021-06-13T07:19:57.000Z</time>
      </trkpt>
      <trkpt lat="47.2699" lon="-2.31073">
        <ele>62.200000762939</ele>
        <time>2021-06-13T07:19:58.000Z</time>
      </trkpt>
      <trkpt lat="47.26992" lon="-2.31067">
        <ele>61.799999237061</ele>
        <time>2021-06-13T07:19:59.000Z</time>
      </trkpt>
      <trkpt lat="47.26993" lon="-2.31061">
        <ele>61.400001525879</ele>
        <time>2021-06-13T07:20:00.000Z</time>
      </trkpt>
      <trkpt lat="47.26995" lon="-2.31056">
        <ele>61</ele>
        <time>2021-06-13T07:20:01.000Z</time>
      </trkpt>
      <trkpt lat="47.27004" lon="-2.31035">
        <ele>61</ele>
        <time>2021-06-13T07:20:05.000Z</time>
      </trkpt>
      <trkpt lat="47.27007" lon="-2.31029">
        <ele>61</ele>
        <time>2021-06-13T07:20:06.000Z</time>
      </trkpt>
      <trkpt lat="47.27014" lon="-2.31018">
        <ele>60.599998474121</ele>
        <time>2021-06-13T07:20:08.000Z</time>
      </trkpt>
      <trkpt lat="47.27017" lon="-2.31013">
        <ele>60.200000762939</ele>
        <time>2021-06-13T07:20:09.000Z</time>
      </trkpt>
      <trkpt lat="47.2702" lon="-2.31009">
        <ele>59.599998474121</ele>
        <time>2021-06-13T07:20:10.000Z</time>
      </trkpt>
      <trkpt lat="47.27023" lon="-2.31004">
        <ele>59.200000762939</ele>
        <time>2021-06-13T07:20:11.000Z</time>
      </trkpt>
      <trkpt lat="47.27025" lon="-2.31">
        <ele>58.799999237061</ele>
        <time>2021-06-13T07:20:12.000Z</time>
      </trkpt>
      <trkpt lat="47.27032" lon="-2.3098">
        <ele>58.799999237061</ele>
        <time>2021-06-13T07:20:16.000Z</time>
      </trkpt>
      <trkpt lat="47.27034" lon="-2.30975">
        <ele>58.799999237061</ele>
        <time>2021-06-13T07:20:17.000Z</time>
      </trkpt>
      <trkpt lat="47.27035" lon="-2.30961">
        <ele>58.799999237061</ele>
        <time>2021-06-13T07:20:20.000Z</time>
      </trkpt>
      <trkpt lat="47.27036" lon="-2.30945">
        <ele>58.799999237061</ele>
        <time>2021-06-13T07:20:23.000Z</time>
      </trkpt>
      <trkpt lat="47.27035" lon="-2.30927">
        <ele>58.799999237061</ele>
        <time>2021-06-13T07:20:28.000Z</time>
      </trkpt>
      <trkpt lat="47.27035" lon="-2.3091">
        <ele>58.799999237061</ele>
        <time>2021-06-13T07:20:35.000Z</time>
      </trkpt>
      <trkpt lat="47.27029" lon="-2.30882">
        <ele>58.799999237061</ele>
        <time>2021-06-13T07:20:41.000Z</time>
      </trkpt>
      <trkpt lat="47.27018" lon="-2.30858">
        <ele>58.799999237061</ele>
        <time>2021-06-13T07:20:46.000Z</time>
      </trkpt>
      <trkpt lat="47.27006" lon="-2.30838">
        <ele>58.799999237061</ele>
        <time>2021-06-13T07:20:50.000Z</time>
      </trkpt>
      <trkpt lat="47.27001" lon="-2.3083">
        <ele>58.799999237061</ele>
        <time>2021-06-13T07:20:52.000Z</time>
      </trkpt>
      <trkpt lat="47.26996" lon="-2.30822">
        <ele>59.400001525879</ele>
        <time>2021-06-13T07:20:54.000Z</time>
      </trkpt>
      <trkpt lat="47.26994" lon="-2.30817">
        <ele>59.799999237061</ele>
        <time>2021-06-13T07:20:55.000Z</time>
      </trkpt>
      <trkpt lat="47.2699" lon="-2.3081">
        <ele>60.200000762939</ele>
        <time>2021-06-13T07:20:56.000Z</time>
      </trkpt>
      <trkpt lat="47.26987" lon="-2.30804">
        <ele>60.599998474121</ele>
        <time>2021-06-13T07:20:57.000Z</time>
      </trkpt>
      <trkpt lat="47.26984" lon="-2.30799">
        <ele>61</ele>
        <time>2021-06-13T07:20:58.000Z</time>
      </trkpt>
      <trkpt lat="47.26973" lon="-2.30782">
        <ele>61</ele>
        <time>2021-06-13T07:21:02.000Z</time>
      </trkpt>
      <trkpt lat="47.26969" lon="-2.30778">
        <ele>61.400001525879</ele>
        <time>2021-06-13T07:21:03.000Z</time>
      </trkpt>
      <trkpt lat="47.26966" lon="-2.30774">
        <ele>61.799999237061</ele>
        <time>2021-06-13T07:21:04.000Z</time>
      </trkpt>
      <trkpt lat="47.26963" lon="-2.30769">
        <ele>62.200000762939</ele>
        <time>2021-06-13T07:21:05.000Z</time>
      </trkpt>
      <trkpt lat="47.2696" lon="-2.30764">
        <ele>62.599998474121</ele>
        <time>2021-06-13T07:21:06.000Z</time>
      </trkpt>
      <trkpt lat="47.26957" lon="-2.30759">
        <ele>63</ele>
        <time>2021-06-13T07:21:07.000Z</time>
      </trkpt>
      <trkpt lat="47.26954" lon="-2.30754">
        <ele>63</ele>
        <time>2021-06-13T07:21:08.000Z</time>
      </trkpt>
      <trkpt lat="47.26936" lon="-2.30727">
        <ele>63.400001525879</ele>
        <time>2021-06-13T07:21:14.000Z</time>
      </trkpt>
      <trkpt lat="47.26933" lon="-2.30723">
        <ele>63.799999237061</ele>
        <time>2021-06-13T07:21:15.000Z</time>
      </trkpt>
      <trkpt lat="47.2693" lon="-2.30718">
        <ele>64.400001525879</ele>
        <time>2021-06-13T07:21:16.000Z</time>
      </trkpt>
      <trkpt lat="47.26927" lon="-2.30714">
        <ele>64.800003051758</ele>
        <time>2021-06-13T07:21:17.000Z</time>
      </trkpt>
      <trkpt lat="47.26924" lon="-2.30709">
        <ele>65.199996948242</ele>
        <time>2021-06-13T07:21:18.000Z</time>
      </trkpt>
      <trkpt lat="47.26913" lon="-2.30692">
        <ele>65.199996948242</ele>
        <time>2021-06-13T07:21:22.000Z</time>
      </trkpt>
      <trkpt lat="47.269" lon="-2.30672">
        <ele>65.199996948242</ele>
        <time>2021-06-13T07:21:28.000Z</time>
      </trkpt>
      <trkpt lat="47.26899" lon="-2.30669">
        <ele>65.199996948242</ele>
        <time>2021-06-13T07:21:30.000Z</time>
      </trkpt>
      <trkpt lat="47.26896" lon="-2.30668">
        <ele>67.199996948242</ele>
        <time>2021-06-13T07:21:55.000Z</time>
      </trkpt>
      <trkpt lat="47.26895" lon="-2.30669">
        <ele>67.199996948242</ele>
        <time>2021-06-13T07:21:56.000Z</time>
      </trkpt>
      <trkpt lat="47.26887" lon="-2.30676">
        <ele>67.199996948242</ele>
        <time>2021-06-13T07:21:59.000Z</time>
      </trkpt>
      <trkpt lat="47.26883" lon="-2.30679">
        <ele>67.199996948242</ele>
        <time>2021-06-13T07:22:00.000Z</time>
      </trkpt>
      <trkpt lat="47.26876" lon="-2.30687">
        <ele>67.199996948242</ele>
        <time>2021-06-13T07:22:02.000Z</time>
      </trkpt>
      <trkpt lat="47.26868" lon="-2.30702">
        <ele>67.199996948242</ele>
        <time>2021-06-13T07:22:05.000Z</time>
      </trkpt>
      <trkpt lat="47.26851" lon="-2.30739">
        <ele>67.199996948242</ele>
        <time>2021-06-13T07:22:12.000Z</time>
      </trkpt>
      <trkpt lat="47.26838" lon="-2.30774">
        <ele>67.199996948242</ele>
        <time>2021-06-13T07:22:18.000Z</time>
      </trkpt>
      <trkpt lat="47.26833" lon="-2.30786">
        <ele>67.199996948242</ele>
        <time>2021-06-13T07:22:20.000Z</time>
      </trkpt>
      <trkpt lat="47.2683" lon="-2.30791">
        <ele>67.199996948242</ele>
        <time>2021-06-13T07:22:21.000Z</time>
      </trkpt>
      <trkpt lat="47.26812" lon="-2.30806">
        <ele>67.199996948242</ele>
        <time>2021-06-13T07:22:25.000Z</time>
      </trkpt>
      <trkpt lat="47.26782" lon="-2.30838">
        <ele>67.199996948242</ele>
        <time>2021-06-13T07:22:32.000Z</time>
      </trkpt>
      <trkpt lat="47.26769" lon="-2.30851">
        <ele>67.599998474121</ele>
        <time>2021-06-13T07:22:35.000Z</time>
      </trkpt>
      <trkpt lat="47.26764" lon="-2.30854">
        <ele>68</ele>
        <time>2021-06-13T07:22:36.000Z</time>
      </trkpt>
      <trkpt lat="47.26759" lon="-2.30859">
        <ele>68.400001525879</ele>
        <time>2021-06-13T07:22:37.000Z</time>
      </trkpt>
      <trkpt lat="47.26755" lon="-2.30863">
        <ele>68.800003051758</ele>
        <time>2021-06-13T07:22:38.000Z</time>
      </trkpt>
      <trkpt lat="47.26751" lon="-2.30867">
        <ele>69.400001525879</ele>
        <time>2021-06-13T07:22:39.000Z</time>
      </trkpt>
      <trkpt lat="47.26743" lon="-2.30874">
        <ele>69.400001525879</ele>
        <time>2021-06-13T07:22:41.000Z</time>
      </trkpt>
      <trkpt lat="47.26734" lon="-2.30872">
        <ele>69.400001525879</ele>
        <time>2021-06-13T07:22:43.000Z</time>
      </trkpt>
      <trkpt lat="47.26729" lon="-2.30865">
        <ele>69.400001525879</ele>
        <time>2021-06-13T07:22:45.000Z</time>
      </trkpt>
      <trkpt lat="47.26727" lon="-2.3086">
        <ele>69.400001525879</ele>
        <time>2021-06-13T07:22:46.000Z</time>
      </trkpt>
      <trkpt lat="47.26715" lon="-2.30832">
        <ele>69.400001525879</ele>
        <time>2021-06-13T07:22:50.000Z</time>
      </trkpt>
      <trkpt lat="47.26697" lon="-2.30784">
        <ele>69.400001525879</ele>
        <time>2021-06-13T07:22:55.000Z</time>
      </trkpt>
      <trkpt lat="47.26676" lon="-2.30735">
        <ele>69</ele>
        <time>2021-06-13T07:23:00.000Z</time>
      </trkpt>
      <trkpt lat="47.26672" lon="-2.30725">
        <ele>68.599998474121</ele>
        <time>2021-06-13T07:23:01.000Z</time>
      </trkpt>
      <trkpt lat="47.26668" lon="-2.30716">
        <ele>68</ele>
        <time>2021-06-13T07:23:02.000Z</time>
      </trkpt>
      <trkpt lat="47.26665" lon="-2.30708">
        <ele>67.599998474121</ele>
        <time>2021-06-13T07:23:03.000Z</time>
      </trkpt>
      <trkpt lat="47.26661" lon="-2.30699">
        <ele>67.199996948242</ele>
        <time>2021-06-13T07:23:04.000Z</time>
      </trkpt>
      <trkpt lat="47.26657" lon="-2.30692">
        <ele>67.199996948242</ele>
        <time>2021-06-13T07:23:05.000Z</time>
      </trkpt>
      <trkpt lat="47.26653" lon="-2.30689">
        <ele>67.199996948242</ele>
        <time>2021-06-13T07:23:06.000Z</time>
      </trkpt>
      <trkpt lat="47.26649" lon="-2.3069">
        <ele>66.800003051758</ele>
        <time>2021-06-13T07:23:07.000Z</time>
      </trkpt>
      <trkpt lat="47.26645" lon="-2.3069">
        <ele>66.400001525879</ele>
        <time>2021-06-13T07:23:08.000Z</time>
      </trkpt>
      <trkpt lat="47.26642" lon="-2.30692">
        <ele>66</ele>
        <time>2021-06-13T07:23:09.000Z</time>
      </trkpt>
      <trkpt lat="47.26638" lon="-2.30695">
        <ele>65.599998474121</ele>
        <time>2021-06-13T07:23:10.000Z</time>
      </trkpt>
      <trkpt lat="47.26635" lon="-2.307">
        <ele>65.199996948242</ele>
        <time>2021-06-13T07:23:11.000Z</time>
      </trkpt>
      <trkpt lat="47.26632" lon="-2.30704">
        <ele>65.199996948242</ele>
        <time>2021-06-13T07:23:12.000Z</time>
      </trkpt>
      <trkpt lat="47.26629" lon="-2.30709">
        <ele>65.199996948242</ele>
        <time>2021-06-13T07:23:13.000Z</time>
      </trkpt>
      <trkpt lat="47.26625" lon="-2.30713">
        <ele>65.199996948242</ele>
        <time>2021-06-13T07:23:14.000Z</time>
      </trkpt>
      <trkpt lat="47.26615" lon="-2.30726">
        <ele>65.199996948242</ele>
        <time>2021-06-13T07:23:17.000Z</time>
      </trkpt>
      <trkpt lat="47.26613" lon="-2.30732">
        <ele>65.199996948242</ele>
        <time>2021-06-13T07:23:18.000Z</time>
      </trkpt>
      <trkpt lat="47.26609" lon="-2.30748">
        <ele>65.199996948242</ele>
        <time>2021-06-13T07:23:22.000Z</time>
      </trkpt>
      <trkpt lat="47.26603" lon="-2.30755">
        <ele>65.199996948242</ele>
        <time>2021-06-13T07:23:24.000Z</time>
      </trkpt>
      <trkpt lat="47.26595" lon="-2.30768">
        <ele>65.199996948242</ele>
        <time>2021-06-13T07:23:27.000Z</time>
      </trkpt>
      <trkpt lat="47.2658" lon="-2.30787">
        <ele>65.199996948242</ele>
        <time>2021-06-13T07:23:31.000Z</time>
      </trkpt>
      <trkpt lat="47.26576" lon="-2.30791">
        <ele>64.599998474121</ele>
        <time>2021-06-13T07:23:32.000Z</time>
      </trkpt>
      <trkpt lat="47.26572" lon="-2.30794">
        <ele>64.199996948242</ele>
        <time>2021-06-13T07:23:33.000Z</time>
      </trkpt>
      <trkpt lat="47.26567" lon="-2.30798">
        <ele>63.799999237061</ele>
        <time>2021-06-13T07:23:34.000Z</time>
      </trkpt>
      <trkpt lat="47.26564" lon="-2.30804">
        <ele>63.400001525879</ele>
        <time>2021-06-13T07:23:35.000Z</time>
      </trkpt>
      <trkpt lat="47.26561" lon="-2.30811">
        <ele>63</ele>
        <time>2021-06-13T07:23:36.000Z</time>
      </trkpt>
      <trkpt lat="47.26559" lon="-2.30816">
        <ele>63</ele>
        <time>2021-06-13T07:23:37.000Z</time>
      </trkpt>
      <trkpt lat="47.26549" lon="-2.30834">
        <ele>63</ele>
        <time>2021-06-13T07:23:41.000Z</time>
      </trkpt>
      <trkpt lat="47.26539" lon="-2.30851">
        <ele>62.599998474121</ele>
        <time>2021-06-13T07:23:45.000Z</time>
      </trkpt>
      <trkpt lat="47.26537" lon="-2.30856">
        <ele>62.200000762939</ele>
        <time>2021-06-13T07:23:46.000Z</time>
      </trkpt>
      <trkpt lat="47.26534" lon="-2.3086">
        <ele>61.799999237061</ele>
        <time>2021-06-13T07:23:47.000Z</time>
      </trkpt>
      <trkpt lat="47.2653" lon="-2.30865">
        <ele>61.400001525879</ele>
        <time>2021-06-13T07:23:48.000Z</time>
      </trkpt>
      <trkpt lat="47.26526" lon="-2.30868">
        <ele>61</ele>
        <time>2021-06-13T07:23:49.000Z</time>
      </trkpt>
      <trkpt lat="47.26515" lon="-2.3088">
        <ele>61</ele>
        <time>2021-06-13T07:23:52.000Z</time>
      </trkpt>
      <trkpt lat="47.26512" lon="-2.30881">
        <ele>61</ele>
        <time>2021-06-13T07:23:53.000Z</time>
      </trkpt>
      <trkpt lat="47.26508" lon="-2.30879">
        <ele>61</ele>
        <time>2021-06-13T07:23:55.000Z</time>
      </trkpt>
      <trkpt lat="47.26505" lon="-2.30876">
        <ele>61</ele>
        <time>2021-06-13T07:23:57.000Z</time>
      </trkpt>
      <trkpt lat="47.26499" lon="-2.30864">
        <ele>61</ele>
        <time>2021-06-13T07:24:01.000Z</time>
      </trkpt>
      <trkpt lat="47.26497" lon="-2.30861">
        <ele>61.400001525879</ele>
        <time>2021-06-13T07:24:02.000Z</time>
      </trkpt>
      <trkpt lat="47.26496" lon="-2.30859">
        <ele>61.799999237061</ele>
        <time>2021-06-13T07:24:03.000Z</time>
      </trkpt>
      <trkpt lat="47.26495" lon="-2.30856">
        <ele>62.200000762939</ele>
        <time>2021-06-13T07:24:04.000Z</time>
      </trkpt>
      <trkpt lat="47.26494" lon="-2.30854">
        <ele>62.799999237061</ele>
        <time>2021-06-13T07:24:05.000Z</time>
      </trkpt>
      <trkpt lat="47.26492" lon="-2.3085">
        <ele>63.200000762939</ele>
        <time>2021-06-13T07:24:06.000Z</time>
      </trkpt>
      <trkpt lat="47.26489" lon="-2.30843">
        <ele>63.200000762939</ele>
        <time>2021-06-13T07:24:07.000Z</time>
      </trkpt>
      <trkpt lat="47.26487" lon="-2.30838">
        <ele>63.599998474121</ele>
        <time>2021-06-13T07:24:08.000Z</time>
      </trkpt>
      <trkpt lat="47.26484" lon="-2.30832">
        <ele>64</ele>
        <time>2021-06-13T07:24:09.000Z</time>
      </trkpt>
      <trkpt lat="47.26479" lon="-2.30826">
        <ele>64.400001525879</ele>
        <time>2021-06-13T07:24:10.000Z</time>
      </trkpt>
      <trkpt lat="47.26476" lon="-2.3082">
        <ele>64.800003051758</ele>
        <time>2021-06-13T07:24:11.000Z</time>
      </trkpt>
      <trkpt lat="47.26472" lon="-2.30813">
        <ele>65.199996948242</ele>
        <time>2021-06-13T07:24:12.000Z</time>
      </trkpt>
      <trkpt lat="47.26468" lon="-2.30806">
        <ele>65.199996948242</ele>
        <time>2021-06-13T07:24:13.000Z</time>
      </trkpt>
      <trkpt lat="47.26466" lon="-2.308">
        <ele>65.599998474121</ele>
        <time>2021-06-13T07:24:14.000Z</time>
      </trkpt>
      <trkpt lat="47.26463" lon="-2.30793">
        <ele>66</ele>
        <time>2021-06-13T07:24:15.000Z</time>
      </trkpt>
      <trkpt lat="47.2646" lon="-2.30787">
        <ele>66.400001525879</ele>
        <time>2021-06-13T07:24:16.000Z</time>
      </trkpt>
      <trkpt lat="47.26458" lon="-2.30781">
        <ele>66.800003051758</ele>
        <time>2021-06-13T07:24:17.000Z</time>
      </trkpt>
      <trkpt lat="47.26455" lon="-2.30775">
        <ele>67.199996948242</ele>
        <time>2021-06-13T07:24:18.000Z</time>
      </trkpt>
      <trkpt lat="47.26449" lon="-2.30763">
        <ele>67.199996948242</ele>
        <time>2021-06-13T07:24:20.000Z</time>
      </trkpt>
      <trkpt lat="47.26432" lon="-2.30726">
        <ele>67.199996948242</ele>
        <time>2021-06-13T07:24:26.000Z</time>
      </trkpt>
      <trkpt lat="47.26429" lon="-2.3072">
        <ele>67.199996948242</ele>
        <time>2021-06-13T07:24:27.000Z</time>
      </trkpt>
      <trkpt lat="47.26414" lon="-2.30693">
        <ele>68.800003051758</ele>
        <time>2021-06-13T07:24:30.000Z</time>
      </trkpt>
      <trkpt lat="47.26411" lon="-2.30687">
        <ele>69.199996948242</ele>
        <time>2021-06-13T07:24:33.000Z</time>
      </trkpt>
      <trkpt lat="47.26403" lon="-2.30675">
        <ele>69.199996948242</ele>
        <time>2021-06-13T07:24:36.000Z</time>
      </trkpt>
      <trkpt lat="47.26399" lon="-2.30673">
        <ele>69.199996948242</ele>
        <time>2021-06-13T07:24:37.000Z</time>
      </trkpt>
      <trkpt lat="47.26379" lon="-2.3066">
        <ele>69.199996948242</ele>
        <time>2021-06-13T07:24:42.000Z</time>
      </trkpt>
      <trkpt lat="47.26369" lon="-2.3065">
        <ele>69.199996948242</ele>
        <time>2021-06-13T07:24:45.000Z</time>
      </trkpt>
      <trkpt lat="47.26364" lon="-2.3064">
        <ele>69.199996948242</ele>
        <time>2021-06-13T07:24:47.000Z</time>
      </trkpt>
      <trkpt lat="47.26349" lon="-2.30608">
        <ele>69.199996948242</ele>
        <time>2021-06-13T07:24:53.000Z</time>
      </trkpt>
      <trkpt lat="47.26343" lon="-2.30599">
        <ele>69.199996948242</ele>
        <time>2021-06-13T07:24:55.000Z</time>
      </trkpt>
      <trkpt lat="47.26338" lon="-2.30589">
        <ele>69.800003051758</ele>
        <time>2021-06-13T07:24:58.000Z</time>
      </trkpt>
      <trkpt lat="47.26337" lon="-2.30586">
        <ele>70.199996948242</ele>
        <time>2021-06-13T07:24:59.000Z</time>
      </trkpt>
      <trkpt lat="47.26337" lon="-2.30585">
        <ele>70.599998474121</ele>
        <time>2021-06-13T07:25:00.000Z</time>
      </trkpt>
      <trkpt lat="47.26336" lon="-2.30583">
        <ele>71</ele>
        <time>2021-06-13T07:25:01.000Z</time>
      </trkpt>
      <trkpt lat="47.26336" lon="-2.30583">
        <ele>71.400001525879</ele>
        <time>2021-06-13T07:25:02.000Z</time>
      </trkpt>
      <trkpt lat="47.26336" lon="-2.30582">
        <ele>71.400001525879</ele>
        <time>2021-06-13T07:25:03.000Z</time>
      </trkpt>
      <trkpt lat="47.26334" lon="-2.30581">
        <ele>71.400001525879</ele>
        <time>2021-06-13T07:25:06.000Z</time>
      </trkpt>
      <trkpt lat="47.26334" lon="-2.30573">
        <ele>71.400001525879</ele>
        <time>2021-06-13T07:25:40.000Z</time>
      </trkpt>
      <trkpt lat="47.26336" lon="-2.30569">
        <ele>71.400001525879</ele>
        <time>2021-06-13T07:25:42.000Z</time>
      </trkpt>
      <trkpt lat="47.2634" lon="-2.30556">
        <ele>71.400001525879</ele>
        <time>2021-06-13T07:25:47.000Z</time>
      </trkpt>
      <trkpt lat="47.26341" lon="-2.30551">
        <ele>71.400001525879</ele>
        <time>2021-06-13T07:25:49.000Z</time>
      </trkpt>
      <trkpt lat="47.26342" lon="-2.30549">
        <ele>71.800003051758</ele>
        <time>2021-06-13T07:25:50.000Z</time>
      </trkpt>
      <trkpt lat="47.26342" lon="-2.30545">
        <ele>72.199996948242</ele>
        <time>2021-06-13T07:25:51.000Z</time>
      </trkpt>
      <trkpt lat="47.26342" lon="-2.30541">
        <ele>72.599998474121</ele>
        <time>2021-06-13T07:25:52.000Z</time>
      </trkpt>
      <trkpt lat="47.26342" lon="-2.30537">
        <ele>73</ele>
        <time>2021-06-13T07:25:53.000Z</time>
      </trkpt>
      <trkpt lat="47.26341" lon="-2.3053">
        <ele>73.400001525879</ele>
        <time>2021-06-13T07:25:54.000Z</time>
      </trkpt>
      <trkpt lat="47.26335" lon="-2.30493">
        <ele>73.400001525879</ele>
        <time>2021-06-13T07:25:59.000Z</time>
      </trkpt>
      <trkpt lat="47.26329" lon="-2.30468">
        <ele>73.400001525879</ele>
        <time>2021-06-13T07:26:02.000Z</time>
      </trkpt>
      <trkpt lat="47.26324" lon="-2.30445">
        <ele>73.400001525879</ele>
        <time>2021-06-13T07:26:05.000Z</time>
      </trkpt>
      <trkpt lat="47.26322" lon="-2.30438">
        <ele>73.800003051758</ele>
        <time>2021-06-13T07:26:06.000Z</time>
      </trkpt>
      <trkpt lat="47.26319" lon="-2.3043">
        <ele>74.199996948242</ele>
        <time>2021-06-13T07:26:07.000Z</time>
      </trkpt>
      <trkpt lat="47.26318" lon="-2.30423">
        <ele>74.599998474121</ele>
        <time>2021-06-13T07:26:08.000Z</time>
      </trkpt>
      <trkpt lat="47.26317" lon="-2.30416">
        <ele>75</ele>
        <time>2021-06-13T07:26:09.000Z</time>
      </trkpt>
      <trkpt lat="47.26315" lon="-2.30408">
        <ele>75.400001525879</ele>
        <time>2021-06-13T07:26:10.000Z</time>
      </trkpt>
      <trkpt lat="47.26312" lon="-2.30393">
        <ele>75.400001525879</ele>
        <time>2021-06-13T07:26:12.000Z</time>
      </trkpt>
      <trkpt lat="47.26309" lon="-2.30376">
        <ele>75.400001525879</ele>
        <time>2021-06-13T07:26:14.000Z</time>
      </trkpt>
      <trkpt lat="47.26306" lon="-2.30352">
        <ele>75.400001525879</ele>
        <time>2021-06-13T07:26:17.000Z</time>
      </trkpt>
      <trkpt lat="47.26301" lon="-2.3033">
        <ele>75.400001525879</ele>
        <time>2021-06-13T07:26:20.000Z</time>
      </trkpt>
      <trkpt lat="47.26293" lon="-2.3031">
        <ele>75.400001525879</ele>
        <time>2021-06-13T07:26:23.000Z</time>
      </trkpt>
      <trkpt lat="47.26287" lon="-2.30289">
        <ele>75.400001525879</ele>
        <time>2021-06-13T07:26:26.000Z</time>
      </trkpt>
      <trkpt lat="47.26284" lon="-2.30273">
        <ele>75.400001525879</ele>
        <time>2021-06-13T07:26:28.000Z</time>
      </trkpt>
      <trkpt lat="47.26275" lon="-2.30227">
        <ele>75.400001525879</ele>
        <time>2021-06-13T07:26:34.000Z</time>
      </trkpt>
      <trkpt lat="47.26264" lon="-2.30176">
        <ele>75.400001525879</ele>
        <time>2021-06-13T07:26:41.000Z</time>
      </trkpt>
      <trkpt lat="47.26259" lon="-2.30164">
        <ele>75.400001525879</ele>
        <time>2021-06-13T07:26:43.000Z</time>
      </trkpt>
      <trkpt lat="47.26255" lon="-2.30151">
        <ele>76</ele>
        <time>2021-06-13T07:26:45.000Z</time>
      </trkpt>
      <trkpt lat="47.26253" lon="-2.30145">
        <ele>76.400001525879</ele>
        <time>2021-06-13T07:26:46.000Z</time>
      </trkpt>
      <trkpt lat="47.26251" lon="-2.30139">
        <ele>76.800003051758</ele>
        <time>2021-06-13T07:26:47.000Z</time>
      </trkpt>
      <trkpt lat="47.26247" lon="-2.30136">
        <ele>77.199996948242</ele>
        <time>2021-06-13T07:26:48.000Z</time>
      </trkpt>
      <trkpt lat="47.26243" lon="-2.30134">
        <ele>77.599998474121</ele>
        <time>2021-06-13T07:26:49.000Z</time>
      </trkpt>
      <trkpt lat="47.26239" lon="-2.30135">
        <ele>77.599998474121</ele>
        <time>2021-06-13T07:26:50.000Z</time>
      </trkpt>
      <trkpt lat="47.26222" lon="-2.30141">
        <ele>77.599998474121</ele>
        <time>2021-06-13T07:26:54.000Z</time>
      </trkpt>
      <trkpt lat="47.26217" lon="-2.30142">
        <ele>77.599998474121</ele>
        <time>2021-06-13T07:26:55.000Z</time>
      </trkpt>
      <trkpt lat="47.26197" lon="-2.30148">
        <ele>77.599998474121</ele>
        <time>2021-06-13T07:26:59.000Z</time>
      </trkpt>
      <trkpt lat="47.26187" lon="-2.30151">
        <ele>77.599998474121</ele>
        <time>2021-06-13T07:27:01.000Z</time>
      </trkpt>
      <trkpt lat="47.26172" lon="-2.30155">
        <ele>77.599998474121</ele>
        <time>2021-06-13T07:27:05.000Z</time>
      </trkpt>
      <trkpt lat="47.26171" lon="-2.30151">
        <ele>77.199996948242</ele>
        <time>2021-06-13T07:27:06.000Z</time>
      </trkpt>
      <trkpt lat="47.2617" lon="-2.30147">
        <ele>76.800003051758</ele>
        <time>2021-06-13T07:27:07.000Z</time>
      </trkpt>
      <trkpt lat="47.26169" lon="-2.30144">
        <ele>76.400001525879</ele>
        <time>2021-06-13T07:27:08.000Z</time>
      </trkpt>
      <trkpt lat="47.26167" lon="-2.30143">
        <ele>76</ele>
        <time>2021-06-13T07:27:09.000Z</time>
      </trkpt>
      <trkpt lat="47.26164" lon="-2.30142">
        <ele>75.599998474121</ele>
        <time>2021-06-13T07:27:10.000Z</time>
      </trkpt>
      <trkpt lat="47.26162" lon="-2.30143">
        <ele>75.599998474121</ele>
        <time>2021-06-13T07:27:11.000Z</time>
      </trkpt>
      <trkpt lat="47.26155" lon="-2.30146">
        <ele>75.599998474121</ele>
        <time>2021-06-13T07:27:13.000Z</time>
      </trkpt>
      <trkpt lat="47.26139" lon="-2.30152">
        <ele>75.599998474121</ele>
        <time>2021-06-13T07:27:17.000Z</time>
      </trkpt>
      <trkpt lat="47.26121" lon="-2.30159">
        <ele>75.199996948242</ele>
        <time>2021-06-13T07:27:21.000Z</time>
      </trkpt>
      <trkpt lat="47.26117" lon="-2.30161">
        <ele>74.800003051758</ele>
        <time>2021-06-13T07:27:22.000Z</time>
      </trkpt>
      <trkpt lat="47.26114" lon="-2.30162">
        <ele>74.199996948242</ele>
        <time>2021-06-13T07:27:23.000Z</time>
      </trkpt>
      <trkpt lat="47.2611" lon="-2.30163">
        <ele>73.400001525879</ele>
        <time>2021-06-13T07:27:24.000Z</time>
      </trkpt>
      <trkpt lat="47.26103" lon="-2.30162">
        <ele>73.400001525879</ele>
        <time>2021-06-13T07:27:27.000Z</time>
      </trkpt>
      <trkpt lat="47.26101" lon="-2.30158">
        <ele>73.400001525879</ele>
        <time>2021-06-13T07:27:28.000Z</time>
      </trkpt>
      <trkpt lat="47.26098" lon="-2.30153">
        <ele>73</ele>
        <time>2021-06-13T07:27:30.000Z</time>
      </trkpt>
      <trkpt lat="47.26095" lon="-2.30152">
        <ele>72.599998474121</ele>
        <time>2021-06-13T07:27:31.000Z</time>
      </trkpt>
      <trkpt lat="47.26091" lon="-2.30153">
        <ele>72.199996948242</ele>
        <time>2021-06-13T07:27:32.000Z</time>
      </trkpt>
      <trkpt lat="47.26087" lon="-2.30154">
        <ele>71.800003051758</ele>
        <time>2021-06-13T07:27:33.000Z</time>
      </trkpt>
      <trkpt lat="47.26083" lon="-2.30155">
        <ele>71.400001525879</ele>
        <time>2021-06-13T07:27:34.000Z</time>
      </trkpt>
      <trkpt lat="47.26073" lon="-2.30154">
        <ele>71.400001525879</ele>
        <time>2021-06-13T07:27:37.000Z</time>
      </trkpt>
      <trkpt lat="47.26063" lon="-2.30146">
        <ele>71.400001525879</ele>
        <time>2021-06-13T07:27:41.000Z</time>
      </trkpt>
      <trkpt lat="47.26051" lon="-2.30147">
        <ele>71.400001525879</ele>
        <time>2021-06-13T07:27:44.000Z</time>
      </trkpt>
      <trkpt lat="47.26047" lon="-2.30148">
        <ele>71</ele>
        <time>2021-06-13T07:27:45.000Z</time>
      </trkpt>
      <trkpt lat="47.26043" lon="-2.30149">
        <ele>70.599998474121</ele>
        <time>2021-06-13T07:27:46.000Z</time>
      </trkpt>
      <trkpt lat="47.26039" lon="-2.3015">
        <ele>70.199996948242</ele>
        <time>2021-06-13T07:27:47.000Z</time>
      </trkpt>
      <trkpt lat="47.26036" lon="-2.3015">
        <ele>69.800003051758</ele>
        <time>2021-06-13T07:27:48.000Z</time>
      </trkpt>
      <trkpt lat="47.26032" lon="-2.30148">
        <ele>69.400001525879</ele>
        <time>2021-06-13T07:27:49.000Z</time>
      </trkpt>
      <trkpt lat="47.26024" lon="-2.30147">
        <ele>69.400001525879</ele>
        <time>2021-06-13T07:27:51.000Z</time>
      </trkpt>
      <trkpt lat="47.26019" lon="-2.30148">
        <ele>69.400001525879</ele>
        <time>2021-06-13T07:27:52.000Z</time>
      </trkpt>
      <trkpt lat="47.26005" lon="-2.30149">
        <ele>69.400001525879</ele>
        <time>2021-06-13T07:27:55.000Z</time>
      </trkpt>
      <trkpt lat="47.25993" lon="-2.30151">
        <ele>69</ele>
        <time>2021-06-13T07:27:59.000Z</time>
      </trkpt>
      <trkpt lat="47.25991" lon="-2.3015">
        <ele>68.400001525879</ele>
        <time>2021-06-13T07:28:00.000Z</time>
      </trkpt>
      <trkpt lat="47.25989" lon="-2.30146">
        <ele>68</ele>
        <time>2021-06-13T07:28:01.000Z</time>
      </trkpt>
      <trkpt lat="47.25986" lon="-2.30141">
        <ele>67.599998474121</ele>
        <time>2021-06-13T07:28:02.000Z</time>
      </trkpt>
      <trkpt lat="47.25984" lon="-2.30137">
        <ele>67.199996948242</ele>
        <time>2021-06-13T07:28:03.000Z</time>
      </trkpt>
      <trkpt lat="47.25982" lon="-2.30124">
        <ele>67.199996948242</ele>
        <time>2021-06-13T07:28:06.000Z</time>
      </trkpt>
      <trkpt lat="47.25976" lon="-2.30099">
        <ele>67.199996948242</ele>
        <time>2021-06-13T07:28:09.000Z</time>
      </trkpt>
      <trkpt lat="47.25974" lon="-2.3008">
        <ele>67.199996948242</ele>
        <time>2021-06-13T07:28:11.000Z</time>
      </trkpt>
      <trkpt lat="47.25974" lon="-2.30055">
        <ele>67.199996948242</ele>
        <time>2021-06-13T07:28:14.000Z</time>
      </trkpt>
      <trkpt lat="47.25974" lon="-2.30008">
        <ele>67.199996948242</ele>
        <time>2021-06-13T07:28:20.000Z</time>
      </trkpt>
      <trkpt lat="47.25979" lon="-2.29957">
        <ele>67.199996948242</ele>
        <time>2021-06-13T07:28:27.000Z</time>
      </trkpt>
      <trkpt lat="47.25982" lon="-2.29944">
        <ele>67.199996948242</ele>
        <time>2021-06-13T07:28:29.000Z</time>
      </trkpt>
      <trkpt lat="47.25984" lon="-2.29937">
        <ele>67.199996948242</ele>
        <time>2021-06-13T07:28:31.000Z</time>
      </trkpt>
      <trkpt lat="47.25987" lon="-2.29931">
        <ele>67.599998474121</ele>
        <time>2021-06-13T07:28:36.000Z</time>
      </trkpt>
      <trkpt lat="47.25988" lon="-2.29929">
        <ele>68</ele>
        <time>2021-06-13T07:28:37.000Z</time>
      </trkpt>
      <trkpt lat="47.25989" lon="-2.29927">
        <ele>68.400001525879</ele>
        <time>2021-06-13T07:28:38.000Z</time>
      </trkpt>
      <trkpt lat="47.25988" lon="-2.29924">
        <ele>69.199996948242</ele>
        <time>2021-06-13T07:28:39.000Z</time>
      </trkpt>
      <trkpt lat="47.25987" lon="-2.29922">
        <ele>69.199996948242</ele>
        <time>2021-06-13T07:28:40.000Z</time>
      </trkpt>
      <trkpt lat="47.25984" lon="-2.29917">
        <ele>69.199996948242</ele>
        <time>2021-06-13T07:28:42.000Z</time>
      </trkpt>
      <trkpt lat="47.25976" lon="-2.29907">
        <ele>69.199996948242</ele>
        <time>2021-06-13T07:28:45.000Z</time>
      </trkpt>
      <trkpt lat="47.25964" lon="-2.29882">
        <ele>69.199996948242</ele>
        <time>2021-06-13T07:28:51.000Z</time>
      </trkpt>
      <trkpt lat="47.25956" lon="-2.29863">
        <ele>69.199996948242</ele>
        <time>2021-06-13T07:28:56.000Z</time>
      </trkpt>
      <trkpt lat="47.25951" lon="-2.29851">
        <ele>69.199996948242</ele>
        <time>2021-06-13T07:29:02.000Z</time>
      </trkpt>
      <trkpt lat="47.25948" lon="-2.2984">
        <ele>69.199996948242</ele>
        <time>2021-06-13T07:29:10.000Z</time>
      </trkpt>
      <trkpt lat="47.25947" lon="-2.29822">
        <ele>69.199996948242</ele>
        <time>2021-06-13T07:29:15.000Z</time>
      </trkpt>
      <trkpt lat="47.25946" lon="-2.2981">
        <ele>69.199996948242</ele>
        <time>2021-06-13T07:29:20.000Z</time>
      </trkpt>
      <trkpt lat="47.25946" lon="-2.29807">
        <ele>69.199996948242</ele>
        <time>2021-06-13T07:29:23.000Z</time>
      </trkpt>
      <trkpt lat="47.25943" lon="-2.2978">
        <ele>69.199996948242</ele>
        <time>2021-06-13T07:29:38.000Z</time>
      </trkpt>
      <trkpt lat="47.25942" lon="-2.29777">
        <ele>69.199996948242</ele>
        <time>2021-06-13T07:29:39.000Z</time>
      </trkpt>
      <trkpt lat="47.25933" lon="-2.29753">
        <ele>69.199996948242</ele>
        <time>2021-06-13T07:29:46.000Z</time>
      </trkpt>
      <trkpt lat="47.25926" lon="-2.29735">
        <ele>69.199996948242</ele>
        <time>2021-06-13T07:29:51.000Z</time>
      </trkpt>
      <trkpt lat="47.25924" lon="-2.29724">
        <ele>70</ele>
        <time>2021-06-13T07:29:53.000Z</time>
      </trkpt>
      <trkpt lat="47.25924" lon="-2.29717">
        <ele>70.400001525879</ele>
        <time>2021-06-13T07:29:54.000Z</time>
      </trkpt>
      <trkpt lat="47.25924" lon="-2.29711">
        <ele>70.800003051758</ele>
        <time>2021-06-13T07:29:55.000Z</time>
      </trkpt>
      <trkpt lat="47.25924" lon="-2.29704">
        <ele>71.400001525879</ele>
        <time>2021-06-13T07:29:56.000Z</time>
      </trkpt>
      <trkpt lat="47.25924" lon="-2.29691">
        <ele>71.400001525879</ele>
        <time>2021-06-13T07:29:58.000Z</time>
      </trkpt>
      <trkpt lat="47.25931" lon="-2.2965">
        <ele>71.400001525879</ele>
        <time>2021-06-13T07:30:05.000Z</time>
      </trkpt>
      <trkpt lat="47.2593" lon="-2.29645">
        <ele>71.800003051758</ele>
        <time>2021-06-13T07:30:06.000Z</time>
      </trkpt>
      <trkpt lat="47.25927" lon="-2.29636">
        <ele>72.199996948242</ele>
        <time>2021-06-13T07:30:07.000Z</time>
      </trkpt>
      <trkpt lat="47.25926" lon="-2.2963">
        <ele>72.599998474121</ele>
        <time>2021-06-13T07:30:08.000Z</time>
      </trkpt>
      <trkpt lat="47.25926" lon="-2.29624">
        <ele>73</ele>
        <time>2021-06-13T07:30:09.000Z</time>
      </trkpt>
      <trkpt lat="47.25928" lon="-2.29622">
        <ele>73.400001525879</ele>
        <time>2021-06-13T07:30:10.000Z</time>
      </trkpt>
      <trkpt lat="47.25933" lon="-2.29619">
        <ele>73.400001525879</ele>
        <time>2021-06-13T07:30:12.000Z</time>
      </trkpt>
      <trkpt lat="47.25945" lon="-2.29614">
        <ele>73.400001525879</ele>
        <time>2021-06-13T07:30:17.000Z</time>
      </trkpt>
      <trkpt lat="47.25962" lon="-2.29608">
        <ele>73.400001525879</ele>
        <time>2021-06-13T07:30:20.000Z</time>
      </trkpt>
      <trkpt lat="47.25981" lon="-2.29599">
        <ele>73.400001525879</ele>
        <time>2021-06-13T07:30:24.000Z</time>
      </trkpt>
      <trkpt lat="47.25991" lon="-2.29597">
        <ele>73.400001525879</ele>
        <time>2021-06-13T07:30:26.000Z</time>
      </trkpt>
      <trkpt lat="47.26006" lon="-2.29596">
        <ele>73.400001525879</ele>
        <time>2021-06-13T07:30:29.000Z</time>
      </trkpt>
      <trkpt lat="47.26022" lon="-2.29598">
        <ele>73.400001525879</ele>
        <time>2021-06-13T07:30:32.000Z</time>
      </trkpt>
      <trkpt lat="47.26037" lon="-2.29599">
        <ele>73.800003051758</ele>
        <time>2021-06-13T07:30:35.000Z</time>
      </trkpt>
      <trkpt lat="47.26042" lon="-2.29599">
        <ele>74.199996948242</ele>
        <time>2021-06-13T07:30:36.000Z</time>
      </trkpt>
      <trkpt lat="47.26047" lon="-2.296">
        <ele>74.599998474121</ele>
        <time>2021-06-13T07:30:37.000Z</time>
      </trkpt>
      <trkpt lat="47.26051" lon="-2.29599">
        <ele>75</ele>
        <time>2021-06-13T07:30:38.000Z</time>
      </trkpt>
      <trkpt lat="47.26055" lon="-2.29599">
        <ele>75.400001525879</ele>
        <time>2021-06-13T07:30:39.000Z</time>
      </trkpt>
      <trkpt lat="47.26067" lon="-2.29597">
        <ele>75.800003051758</ele>
        <time>2021-06-13T07:30:42.000Z</time>
      </trkpt>
      <trkpt lat="47.2607" lon="-2.29597">
        <ele>76.400001525879</ele>
        <time>2021-06-13T07:30:43.000Z</time>
      </trkpt>
      <trkpt lat="47.26074" lon="-2.29596">
        <ele>76.800003051758</ele>
        <time>2021-06-13T07:30:44.000Z</time>
      </trkpt>
      <trkpt lat="47.26077" lon="-2.29597">
        <ele>77.199996948242</ele>
        <time>2021-06-13T07:30:45.000Z</time>
      </trkpt>
      <trkpt lat="47.2608" lon="-2.29597">
        <ele>77.599998474121</ele>
        <time>2021-06-13T07:30:46.000Z</time>
      </trkpt>
      <trkpt lat="47.26092" lon="-2.29593">
        <ele>78.199996948242</ele>
        <time>2021-06-13T07:30:49.000Z</time>
      </trkpt>
      <trkpt lat="47.26095" lon="-2.29592">
        <ele>78.599998474121</ele>
        <time>2021-06-13T07:30:50.000Z</time>
      </trkpt>
      <trkpt lat="47.26099" lon="-2.2959">
        <ele>79</ele>
        <time>2021-06-13T07:30:51.000Z</time>
      </trkpt>
      <trkpt lat="47.26103" lon="-2.29588">
        <ele>79.400001525879</ele>
        <time>2021-06-13T07:30:52.000Z</time>
      </trkpt>
      <trkpt lat="47.26107" lon="-2.29586">
        <ele>79.800003051758</ele>
        <time>2021-06-13T07:30:53.000Z</time>
      </trkpt>
      <trkpt lat="47.26111" lon="-2.29584">
        <ele>79.800003051758</ele>
        <time>2021-06-13T07:30:54.000Z</time>
      </trkpt>
      <trkpt lat="47.26119" lon="-2.2958">
        <ele>80.400001525879</ele>
        <time>2021-06-13T07:30:56.000Z</time>
      </trkpt>
      <trkpt lat="47.26123" lon="-2.29579">
        <ele>80.800003051758</ele>
        <time>2021-06-13T07:30:57.000Z</time>
      </trkpt>
      <trkpt lat="47.26127" lon="-2.29577">
        <ele>81.199996948242</ele>
        <time>2021-06-13T07:30:58.000Z</time>
      </trkpt>
      <trkpt lat="47.26131" lon="-2.29576">
        <ele>81.599998474121</ele>
        <time>2021-06-13T07:30:59.000Z</time>
      </trkpt>
      <trkpt lat="47.26135" lon="-2.29573">
        <ele>82</ele>
        <time>2021-06-13T07:31:00.000Z</time>
      </trkpt>
      <trkpt lat="47.26143" lon="-2.2957">
        <ele>82</ele>
        <time>2021-06-13T07:31:02.000Z</time>
      </trkpt>
      <trkpt lat="47.26146" lon="-2.29568">
        <ele>82.400001525879</ele>
        <time>2021-06-13T07:31:03.000Z</time>
      </trkpt>
      <trkpt lat="47.26149" lon="-2.29567">
        <ele>82.800003051758</ele>
        <time>2021-06-13T07:31:04.000Z</time>
      </trkpt>
      <trkpt lat="47.26152" lon="-2.29566">
        <ele>83.199996948242</ele>
        <time>2021-06-13T07:31:05.000Z</time>
      </trkpt>
      <trkpt lat="47.26155" lon="-2.29565">
        <ele>83.599998474121</ele>
        <time>2021-06-13T07:31:06.000Z</time>
      </trkpt>
      <trkpt lat="47.26159" lon="-2.29563">
        <ele>84</ele>
        <time>2021-06-13T07:31:07.000Z</time>
      </trkpt>
      <trkpt lat="47.26162" lon="-2.29562">
        <ele>84.400001525879</ele>
        <time>2021-06-13T07:31:08.000Z</time>
      </trkpt>
      <trkpt lat="47.26166" lon="-2.29561">
        <ele>84.800003051758</ele>
        <time>2021-06-13T07:31:09.000Z</time>
      </trkpt>
      <trkpt lat="47.2617" lon="-2.2956">
        <ele>85.199996948242</ele>
        <time>2021-06-13T07:31:10.000Z</time>
      </trkpt>
      <trkpt lat="47.26175" lon="-2.29559">
        <ele>85.599998474121</ele>
        <time>2021-06-13T07:31:11.000Z</time>
      </trkpt>
      <trkpt lat="47.26179" lon="-2.29559">
        <ele>86</ele>
        <time>2021-06-13T07:31:12.000Z</time>
      </trkpt>
      <trkpt lat="47.26182" lon="-2.29555">
        <ele>86</ele>
        <time>2021-06-13T07:31:13.000Z</time>
      </trkpt>
      <trkpt lat="47.26181" lon="-2.29545">
        <ele>86</ele>
        <time>2021-06-13T07:31:16.000Z</time>
      </trkpt>
      <trkpt lat="47.26176" lon="-2.29533">
        <ele>86</ele>
        <time>2021-06-13T07:31:19.000Z</time>
      </trkpt>
      <trkpt lat="47.26167" lon="-2.29524">
        <ele>86</ele>
        <time>2021-06-13T07:31:22.000Z</time>
      </trkpt>
      <trkpt lat="47.26163" lon="-2.29522">
        <ele>86</ele>
        <time>2021-06-13T07:31:23.000Z</time>
      </trkpt>
      <trkpt lat="47.26148" lon="-2.29514">
        <ele>86</ele>
        <time>2021-06-13T07:31:27.000Z</time>
      </trkpt>
      <trkpt lat="47.26144" lon="-2.29512">
        <ele>86</ele>
        <time>2021-06-13T07:31:28.000Z</time>
      </trkpt>
      <trkpt lat="47.26137" lon="-2.29497">
        <ele>86</ele>
        <time>2021-06-13T07:31:31.000Z</time>
      </trkpt>
      <trkpt lat="47.26133" lon="-2.29489">
        <ele>86</ele>
        <time>2021-06-13T07:31:32.000Z</time>
      </trkpt>
      <trkpt lat="47.26121" lon="-2.2945">
        <ele>86</ele>
        <time>2021-06-13T07:31:38.000Z</time>
      </trkpt>
      <trkpt lat="47.26118" lon="-2.29423">
        <ele>86</ele>
        <time>2021-06-13T07:31:42.000Z</time>
      </trkpt>
      <trkpt lat="47.26117" lon="-2.29417">
        <ele>86</ele>
        <time>2021-06-13T07:31:43.000Z</time>
      </trkpt>
      <trkpt lat="47.26118" lon="-2.29394">
        <ele>86</ele>
        <time>2021-06-13T07:31:47.000Z</time>
      </trkpt>
      <trkpt lat="47.2612" lon="-2.29382">
        <ele>86</ele>
        <time>2021-06-13T07:31:49.000Z</time>
      </trkpt>
      <trkpt lat="47.2613" lon="-2.29341">
        <ele>86</ele>
        <time>2021-06-13T07:31:56.000Z</time>
      </trkpt>
      <trkpt lat="47.26132" lon="-2.29328">
        <ele>86</ele>
        <time>2021-06-13T07:32:00.000Z</time>
      </trkpt>
      <trkpt lat="47.26139" lon="-2.29334">
        <ele>86</ele>
        <time>2021-06-13T07:32:06.000Z</time>
      </trkpt>
      <trkpt lat="47.26141" lon="-2.29335">
        <ele>86</ele>
        <time>2021-06-13T07:32:07.000Z</time>
      </trkpt>
      <trkpt lat="47.26146" lon="-2.29336">
        <ele>86</ele>
        <time>2021-06-13T07:32:10.000Z</time>
      </trkpt>
      <trkpt lat="47.26154" lon="-2.29339">
        <ele>86</ele>
        <time>2021-06-13T07:32:15.000Z</time>
      </trkpt>
      <trkpt lat="47.26157" lon="-2.29341">
        <ele>86</ele>
        <time>2021-06-13T07:32:17.000Z</time>
      </trkpt>
      <trkpt lat="47.26173" lon="-2.29346">
        <ele>104.59999847412</ele>
        <time>2021-06-13T07:49:56.000Z</time>
      </trkpt>
      <trkpt lat="47.26174" lon="-2.29342">
        <ele>104.59999847412</ele>
        <time>2021-06-13T07:49:58.000Z</time>
      </trkpt>
      <trkpt lat="47.2618" lon="-2.29325">
        <ele>104.59999847412</ele>
        <time>2021-06-13T07:50:04.000Z</time>
      </trkpt>
      <trkpt lat="47.2619" lon="-2.29312">
        <ele>105</ele>
        <time>2021-06-13T07:50:09.000Z</time>
      </trkpt>
      <trkpt lat="47.26192" lon="-2.2931">
        <ele>105.40000152588</ele>
        <time>2021-06-13T07:50:10.000Z</time>
      </trkpt>
      <trkpt lat="47.26195" lon="-2.29307">
        <ele>105.80000305176</ele>
        <time>2021-06-13T07:50:11.000Z</time>
      </trkpt>
      <trkpt lat="47.26197" lon="-2.29305">
        <ele>106.19999694824</ele>
        <time>2021-06-13T07:50:12.000Z</time>
      </trkpt>
      <trkpt lat="47.26199" lon="-2.29301">
        <ele>106.80000305176</ele>
        <time>2021-06-13T07:50:13.000Z</time>
      </trkpt>
      <trkpt lat="47.26215" lon="-2.29292">
        <ele>106.80000305176</ele>
        <time>2021-06-13T07:50:16.000Z</time>
      </trkpt>
      <trkpt lat="47.26261" lon="-2.29275">
        <ele>106.80000305176</ele>
        <time>2021-06-13T07:50:24.000Z</time>
      </trkpt>
      <trkpt lat="47.2628" lon="-2.29268">
        <ele>107.19999694824</ele>
        <time>2021-06-13T07:50:28.000Z</time>
      </trkpt>
      <trkpt lat="47.26285" lon="-2.29267">
        <ele>107.59999847412</ele>
        <time>2021-06-13T07:50:29.000Z</time>
      </trkpt>
      <trkpt lat="47.2629" lon="-2.29266">
        <ele>108</ele>
        <time>2021-06-13T07:50:30.000Z</time>
      </trkpt>
      <trkpt lat="47.26295" lon="-2.29265">
        <ele>108.40000152588</ele>
        <time>2021-06-13T07:50:31.000Z</time>
      </trkpt>
      <trkpt lat="47.263" lon="-2.29264">
        <ele>108.80000305176</ele>
        <time>2021-06-13T07:50:32.000Z</time>
      </trkpt>
      <trkpt lat="47.26335" lon="-2.29265">
        <ele>108.80000305176</ele>
        <time>2021-06-13T07:50:39.000Z</time>
      </trkpt>
      <trkpt lat="47.26354" lon="-2.29271">
        <ele>108.80000305176</ele>
        <time>2021-06-13T07:50:43.000Z</time>
      </trkpt>
      <trkpt lat="47.26363" lon="-2.29275">
        <ele>109.19999694824</ele>
        <time>2021-06-13T07:50:45.000Z</time>
      </trkpt>
      <trkpt lat="47.26368" lon="-2.29277">
        <ele>109.80000305176</ele>
        <time>2021-06-13T07:50:46.000Z</time>
      </trkpt>
      <trkpt lat="47.26373" lon="-2.29279">
        <ele>110.19999694824</ele>
        <time>2021-06-13T07:50:47.000Z</time>
      </trkpt>
      <trkpt lat="47.26377" lon="-2.29282">
        <ele>110.59999847412</ele>
        <time>2021-06-13T07:50:48.000Z</time>
      </trkpt>
      <trkpt lat="47.26382" lon="-2.29284">
        <ele>111</ele>
        <time>2021-06-13T07:50:49.000Z</time>
      </trkpt>
      <trkpt lat="47.26405" lon="-2.29297">
        <ele>111</ele>
        <time>2021-06-13T07:50:54.000Z</time>
      </trkpt>
      <trkpt lat="47.26414" lon="-2.29302">
        <ele>111</ele>
        <time>2021-06-13T07:50:56.000Z</time>
      </trkpt>
      <trkpt lat="47.26433" lon="-2.29311">
        <ele>111</ele>
        <time>2021-06-13T07:51:00.000Z</time>
      </trkpt>
      <trkpt lat="47.26462" lon="-2.29324">
        <ele>111</ele>
        <time>2021-06-13T07:51:06.000Z</time>
      </trkpt>
      <trkpt lat="47.26467" lon="-2.29325">
        <ele>111</ele>
        <time>2021-06-13T07:51:07.000Z</time>
      </trkpt>
      <trkpt lat="47.2649" lon="-2.29327">
        <ele>111</ele>
        <time>2021-06-13T07:51:11.000Z</time>
      </trkpt>
      <trkpt lat="47.26501" lon="-2.29325">
        <ele>111</ele>
        <time>2021-06-13T07:51:13.000Z</time>
      </trkpt>
      <trkpt lat="47.26518" lon="-2.29319">
        <ele>111</ele>
        <time>2021-06-13T07:51:16.000Z</time>
      </trkpt>
      <trkpt lat="47.26535" lon="-2.29311">
        <ele>111</ele>
        <time>2021-06-13T07:51:19.000Z</time>
      </trkpt>
      <trkpt lat="47.26557" lon="-2.29297">
        <ele>111</ele>
        <time>2021-06-13T07:51:23.000Z</time>
      </trkpt>
      <trkpt lat="47.26608" lon="-2.29269">
        <ele>111</ele>
        <time>2021-06-13T07:51:32.000Z</time>
      </trkpt>
      <trkpt lat="47.26649" lon="-2.29238">
        <ele>111</ele>
        <time>2021-06-13T07:51:39.000Z</time>
      </trkpt>
      <trkpt lat="47.26683" lon="-2.29207">
        <ele>110.59999847412</ele>
        <time>2021-06-13T07:51:45.000Z</time>
      </trkpt>
      <trkpt lat="47.26688" lon="-2.29202">
        <ele>110.19999694824</ele>
        <time>2021-06-13T07:51:46.000Z</time>
      </trkpt>
      <trkpt lat="47.26694" lon="-2.29196">
        <ele>109.80000305176</ele>
        <time>2021-06-13T07:51:47.000Z</time>
      </trkpt>
      <trkpt lat="47.26699" lon="-2.29191">
        <ele>109.40000152588</ele>
        <time>2021-06-13T07:51:48.000Z</time>
      </trkpt>
      <trkpt lat="47.26705" lon="-2.29186">
        <ele>109</ele>
        <time>2021-06-13T07:51:49.000Z</time>
      </trkpt>
      <trkpt lat="47.26726" lon="-2.29166">
        <ele>108.40000152588</ele>
        <time>2021-06-13T07:51:53.000Z</time>
      </trkpt>
      <trkpt lat="47.26732" lon="-2.2916">
        <ele>108</ele>
        <time>2021-06-13T07:51:54.000Z</time>
      </trkpt>
      <trkpt lat="47.26737" lon="-2.29153">
        <ele>107.59999847412</ele>
        <time>2021-06-13T07:51:55.000Z</time>
      </trkpt>
      <trkpt lat="47.26743" lon="-2.29146">
        <ele>107.19999694824</ele>
        <time>2021-06-13T07:51:56.000Z</time>
      </trkpt>
      <trkpt lat="47.26748" lon="-2.2914">
        <ele>106.80000305176</ele>
        <time>2021-06-13T07:51:57.000Z</time>
      </trkpt>
      <trkpt lat="47.26759" lon="-2.29127">
        <ele>106.80000305176</ele>
        <time>2021-06-13T07:51:59.000Z</time>
      </trkpt>
      <trkpt lat="47.26785" lon="-2.291">
        <ele>106.80000305176</ele>
        <time>2021-06-13T07:52:03.000Z</time>
      </trkpt>
      <trkpt lat="47.26791" lon="-2.29093">
        <ele>106.40000152588</ele>
        <time>2021-06-13T07:52:04.000Z</time>
      </trkpt>
      <trkpt lat="47.26798" lon="-2.29086">
        <ele>106</ele>
        <time>2021-06-13T07:52:05.000Z</time>
      </trkpt>
      <trkpt lat="47.26805" lon="-2.2908">
        <ele>105.59999847412</ele>
        <time>2021-06-13T07:52:06.000Z</time>
      </trkpt>
      <trkpt lat="47.26812" lon="-2.29074">
        <ele>105.19999694824</ele>
        <time>2021-06-13T07:52:07.000Z</time>
      </trkpt>
      <trkpt lat="47.26819" lon="-2.29068">
        <ele>104.80000305176</ele>
        <time>2021-06-13T07:52:08.000Z</time>
      </trkpt>
      <trkpt lat="47.26839" lon="-2.29051">
        <ele>104.80000305176</ele>
        <time>2021-06-13T07:52:11.000Z</time>
      </trkpt>
      <trkpt lat="47.26868" lon="-2.29024">
        <ele>104.40000152588</ele>
        <time>2021-06-13T07:52:16.000Z</time>
      </trkpt>
      <trkpt lat="47.26873" lon="-2.29019">
        <ele>103.80000305176</ele>
        <time>2021-06-13T07:52:17.000Z</time>
      </trkpt>
      <trkpt lat="47.26879" lon="-2.29013">
        <ele>103.40000152588</ele>
        <time>2021-06-13T07:52:18.000Z</time>
      </trkpt>
      <trkpt lat="47.26885" lon="-2.29008">
        <ele>103</ele>
        <time>2021-06-13T07:52:19.000Z</time>
      </trkpt>
      <trkpt lat="47.26891" lon="-2.29003">
        <ele>102.59999847412</ele>
        <time>2021-06-13T07:52:20.000Z</time>
      </trkpt>
      <trkpt lat="47.26911" lon="-2.28987">
        <ele>102.59999847412</ele>
        <time>2021-06-13T07:52:24.000Z</time>
      </trkpt>
      <trkpt lat="47.26915" lon="-2.28985">
        <ele>102.59999847412</ele>
        <time>2021-06-13T07:52:25.000Z</time>
      </trkpt>
      <trkpt lat="47.26924" lon="-2.28981">
        <ele>102.59999847412</ele>
        <time>2021-06-13T07:52:28.000Z</time>
      </trkpt>
      <trkpt lat="47.26927" lon="-2.2898">
        <ele>102.59999847412</ele>
        <time>2021-06-13T07:52:32.000Z</time>
      </trkpt>
      <trkpt lat="47.26924" lon="-2.28981">
        <ele>102.59999847412</ele>
        <time>2021-06-13T07:52:35.000Z</time>
      </trkpt>
      <trkpt lat="47.26917" lon="-2.28981">
        <ele>102.59999847412</ele>
        <time>2021-06-13T07:52:37.000Z</time>
      </trkpt>
      <trkpt lat="47.26896" lon="-2.28976">
        <ele>102.59999847412</ele>
        <time>2021-06-13T07:52:41.000Z</time>
      </trkpt>
      <trkpt lat="47.26891" lon="-2.28974">
        <ele>102.59999847412</ele>
        <time>2021-06-13T07:52:42.000Z</time>
      </trkpt>
      <trkpt lat="47.26854" lon="-2.28954">
        <ele>102.59999847412</ele>
        <time>2021-06-13T07:52:49.000Z</time>
      </trkpt>
      <trkpt lat="47.26842" lon="-2.28946">
        <ele>102.59999847412</ele>
        <time>2021-06-13T07:52:51.000Z</time>
      </trkpt>
      <trkpt lat="47.26819" lon="-2.28931">
        <ele>102.59999847412</ele>
        <time>2021-06-13T07:52:55.000Z</time>
      </trkpt>
      <trkpt lat="47.26813" lon="-2.28927">
        <ele>102.59999847412</ele>
        <time>2021-06-13T07:52:56.000Z</time>
      </trkpt>
      <trkpt lat="47.26791" lon="-2.28915">
        <ele>102.59999847412</ele>
        <time>2021-06-13T07:53:00.000Z</time>
      </trkpt>
      <trkpt lat="47.26775" lon="-2.28904">
        <ele>102.59999847412</ele>
        <time>2021-06-13T07:53:03.000Z</time>
      </trkpt>
      <trkpt lat="47.26764" lon="-2.28894">
        <ele>102.59999847412</ele>
        <time>2021-06-13T07:53:05.000Z</time>
      </trkpt>
      <trkpt lat="47.2672" lon="-2.28854">
        <ele>103</ele>
        <time>2021-06-13T07:53:13.000Z</time>
      </trkpt>
      <trkpt lat="47.26714" lon="-2.28849">
        <ele>103.40000152588</ele>
        <time>2021-06-13T07:53:14.000Z</time>
      </trkpt>
      <trkpt lat="47.26709" lon="-2.28844">
        <ele>103.80000305176</ele>
        <time>2021-06-13T07:53:15.000Z</time>
      </trkpt>
      <trkpt lat="47.26704" lon="-2.28839">
        <ele>104.40000152588</ele>
        <time>2021-06-13T07:53:16.000Z</time>
      </trkpt>
      <trkpt lat="47.26699" lon="-2.28833">
        <ele>104.80000305176</ele>
        <time>2021-06-13T07:53:17.000Z</time>
      </trkpt>
      <trkpt lat="47.26688" lon="-2.28821">
        <ele>104.80000305176</ele>
        <time>2021-06-13T07:53:19.000Z</time>
      </trkpt>
      <trkpt lat="47.26647" lon="-2.2878">
        <ele>104.80000305176</ele>
        <time>2021-06-13T07:53:27.000Z</time>
      </trkpt>
      <trkpt lat="47.26617" lon="-2.2875">
        <ele>104.80000305176</ele>
        <time>2021-06-13T07:53:33.000Z</time>
      </trkpt>
      <trkpt lat="47.26592" lon="-2.28723">
        <ele>105.19999694824</ele>
        <time>2021-06-13T07:53:38.000Z</time>
      </trkpt>
      <trkpt lat="47.26588" lon="-2.28717">
        <ele>105.59999847412</ele>
        <time>2021-06-13T07:53:39.000Z</time>
      </trkpt>
      <trkpt lat="47.26583" lon="-2.28711">
        <ele>106</ele>
        <time>2021-06-13T07:53:40.000Z</time>
      </trkpt>
      <trkpt lat="47.26578" lon="-2.28705">
        <ele>106.40000152588</ele>
        <time>2021-06-13T07:53:41.000Z</time>
      </trkpt>
      <trkpt lat="47.26574" lon="-2.287">
        <ele>106.80000305176</ele>
        <time>2021-06-13T07:53:42.000Z</time>
      </trkpt>
      <trkpt lat="47.26561" lon="-2.28684">
        <ele>106.80000305176</ele>
        <time>2021-06-13T07:53:45.000Z</time>
      </trkpt>
      <trkpt lat="47.2654" lon="-2.28661">
        <ele>106.80000305176</ele>
        <time>2021-06-13T07:53:50.000Z</time>
      </trkpt>
      <trkpt lat="47.26531" lon="-2.28651">
        <ele>106.80000305176</ele>
        <time>2021-06-13T07:53:52.000Z</time>
      </trkpt>
      <trkpt lat="47.26522" lon="-2.28639">
        <ele>107.19999694824</ele>
        <time>2021-06-13T07:53:54.000Z</time>
      </trkpt>
      <trkpt lat="47.26518" lon="-2.28633">
        <ele>107.80000305176</ele>
        <time>2021-06-13T07:53:55.000Z</time>
      </trkpt>
      <trkpt lat="47.26514" lon="-2.28626">
        <ele>108.19999694824</ele>
        <time>2021-06-13T07:53:56.000Z</time>
      </trkpt>
      <trkpt lat="47.26509" lon="-2.28621">
        <ele>108.59999847412</ele>
        <time>2021-06-13T07:53:57.000Z</time>
      </trkpt>
      <trkpt lat="47.26503" lon="-2.28615">
        <ele>109</ele>
        <time>2021-06-13T07:53:58.000Z</time>
      </trkpt>
      <trkpt lat="47.26495" lon="-2.28604">
        <ele>109</ele>
        <time>2021-06-13T07:54:00.000Z</time>
      </trkpt>
      <trkpt lat="47.2649" lon="-2.28588">
        <ele>109</ele>
        <time>2021-06-13T07:54:02.000Z</time>
      </trkpt>
      <trkpt lat="47.26487" lon="-2.28572">
        <ele>109</ele>
        <time>2021-06-13T07:54:04.000Z</time>
      </trkpt>
      <trkpt lat="47.26485" lon="-2.28558">
        <ele>109</ele>
        <time>2021-06-13T07:54:06.000Z</time>
      </trkpt>
      <trkpt lat="47.2647" lon="-2.28512">
        <ele>109.40000152588</ele>
        <time>2021-06-13T07:54:13.000Z</time>
      </trkpt>
      <trkpt lat="47.26467" lon="-2.28505">
        <ele>110</ele>
        <time>2021-06-13T07:54:14.000Z</time>
      </trkpt>
      <trkpt lat="47.26463" lon="-2.28498">
        <ele>110.40000152588</ele>
        <time>2021-06-13T07:54:15.000Z</time>
      </trkpt>
      <trkpt lat="47.26459" lon="-2.28491">
        <ele>110.80000305176</ele>
        <time>2021-06-13T07:54:16.000Z</time>
      </trkpt>
      <trkpt lat="47.26456" lon="-2.28484">
        <ele>111.19999694824</ele>
        <time>2021-06-13T07:54:17.000Z</time>
      </trkpt>
      <trkpt lat="47.26452" lon="-2.28478">
        <ele>111.19999694824</ele>
        <time>2021-06-13T07:54:18.000Z</time>
      </trkpt>
      <trkpt lat="47.26448" lon="-2.28471">
        <ele>111.19999694824</ele>
        <time>2021-06-13T07:54:19.000Z</time>
      </trkpt>
      <trkpt lat="47.26421" lon="-2.28422">
        <ele>111.19999694824</ele>
        <time>2021-06-13T07:54:26.000Z</time>
      </trkpt>
      <trkpt lat="47.26414" lon="-2.28409">
        <ele>111.59999847412</ele>
        <time>2021-06-13T07:54:28.000Z</time>
      </trkpt>
      <trkpt lat="47.26411" lon="-2.28402">
        <ele>112</ele>
        <time>2021-06-13T07:54:29.000Z</time>
      </trkpt>
      <trkpt lat="47.26407" lon="-2.28395">
        <ele>112.40000152588</ele>
        <time>2021-06-13T07:54:30.000Z</time>
      </trkpt>
      <trkpt lat="47.26404" lon="-2.28387">
        <ele>112.80000305176</ele>
        <time>2021-06-13T07:54:31.000Z</time>
      </trkpt>
      <trkpt lat="47.264" lon="-2.28379">
        <ele>113.19999694824</ele>
        <time>2021-06-13T07:54:32.000Z</time>
      </trkpt>
      <trkpt lat="47.26392" lon="-2.28363">
        <ele>113.19999694824</ele>
        <time>2021-06-13T07:54:34.000Z</time>
      </trkpt>
      <trkpt lat="47.26364" lon="-2.28302">
        <ele>113.19999694824</ele>
        <time>2021-06-13T07:54:42.000Z</time>
      </trkpt>
      <trkpt lat="47.26345" lon="-2.28246">
        <ele>113.19999694824</ele>
        <time>2021-06-13T07:54:49.000Z</time>
      </trkpt>
      <trkpt lat="47.26333" lon="-2.28183">
        <ele>113.19999694824</ele>
        <time>2021-06-13T07:54:57.000Z</time>
      </trkpt>
      <trkpt lat="47.26326" lon="-2.28142">
        <ele>113.19999694824</ele>
        <time>2021-06-13T07:55:02.000Z</time>
      </trkpt>
      <trkpt lat="47.26326" lon="-2.28134">
        <ele>113.19999694824</ele>
        <time>2021-06-13T07:55:03.000Z</time>
      </trkpt>
      <trkpt lat="47.26318" lon="-2.28066">
        <ele>113.19999694824</ele>
        <time>2021-06-13T07:55:11.000Z</time>
      </trkpt>
      <trkpt lat="47.26305" lon="-2.28021">
        <ele>113.19999694824</ele>
        <time>2021-06-13T07:55:17.000Z</time>
      </trkpt>
      <trkpt lat="47.26293" lon="-2.27987">
        <ele>112.80000305176</ele>
        <time>2021-06-13T07:55:22.000Z</time>
      </trkpt>
      <trkpt lat="47.2629" lon="-2.2798">
        <ele>112.40000152588</ele>
        <time>2021-06-13T07:55:23.000Z</time>
      </trkpt>
      <trkpt lat="47.26287" lon="-2.27974">
        <ele>112</ele>
        <time>2021-06-13T07:55:24.000Z</time>
      </trkpt>
      <trkpt lat="47.26285" lon="-2.27969">
        <ele>111.59999847412</ele>
        <time>2021-06-13T07:55:25.000Z</time>
      </trkpt>
      <trkpt lat="47.26282" lon="-2.27964">
        <ele>111.19999694824</ele>
        <time>2021-06-13T07:55:26.000Z</time>
      </trkpt>
      <trkpt lat="47.26274" lon="-2.27954">
        <ele>111.19999694824</ele>
        <time>2021-06-13T07:55:29.000Z</time>
      </trkpt>
      <trkpt lat="47.26261" lon="-2.27931">
        <ele>111.19999694824</ele>
        <time>2021-06-13T07:55:33.000Z</time>
      </trkpt>
      <trkpt lat="47.26254" lon="-2.27918">
        <ele>111.19999694824</ele>
        <time>2021-06-13T07:55:35.000Z</time>
      </trkpt>
      <trkpt lat="47.26242" lon="-2.27897">
        <ele>111.19999694824</ele>
        <time>2021-06-13T07:55:38.000Z</time>
      </trkpt>
      <trkpt lat="47.26217" lon="-2.27848">
        <ele>111.19999694824</ele>
        <time>2021-06-13T07:55:45.000Z</time>
      </trkpt>
      <trkpt lat="47.26192" lon="-2.278">
        <ele>111.19999694824</ele>
        <time>2021-06-13T07:55:52.000Z</time>
      </trkpt>
      <trkpt lat="47.26178" lon="-2.27771">
        <ele>111.59999847412</ele>
        <time>2021-06-13T07:55:56.000Z</time>
      </trkpt>
      <trkpt lat="47.26175" lon="-2.27763">
        <ele>112</ele>
        <time>2021-06-13T07:55:57.000Z</time>
      </trkpt>
      <trkpt lat="47.26171" lon="-2.27755">
        <ele>112.40000152588</ele>
        <time>2021-06-13T07:55:58.000Z</time>
      </trkpt>
      <trkpt lat="47.26168" lon="-2.27747">
        <ele>112.80000305176</ele>
        <time>2021-06-13T07:55:59.000Z</time>
      </trkpt>
      <trkpt lat="47.26165" lon="-2.27739">
        <ele>113.19999694824</ele>
        <time>2021-06-13T07:56:00.000Z</time>
      </trkpt>
      <trkpt lat="47.26151" lon="-2.27698">
        <ele>113.19999694824</ele>
        <time>2021-06-13T07:56:05.000Z</time>
      </trkpt>
      <trkpt lat="47.26132" lon="-2.27632">
        <ele>113.19999694824</ele>
        <time>2021-06-13T07:56:13.000Z</time>
      </trkpt>
      <trkpt lat="47.26129" lon="-2.27597">
        <ele>113.19999694824</ele>
        <time>2021-06-13T07:56:18.000Z</time>
      </trkpt>
      <trkpt lat="47.26127" lon="-2.27585">
        <ele>113.19999694824</ele>
        <time>2021-06-13T07:56:20.000Z</time>
      </trkpt>
      <trkpt lat="47.26124" lon="-2.27575">
        <ele>113.19999694824</ele>
        <time>2021-06-13T07:56:22.000Z</time>
      </trkpt>
      <trkpt lat="47.26114" lon="-2.27574">
        <ele>113.19999694824</ele>
        <time>2021-06-13T07:56:24.000Z</time>
      </trkpt>
      <trkpt lat="47.26093" lon="-2.27585">
        <ele>113.19999694824</ele>
        <time>2021-06-13T07:56:28.000Z</time>
      </trkpt>
      <trkpt lat="47.26088" lon="-2.27589">
        <ele>113.19999694824</ele>
        <time>2021-06-13T07:56:29.000Z</time>
      </trkpt>
      <trkpt lat="47.26075" lon="-2.27602">
        <ele>113.19999694824</ele>
        <time>2021-06-13T07:56:32.000Z</time>
      </trkpt>
      <trkpt lat="47.26065" lon="-2.27609">
        <ele>113.19999694824</ele>
        <time>2021-06-13T07:56:34.000Z</time>
      </trkpt>
      <trkpt lat="47.26052" lon="-2.27618">
        <ele>113.19999694824</ele>
        <time>2021-06-13T07:56:37.000Z</time>
      </trkpt>
      <trkpt lat="47.26044" lon="-2.27619">
        <ele>113.19999694824</ele>
        <time>2021-06-13T07:56:39.000Z</time>
      </trkpt>
      <trkpt lat="47.26035" lon="-2.27605">
        <ele>113.19999694824</ele>
        <time>2021-06-13T07:56:42.000Z</time>
      </trkpt>
      <trkpt lat="47.26033" lon="-2.27599">
        <ele>113.19999694824</ele>
        <time>2021-06-13T07:56:43.000Z</time>
      </trkpt>
      <trkpt lat="47.26026" lon="-2.27581">
        <ele>113.19999694824</ele>
        <time>2021-06-13T07:56:46.000Z</time>
      </trkpt>
      <trkpt lat="47.26021" lon="-2.27563">
        <ele>113.19999694824</ele>
        <time>2021-06-13T07:56:49.000Z</time>
      </trkpt>
      <trkpt lat="47.26015" lon="-2.27524">
        <ele>113.19999694824</ele>
        <time>2021-06-13T07:56:56.000Z</time>
      </trkpt>
      <trkpt lat="47.26015" lon="-2.27517">
        <ele>113.19999694824</ele>
        <time>2021-06-13T07:56:57.000Z</time>
      </trkpt>
      <trkpt lat="47.26017" lon="-2.27487">
        <ele>113.19999694824</ele>
        <time>2021-06-13T07:57:01.000Z</time>
      </trkpt>
      <trkpt lat="47.26018" lon="-2.27473">
        <ele>113.19999694824</ele>
        <time>2021-06-13T07:57:03.000Z</time>
      </trkpt>
      <trkpt lat="47.26023" lon="-2.27444">
        <ele>113.19999694824</ele>
        <time>2021-06-13T07:57:07.000Z</time>
      </trkpt>
      <trkpt lat="47.26032" lon="-2.27402">
        <ele>113.19999694824</ele>
        <time>2021-06-13T07:57:12.000Z</time>
      </trkpt>
      <trkpt lat="47.26045" lon="-2.27373">
        <ele>113.19999694824</ele>
        <time>2021-06-13T07:57:16.000Z</time>
      </trkpt>
      <trkpt lat="47.26052" lon="-2.27367">
        <ele>113.19999694824</ele>
        <time>2021-06-13T07:57:17.000Z</time>
      </trkpt>
      <trkpt lat="47.26092" lon="-2.27331">
        <ele>113.19999694824</ele>
        <time>2021-06-13T07:57:23.000Z</time>
      </trkpt>
      <trkpt lat="47.26128" lon="-2.27303">
        <ele>113.19999694824</ele>
        <time>2021-06-13T07:57:29.000Z</time>
      </trkpt>
      <trkpt lat="47.26148" lon="-2.27304">
        <ele>113.19999694824</ele>
        <time>2021-06-13T07:57:32.000Z</time>
      </trkpt>
      <trkpt lat="47.26155" lon="-2.27303">
        <ele>113.19999694824</ele>
        <time>2021-06-13T07:57:33.000Z</time>
      </trkpt>
      <trkpt lat="47.26192" lon="-2.27301">
        <ele>113.19999694824</ele>
        <time>2021-06-13T07:57:38.000Z</time>
      </trkpt>
      <trkpt lat="47.2623" lon="-2.27306">
        <ele>113.19999694824</ele>
        <time>2021-06-13T07:57:44.000Z</time>
      </trkpt>
      <trkpt lat="47.26277" lon="-2.27309">
        <ele>113.19999694824</ele>
        <time>2021-06-13T07:57:51.000Z</time>
      </trkpt>
      <trkpt lat="47.26326" lon="-2.27318">
        <ele>113.19999694824</ele>
        <time>2021-06-13T07:57:58.000Z</time>
      </trkpt>
      <trkpt lat="47.26364" lon="-2.2732">
        <ele>113.19999694824</ele>
        <time>2021-06-13T07:58:04.000Z</time>
      </trkpt>
      <trkpt lat="47.26402" lon="-2.27324">
        <ele>112.80000305176</ele>
        <time>2021-06-13T07:58:10.000Z</time>
      </trkpt>
      <trkpt lat="47.26408" lon="-2.27325">
        <ele>112.19999694824</ele>
        <time>2021-06-13T07:58:11.000Z</time>
      </trkpt>
      <trkpt lat="47.26415" lon="-2.27328">
        <ele>111.80000305176</ele>
        <time>2021-06-13T07:58:12.000Z</time>
      </trkpt>
      <trkpt lat="47.26419" lon="-2.27332">
        <ele>111.40000152588</ele>
        <time>2021-06-13T07:58:13.000Z</time>
      </trkpt>
      <trkpt lat="47.26423" lon="-2.27337">
        <ele>111</ele>
        <time>2021-06-13T07:58:14.000Z</time>
      </trkpt>
      <trkpt lat="47.26426" lon="-2.27345">
        <ele>111</ele>
        <time>2021-06-13T07:58:15.000Z</time>
      </trkpt>
      <trkpt lat="47.26429" lon="-2.27354">
        <ele>111</ele>
        <time>2021-06-13T07:58:16.000Z</time>
      </trkpt>
      <trkpt lat="47.2644" lon="-2.27385">
        <ele>111</ele>
        <time>2021-06-13T07:58:20.000Z</time>
      </trkpt>
      <trkpt lat="47.26443" lon="-2.27394">
        <ele>110.59999847412</ele>
        <time>2021-06-13T07:58:21.000Z</time>
      </trkpt>
      <trkpt lat="47.26446" lon="-2.27403">
        <ele>110.19999694824</ele>
        <time>2021-06-13T07:58:22.000Z</time>
      </trkpt>
      <trkpt lat="47.26449" lon="-2.27412">
        <ele>109.59999847412</ele>
        <time>2021-06-13T07:58:23.000Z</time>
      </trkpt>
      <trkpt lat="47.26452" lon="-2.27422">
        <ele>109.19999694824</ele>
        <time>2021-06-13T07:58:24.000Z</time>
      </trkpt>
      <trkpt lat="47.26456" lon="-2.27433">
        <ele>108.80000305176</ele>
        <time>2021-06-13T07:58:25.000Z</time>
      </trkpt>
      <trkpt lat="47.26459" lon="-2.27443">
        <ele>108.80000305176</ele>
        <time>2021-06-13T07:58:26.000Z</time>
      </trkpt>
      <trkpt lat="47.26478" lon="-2.27509">
        <ele>108.40000152588</ele>
        <time>2021-06-13T07:58:33.000Z</time>
      </trkpt>
      <trkpt lat="47.2648" lon="-2.27519">
        <ele>108</ele>
        <time>2021-06-13T07:58:34.000Z</time>
      </trkpt>
      <trkpt lat="47.26483" lon="-2.2753">
        <ele>107.59999847412</ele>
        <time>2021-06-13T07:58:35.000Z</time>
      </trkpt>
      <trkpt lat="47.26485" lon="-2.2754">
        <ele>107</ele>
        <time>2021-06-13T07:58:36.000Z</time>
      </trkpt>
      <trkpt lat="47.26486" lon="-2.2755">
        <ele>106.59999847412</ele>
        <time>2021-06-13T07:58:37.000Z</time>
      </trkpt>
      <trkpt lat="47.26491" lon="-2.27567">
        <ele>106.59999847412</ele>
        <time>2021-06-13T07:58:39.000Z</time>
      </trkpt>
      <trkpt lat="47.26495" lon="-2.27569">
        <ele>106.59999847412</ele>
        <time>2021-06-13T07:58:40.000Z</time>
      </trkpt>
      <trkpt lat="47.26506" lon="-2.27571">
        <ele>106.19999694824</ele>
        <time>2021-06-13T07:58:42.000Z</time>
      </trkpt>
      <trkpt lat="47.26513" lon="-2.27569">
        <ele>105.80000305176</ele>
        <time>2021-06-13T07:58:43.000Z</time>
      </trkpt>
      <trkpt lat="47.26519" lon="-2.27567">
        <ele>105.40000152588</ele>
        <time>2021-06-13T07:58:44.000Z</time>
      </trkpt>
      <trkpt lat="47.26525" lon="-2.27563">
        <ele>105</ele>
        <time>2021-06-13T07:58:45.000Z</time>
      </trkpt>
      <trkpt lat="47.2653" lon="-2.27559">
        <ele>104.59999847412</ele>
        <time>2021-06-13T07:58:46.000Z</time>
      </trkpt>
      <trkpt lat="47.26536" lon="-2.27555">
        <ele>104.59999847412</ele>
        <time>2021-06-13T07:58:47.000Z</time>
      </trkpt>
      <trkpt lat="47.26541" lon="-2.2755">
        <ele>104.59999847412</ele>
        <time>2021-06-13T07:58:48.000Z</time>
      </trkpt>
      <trkpt lat="47.26552" lon="-2.27539">
        <ele>104.59999847412</ele>
        <time>2021-06-13T07:58:51.000Z</time>
      </trkpt>
      <trkpt lat="47.26559" lon="-2.27529">
        <ele>104.59999847412</ele>
        <time>2021-06-13T07:58:53.000Z</time>
      </trkpt>
      <trkpt lat="47.26564" lon="-2.27517">
        <ele>104.59999847412</ele>
        <time>2021-06-13T07:58:55.000Z</time>
      </trkpt>
      <trkpt lat="47.26568" lon="-2.27505">
        <ele>104.59999847412</ele>
        <time>2021-06-13T07:58:57.000Z</time>
      </trkpt>
      <trkpt lat="47.26571" lon="-2.27493">
        <ele>105</ele>
        <time>2021-06-13T07:58:59.000Z</time>
      </trkpt>
      <trkpt lat="47.26573" lon="-2.27487">
        <ele>105.59999847412</ele>
        <time>2021-06-13T07:59:00.000Z</time>
      </trkpt>
      <trkpt lat="47.26575" lon="-2.27481">
        <ele>106</ele>
        <time>2021-06-13T07:59:01.000Z</time>
      </trkpt>
      <trkpt lat="47.26577" lon="-2.27476">
        <ele>106.40000152588</ele>
        <time>2021-06-13T07:59:02.000Z</time>
      </trkpt>
      <trkpt lat="47.26579" lon="-2.27471">
        <ele>106.80000305176</ele>
        <time>2021-06-13T07:59:03.000Z</time>
      </trkpt>
      <trkpt lat="47.26582" lon="-2.27466">
        <ele>106.80000305176</ele>
        <time>2021-06-13T07:59:04.000Z</time>
      </trkpt>
      <trkpt lat="47.26585" lon="-2.27462">
        <ele>106.80000305176</ele>
        <time>2021-06-13T07:59:05.000Z</time>
      </trkpt>
      <trkpt lat="47.26605" lon="-2.27439">
        <ele>106.80000305176</ele>
        <time>2021-06-13T07:59:11.000Z</time>
      </trkpt>
      <trkpt lat="47.26632" lon="-2.27411">
        <ele>106.80000305176</ele>
        <time>2021-06-13T07:59:18.000Z</time>
      </trkpt>
      <trkpt lat="47.26671" lon="-2.27374">
        <ele>106.80000305176</ele>
        <time>2021-06-13T07:59:27.000Z</time>
      </trkpt>
      <trkpt lat="47.26696" lon="-2.2736">
        <ele>106.80000305176</ele>
        <time>2021-06-13T07:59:33.000Z</time>
      </trkpt>
      <trkpt lat="47.26717" lon="-2.27353">
        <ele>106.80000305176</ele>
        <time>2021-06-13T07:59:39.000Z</time>
      </trkpt>
      <trkpt lat="47.26731" lon="-2.27349">
        <ele>106.80000305176</ele>
        <time>2021-06-13T07:59:45.000Z</time>
      </trkpt>
      <trkpt lat="47.26737" lon="-2.27351">
        <ele>106.80000305176</ele>
        <time>2021-06-13T07:59:50.000Z</time>
      </trkpt>
      <trkpt lat="47.26738" lon="-2.27354">
        <ele>106.80000305176</ele>
        <time>2021-06-13T07:59:51.000Z</time>
      </trkpt>
      <trkpt lat="47.26741" lon="-2.27367">
        <ele>106.80000305176</ele>
        <time>2021-06-13T07:59:54.000Z</time>
      </trkpt>
      <trkpt lat="47.26742" lon="-2.27374">
        <ele>106.80000305176</ele>
        <time>2021-06-13T07:59:55.000Z</time>
      </trkpt>
      <trkpt lat="47.26753" lon="-2.27403">
        <ele>106.80000305176</ele>
        <time>2021-06-13T08:00:01.000Z</time>
      </trkpt>
      <trkpt lat="47.26772" lon="-2.27403">
        <ele>106.80000305176</ele>
        <time>2021-06-13T08:00:05.000Z</time>
      </trkpt>
      <trkpt lat="47.26805" lon="-2.27399">
        <ele>106.80000305176</ele>
        <time>2021-06-13T08:00:12.000Z</time>
      </trkpt>
      <trkpt lat="47.26828" lon="-2.27393">
        <ele>106.80000305176</ele>
        <time>2021-06-13T08:00:17.000Z</time>
      </trkpt>
      <trkpt lat="47.26838" lon="-2.27389">
        <ele>105.80000305176</ele>
        <time>2021-06-13T08:00:19.000Z</time>
      </trkpt>
      <trkpt lat="47.26843" lon="-2.27387">
        <ele>105.40000152588</ele>
        <time>2021-06-13T08:00:20.000Z</time>
      </trkpt>
      <trkpt lat="47.26848" lon="-2.27385">
        <ele>105</ele>
        <time>2021-06-13T08:00:21.000Z</time>
      </trkpt>
      <trkpt lat="47.26853" lon="-2.27382">
        <ele>104.40000152588</ele>
        <time>2021-06-13T08:00:22.000Z</time>
      </trkpt>
      <trkpt lat="47.26868" lon="-2.27373">
        <ele>104.40000152588</ele>
        <time>2021-06-13T08:00:25.000Z</time>
      </trkpt>
      <trkpt lat="47.26882" lon="-2.27365">
        <ele>104</ele>
        <time>2021-06-13T08:00:28.000Z</time>
      </trkpt>
      <trkpt lat="47.26886" lon="-2.27363">
        <ele>103.40000152588</ele>
        <time>2021-06-13T08:00:29.000Z</time>
      </trkpt>
      <trkpt lat="47.2689" lon="-2.27363">
        <ele>103</ele>
        <time>2021-06-13T08:00:30.000Z</time>
      </trkpt>
      <trkpt lat="47.26893" lon="-2.27362">
        <ele>102.40000152588</ele>
        <time>2021-06-13T08:00:31.000Z</time>
      </trkpt>
      <trkpt lat="47.26896" lon="-2.2736">
        <ele>102</ele>
        <time>2021-06-13T08:00:32.000Z</time>
      </trkpt>
      <trkpt lat="47.26905" lon="-2.27353">
        <ele>102</ele>
        <time>2021-06-13T08:00:36.000Z</time>
      </trkpt>
      <trkpt lat="47.2691" lon="-2.27335">
        <ele>102</ele>
        <time>2021-06-13T08:00:42.000Z</time>
      </trkpt>
      <trkpt lat="47.26914" lon="-2.27306">
        <ele>102</ele>
        <time>2021-06-13T08:00:50.000Z</time>
      </trkpt>
      <trkpt lat="47.26915" lon="-2.27287">
        <ele>102</ele>
        <time>2021-06-13T08:00:56.000Z</time>
      </trkpt>
      <trkpt lat="47.2692" lon="-2.27267">
        <ele>102</ele>
        <time>2021-06-13T08:01:02.000Z</time>
      </trkpt>
      <trkpt lat="47.26924" lon="-2.2725">
        <ele>102</ele>
        <time>2021-06-13T08:01:07.000Z</time>
      </trkpt>
      <trkpt lat="47.2693" lon="-2.27236">
        <ele>102</ele>
        <time>2021-06-13T08:01:13.000Z</time>
      </trkpt>
      <trkpt lat="47.2694" lon="-2.27207">
        <ele>102</ele>
        <time>2021-06-13T08:01:21.000Z</time>
      </trkpt>
      <trkpt lat="47.26944" lon="-2.27187">
        <ele>102</ele>
        <time>2021-06-13T08:01:27.000Z</time>
      </trkpt>
      <trkpt lat="47.26955" lon="-2.2717">
        <ele>102</ele>
        <time>2021-06-13T08:01:34.000Z</time>
      </trkpt>
      <trkpt lat="47.26966" lon="-2.27162">
        <ele>102</ele>
        <time>2021-06-13T08:01:40.000Z</time>
      </trkpt>
      <trkpt lat="47.26973" lon="-2.27156">
        <ele>101.59999847412</ele>
        <time>2021-06-13T08:01:45.000Z</time>
      </trkpt>
      <trkpt lat="47.26975" lon="-2.27155">
        <ele>101</ele>
        <time>2021-06-13T08:01:46.000Z</time>
      </trkpt>
      <trkpt lat="47.26976" lon="-2.27153">
        <ele>100.59999847412</ele>
        <time>2021-06-13T08:01:47.000Z</time>
      </trkpt>
      <trkpt lat="47.26978" lon="-2.27152">
        <ele>100.19999694824</ele>
        <time>2021-06-13T08:01:48.000Z</time>
      </trkpt>
      <trkpt lat="47.26979" lon="-2.27151">
        <ele>99.599998474121</ele>
        <time>2021-06-13T08:01:49.000Z</time>
      </trkpt>
      <trkpt lat="47.26991" lon="-2.27141">
        <ele>99.599998474121</ele>
        <time>2021-06-13T08:01:55.000Z</time>
      </trkpt>
      <trkpt lat="47.27005" lon="-2.27129">
        <ele>99.599998474121</ele>
        <time>2021-06-13T08:02:01.000Z</time>
      </trkpt>
      <trkpt lat="47.27006" lon="-2.27124">
        <ele>99.599998474121</ele>
        <time>2021-06-13T08:02:03.000Z</time>
      </trkpt>
      <trkpt lat="47.27005" lon="-2.27116">
        <ele>99.599998474121</ele>
        <time>2021-06-13T08:02:05.000Z</time>
      </trkpt>
      <trkpt lat="47.26996" lon="-2.27083">
        <ele>99.599998474121</ele>
        <time>2021-06-13T08:02:12.000Z</time>
      </trkpt>
      <trkpt lat="47.26996" lon="-2.27071">
        <ele>100.19999694824</ele>
        <time>2021-06-13T08:02:14.000Z</time>
      </trkpt>
      <trkpt lat="47.26995" lon="-2.27065">
        <ele>100.59999847412</ele>
        <time>2021-06-13T08:02:15.000Z</time>
      </trkpt>
      <trkpt lat="47.26994" lon="-2.27062">
        <ele>101</ele>
        <time>2021-06-13T08:02:16.000Z</time>
      </trkpt>
      <trkpt lat="47.26994" lon="-2.27061">
        <ele>101.40000152588</ele>
        <time>2021-06-13T08:02:17.000Z</time>
      </trkpt>
      <trkpt lat="47.26994" lon="-2.2706">
        <ele>101.80000305176</ele>
        <time>2021-06-13T08:02:18.000Z</time>
      </trkpt>
      <trkpt lat="47.26994" lon="-2.2706">
        <ele>101.80000305176</ele>
        <time>2021-06-13T08:02:19.000Z</time>
      </trkpt>
      <trkpt lat="47.26992" lon="-2.27056">
        <ele>101.80000305176</ele>
        <time>2021-06-13T08:02:27.000Z</time>
      </trkpt>
      <trkpt lat="47.26992" lon="-2.27053">
        <ele>101.80000305176</ele>
        <time>2021-06-13T08:02:28.000Z</time>
      </trkpt>
      <trkpt lat="47.26982" lon="-2.27034">
        <ele>101.80000305176</ele>
        <time>2021-06-13T08:02:34.000Z</time>
      </trkpt>
      <trkpt lat="47.26971" lon="-2.27021">
        <ele>101.80000305176</ele>
        <time>2021-06-13T08:02:37.000Z</time>
      </trkpt>
      <trkpt lat="47.26968" lon="-2.27017">
        <ele>101.80000305176</ele>
        <time>2021-06-13T08:02:38.000Z</time>
      </trkpt>
      <trkpt lat="47.26954" lon="-2.26999">
        <ele>101.40000152588</ele>
        <time>2021-06-13T08:02:42.000Z</time>
      </trkpt>
      <trkpt lat="47.26951" lon="-2.26991">
        <ele>101</ele>
        <time>2021-06-13T08:02:43.000Z</time>
      </trkpt>
      <trkpt lat="47.26948" lon="-2.26982">
        <ele>100.40000152588</ele>
        <time>2021-06-13T08:02:44.000Z</time>
      </trkpt>
      <trkpt lat="47.26948" lon="-2.26973">
        <ele>100</ele>
        <time>2021-06-13T08:02:45.000Z</time>
      </trkpt>
      <trkpt lat="47.26949" lon="-2.26965">
        <ele>99.599998474121</ele>
        <time>2021-06-13T08:02:46.000Z</time>
      </trkpt>
      <trkpt lat="47.2695" lon="-2.26957">
        <ele>99.599998474121</ele>
        <time>2021-06-13T08:02:47.000Z</time>
      </trkpt>
      <trkpt lat="47.26952" lon="-2.26948">
        <ele>99.599998474121</ele>
        <time>2021-06-13T08:02:48.000Z</time>
      </trkpt>
      <trkpt lat="47.26959" lon="-2.269">
        <ele>99.599998474121</ele>
        <time>2021-06-13T08:02:53.000Z</time>
      </trkpt>
      <trkpt lat="47.26956" lon="-2.26874">
        <ele>99.599998474121</ele>
        <time>2021-06-13T08:02:56.000Z</time>
      </trkpt>
      <trkpt lat="47.26953" lon="-2.26849">
        <ele>99.599998474121</ele>
        <time>2021-06-13T08:02:59.000Z</time>
      </trkpt>
      <trkpt lat="47.26949" lon="-2.26816">
        <ele>99.199996948242</ele>
        <time>2021-06-13T08:03:04.000Z</time>
      </trkpt>
      <trkpt lat="47.26949" lon="-2.26811">
        <ele>98.800003051758</ele>
        <time>2021-06-13T08:03:05.000Z</time>
      </trkpt>
      <trkpt lat="47.26949" lon="-2.26805">
        <ele>98.400001525879</ele>
        <time>2021-06-13T08:03:06.000Z</time>
      </trkpt>
      <trkpt lat="47.2695" lon="-2.268">
        <ele>98</ele>
        <time>2021-06-13T08:03:07.000Z</time>
      </trkpt>
      <trkpt lat="47.26951" lon="-2.26795">
        <ele>97.599998474121</ele>
        <time>2021-06-13T08:03:08.000Z</time>
      </trkpt>
      <trkpt lat="47.26955" lon="-2.26789">
        <ele>97.599998474121</ele>
        <time>2021-06-13T08:03:10.000Z</time>
      </trkpt>
      <trkpt lat="47.26965" lon="-2.26775">
        <ele>97.599998474121</ele>
        <time>2021-06-13T08:03:16.000Z</time>
      </trkpt>
      <trkpt lat="47.26973" lon="-2.26767">
        <ele>97.599998474121</ele>
        <time>2021-06-13T08:03:21.000Z</time>
      </trkpt>
      <trkpt lat="47.26983" lon="-2.26752">
        <ele>97.599998474121</ele>
        <time>2021-06-13T08:03:27.000Z</time>
      </trkpt>
      <trkpt lat="47.26988" lon="-2.26739">
        <ele>97.599998474121</ele>
        <time>2021-06-13T08:03:35.000Z</time>
      </trkpt>
      <trkpt lat="47.26992" lon="-2.26728">
        <ele>97.599998474121</ele>
        <time>2021-06-13T08:03:40.000Z</time>
      </trkpt>
      <trkpt lat="47.27001" lon="-2.26705">
        <ele>97.599998474121</ele>
        <time>2021-06-13T08:03:45.000Z</time>
      </trkpt>
      <trkpt lat="47.27008" lon="-2.26675">
        <ele>97.599998474121</ele>
        <time>2021-06-13T08:03:50.000Z</time>
      </trkpt>
      <trkpt lat="47.27014" lon="-2.26646">
        <ele>97.599998474121</ele>
        <time>2021-06-13T08:03:55.000Z</time>
      </trkpt>
      <trkpt lat="47.27015" lon="-2.26622">
        <ele>97.599998474121</ele>
        <time>2021-06-13T08:04:00.000Z</time>
      </trkpt>
      <trkpt lat="47.27004" lon="-2.26595">
        <ele>97.599998474121</ele>
        <time>2021-06-13T08:04:06.000Z</time>
      </trkpt>
      <trkpt lat="47.26989" lon="-2.26575">
        <ele>98</ele>
        <time>2021-06-13T08:04:10.000Z</time>
      </trkpt>
      <trkpt lat="47.26984" lon="-2.26567">
        <ele>98.400001525879</ele>
        <time>2021-06-13T08:04:11.000Z</time>
      </trkpt>
      <trkpt lat="47.26981" lon="-2.2656">
        <ele>99</ele>
        <time>2021-06-13T08:04:12.000Z</time>
      </trkpt>
      <trkpt lat="47.26978" lon="-2.26552">
        <ele>99.400001525879</ele>
        <time>2021-06-13T08:04:13.000Z</time>
      </trkpt>
      <trkpt lat="47.26976" lon="-2.26545">
        <ele>99.800003051758</ele>
        <time>2021-06-13T08:04:14.000Z</time>
      </trkpt>
      <trkpt lat="47.26974" lon="-2.26538">
        <ele>99.800003051758</ele>
        <time>2021-06-13T08:04:15.000Z</time>
      </trkpt>
      <trkpt lat="47.2697" lon="-2.26525">
        <ele>99.800003051758</ele>
        <time>2021-06-13T08:04:17.000Z</time>
      </trkpt>
      <trkpt lat="47.26962" lon="-2.26499">
        <ele>100.19999694824</ele>
        <time>2021-06-13T08:04:22.000Z</time>
      </trkpt>
      <trkpt lat="47.26963" lon="-2.26494">
        <ele>100.80000305176</ele>
        <time>2021-06-13T08:04:23.000Z</time>
      </trkpt>
      <trkpt lat="47.26965" lon="-2.2649">
        <ele>101.19999694824</ele>
        <time>2021-06-13T08:04:24.000Z</time>
      </trkpt>
      <trkpt lat="47.26967" lon="-2.26485">
        <ele>101.80000305176</ele>
        <time>2021-06-13T08:04:25.000Z</time>
      </trkpt>
      <trkpt lat="47.2697" lon="-2.26481">
        <ele>102.19999694824</ele>
        <time>2021-06-13T08:04:26.000Z</time>
      </trkpt>
      <trkpt lat="47.26974" lon="-2.26475">
        <ele>102.19999694824</ele>
        <time>2021-06-13T08:04:27.000Z</time>
      </trkpt>
      <trkpt lat="47.27003" lon="-2.26442">
        <ele>102.19999694824</ele>
        <time>2021-06-13T08:04:33.000Z</time>
      </trkpt>
      <trkpt lat="47.27025" lon="-2.26402">
        <ele>102.19999694824</ele>
        <time>2021-06-13T08:04:39.000Z</time>
      </trkpt>
      <trkpt lat="47.27065" lon="-2.26343">
        <ele>102.19999694824</ele>
        <time>2021-06-13T08:04:48.000Z</time>
      </trkpt>
      <trkpt lat="47.27107" lon="-2.26281">
        <ele>102.19999694824</ele>
        <time>2021-06-13T08:04:57.000Z</time>
      </trkpt>
      <trkpt lat="47.27112" lon="-2.26274">
        <ele>102.19999694824</ele>
        <time>2021-06-13T08:04:58.000Z</time>
      </trkpt>
      <trkpt lat="47.27152" lon="-2.26218">
        <ele>102.19999694824</ele>
        <time>2021-06-13T08:05:06.000Z</time>
      </trkpt>
      <trkpt lat="47.27189" lon="-2.2618">
        <ele>102.19999694824</ele>
        <time>2021-06-13T08:05:12.000Z</time>
      </trkpt>
      <trkpt lat="47.27215" lon="-2.2616">
        <ele>101.80000305176</ele>
        <time>2021-06-13T08:05:16.000Z</time>
      </trkpt>
      <trkpt lat="47.27222" lon="-2.26155">
        <ele>101.40000152588</ele>
        <time>2021-06-13T08:05:17.000Z</time>
      </trkpt>
      <trkpt lat="47.27229" lon="-2.26151">
        <ele>101</ele>
        <time>2021-06-13T08:05:18.000Z</time>
      </trkpt>
      <trkpt lat="47.27236" lon="-2.26147">
        <ele>100.40000152588</ele>
        <time>2021-06-13T08:05:19.000Z</time>
      </trkpt>
      <trkpt lat="47.27243" lon="-2.26143">
        <ele>100</ele>
        <time>2021-06-13T08:05:20.000Z</time>
      </trkpt>
      <trkpt lat="47.27282" lon="-2.26128">
        <ele>100</ele>
        <time>2021-06-13T08:05:25.000Z</time>
      </trkpt>
      <trkpt lat="47.27325" lon="-2.26116">
        <ele>100</ele>
        <time>2021-06-13T08:05:31.000Z</time>
      </trkpt>
      <trkpt lat="47.27331" lon="-2.26116">
        <ele>100</ele>
        <time>2021-06-13T08:05:32.000Z</time>
      </trkpt>
      <trkpt lat="47.27337" lon="-2.26107">
        <ele>100</ele>
        <time>2021-06-13T08:05:34.000Z</time>
      </trkpt>
      <trkpt lat="47.27341" lon="-2.26094">
        <ele>100</ele>
        <time>2021-06-13T08:05:37.000Z</time>
      </trkpt>
      <trkpt lat="47.27339" lon="-2.26089">
        <ele>99.599998474121</ele>
        <time>2021-06-13T08:05:38.000Z</time>
      </trkpt>
      <trkpt lat="47.27336" lon="-2.26082">
        <ele>99.199996948242</ele>
        <time>2021-06-13T08:05:39.000Z</time>
      </trkpt>
      <trkpt lat="47.27333" lon="-2.26075">
        <ele>98.400001525879</ele>
        <time>2021-06-13T08:05:40.000Z</time>
      </trkpt>
      <trkpt lat="47.27329" lon="-2.26068">
        <ele>98</ele>
        <time>2021-06-13T08:05:41.000Z</time>
      </trkpt>
      <trkpt lat="47.27305" lon="-2.26022">
        <ele>98</ele>
        <time>2021-06-13T08:05:47.000Z</time>
      </trkpt>
      <trkpt lat="47.27291" lon="-2.25997">
        <ele>98</ele>
        <time>2021-06-13T08:05:51.000Z</time>
      </trkpt>
      <trkpt lat="47.27291" lon="-2.25992">
        <ele>98</ele>
        <time>2021-06-13T08:05:52.000Z</time>
      </trkpt>
      <trkpt lat="47.27293" lon="-2.25979">
        <ele>98</ele>
        <time>2021-06-13T08:05:55.000Z</time>
      </trkpt>
      <trkpt lat="47.27302" lon="-2.25965">
        <ele>98</ele>
        <time>2021-06-13T08:05:59.000Z</time>
      </trkpt>
      <trkpt lat="47.27325" lon="-2.25952">
        <ele>98</ele>
        <time>2021-06-13T08:06:04.000Z</time>
      </trkpt>
      <trkpt lat="47.27348" lon="-2.2594">
        <ele>98</ele>
        <time>2021-06-13T08:06:09.000Z</time>
      </trkpt>
      <trkpt lat="47.27352" lon="-2.25936">
        <ele>98</ele>
        <time>2021-06-13T08:06:10.000Z</time>
      </trkpt>
      <trkpt lat="47.27357" lon="-2.25931">
        <ele>98</ele>
        <time>2021-06-13T08:06:11.000Z</time>
      </trkpt>
      <trkpt lat="47.27368" lon="-2.25912">
        <ele>98</ele>
        <time>2021-06-13T08:06:14.000Z</time>
      </trkpt>
      <trkpt lat="47.2739" lon="-2.25873">
        <ele>98</ele>
        <time>2021-06-13T08:06:20.000Z</time>
      </trkpt>
      <trkpt lat="47.27418" lon="-2.25821">
        <ele>98</ele>
        <time>2021-06-13T08:06:27.000Z</time>
      </trkpt>
      <trkpt lat="47.27438" lon="-2.25792">
        <ele>98</ele>
        <time>2021-06-13T08:06:31.000Z</time>
      </trkpt>
      <trkpt lat="47.27443" lon="-2.25789">
        <ele>98</ele>
        <time>2021-06-13T08:06:32.000Z</time>
      </trkpt>
      <trkpt lat="47.27452" lon="-2.25783">
        <ele>98</ele>
        <time>2021-06-13T08:06:34.000Z</time>
      </trkpt>
      <trkpt lat="47.27468" lon="-2.25766">
        <ele>98</ele>
        <time>2021-06-13T08:06:38.000Z</time>
      </trkpt>
      <trkpt lat="47.27472" lon="-2.25761">
        <ele>98</ele>
        <time>2021-06-13T08:06:39.000Z</time>
      </trkpt>
      <trkpt lat="47.27487" lon="-2.25739">
        <ele>98</ele>
        <time>2021-06-13T08:06:43.000Z</time>
      </trkpt>
      <trkpt lat="47.27518" lon="-2.25696">
        <ele>97.599998474121</ele>
        <time>2021-06-13T08:06:50.000Z</time>
      </trkpt>
      <trkpt lat="47.27522" lon="-2.25689">
        <ele>97.199996948242</ele>
        <time>2021-06-13T08:06:51.000Z</time>
      </trkpt>
      <trkpt lat="47.27526" lon="-2.25681">
        <ele>96.400001525879</ele>
        <time>2021-06-13T08:06:52.000Z</time>
      </trkpt>
      <trkpt lat="47.27533" lon="-2.25667">
        <ele>96</ele>
        <time>2021-06-13T08:06:54.000Z</time>
      </trkpt>
      <trkpt lat="47.2754" lon="-2.25654">
        <ele>96</ele>
        <time>2021-06-13T08:06:56.000Z</time>
      </trkpt>
      <trkpt lat="47.27551" lon="-2.25633">
        <ele>95.599998474121</ele>
        <time>2021-06-13T08:07:00.000Z</time>
      </trkpt>
      <trkpt lat="47.27551" lon="-2.25629">
        <ele>95</ele>
        <time>2021-06-13T08:07:01.000Z</time>
      </trkpt>
      <trkpt lat="47.27549" lon="-2.25626">
        <ele>94.599998474121</ele>
        <time>2021-06-13T08:07:02.000Z</time>
      </trkpt>
      <trkpt lat="47.27548" lon="-2.25623">
        <ele>94.199996948242</ele>
        <time>2021-06-13T08:07:03.000Z</time>
      </trkpt>
      <trkpt lat="47.27548" lon="-2.25619">
        <ele>93.800003051758</ele>
        <time>2021-06-13T08:07:04.000Z</time>
      </trkpt>
      <trkpt lat="47.27547" lon="-2.25615">
        <ele>93.800003051758</ele>
        <time>2021-06-13T08:07:05.000Z</time>
      </trkpt>
      <trkpt lat="47.27548" lon="-2.2561">
        <ele>93.800003051758</ele>
        <time>2021-06-13T08:07:06.000Z</time>
      </trkpt>
      <trkpt lat="47.2755" lon="-2.25599">
        <ele>93.800003051758</ele>
        <time>2021-06-13T08:07:11.000Z</time>
      </trkpt>
      <trkpt lat="47.2755" lon="-2.25599">
        <ele>93.800003051758</ele>
        <time>2021-06-13T08:07:12.000Z</time>
      </trkpt>
      <trkpt lat="47.27552" lon="-2.25595">
        <ele>93.800003051758</ele>
        <time>2021-06-13T08:07:22.000Z</time>
      </trkpt>
      <trkpt lat="47.27552" lon="-2.25589">
        <ele>93.800003051758</ele>
        <time>2021-06-13T08:07:24.000Z</time>
      </trkpt>
      <trkpt lat="47.2755" lon="-2.25563">
        <ele>93.800003051758</ele>
        <time>2021-06-13T08:07:28.000Z</time>
      </trkpt>
      <trkpt lat="47.27543" lon="-2.25517">
        <ele>93.800003051758</ele>
        <time>2021-06-13T08:07:34.000Z</time>
      </trkpt>
      <trkpt lat="47.27539" lon="-2.25501">
        <ele>93.800003051758</ele>
        <time>2021-06-13T08:07:36.000Z</time>
      </trkpt>
      <trkpt lat="47.27532" lon="-2.25488">
        <ele>93.800003051758</ele>
        <time>2021-06-13T08:07:38.000Z</time>
      </trkpt>
      <trkpt lat="47.27521" lon="-2.2547">
        <ele>93.800003051758</ele>
        <time>2021-06-13T08:07:41.000Z</time>
      </trkpt>
      <trkpt lat="47.27506" lon="-2.25457">
        <ele>93.800003051758</ele>
        <time>2021-06-13T08:07:44.000Z</time>
      </trkpt>
      <trkpt lat="47.27496" lon="-2.2545">
        <ele>93.800003051758</ele>
        <time>2021-06-13T08:07:46.000Z</time>
      </trkpt>
      <trkpt lat="47.27486" lon="-2.25447">
        <ele>93.800003051758</ele>
        <time>2021-06-13T08:07:48.000Z</time>
      </trkpt>
      <trkpt lat="47.27475" lon="-2.25448">
        <ele>93.800003051758</ele>
        <time>2021-06-13T08:07:50.000Z</time>
      </trkpt>
      <trkpt lat="47.27465" lon="-2.25451">
        <ele>93.800003051758</ele>
        <time>2021-06-13T08:07:52.000Z</time>
      </trkpt>
      <trkpt lat="47.27454" lon="-2.25452">
        <ele>93.800003051758</ele>
        <time>2021-06-13T08:07:54.000Z</time>
      </trkpt>
      <trkpt lat="47.27445" lon="-2.25449">
        <ele>93.800003051758</ele>
        <time>2021-06-13T08:07:56.000Z</time>
      </trkpt>
      <trkpt lat="47.2743" lon="-2.25436">
        <ele>93.800003051758</ele>
        <time>2021-06-13T08:07:59.000Z</time>
      </trkpt>
      <trkpt lat="47.27425" lon="-2.25431">
        <ele>93.800003051758</ele>
        <time>2021-06-13T08:08:00.000Z</time>
      </trkpt>
      <trkpt lat="47.27421" lon="-2.25427">
        <ele>93.800003051758</ele>
        <time>2021-06-13T08:08:01.000Z</time>
      </trkpt>
      <trkpt lat="47.27408" lon="-2.25415">
        <ele>93.800003051758</ele>
        <time>2021-06-13T08:08:04.000Z</time>
      </trkpt>
      <trkpt lat="47.27404" lon="-2.25406">
        <ele>93.800003051758</ele>
        <time>2021-06-13T08:08:06.000Z</time>
      </trkpt>
      <trkpt lat="47.27401" lon="-2.25398">
        <ele>93.800003051758</ele>
        <time>2021-06-13T08:08:08.000Z</time>
      </trkpt>
      <trkpt lat="47.27394" lon="-2.2538">
        <ele>93.800003051758</ele>
        <time>2021-06-13T08:08:13.000Z</time>
      </trkpt>
      <trkpt lat="47.27393" lon="-2.25354">
        <ele>93.800003051758</ele>
        <time>2021-06-13T08:08:19.000Z</time>
      </trkpt>
      <trkpt lat="47.27393" lon="-2.25329">
        <ele>93.800003051758</ele>
        <time>2021-06-13T08:08:24.000Z</time>
      </trkpt>
      <trkpt lat="47.2739" lon="-2.25306">
        <ele>93.800003051758</ele>
        <time>2021-06-13T08:08:28.000Z</time>
      </trkpt>
      <trkpt lat="47.27397" lon="-2.25275">
        <ele>93.800003051758</ele>
        <time>2021-06-13T08:08:34.000Z</time>
      </trkpt>
      <trkpt lat="47.27393" lon="-2.25252">
        <ele>93.800003051758</ele>
        <time>2021-06-13T08:08:38.000Z</time>
      </trkpt>
      <trkpt lat="47.27388" lon="-2.25227">
        <ele>93.800003051758</ele>
        <time>2021-06-13T08:08:42.000Z</time>
      </trkpt>
      <trkpt lat="47.27389" lon="-2.2522">
        <ele>93.800003051758</ele>
        <time>2021-06-13T08:08:43.000Z</time>
      </trkpt>
      <trkpt lat="47.2739" lon="-2.25198">
        <ele>93.800003051758</ele>
        <time>2021-06-13T08:08:46.000Z</time>
      </trkpt>
      <trkpt lat="47.27389" lon="-2.25191">
        <ele>93.800003051758</ele>
        <time>2021-06-13T08:08:47.000Z</time>
      </trkpt>
      <trkpt lat="47.27386" lon="-2.25178">
        <ele>93.800003051758</ele>
        <time>2021-06-13T08:08:49.000Z</time>
      </trkpt>
      <trkpt lat="47.27378" lon="-2.25156">
        <ele>93.800003051758</ele>
        <time>2021-06-13T08:08:52.000Z</time>
      </trkpt>
      <trkpt lat="47.27375" lon="-2.25148">
        <ele>93.800003051758</ele>
        <time>2021-06-13T08:08:53.000Z</time>
      </trkpt>
      <trkpt lat="47.27359" lon="-2.2511">
        <ele>93.800003051758</ele>
        <time>2021-06-13T08:08:58.000Z</time>
      </trkpt>
      <trkpt lat="47.27353" lon="-2.25095">
        <ele>93.800003051758</ele>
        <time>2021-06-13T08:09:00.000Z</time>
      </trkpt>
      <trkpt lat="47.27345" lon="-2.25076">
        <ele>93.800003051758</ele>
        <time>2021-06-13T08:09:03.000Z</time>
      </trkpt>
      <trkpt lat="47.27332" lon="-2.25023">
        <ele>93.800003051758</ele>
        <time>2021-06-13T08:09:11.000Z</time>
      </trkpt>
      <trkpt lat="47.27329" lon="-2.2501">
        <ele>93.800003051758</ele>
        <time>2021-06-13T08:09:13.000Z</time>
      </trkpt>
      <trkpt lat="47.2733" lon="-2.24991">
        <ele>93.800003051758</ele>
        <time>2021-06-13T08:09:16.000Z</time>
      </trkpt>
      <trkpt lat="47.27331" lon="-2.24984">
        <ele>93.800003051758</ele>
        <time>2021-06-13T08:09:17.000Z</time>
      </trkpt>
      <trkpt lat="47.27332" lon="-2.24977">
        <ele>93.800003051758</ele>
        <time>2021-06-13T08:09:18.000Z</time>
      </trkpt>
      <trkpt lat="47.27337" lon="-2.24957">
        <ele>93.800003051758</ele>
        <time>2021-06-13T08:09:21.000Z</time>
      </trkpt>
      <trkpt lat="47.27343" lon="-2.24946">
        <ele>93.800003051758</ele>
        <time>2021-06-13T08:09:23.000Z</time>
      </trkpt>
      <trkpt lat="47.2735" lon="-2.24937">
        <ele>93.800003051758</ele>
        <time>2021-06-13T08:09:25.000Z</time>
      </trkpt>
      <trkpt lat="47.27372" lon="-2.24906">
        <ele>93.800003051758</ele>
        <time>2021-06-13T08:09:32.000Z</time>
      </trkpt>
      <trkpt lat="47.27395" lon="-2.24876">
        <ele>93.800003051758</ele>
        <time>2021-06-13T08:09:39.000Z</time>
      </trkpt>
      <trkpt lat="47.27402" lon="-2.24863">
        <ele>93.800003051758</ele>
        <time>2021-06-13T08:09:43.000Z</time>
      </trkpt>
      <trkpt lat="47.27415" lon="-2.24831">
        <ele>93.800003051758</ele>
        <time>2021-06-13T08:09:51.000Z</time>
      </trkpt>
      <trkpt lat="47.27423" lon="-2.2482">
        <ele>93.800003051758</ele>
        <time>2021-06-13T08:09:52.000Z</time>
      </trkpt>
      <trkpt lat="47.27439" lon="-2.24794">
        <ele>93.800003051758</ele>
        <time>2021-06-13T08:09:56.000Z</time>
      </trkpt>
      <trkpt lat="47.27443" lon="-2.24789">
        <ele>93.800003051758</ele>
        <time>2021-06-13T08:09:57.000Z</time>
      </trkpt>
      <trkpt lat="47.27452" lon="-2.24781">
        <ele>94.400001525879</ele>
        <time>2021-06-13T08:09:59.000Z</time>
      </trkpt>
      <trkpt lat="47.27457" lon="-2.24779">
        <ele>94.800003051758</ele>
        <time>2021-06-13T08:10:00.000Z</time>
      </trkpt>
      <trkpt lat="47.27462" lon="-2.24778">
        <ele>95.199996948242</ele>
        <time>2021-06-13T08:10:01.000Z</time>
      </trkpt>
      <trkpt lat="47.27466" lon="-2.24778">
        <ele>95.599998474121</ele>
        <time>2021-06-13T08:10:02.000Z</time>
      </trkpt>
      <trkpt lat="47.2747" lon="-2.24778">
        <ele>96.199996948242</ele>
        <time>2021-06-13T08:10:03.000Z</time>
      </trkpt>
      <trkpt lat="47.27474" lon="-2.24778">
        <ele>96.599998474121</ele>
        <time>2021-06-13T08:10:04.000Z</time>
      </trkpt>
      <trkpt lat="47.27479" lon="-2.24778">
        <ele>97</ele>
        <time>2021-06-13T08:10:05.000Z</time>
      </trkpt>
      <trkpt lat="47.27483" lon="-2.24778">
        <ele>97.599998474121</ele>
        <time>2021-06-13T08:10:06.000Z</time>
      </trkpt>
      <trkpt lat="47.27487" lon="-2.24778">
        <ele>98</ele>
        <time>2021-06-13T08:10:07.000Z</time>
      </trkpt>
      <trkpt lat="47.27491" lon="-2.24778">
        <ele>98.400001525879</ele>
        <time>2021-06-13T08:10:08.000Z</time>
      </trkpt>
      <trkpt lat="47.27502" lon="-2.24778">
        <ele>99.400001525879</ele>
        <time>2021-06-13T08:10:11.000Z</time>
      </trkpt>
      <trkpt lat="47.27506" lon="-2.24777">
        <ele>99.800003051758</ele>
        <time>2021-06-13T08:10:12.000Z</time>
      </trkpt>
      <trkpt lat="47.2751" lon="-2.24777">
        <ele>100.19999694824</ele>
        <time>2021-06-13T08:10:13.000Z</time>
      </trkpt>
      <trkpt lat="47.27514" lon="-2.24776">
        <ele>100.80000305176</ele>
        <time>2021-06-13T08:10:14.000Z</time>
      </trkpt>
      <trkpt lat="47.27518" lon="-2.24775">
        <ele>100.80000305176</ele>
        <time>2021-06-13T08:10:15.000Z</time>
      </trkpt>
      <trkpt lat="47.27543" lon="-2.24775">
        <ele>100.80000305176</ele>
        <time>2021-06-13T08:10:21.000Z</time>
      </trkpt>
      <trkpt lat="47.27559" lon="-2.24775">
        <ele>100.80000305176</ele>
        <time>2021-06-13T08:10:25.000Z</time>
      </trkpt>
      <trkpt lat="47.27572" lon="-2.24775">
        <ele>100.80000305176</ele>
        <time>2021-06-13T08:10:28.000Z</time>
      </trkpt>
      <trkpt lat="47.2758" lon="-2.24776">
        <ele>100.80000305176</ele>
        <time>2021-06-13T08:10:30.000Z</time>
      </trkpt>
      <trkpt lat="47.27601" lon="-2.24777">
        <ele>100.80000305176</ele>
        <time>2021-06-13T08:10:35.000Z</time>
      </trkpt>
      <trkpt lat="47.27626" lon="-2.24773">
        <ele>100.80000305176</ele>
        <time>2021-06-13T08:10:41.000Z</time>
      </trkpt>
      <trkpt lat="47.27652" lon="-2.24781">
        <ele>100.80000305176</ele>
        <time>2021-06-13T08:10:46.000Z</time>
      </trkpt>
      <trkpt lat="47.27706" lon="-2.24788">
        <ele>100.80000305176</ele>
        <time>2021-06-13T08:10:53.000Z</time>
      </trkpt>
      <trkpt lat="47.27737" lon="-2.2479">
        <ele>100.80000305176</ele>
        <time>2021-06-13T08:10:58.000Z</time>
      </trkpt>
      <trkpt lat="47.27743" lon="-2.24791">
        <ele>100.80000305176</ele>
        <time>2021-06-13T08:10:59.000Z</time>
      </trkpt>
      <trkpt lat="47.27749" lon="-2.24792">
        <ele>100.80000305176</ele>
        <time>2021-06-13T08:11:00.000Z</time>
      </trkpt>
      <trkpt lat="47.27768" lon="-2.24793">
        <ele>100.80000305176</ele>
        <time>2021-06-13T08:11:04.000Z</time>
      </trkpt>
      <trkpt lat="47.27806" lon="-2.24792">
        <ele>100.80000305176</ele>
        <time>2021-06-13T08:11:12.000Z</time>
      </trkpt>
      <trkpt lat="47.27815" lon="-2.24791">
        <ele>100.80000305176</ele>
        <time>2021-06-13T08:11:14.000Z</time>
      </trkpt>
      <trkpt lat="47.27839" lon="-2.24785">
        <ele>100.80000305176</ele>
        <time>2021-06-13T08:11:19.000Z</time>
      </trkpt>
      <trkpt lat="47.27855" lon="-2.24771">
        <ele>100.80000305176</ele>
        <time>2021-06-13T08:11:23.000Z</time>
      </trkpt>
      <trkpt lat="47.27864" lon="-2.24766">
        <ele>100.80000305176</ele>
        <time>2021-06-13T08:11:26.000Z</time>
      </trkpt>
      <trkpt lat="47.27872" lon="-2.24765">
        <ele>100.80000305176</ele>
        <time>2021-06-13T08:11:28.000Z</time>
      </trkpt>
      <trkpt lat="47.27877" lon="-2.24764">
        <ele>100.80000305176</ele>
        <time>2021-06-13T08:11:29.000Z</time>
      </trkpt>
      <trkpt lat="47.27881" lon="-2.24763">
        <ele>100.80000305176</ele>
        <time>2021-06-13T08:11:30.000Z</time>
      </trkpt>
      <trkpt lat="47.27886" lon="-2.24763">
        <ele>101.19999694824</ele>
        <time>2021-06-13T08:11:31.000Z</time>
      </trkpt>
      <trkpt lat="47.2789" lon="-2.24762">
        <ele>101.59999847412</ele>
        <time>2021-06-13T08:11:32.000Z</time>
      </trkpt>
      <trkpt lat="47.27894" lon="-2.24762">
        <ele>102</ele>
        <time>2021-06-13T08:11:33.000Z</time>
      </trkpt>
      <trkpt lat="47.27898" lon="-2.24762">
        <ele>102.40000152588</ele>
        <time>2021-06-13T08:11:34.000Z</time>
      </trkpt>
      <trkpt lat="47.27901" lon="-2.24762">
        <ele>102.80000305176</ele>
        <time>2021-06-13T08:11:35.000Z</time>
      </trkpt>
      <trkpt lat="47.27905" lon="-2.24762">
        <ele>103.19999694824</ele>
        <time>2021-06-13T08:11:36.000Z</time>
      </trkpt>
      <trkpt lat="47.27908" lon="-2.24762">
        <ele>103.59999847412</ele>
        <time>2021-06-13T08:11:37.000Z</time>
      </trkpt>
      <trkpt lat="47.2791" lon="-2.24762">
        <ele>104</ele>
        <time>2021-06-13T08:11:38.000Z</time>
      </trkpt>
      <trkpt lat="47.27912" lon="-2.24761">
        <ele>104.40000152588</ele>
        <time>2021-06-13T08:11:39.000Z</time>
      </trkpt>
      <trkpt lat="47.27915" lon="-2.24762">
        <ele>104.80000305176</ele>
        <time>2021-06-13T08:11:40.000Z</time>
      </trkpt>
      <trkpt lat="47.27918" lon="-2.24764">
        <ele>104.80000305176</ele>
        <time>2021-06-13T08:11:42.000Z</time>
      </trkpt>
      <trkpt lat="47.27918" lon="-2.24777">
        <ele>104.80000305176</ele>
        <time>2021-06-13T08:11:47.000Z</time>
      </trkpt>
      <trkpt lat="47.27916" lon="-2.24779">
        <ele>104.80000305176</ele>
        <time>2021-06-13T08:11:48.000Z</time>
      </trkpt>
      <trkpt lat="47.27905" lon="-2.24795">
        <ele>104.80000305176</ele>
        <time>2021-06-13T08:11:53.000Z</time>
      </trkpt>
      <trkpt lat="47.27905" lon="-2.24796">
        <ele>104.80000305176</ele>
        <time>2021-06-13T08:11:54.000Z</time>
      </trkpt>
      <trkpt lat="47.27906" lon="-2.24797">
        <ele>104.80000305176</ele>
        <time>2021-06-13T08:11:55.000Z</time>
      </trkpt>
      <trkpt lat="47.27907" lon="-2.24798">
        <ele>104.80000305176</ele>
        <time>2021-06-13T08:11:56.000Z</time>
      </trkpt>
      <trkpt lat="47.27919" lon="-2.24805">
        <ele>104.80000305176</ele>
        <time>2021-06-13T08:12:00.000Z</time>
      </trkpt>
      <trkpt lat="47.27927" lon="-2.24809">
        <ele>104.80000305176</ele>
        <time>2021-06-13T08:12:02.000Z</time>
      </trkpt>
      <trkpt lat="47.27938" lon="-2.24814">
        <ele>104.80000305176</ele>
        <time>2021-06-13T08:12:05.000Z</time>
      </trkpt>
      <trkpt lat="47.27951" lon="-2.24817">
        <ele>104.80000305176</ele>
        <time>2021-06-13T08:12:09.000Z</time>
      </trkpt>
      <trkpt lat="47.27962" lon="-2.24818">
        <ele>104.80000305176</ele>
        <time>2021-06-13T08:12:12.000Z</time>
      </trkpt>
      <trkpt lat="47.2797" lon="-2.2482">
        <ele>104.80000305176</ele>
        <time>2021-06-13T08:12:14.000Z</time>
      </trkpt>
      <trkpt lat="47.27974" lon="-2.24822">
        <ele>104.80000305176</ele>
        <time>2021-06-13T08:12:15.000Z</time>
      </trkpt>
      <trkpt lat="47.28" lon="-2.24825">
        <ele>104.80000305176</ele>
        <time>2021-06-13T08:12:21.000Z</time>
      </trkpt>
      <trkpt lat="47.28004" lon="-2.24825">
        <ele>104.80000305176</ele>
        <time>2021-06-13T08:12:22.000Z</time>
      </trkpt>
      <trkpt lat="47.28024" lon="-2.24828">
        <ele>104.80000305176</ele>
        <time>2021-06-13T08:12:27.000Z</time>
      </trkpt>
      <trkpt lat="47.28029" lon="-2.24829">
        <ele>104.80000305176</ele>
        <time>2021-06-13T08:12:28.000Z</time>
      </trkpt>
      <trkpt lat="47.28047" lon="-2.24833">
        <ele>104.80000305176</ele>
        <time>2021-06-13T08:12:32.000Z</time>
      </trkpt>
      <trkpt lat="47.28051" lon="-2.24835">
        <ele>104.80000305176</ele>
        <time>2021-06-13T08:12:33.000Z</time>
      </trkpt>
      <trkpt lat="47.28066" lon="-2.24834">
        <ele>104.80000305176</ele>
        <time>2021-06-13T08:12:36.000Z</time>
      </trkpt>
      <trkpt lat="47.28071" lon="-2.24834">
        <ele>104.80000305176</ele>
        <time>2021-06-13T08:12:37.000Z</time>
      </trkpt>
      <trkpt lat="47.28095" lon="-2.24839">
        <ele>104.80000305176</ele>
        <time>2021-06-13T08:12:42.000Z</time>
      </trkpt>
      <trkpt lat="47.28117" lon="-2.24841">
        <ele>104.80000305176</ele>
        <time>2021-06-13T08:12:46.000Z</time>
      </trkpt>
      <trkpt lat="47.28127" lon="-2.2484">
        <ele>104.80000305176</ele>
        <time>2021-06-13T08:12:48.000Z</time>
      </trkpt>
      <trkpt lat="47.28132" lon="-2.24838">
        <ele>104.40000152588</ele>
        <time>2021-06-13T08:12:49.000Z</time>
      </trkpt>
      <trkpt lat="47.28136" lon="-2.24836">
        <ele>104</ele>
        <time>2021-06-13T08:12:50.000Z</time>
      </trkpt>
      <trkpt lat="47.2814" lon="-2.24833">
        <ele>103.59999847412</ele>
        <time>2021-06-13T08:12:51.000Z</time>
      </trkpt>
      <trkpt lat="47.28142" lon="-2.24829">
        <ele>103.19999694824</ele>
        <time>2021-06-13T08:12:52.000Z</time>
      </trkpt>
      <trkpt lat="47.28145" lon="-2.24825">
        <ele>102.59999847412</ele>
        <time>2021-06-13T08:12:53.000Z</time>
      </trkpt>
      <trkpt lat="47.28147" lon="-2.24821">
        <ele>102.59999847412</ele>
        <time>2021-06-13T08:12:54.000Z</time>
      </trkpt>
      <trkpt lat="47.28153" lon="-2.24801">
        <ele>102.59999847412</ele>
        <time>2021-06-13T08:12:58.000Z</time>
      </trkpt>
      <trkpt lat="47.2816" lon="-2.24793">
        <ele>102.19999694824</ele>
        <time>2021-06-13T08:13:00.000Z</time>
      </trkpt>
      <trkpt lat="47.28163" lon="-2.24789">
        <ele>101.80000305176</ele>
        <time>2021-06-13T08:13:01.000Z</time>
      </trkpt>
      <trkpt lat="47.28169" lon="-2.24787">
        <ele>101</ele>
        <time>2021-06-13T08:13:02.000Z</time>
      </trkpt>
      <trkpt lat="47.28174" lon="-2.24785">
        <ele>100.59999847412</ele>
        <time>2021-06-13T08:13:03.000Z</time>
      </trkpt>
      <trkpt lat="47.28197" lon="-2.24784">
        <ele>100</ele>
        <time>2021-06-13T08:13:06.000Z</time>
      </trkpt>
      <trkpt lat="47.28206" lon="-2.24784">
        <ele>99.599998474121</ele>
        <time>2021-06-13T08:13:07.000Z</time>
      </trkpt>
      <trkpt lat="47.28216" lon="-2.24785">
        <ele>99</ele>
        <time>2021-06-13T08:13:08.000Z</time>
      </trkpt>
      <trkpt lat="47.28224" lon="-2.24784">
        <ele>98.400001525879</ele>
        <time>2021-06-13T08:13:09.000Z</time>
      </trkpt>
      <trkpt lat="47.28233" lon="-2.24784">
        <ele>97.800003051758</ele>
        <time>2021-06-13T08:13:10.000Z</time>
      </trkpt>
      <trkpt lat="47.28241" lon="-2.24782">
        <ele>97</ele>
        <time>2021-06-13T08:13:11.000Z</time>
      </trkpt>
      <trkpt lat="47.28249" lon="-2.24779">
        <ele>96.400001525879</ele>
        <time>2021-06-13T08:13:12.000Z</time>
      </trkpt>
      <trkpt lat="47.28257" lon="-2.24776">
        <ele>95.599998474121</ele>
        <time>2021-06-13T08:13:13.000Z</time>
      </trkpt>
      <trkpt lat="47.28264" lon="-2.24773">
        <ele>95</ele>
        <time>2021-06-13T08:13:14.000Z</time>
      </trkpt>
      <trkpt lat="47.2827" lon="-2.24769">
        <ele>94.199996948242</ele>
        <time>2021-06-13T08:13:15.000Z</time>
      </trkpt>
      <trkpt lat="47.28277" lon="-2.24763">
        <ele>93.599998474121</ele>
        <time>2021-06-13T08:13:16.000Z</time>
      </trkpt>
      <trkpt lat="47.28312" lon="-2.24737">
        <ele>93.599998474121</ele>
        <time>2021-06-13T08:13:22.000Z</time>
      </trkpt>
      <trkpt lat="47.28318" lon="-2.24733">
        <ele>93.199996948242</ele>
        <time>2021-06-13T08:13:23.000Z</time>
      </trkpt>
      <trkpt lat="47.28324" lon="-2.24731">
        <ele>92.800003051758</ele>
        <time>2021-06-13T08:13:24.000Z</time>
      </trkpt>
      <trkpt lat="47.28331" lon="-2.2473">
        <ele>92.400001525879</ele>
        <time>2021-06-13T08:13:25.000Z</time>
      </trkpt>
      <trkpt lat="47.28338" lon="-2.2473">
        <ele>92</ele>
        <time>2021-06-13T08:13:26.000Z</time>
      </trkpt>
      <trkpt lat="47.28347" lon="-2.24731">
        <ele>91.400001525879</ele>
        <time>2021-06-13T08:13:27.000Z</time>
      </trkpt>
      <trkpt lat="47.28359" lon="-2.24737">
        <ele>91.400001525879</ele>
        <time>2021-06-13T08:13:29.000Z</time>
      </trkpt>
      <trkpt lat="47.28363" lon="-2.24741">
        <ele>91</ele>
        <time>2021-06-13T08:13:30.000Z</time>
      </trkpt>
      <trkpt lat="47.28368" lon="-2.24743">
        <ele>90.400001525879</ele>
        <time>2021-06-13T08:13:31.000Z</time>
      </trkpt>
      <trkpt lat="47.28372" lon="-2.24744">
        <ele>90</ele>
        <time>2021-06-13T08:13:32.000Z</time>
      </trkpt>
      <trkpt lat="47.28377" lon="-2.24745">
        <ele>89.400001525879</ele>
        <time>2021-06-13T08:13:33.000Z</time>
      </trkpt>
      <trkpt lat="47.28379" lon="-2.24748">
        <ele>88.800003051758</ele>
        <time>2021-06-13T08:13:34.000Z</time>
      </trkpt>
      <trkpt lat="47.28394" lon="-2.2475">
        <ele>88.800003051758</ele>
        <time>2021-06-13T08:13:39.000Z</time>
      </trkpt>
      <trkpt lat="47.28418" lon="-2.24736">
        <ele>88.800003051758</ele>
        <time>2021-06-13T08:13:46.000Z</time>
      </trkpt>
      <trkpt lat="47.28438" lon="-2.24722">
        <ele>88.800003051758</ele>
        <time>2021-06-13T08:13:52.000Z</time>
      </trkpt>
      <trkpt lat="47.28448" lon="-2.24717">
        <ele>88.800003051758</ele>
        <time>2021-06-13T08:13:55.000Z</time>
      </trkpt>
      <trkpt lat="47.28457" lon="-2.24713">
        <ele>88.800003051758</ele>
        <time>2021-06-13T08:13:57.000Z</time>
      </trkpt>
      <trkpt lat="47.28483" lon="-2.24697">
        <ele>88.800003051758</ele>
        <time>2021-06-13T08:14:02.000Z</time>
      </trkpt>
      <trkpt lat="47.28515" lon="-2.24675">
        <ele>88.800003051758</ele>
        <time>2021-06-13T08:14:08.000Z</time>
      </trkpt>
      <trkpt lat="47.28521" lon="-2.2467">
        <ele>88.800003051758</ele>
        <time>2021-06-13T08:14:09.000Z</time>
      </trkpt>
      <trkpt lat="47.28526" lon="-2.24666">
        <ele>88.400001525879</ele>
        <time>2021-06-13T08:14:10.000Z</time>
      </trkpt>
      <trkpt lat="47.28531" lon="-2.24661">
        <ele>88</ele>
        <time>2021-06-13T08:14:11.000Z</time>
      </trkpt>
      <trkpt lat="47.28536" lon="-2.24657">
        <ele>87.599998474121</ele>
        <time>2021-06-13T08:14:12.000Z</time>
      </trkpt>
      <trkpt lat="47.28541" lon="-2.24652">
        <ele>87.199996948242</ele>
        <time>2021-06-13T08:14:13.000Z</time>
      </trkpt>
      <trkpt lat="47.28546" lon="-2.24648">
        <ele>86.800003051758</ele>
        <time>2021-06-13T08:14:14.000Z</time>
      </trkpt>
      <trkpt lat="47.28556" lon="-2.2464">
        <ele>86.800003051758</ele>
        <time>2021-06-13T08:14:16.000Z</time>
      </trkpt>
      <trkpt lat="47.2856" lon="-2.24635">
        <ele>86.800003051758</ele>
        <time>2021-06-13T08:14:17.000Z</time>
      </trkpt>
      <trkpt lat="47.28565" lon="-2.24631">
        <ele>86.800003051758</ele>
        <time>2021-06-13T08:14:18.000Z</time>
      </trkpt>
      <trkpt lat="47.28575" lon="-2.24622">
        <ele>86.800003051758</ele>
        <time>2021-06-13T08:14:21.000Z</time>
      </trkpt>
      <trkpt lat="47.28581" lon="-2.24612">
        <ele>86.800003051758</ele>
        <time>2021-06-13T08:14:25.000Z</time>
      </trkpt>
      <trkpt lat="47.28596" lon="-2.24594">
        <ele>86.800003051758</ele>
        <time>2021-06-13T08:14:31.000Z</time>
      </trkpt>
      <trkpt lat="47.28605" lon="-2.2457">
        <ele>86.800003051758</ele>
        <time>2021-06-13T08:14:35.000Z</time>
      </trkpt>
      <trkpt lat="47.28607" lon="-2.24563">
        <ele>86.800003051758</ele>
        <time>2021-06-13T08:14:36.000Z</time>
      </trkpt>
      <trkpt lat="47.28616" lon="-2.24525">
        <ele>86.800003051758</ele>
        <time>2021-06-13T08:14:41.000Z</time>
      </trkpt>
      <trkpt lat="47.28628" lon="-2.24478">
        <ele>86.800003051758</ele>
        <time>2021-06-13T08:14:47.000Z</time>
      </trkpt>
      <trkpt lat="47.2863" lon="-2.2447">
        <ele>86.800003051758</ele>
        <time>2021-06-13T08:14:48.000Z</time>
      </trkpt>
      <trkpt lat="47.28643" lon="-2.24426">
        <ele>86.800003051758</ele>
        <time>2021-06-13T08:14:54.000Z</time>
      </trkpt>
      <trkpt lat="47.28657" lon="-2.24381">
        <ele>87.199996948242</ele>
        <time>2021-06-13T08:14:59.000Z</time>
      </trkpt>
      <trkpt lat="47.2866" lon="-2.24371">
        <ele>87.599998474121</ele>
        <time>2021-06-13T08:15:00.000Z</time>
      </trkpt>
      <trkpt lat="47.28662" lon="-2.24363">
        <ele>88</ele>
        <time>2021-06-13T08:15:01.000Z</time>
      </trkpt>
      <trkpt lat="47.28665" lon="-2.24354">
        <ele>88.400001525879</ele>
        <time>2021-06-13T08:15:02.000Z</time>
      </trkpt>
      <trkpt lat="47.28668" lon="-2.24344">
        <ele>88.800003051758</ele>
        <time>2021-06-13T08:15:03.000Z</time>
      </trkpt>
      <trkpt lat="47.2868" lon="-2.24299">
        <ele>88.800003051758</ele>
        <time>2021-06-13T08:15:08.000Z</time>
      </trkpt>
      <trkpt lat="47.28687" lon="-2.24262">
        <ele>88.800003051758</ele>
        <time>2021-06-13T08:15:12.000Z</time>
      </trkpt>
      <trkpt lat="47.28688" lon="-2.24244">
        <ele>88.800003051758</ele>
        <time>2021-06-13T08:15:14.000Z</time>
      </trkpt>
      <trkpt lat="47.28687" lon="-2.24228">
        <ele>88.800003051758</ele>
        <time>2021-06-13T08:15:16.000Z</time>
      </trkpt>
      <trkpt lat="47.28683" lon="-2.24202">
        <ele>88.800003051758</ele>
        <time>2021-06-13T08:15:19.000Z</time>
      </trkpt>
      <trkpt lat="47.28676" lon="-2.24137">
        <ele>88.800003051758</ele>
        <time>2021-06-13T08:15:26.000Z</time>
      </trkpt>
      <trkpt lat="47.2867" lon="-2.2407">
        <ele>88.800003051758</ele>
        <time>2021-06-13T08:15:33.000Z</time>
      </trkpt>
      <trkpt lat="47.28666" lon="-2.24003">
        <ele>88.800003051758</ele>
        <time>2021-06-13T08:15:40.000Z</time>
      </trkpt>
      <trkpt lat="47.28657" lon="-2.23934">
        <ele>88.800003051758</ele>
        <time>2021-06-13T08:15:47.000Z</time>
      </trkpt>
      <trkpt lat="47.28649" lon="-2.23879">
        <ele>88.800003051758</ele>
        <time>2021-06-13T08:15:53.000Z</time>
      </trkpt>
      <trkpt lat="47.28641" lon="-2.23815">
        <ele>88.800003051758</ele>
        <time>2021-06-13T08:16:00.000Z</time>
      </trkpt>
      <trkpt lat="47.28634" lon="-2.23752">
        <ele>88.800003051758</ele>
        <time>2021-06-13T08:16:07.000Z</time>
      </trkpt>
      <trkpt lat="47.28628" lon="-2.23697">
        <ele>88.800003051758</ele>
        <time>2021-06-13T08:16:13.000Z</time>
      </trkpt>
      <trkpt lat="47.28626" lon="-2.23646">
        <ele>88.800003051758</ele>
        <time>2021-06-13T08:16:19.000Z</time>
      </trkpt>
      <trkpt lat="47.28625" lon="-2.23596">
        <ele>88.800003051758</ele>
        <time>2021-06-13T08:16:26.000Z</time>
      </trkpt>
      <trkpt lat="47.28625" lon="-2.2359">
        <ele>88.800003051758</ele>
        <time>2021-06-13T08:16:27.000Z</time>
      </trkpt>
      <trkpt lat="47.28628" lon="-2.23571">
        <ele>88.400001525879</ele>
        <time>2021-06-13T08:16:30.000Z</time>
      </trkpt>
      <trkpt lat="47.2863" lon="-2.23565">
        <ele>88</ele>
        <time>2021-06-13T08:16:31.000Z</time>
      </trkpt>
      <trkpt lat="47.28633" lon="-2.23559">
        <ele>87.599998474121</ele>
        <time>2021-06-13T08:16:32.000Z</time>
      </trkpt>
      <trkpt lat="47.28635" lon="-2.23554">
        <ele>87</ele>
        <time>2021-06-13T08:16:33.000Z</time>
      </trkpt>
      <trkpt lat="47.28638" lon="-2.23549">
        <ele>86.599998474121</ele>
        <time>2021-06-13T08:16:34.000Z</time>
      </trkpt>
      <trkpt lat="47.2864" lon="-2.23543">
        <ele>86.599998474121</ele>
        <time>2021-06-13T08:16:35.000Z</time>
      </trkpt>
      <trkpt lat="47.28645" lon="-2.2351">
        <ele>86.599998474121</ele>
        <time>2021-06-13T08:16:40.000Z</time>
      </trkpt>
      <trkpt lat="47.28646" lon="-2.23502">
        <ele>86.599998474121</ele>
        <time>2021-06-13T08:16:41.000Z</time>
      </trkpt>
      <trkpt lat="47.28649" lon="-2.23468">
        <ele>86.599998474121</ele>
        <time>2021-06-13T08:16:45.000Z</time>
      </trkpt>
      <trkpt lat="47.28649" lon="-2.23459">
        <ele>87</ele>
        <time>2021-06-13T08:16:46.000Z</time>
      </trkpt>
      <trkpt lat="47.2865" lon="-2.2345">
        <ele>87.599998474121</ele>
        <time>2021-06-13T08:16:47.000Z</time>
      </trkpt>
      <trkpt lat="47.2865" lon="-2.23441">
        <ele>88</ele>
        <time>2021-06-13T08:16:48.000Z</time>
      </trkpt>
      <trkpt lat="47.28651" lon="-2.23433">
        <ele>88.400001525879</ele>
        <time>2021-06-13T08:16:49.000Z</time>
      </trkpt>
      <trkpt lat="47.28651" lon="-2.23425">
        <ele>88.800003051758</ele>
        <time>2021-06-13T08:16:50.000Z</time>
      </trkpt>
      <trkpt lat="47.28651" lon="-2.23416">
        <ele>88.800003051758</ele>
        <time>2021-06-13T08:16:51.000Z</time>
      </trkpt>
      <trkpt lat="47.2865" lon="-2.23374">
        <ele>88.800003051758</ele>
        <time>2021-06-13T08:16:55.000Z</time>
      </trkpt>
      <trkpt lat="47.28654" lon="-2.23339">
        <ele>88.400001525879</ele>
        <time>2021-06-13T08:16:59.000Z</time>
      </trkpt>
      <trkpt lat="47.28655" lon="-2.23332">
        <ele>87.800003051758</ele>
        <time>2021-06-13T08:17:00.000Z</time>
      </trkpt>
      <trkpt lat="47.28656" lon="-2.23325">
        <ele>87.400001525879</ele>
        <time>2021-06-13T08:17:01.000Z</time>
      </trkpt>
      <trkpt lat="47.28656" lon="-2.2332">
        <ele>87</ele>
        <time>2021-06-13T08:17:02.000Z</time>
      </trkpt>
      <trkpt lat="47.28655" lon="-2.23315">
        <ele>86.400001525879</ele>
        <time>2021-06-13T08:17:03.000Z</time>
      </trkpt>
      <trkpt lat="47.28656" lon="-2.23312">
        <ele>86.400001525879</ele>
        <time>2021-06-13T08:17:04.000Z</time>
      </trkpt>
      <trkpt lat="47.28662" lon="-2.23297">
        <ele>86.400001525879</ele>
        <time>2021-06-13T08:17:11.000Z</time>
      </trkpt>
      <trkpt lat="47.28664" lon="-2.23275">
        <ele>86.800003051758</ele>
        <time>2021-06-13T08:17:16.000Z</time>
      </trkpt>
      <trkpt lat="47.28664" lon="-2.23272">
        <ele>87.400001525879</ele>
        <time>2021-06-13T08:17:17.000Z</time>
      </trkpt>
      <trkpt lat="47.28665" lon="-2.23269">
        <ele>87.800003051758</ele>
        <time>2021-06-13T08:17:18.000Z</time>
      </trkpt>
      <trkpt lat="47.28665" lon="-2.23266">
        <ele>88.199996948242</ele>
        <time>2021-06-13T08:17:19.000Z</time>
      </trkpt>
      <trkpt lat="47.28665" lon="-2.23263">
        <ele>88.599998474121</ele>
        <time>2021-06-13T08:17:20.000Z</time>
      </trkpt>
      <trkpt lat="47.28665" lon="-2.23252">
        <ele>88.599998474121</ele>
        <time>2021-06-13T08:17:23.000Z</time>
      </trkpt>
      <trkpt lat="47.28669" lon="-2.23236">
        <ele>88.599998474121</ele>
        <time>2021-06-13T08:17:29.000Z</time>
      </trkpt>
      <trkpt lat="47.28672" lon="-2.23212">
        <ele>88.599998474121</ele>
        <time>2021-06-13T08:17:36.000Z</time>
      </trkpt>
      <trkpt lat="47.28665" lon="-2.23188">
        <ele>88.599998474121</ele>
        <time>2021-06-13T08:17:41.000Z</time>
      </trkpt>
      <trkpt lat="47.2865" lon="-2.23173">
        <ele>88.599998474121</ele>
        <time>2021-06-13T08:17:44.000Z</time>
      </trkpt>
      <trkpt lat="47.28645" lon="-2.2317">
        <ele>88.199996948242</ele>
        <time>2021-06-13T08:17:45.000Z</time>
      </trkpt>
      <trkpt lat="47.2864" lon="-2.23168">
        <ele>87.400001525879</ele>
        <time>2021-06-13T08:17:46.000Z</time>
      </trkpt>
      <trkpt lat="47.28635" lon="-2.23167">
        <ele>87</ele>
        <time>2021-06-13T08:17:47.000Z</time>
      </trkpt>
      <trkpt lat="47.2863" lon="-2.23168">
        <ele>86.599998474121</ele>
        <time>2021-06-13T08:17:48.000Z</time>
      </trkpt>
      <trkpt lat="47.28612" lon="-2.23179">
        <ele>86.599998474121</ele>
        <time>2021-06-13T08:17:52.000Z</time>
      </trkpt>
      <trkpt lat="47.28586" lon="-2.23207">
        <ele>86.599998474121</ele>
        <time>2021-06-13T08:17:59.000Z</time>
      </trkpt>
      <trkpt lat="47.28577" lon="-2.23236">
        <ele>86.599998474121</ele>
        <time>2021-06-13T08:18:05.000Z</time>
      </trkpt>
      <trkpt lat="47.28586" lon="-2.23263">
        <ele>86.599998474121</ele>
        <time>2021-06-13T08:18:10.000Z</time>
      </trkpt>
      <trkpt lat="47.28605" lon="-2.23275">
        <ele>86.599998474121</ele>
        <time>2021-06-13T08:18:13.000Z</time>
      </trkpt>
      <trkpt lat="47.28616" lon="-2.2328">
        <ele>86.599998474121</ele>
        <time>2021-06-13T08:18:15.000Z</time>
      </trkpt>
      <trkpt lat="47.28627" lon="-2.23282">
        <ele>86.599998474121</ele>
        <time>2021-06-13T08:18:17.000Z</time>
      </trkpt>
      <trkpt lat="47.28642" lon="-2.23287">
        <ele>86.599998474121</ele>
        <time>2021-06-13T08:18:20.000Z</time>
      </trkpt>
      <trkpt lat="47.28646" lon="-2.23288">
        <ele>86.599998474121</ele>
        <time>2021-06-13T08:18:21.000Z</time>
      </trkpt>
      <trkpt lat="47.28664" lon="-2.23293">
        <ele>87</ele>
        <time>2021-06-13T08:18:26.000Z</time>
      </trkpt>
      <trkpt lat="47.28666" lon="-2.23293">
        <ele>87.400001525879</ele>
        <time>2021-06-13T08:18:27.000Z</time>
      </trkpt>
      <trkpt lat="47.28667" lon="-2.23293">
        <ele>88</ele>
        <time>2021-06-13T08:18:28.000Z</time>
      </trkpt>
      <trkpt lat="47.28668" lon="-2.23294">
        <ele>88.400001525879</ele>
        <time>2021-06-13T08:18:29.000Z</time>
      </trkpt>
      <trkpt lat="47.28668" lon="-2.23297">
        <ele>88.800003051758</ele>
        <time>2021-06-13T08:18:30.000Z</time>
      </trkpt>
      <trkpt lat="47.28669" lon="-2.233">
        <ele>88.800003051758</ele>
        <time>2021-06-13T08:18:31.000Z</time>
      </trkpt>
      <trkpt lat="47.2867" lon="-2.23324">
        <ele>88.800003051758</ele>
        <time>2021-06-13T08:18:36.000Z</time>
      </trkpt>
      <trkpt lat="47.28666" lon="-2.23335">
        <ele>88.800003051758</ele>
        <time>2021-06-13T08:18:39.000Z</time>
      </trkpt>
      <trkpt lat="47.28663" lon="-2.23335">
        <ele>88.800003051758</ele>
        <time>2021-06-13T08:18:40.000Z</time>
      </trkpt>
      <trkpt lat="47.28654" lon="-2.23333">
        <ele>88.800003051758</ele>
        <time>2021-06-13T08:18:43.000Z</time>
      </trkpt>
      <trkpt lat="47.28647" lon="-2.23332">
        <ele>88.800003051758</ele>
        <time>2021-06-13T08:18:45.000Z</time>
      </trkpt>
      <trkpt lat="47.28639" lon="-2.23339">
        <ele>88.800003051758</ele>
        <time>2021-06-13T08:18:47.000Z</time>
      </trkpt>
      <trkpt lat="47.28632" lon="-2.23374">
        <ele>88.800003051758</ele>
        <time>2021-06-13T08:18:52.000Z</time>
      </trkpt>
      <trkpt lat="47.28633" lon="-2.23384">
        <ele>88.800003051758</ele>
        <time>2021-06-13T08:18:55.000Z</time>
      </trkpt>
      <trkpt lat="47.28634" lon="-2.23385">
        <ele>88.800003051758</ele>
        <time>2021-06-13T08:18:56.000Z</time>
      </trkpt>
      <trkpt lat="47.28639" lon="-2.23401">
        <ele>88.800003051758</ele>
        <time>2021-06-13T08:19:03.000Z</time>
      </trkpt>
      <trkpt lat="47.28643" lon="-2.23433">
        <ele>88.800003051758</ele>
        <time>2021-06-13T08:19:09.000Z</time>
      </trkpt>
      <trkpt lat="47.28641" lon="-2.23473">
        <ele>88.800003051758</ele>
        <time>2021-06-13T08:19:15.000Z</time>
      </trkpt>
      <trkpt lat="47.28641" lon="-2.23515">
        <ele>88.800003051758</ele>
        <time>2021-06-13T08:19:20.000Z</time>
      </trkpt>
      <trkpt lat="47.28644" lon="-2.23521">
        <ele>88.800003051758</ele>
        <time>2021-06-13T08:19:21.000Z</time>
      </trkpt>
      <trkpt lat="47.28654" lon="-2.23529">
        <ele>88.800003051758</ele>
        <time>2021-06-13T08:19:23.000Z</time>
      </trkpt>
      <trkpt lat="47.28672" lon="-2.23547">
        <ele>88.800003051758</ele>
        <time>2021-06-13T08:19:29.000Z</time>
      </trkpt>
      <trkpt lat="47.28689" lon="-2.2357">
        <ele>88.800003051758</ele>
        <time>2021-06-13T08:19:35.000Z</time>
      </trkpt>
      <trkpt lat="47.28701" lon="-2.23569">
        <ele>88.800003051758</ele>
        <time>2021-06-13T08:19:39.000Z</time>
      </trkpt>
      <trkpt lat="47.28713" lon="-2.23551">
        <ele>88.800003051758</ele>
        <time>2021-06-13T08:19:44.000Z</time>
      </trkpt>
      <trkpt lat="47.28714" lon="-2.23546">
        <ele>88.800003051758</ele>
        <time>2021-06-13T08:19:45.000Z</time>
      </trkpt>
      <trkpt lat="47.28725" lon="-2.23517">
        <ele>88.800003051758</ele>
        <time>2021-06-13T08:19:52.000Z</time>
      </trkpt>
      <trkpt lat="47.28728" lon="-2.23511">
        <ele>89.199996948242</ele>
        <time>2021-06-13T08:19:54.000Z</time>
      </trkpt>
      <trkpt lat="47.28731" lon="-2.23508">
        <ele>89.599998474121</ele>
        <time>2021-06-13T08:19:55.000Z</time>
      </trkpt>
      <trkpt lat="47.28733" lon="-2.23506">
        <ele>90</ele>
        <time>2021-06-13T08:19:56.000Z</time>
      </trkpt>
      <trkpt lat="47.28736" lon="-2.23505">
        <ele>90.599998474121</ele>
        <time>2021-06-13T08:19:57.000Z</time>
      </trkpt>
      <trkpt lat="47.28738" lon="-2.23503">
        <ele>91</ele>
        <time>2021-06-13T08:19:58.000Z</time>
      </trkpt>
      <trkpt lat="47.28757" lon="-2.23495">
        <ele>91.400001525879</ele>
        <time>2021-06-13T08:20:02.000Z</time>
      </trkpt>
      <trkpt lat="47.28763" lon="-2.23494">
        <ele>91.800003051758</ele>
        <time>2021-06-13T08:20:03.000Z</time>
      </trkpt>
      <trkpt lat="47.28768" lon="-2.23494">
        <ele>92.199996948242</ele>
        <time>2021-06-13T08:20:04.000Z</time>
      </trkpt>
      <trkpt lat="47.28774" lon="-2.23494">
        <ele>92.599998474121</ele>
        <time>2021-06-13T08:20:05.000Z</time>
      </trkpt>
      <trkpt lat="47.2878" lon="-2.23493">
        <ele>93</ele>
        <time>2021-06-13T08:20:06.000Z</time>
      </trkpt>
      <trkpt lat="47.28805" lon="-2.23488">
        <ele>93</ele>
        <time>2021-06-13T08:20:09.000Z</time>
      </trkpt>
      <trkpt lat="47.28811" lon="-2.23488">
        <ele>93</ele>
        <time>2021-06-13T08:20:10.000Z</time>
      </trkpt>
      <trkpt lat="47.28822" lon="-2.23487">
        <ele>93</ele>
        <time>2021-06-13T08:20:12.000Z</time>
      </trkpt>
      <trkpt lat="47.28832" lon="-2.23485">
        <ele>93.400001525879</ele>
        <time>2021-06-13T08:20:14.000Z</time>
      </trkpt>
      <trkpt lat="47.28839" lon="-2.23484">
        <ele>94.199996948242</ele>
        <time>2021-06-13T08:20:15.000Z</time>
      </trkpt>
      <trkpt lat="47.28845" lon="-2.23484">
        <ele>94.599998474121</ele>
        <time>2021-06-13T08:20:16.000Z</time>
      </trkpt>
      <trkpt lat="47.28851" lon="-2.23485">
        <ele>95</ele>
        <time>2021-06-13T08:20:17.000Z</time>
      </trkpt>
      <trkpt lat="47.28868" lon="-2.23485">
        <ele>95</ele>
        <time>2021-06-13T08:20:20.000Z</time>
      </trkpt>
      <trkpt lat="47.28878" lon="-2.23484">
        <ele>95.400001525879</ele>
        <time>2021-06-13T08:20:22.000Z</time>
      </trkpt>
      <trkpt lat="47.28883" lon="-2.23483">
        <ele>95.800003051758</ele>
        <time>2021-06-13T08:20:23.000Z</time>
      </trkpt>
      <trkpt lat="47.28888" lon="-2.23481">
        <ele>96.199996948242</ele>
        <time>2021-06-13T08:20:24.000Z</time>
      </trkpt>
      <trkpt lat="47.28893" lon="-2.23479">
        <ele>96.599998474121</ele>
        <time>2021-06-13T08:20:25.000Z</time>
      </trkpt>
      <trkpt lat="47.28897" lon="-2.23477">
        <ele>97.199996948242</ele>
        <time>2021-06-13T08:20:26.000Z</time>
      </trkpt>
      <trkpt lat="47.28928" lon="-2.23471">
        <ele>97.199996948242</ele>
        <time>2021-06-13T08:20:33.000Z</time>
      </trkpt>
      <trkpt lat="47.28937" lon="-2.23465">
        <ele>97.199996948242</ele>
        <time>2021-06-13T08:20:35.000Z</time>
      </trkpt>
      <trkpt lat="47.28938" lon="-2.2346">
        <ele>97.199996948242</ele>
        <time>2021-06-13T08:20:36.000Z</time>
      </trkpt>
      <trkpt lat="47.28944" lon="-2.23434">
        <ele>97.199996948242</ele>
        <time>2021-06-13T08:20:40.000Z</time>
      </trkpt>
      <trkpt lat="47.28953" lon="-2.23387">
        <ele>97.199996948242</ele>
        <time>2021-06-13T08:20:47.000Z</time>
      </trkpt>
      <trkpt lat="47.28969" lon="-2.23329">
        <ele>97.199996948242</ele>
        <time>2021-06-13T08:20:54.000Z</time>
      </trkpt>
      <trkpt lat="47.28979" lon="-2.23261">
        <ele>97.199996948242</ele>
        <time>2021-06-13T08:21:01.000Z</time>
      </trkpt>
      <trkpt lat="47.28988" lon="-2.23185">
        <ele>97.199996948242</ele>
        <time>2021-06-13T08:21:08.000Z</time>
      </trkpt>
      <trkpt lat="47.28996" lon="-2.2312">
        <ele>96.599998474121</ele>
        <time>2021-06-13T08:21:14.000Z</time>
      </trkpt>
      <trkpt lat="47.28997" lon="-2.23108">
        <ele>96.199996948242</ele>
        <time>2021-06-13T08:21:15.000Z</time>
      </trkpt>
      <trkpt lat="47.28998" lon="-2.23098">
        <ele>95.800003051758</ele>
        <time>2021-06-13T08:21:16.000Z</time>
      </trkpt>
      <trkpt lat="47.29" lon="-2.23087">
        <ele>95.199996948242</ele>
        <time>2021-06-13T08:21:17.000Z</time>
      </trkpt>
      <trkpt lat="47.29001" lon="-2.23076">
        <ele>94.800003051758</ele>
        <time>2021-06-13T08:21:18.000Z</time>
      </trkpt>
      <trkpt lat="47.29006" lon="-2.23044">
        <ele>94.400001525879</ele>
        <time>2021-06-13T08:21:21.000Z</time>
      </trkpt>
      <trkpt lat="47.29009" lon="-2.23034">
        <ele>94</ele>
        <time>2021-06-13T08:21:22.000Z</time>
      </trkpt>
      <trkpt lat="47.29013" lon="-2.23024">
        <ele>93.599998474121</ele>
        <time>2021-06-13T08:21:23.000Z</time>
      </trkpt>
      <trkpt lat="47.29016" lon="-2.23014">
        <ele>93.199996948242</ele>
        <time>2021-06-13T08:21:24.000Z</time>
      </trkpt>
      <trkpt lat="47.29019" lon="-2.23005">
        <ele>92.800003051758</ele>
        <time>2021-06-13T08:21:25.000Z</time>
      </trkpt>
      <trkpt lat="47.29024" lon="-2.22987">
        <ele>92.400001525879</ele>
        <time>2021-06-13T08:21:27.000Z</time>
      </trkpt>
      <trkpt lat="47.29027" lon="-2.22981">
        <ele>91.800003051758</ele>
        <time>2021-06-13T08:21:28.000Z</time>
      </trkpt>
      <trkpt lat="47.29028" lon="-2.22974">
        <ele>91</ele>
        <time>2021-06-13T08:21:29.000Z</time>
      </trkpt>
      <trkpt lat="47.29028" lon="-2.22967">
        <ele>90.400001525879</ele>
        <time>2021-06-13T08:21:30.000Z</time>
      </trkpt>
      <trkpt lat="47.2903" lon="-2.22962">
        <ele>90.400001525879</ele>
        <time>2021-06-13T08:21:31.000Z</time>
      </trkpt>
      <trkpt lat="47.29037" lon="-2.22959">
        <ele>90</ele>
        <time>2021-06-13T08:21:33.000Z</time>
      </trkpt>
      <trkpt lat="47.29042" lon="-2.22964">
        <ele>89.400001525879</ele>
        <time>2021-06-13T08:21:34.000Z</time>
      </trkpt>
      <trkpt lat="47.29045" lon="-2.22972">
        <ele>89</ele>
        <time>2021-06-13T08:21:35.000Z</time>
      </trkpt>
      <trkpt lat="47.29048" lon="-2.22979">
        <ele>88.599998474121</ele>
        <time>2021-06-13T08:21:36.000Z</time>
      </trkpt>
      <trkpt lat="47.29052" lon="-2.22985">
        <ele>88</ele>
        <time>2021-06-13T08:21:37.000Z</time>
      </trkpt>
      <trkpt lat="47.29057" lon="-2.22991">
        <ele>88</ele>
        <time>2021-06-13T08:21:38.000Z</time>
      </trkpt>
      <trkpt lat="47.29071" lon="-2.23006">
        <ele>88</ele>
        <time>2021-06-13T08:21:41.000Z</time>
      </trkpt>
      <trkpt lat="47.29098" lon="-2.23043">
        <ele>88</ele>
        <time>2021-06-13T08:21:47.000Z</time>
      </trkpt>
      <trkpt lat="47.29132" lon="-2.23085">
        <ele>88</ele>
        <time>2021-06-13T08:21:54.000Z</time>
      </trkpt>
      <trkpt lat="47.29142" lon="-2.23098">
        <ele>88</ele>
        <time>2021-06-13T08:21:56.000Z</time>
      </trkpt>
      <trkpt lat="47.29174" lon="-2.23138">
        <ele>88</ele>
        <time>2021-06-13T08:22:03.000Z</time>
      </trkpt>
      <trkpt lat="47.29186" lon="-2.23157">
        <ele>88</ele>
        <time>2021-06-13T08:22:06.000Z</time>
      </trkpt>
      <trkpt lat="47.29197" lon="-2.23177">
        <ele>88</ele>
        <time>2021-06-13T08:22:09.000Z</time>
      </trkpt>
      <trkpt lat="47.292" lon="-2.23186">
        <ele>88</ele>
        <time>2021-06-13T08:22:10.000Z</time>
      </trkpt>
      <trkpt lat="47.29206" lon="-2.23212">
        <ele>88</ele>
        <time>2021-06-13T08:22:13.000Z</time>
      </trkpt>
      <trkpt lat="47.29218" lon="-2.23233">
        <ele>88</ele>
        <time>2021-06-13T08:22:16.000Z</time>
      </trkpt>
      <trkpt lat="47.29222" lon="-2.23239">
        <ele>88</ele>
        <time>2021-06-13T08:22:17.000Z</time>
      </trkpt>
      <trkpt lat="47.29248" lon="-2.23276">
        <ele>88</ele>
        <time>2021-06-13T08:22:23.000Z</time>
      </trkpt>
      <trkpt lat="47.29252" lon="-2.23283">
        <ele>88</ele>
        <time>2021-06-13T08:22:24.000Z</time>
      </trkpt>
      <trkpt lat="47.29262" lon="-2.23316">
        <ele>88</ele>
        <time>2021-06-13T08:22:28.000Z</time>
      </trkpt>
      <trkpt lat="47.29275" lon="-2.23372">
        <ele>88</ele>
        <time>2021-06-13T08:22:35.000Z</time>
      </trkpt>
      <trkpt lat="47.29284" lon="-2.23415">
        <ele>88</ele>
        <time>2021-06-13T08:22:41.000Z</time>
      </trkpt>
      <trkpt lat="47.29296" lon="-2.23462">
        <ele>88</ele>
        <time>2021-06-13T08:22:48.000Z</time>
      </trkpt>
      <trkpt lat="47.29303" lon="-2.23511">
        <ele>88</ele>
        <time>2021-06-13T08:22:54.000Z</time>
      </trkpt>
      <trkpt lat="47.29309" lon="-2.23562">
        <ele>88</ele>
        <time>2021-06-13T08:23:00.000Z</time>
      </trkpt>
      <trkpt lat="47.29309" lon="-2.2358">
        <ele>88</ele>
        <time>2021-06-13T08:23:02.000Z</time>
      </trkpt>
      <trkpt lat="47.2931" lon="-2.23634">
        <ele>88</ele>
        <time>2021-06-13T08:23:08.000Z</time>
      </trkpt>
      <trkpt lat="47.2931" lon="-2.23693">
        <ele>88</ele>
        <time>2021-06-13T08:23:15.000Z</time>
      </trkpt>
      <trkpt lat="47.29308" lon="-2.23747">
        <ele>88</ele>
        <time>2021-06-13T08:23:22.000Z</time>
      </trkpt>
      <trkpt lat="47.29309" lon="-2.23755">
        <ele>88</ele>
        <time>2021-06-13T08:23:23.000Z</time>
      </trkpt>
      <trkpt lat="47.29313" lon="-2.23763">
        <ele>88</ele>
        <time>2021-06-13T08:23:25.000Z</time>
      </trkpt>
      <trkpt lat="47.29326" lon="-2.23772">
        <ele>88</ele>
        <time>2021-06-13T08:23:28.000Z</time>
      </trkpt>
      <trkpt lat="47.29345" lon="-2.23773">
        <ele>88.400001525879</ele>
        <time>2021-06-13T08:23:31.000Z</time>
      </trkpt>
      <trkpt lat="47.29351" lon="-2.23773">
        <ele>89</ele>
        <time>2021-06-13T08:23:32.000Z</time>
      </trkpt>
      <trkpt lat="47.29356" lon="-2.23772">
        <ele>89.400001525879</ele>
        <time>2021-06-13T08:23:33.000Z</time>
      </trkpt>
      <trkpt lat="47.2936" lon="-2.23769">
        <ele>89.800003051758</ele>
        <time>2021-06-13T08:23:34.000Z</time>
      </trkpt>
      <trkpt lat="47.29362" lon="-2.23763">
        <ele>90.199996948242</ele>
        <time>2021-06-13T08:23:35.000Z</time>
      </trkpt>
      <trkpt lat="47.29366" lon="-2.23745">
        <ele>90.199996948242</ele>
        <time>2021-06-13T08:23:37.000Z</time>
      </trkpt>
      <trkpt lat="47.29368" lon="-2.23738">
        <ele>90.199996948242</ele>
        <time>2021-06-13T08:23:38.000Z</time>
      </trkpt>
      <trkpt lat="47.29375" lon="-2.23705">
        <ele>90.199996948242</ele>
        <time>2021-06-13T08:23:42.000Z</time>
      </trkpt>
      <trkpt lat="47.29383" lon="-2.23693">
        <ele>90.199996948242</ele>
        <time>2021-06-13T08:23:44.000Z</time>
      </trkpt>
      <trkpt lat="47.29392" lon="-2.23686">
        <ele>90.199996948242</ele>
        <time>2021-06-13T08:23:46.000Z</time>
      </trkpt>
      <trkpt lat="47.29401" lon="-2.23683">
        <ele>90.599998474121</ele>
        <time>2021-06-13T08:23:48.000Z</time>
      </trkpt>
      <trkpt lat="47.29407" lon="-2.23682">
        <ele>91</ele>
        <time>2021-06-13T08:23:49.000Z</time>
      </trkpt>
      <trkpt lat="47.29412" lon="-2.23681">
        <ele>91.400001525879</ele>
        <time>2021-06-13T08:23:50.000Z</time>
      </trkpt>
      <trkpt lat="47.29418" lon="-2.2368">
        <ele>91.800003051758</ele>
        <time>2021-06-13T08:23:51.000Z</time>
      </trkpt>
      <trkpt lat="47.29424" lon="-2.2368">
        <ele>92.199996948242</ele>
        <time>2021-06-13T08:23:52.000Z</time>
      </trkpt>
      <trkpt lat="47.29441" lon="-2.23675">
        <ele>92.199996948242</ele>
        <time>2021-06-13T08:23:55.000Z</time>
      </trkpt>
      <trkpt lat="47.29451" lon="-2.23672">
        <ele>92.800003051758</ele>
        <time>2021-06-13T08:23:57.000Z</time>
      </trkpt>
      <trkpt lat="47.29456" lon="-2.2367">
        <ele>93.199996948242</ele>
        <time>2021-06-13T08:23:58.000Z</time>
      </trkpt>
      <trkpt lat="47.2946" lon="-2.23669">
        <ele>93.599998474121</ele>
        <time>2021-06-13T08:23:59.000Z</time>
      </trkpt>
      <trkpt lat="47.29464" lon="-2.23667">
        <ele>94.199996948242</ele>
        <time>2021-06-13T08:24:00.000Z</time>
      </trkpt>
      <trkpt lat="47.29467" lon="-2.23665">
        <ele>94.599998474121</ele>
        <time>2021-06-13T08:24:01.000Z</time>
      </trkpt>
      <trkpt lat="47.29471" lon="-2.23662">
        <ele>94.599998474121</ele>
        <time>2021-06-13T08:24:02.000Z</time>
      </trkpt>
      <trkpt lat="47.29483" lon="-2.23654">
        <ele>94.599998474121</ele>
        <time>2021-06-13T08:24:05.000Z</time>
      </trkpt>
      <trkpt lat="47.29488" lon="-2.23654">
        <ele>94.599998474121</ele>
        <time>2021-06-13T08:24:06.000Z</time>
      </trkpt>
      <trkpt lat="47.29494" lon="-2.23664">
        <ele>94.599998474121</ele>
        <time>2021-06-13T08:24:08.000Z</time>
      </trkpt>
      <trkpt lat="47.29493" lon="-2.23683">
        <ele>94.599998474121</ele>
        <time>2021-06-13T08:24:11.000Z</time>
      </trkpt>
      <trkpt lat="47.29493" lon="-2.23691">
        <ele>94.599998474121</ele>
        <time>2021-06-13T08:24:12.000Z</time>
      </trkpt>
      <trkpt lat="47.29496" lon="-2.23737">
        <ele>94.199996948242</ele>
        <time>2021-06-13T08:24:18.000Z</time>
      </trkpt>
      <trkpt lat="47.29498" lon="-2.23745">
        <ele>93.800003051758</ele>
        <time>2021-06-13T08:24:19.000Z</time>
      </trkpt>
      <trkpt lat="47.29499" lon="-2.23753">
        <ele>93.400001525879</ele>
        <time>2021-06-13T08:24:20.000Z</time>
      </trkpt>
      <trkpt lat="47.29501" lon="-2.23762">
        <ele>92.599998474121</ele>
        <time>2021-06-13T08:24:21.000Z</time>
      </trkpt>
      <trkpt lat="47.29506" lon="-2.23786">
        <ele>92.599998474121</ele>
        <time>2021-06-13T08:24:24.000Z</time>
      </trkpt>
      <trkpt lat="47.29511" lon="-2.23802">
        <ele>92.199996948242</ele>
        <time>2021-06-13T08:24:26.000Z</time>
      </trkpt>
      <trkpt lat="47.29514" lon="-2.23811">
        <ele>91.800003051758</ele>
        <time>2021-06-13T08:24:27.000Z</time>
      </trkpt>
      <trkpt lat="47.29517" lon="-2.2382">
        <ele>91.199996948242</ele>
        <time>2021-06-13T08:24:28.000Z</time>
      </trkpt>
      <trkpt lat="47.29519" lon="-2.23829">
        <ele>90.800003051758</ele>
        <time>2021-06-13T08:24:29.000Z</time>
      </trkpt>
      <trkpt lat="47.29522" lon="-2.23839">
        <ele>90.400001525879</ele>
        <time>2021-06-13T08:24:30.000Z</time>
      </trkpt>
      <trkpt lat="47.29535" lon="-2.2389">
        <ele>90.400001525879</ele>
        <time>2021-06-13T08:24:36.000Z</time>
      </trkpt>
      <trkpt lat="47.29545" lon="-2.23954">
        <ele>90.400001525879</ele>
        <time>2021-06-13T08:24:43.000Z</time>
      </trkpt>
      <trkpt lat="47.29559" lon="-2.24036">
        <ele>90.400001525879</ele>
        <time>2021-06-13T08:24:52.000Z</time>
      </trkpt>
      <trkpt lat="47.2956" lon="-2.24045">
        <ele>90.400001525879</ele>
        <time>2021-06-13T08:24:53.000Z</time>
      </trkpt>
      <trkpt lat="47.29576" lon="-2.24128">
        <ele>90.400001525879</ele>
        <time>2021-06-13T08:25:02.000Z</time>
      </trkpt>
      <trkpt lat="47.29587" lon="-2.24198">
        <ele>90.400001525879</ele>
        <time>2021-06-13T08:25:09.000Z</time>
      </trkpt>
      <trkpt lat="47.29593" lon="-2.24205">
        <ele>90.400001525879</ele>
        <time>2021-06-13T08:25:11.000Z</time>
      </trkpt>
      <trkpt lat="47.296" lon="-2.24205">
        <ele>90.400001525879</ele>
        <time>2021-06-13T08:25:13.000Z</time>
      </trkpt>
      <trkpt lat="47.29607" lon="-2.24196">
        <ele>90.800003051758</ele>
        <time>2021-06-13T08:25:15.000Z</time>
      </trkpt>
      <trkpt lat="47.29608" lon="-2.2419">
        <ele>91.199996948242</ele>
        <time>2021-06-13T08:25:16.000Z</time>
      </trkpt>
      <trkpt lat="47.2961" lon="-2.24184">
        <ele>91.599998474121</ele>
        <time>2021-06-13T08:25:17.000Z</time>
      </trkpt>
      <trkpt lat="47.2961" lon="-2.24177">
        <ele>92</ele>
        <time>2021-06-13T08:25:18.000Z</time>
      </trkpt>
      <trkpt lat="47.29611" lon="-2.24168">
        <ele>92.599998474121</ele>
        <time>2021-06-13T08:25:19.000Z</time>
      </trkpt>
      <trkpt lat="47.29613" lon="-2.24151">
        <ele>92.599998474121</ele>
        <time>2021-06-13T08:25:21.000Z</time>
      </trkpt>
      <trkpt lat="47.2962" lon="-2.24079">
        <ele>92.599998474121</ele>
        <time>2021-06-13T08:25:29.000Z</time>
      </trkpt>
      <trkpt lat="47.29621" lon="-2.24072">
        <ele>92.599998474121</ele>
        <time>2021-06-13T08:25:30.000Z</time>
      </trkpt>
      <trkpt lat="47.29625" lon="-2.2406">
        <ele>92.599998474121</ele>
        <time>2021-06-13T08:25:32.000Z</time>
      </trkpt>
      <trkpt lat="47.29627" lon="-2.24052">
        <ele>92.599998474121</ele>
        <time>2021-06-13T08:25:33.000Z</time>
      </trkpt>
      <trkpt lat="47.29629" lon="-2.24035">
        <ele>92.599998474121</ele>
        <time>2021-06-13T08:25:35.000Z</time>
      </trkpt>
      <trkpt lat="47.2963" lon="-2.24025">
        <ele>92.599998474121</ele>
        <time>2021-06-13T08:25:36.000Z</time>
      </trkpt>
      <trkpt lat="47.29633" lon="-2.24006">
        <ele>92.599998474121</ele>
        <time>2021-06-13T08:25:38.000Z</time>
      </trkpt>
      <trkpt lat="47.29638" lon="-2.23989">
        <ele>92</ele>
        <time>2021-06-13T08:25:40.000Z</time>
      </trkpt>
      <trkpt lat="47.29642" lon="-2.23984">
        <ele>91.599998474121</ele>
        <time>2021-06-13T08:25:41.000Z</time>
      </trkpt>
      <trkpt lat="47.29646" lon="-2.23979">
        <ele>91.199996948242</ele>
        <time>2021-06-13T08:25:42.000Z</time>
      </trkpt>
      <trkpt lat="47.29651" lon="-2.23974">
        <ele>90.800003051758</ele>
        <time>2021-06-13T08:25:43.000Z</time>
      </trkpt>
      <trkpt lat="47.29656" lon="-2.23969">
        <ele>90.400001525879</ele>
        <time>2021-06-13T08:25:44.000Z</time>
      </trkpt>
      <trkpt lat="47.2968" lon="-2.23948">
        <ele>90.400001525879</ele>
        <time>2021-06-13T08:25:48.000Z</time>
      </trkpt>
      <trkpt lat="47.29709" lon="-2.23926">
        <ele>90.400001525879</ele>
        <time>2021-06-13T08:25:53.000Z</time>
      </trkpt>
      <trkpt lat="47.29713" lon="-2.2392">
        <ele>90.400001525879</ele>
        <time>2021-06-13T08:25:54.000Z</time>
      </trkpt>
      <trkpt lat="47.29724" lon="-2.23892">
        <ele>90.400001525879</ele>
        <time>2021-06-13T08:25:58.000Z</time>
      </trkpt>
      <trkpt lat="47.29739" lon="-2.23838">
        <ele>90.400001525879</ele>
        <time>2021-06-13T08:26:04.000Z</time>
      </trkpt>
      <trkpt lat="47.29752" lon="-2.23811">
        <ele>90.400001525879</ele>
        <time>2021-06-13T08:26:08.000Z</time>
      </trkpt>
      <trkpt lat="47.29761" lon="-2.23799">
        <ele>90.400001525879</ele>
        <time>2021-06-13T08:26:10.000Z</time>
      </trkpt>
      <trkpt lat="47.29784" lon="-2.23787">
        <ele>90.400001525879</ele>
        <time>2021-06-13T08:26:14.000Z</time>
      </trkpt>
      <trkpt lat="47.2979" lon="-2.23784">
        <ele>90.400001525879</ele>
        <time>2021-06-13T08:26:15.000Z</time>
      </trkpt>
      <trkpt lat="47.29796" lon="-2.23783">
        <ele>90.400001525879</ele>
        <time>2021-06-13T08:26:16.000Z</time>
      </trkpt>
      <trkpt lat="47.2981" lon="-2.23785">
        <ele>90.400001525879</ele>
        <time>2021-06-13T08:26:19.000Z</time>
      </trkpt>
      <trkpt lat="47.29822" lon="-2.23795">
        <ele>90.400001525879</ele>
        <time>2021-06-13T08:26:22.000Z</time>
      </trkpt>
      <trkpt lat="47.29832" lon="-2.23803">
        <ele>90.400001525879</ele>
        <time>2021-06-13T08:26:24.000Z</time>
      </trkpt>
      <trkpt lat="47.29848" lon="-2.2381">
        <ele>90.400001525879</ele>
        <time>2021-06-13T08:26:27.000Z</time>
      </trkpt>
      <trkpt lat="47.29859" lon="-2.2381">
        <ele>90.400001525879</ele>
        <time>2021-06-13T08:26:29.000Z</time>
      </trkpt>
      <trkpt lat="47.29893" lon="-2.23805">
        <ele>90.400001525879</ele>
        <time>2021-06-13T08:26:35.000Z</time>
      </trkpt>
      <trkpt lat="47.29917" lon="-2.23811">
        <ele>90.400001525879</ele>
        <time>2021-06-13T08:26:39.000Z</time>
      </trkpt>
      <trkpt lat="47.29929" lon="-2.23818">
        <ele>90.400001525879</ele>
        <time>2021-06-13T08:26:41.000Z</time>
      </trkpt>
      <trkpt lat="47.29941" lon="-2.23826">
        <ele>90.400001525879</ele>
        <time>2021-06-13T08:26:43.000Z</time>
      </trkpt>
      <trkpt lat="47.29959" lon="-2.23842">
        <ele>90.400001525879</ele>
        <time>2021-06-13T08:26:45.000Z</time>
      </trkpt>
      <trkpt lat="47.29986" lon="-2.23862">
        <ele>90.400001525879</ele>
        <time>2021-06-13T08:26:49.000Z</time>
      </trkpt>
      <trkpt lat="47.29996" lon="-2.23875">
        <ele>90.400001525879</ele>
        <time>2021-06-13T08:26:51.000Z</time>
      </trkpt>
      <trkpt lat="47.30003" lon="-2.23907">
        <ele>90.400001525879</ele>
        <time>2021-06-13T08:26:55.000Z</time>
      </trkpt>
      <trkpt lat="47.30003" lon="-2.23915">
        <ele>90.400001525879</ele>
        <time>2021-06-13T08:26:56.000Z</time>
      </trkpt>
      <trkpt lat="47.30005" lon="-2.23957">
        <ele>90.400001525879</ele>
        <time>2021-06-13T08:27:01.000Z</time>
      </trkpt>
      <trkpt lat="47.30005" lon="-2.23964">
        <ele>90.400001525879</ele>
        <time>2021-06-13T08:27:02.000Z</time>
      </trkpt>
      <trkpt lat="47.30005" lon="-2.23977">
        <ele>90.400001525879</ele>
        <time>2021-06-13T08:27:04.000Z</time>
      </trkpt>
      <trkpt lat="47.30004" lon="-2.2399">
        <ele>90.400001525879</ele>
        <time>2021-06-13T08:27:06.000Z</time>
      </trkpt>
      <trkpt lat="47.30002" lon="-2.2403">
        <ele>90.400001525879</ele>
        <time>2021-06-13T08:27:13.000Z</time>
      </trkpt>
      <trkpt lat="47.30002" lon="-2.24042">
        <ele>90.800003051758</ele>
        <time>2021-06-13T08:27:15.000Z</time>
      </trkpt>
      <trkpt lat="47.30002" lon="-2.24048">
        <ele>91.199996948242</ele>
        <time>2021-06-13T08:27:16.000Z</time>
      </trkpt>
      <trkpt lat="47.30003" lon="-2.24055">
        <ele>91.599998474121</ele>
        <time>2021-06-13T08:27:17.000Z</time>
      </trkpt>
      <trkpt lat="47.30003" lon="-2.24062">
        <ele>92</ele>
        <time>2021-06-13T08:27:18.000Z</time>
      </trkpt>
      <trkpt lat="47.30004" lon="-2.24069">
        <ele>92.599998474121</ele>
        <time>2021-06-13T08:27:19.000Z</time>
      </trkpt>
      <trkpt lat="47.30004" lon="-2.24076">
        <ele>92.599998474121</ele>
        <time>2021-06-13T08:27:20.000Z</time>
      </trkpt>
      <trkpt lat="47.30006" lon="-2.24102">
        <ele>93</ele>
        <time>2021-06-13T08:27:24.000Z</time>
      </trkpt>
      <trkpt lat="47.30006" lon="-2.24108">
        <ele>93.400001525879</ele>
        <time>2021-06-13T08:27:25.000Z</time>
      </trkpt>
      <trkpt lat="47.30006" lon="-2.24113">
        <ele>93.800003051758</ele>
        <time>2021-06-13T08:27:26.000Z</time>
      </trkpt>
      <trkpt lat="47.30005" lon="-2.24119">
        <ele>94.199996948242</ele>
        <time>2021-06-13T08:27:27.000Z</time>
      </trkpt>
      <trkpt lat="47.30004" lon="-2.24124">
        <ele>94.599998474121</ele>
        <time>2021-06-13T08:27:28.000Z</time>
      </trkpt>
      <trkpt lat="47.29999" lon="-2.24138">
        <ele>95</ele>
        <time>2021-06-13T08:27:31.000Z</time>
      </trkpt>
      <trkpt lat="47.29998" lon="-2.24144">
        <ele>95.599998474121</ele>
        <time>2021-06-13T08:27:32.000Z</time>
      </trkpt>
      <trkpt lat="47.29997" lon="-2.2415">
        <ele>96</ele>
        <time>2021-06-13T08:27:33.000Z</time>
      </trkpt>
      <trkpt lat="47.29997" lon="-2.24155">
        <ele>96.400001525879</ele>
        <time>2021-06-13T08:27:34.000Z</time>
      </trkpt>
      <trkpt lat="47.29996" lon="-2.2416">
        <ele>96.800003051758</ele>
        <time>2021-06-13T08:27:35.000Z</time>
      </trkpt>
      <trkpt lat="47.29995" lon="-2.24166">
        <ele>97.199996948242</ele>
        <time>2021-06-13T08:27:36.000Z</time>
      </trkpt>
      <trkpt lat="47.29994" lon="-2.24172">
        <ele>97.800003051758</ele>
        <time>2021-06-13T08:27:37.000Z</time>
      </trkpt>
      <trkpt lat="47.29992" lon="-2.24178">
        <ele>98.599998474121</ele>
        <time>2021-06-13T08:27:38.000Z</time>
      </trkpt>
      <trkpt lat="47.29991" lon="-2.24185">
        <ele>99.199996948242</ele>
        <time>2021-06-13T08:27:39.000Z</time>
      </trkpt>
      <trkpt lat="47.29987" lon="-2.24205">
        <ele>99.599998474121</ele>
        <time>2021-06-13T08:27:42.000Z</time>
      </trkpt>
      <trkpt lat="47.29986" lon="-2.24211">
        <ele>100</ele>
        <time>2021-06-13T08:27:43.000Z</time>
      </trkpt>
      <trkpt lat="47.29982" lon="-2.24217">
        <ele>100.40000152588</ele>
        <time>2021-06-13T08:27:44.000Z</time>
      </trkpt>
      <trkpt lat="47.29977" lon="-2.24223">
        <ele>100.80000305176</ele>
        <time>2021-06-13T08:27:45.000Z</time>
      </trkpt>
      <trkpt lat="47.29974" lon="-2.24229">
        <ele>101.19999694824</ele>
        <time>2021-06-13T08:27:46.000Z</time>
      </trkpt>
      <trkpt lat="47.29954" lon="-2.24266">
        <ele>101.19999694824</ele>
        <time>2021-06-13T08:27:52.000Z</time>
      </trkpt>
      <trkpt lat="47.29947" lon="-2.24278">
        <ele>101.19999694824</ele>
        <time>2021-06-13T08:27:54.000Z</time>
      </trkpt>
      <trkpt lat="47.29945" lon="-2.24285">
        <ele>101.19999694824</ele>
        <time>2021-06-13T08:27:55.000Z</time>
      </trkpt>
      <trkpt lat="47.29941" lon="-2.24299">
        <ele>101.19999694824</ele>
        <time>2021-06-13T08:27:57.000Z</time>
      </trkpt>
      <trkpt lat="47.2994" lon="-2.24306">
        <ele>101.19999694824</ele>
        <time>2021-06-13T08:27:58.000Z</time>
      </trkpt>
      <trkpt lat="47.29943" lon="-2.24333">
        <ele>101.19999694824</ele>
        <time>2021-06-13T08:28:03.000Z</time>
      </trkpt>
      <trkpt lat="47.29946" lon="-2.24345">
        <ele>101.19999694824</ele>
        <time>2021-06-13T08:28:05.000Z</time>
      </trkpt>
      <trkpt lat="47.29961" lon="-2.24354">
        <ele>101.19999694824</ele>
        <time>2021-06-13T08:28:07.000Z</time>
      </trkpt>
      <trkpt lat="47.29974" lon="-2.2436">
        <ele>101.59999847412</ele>
        <time>2021-06-13T08:28:09.000Z</time>
      </trkpt>
      <trkpt lat="47.29979" lon="-2.24363">
        <ele>102</ele>
        <time>2021-06-13T08:28:10.000Z</time>
      </trkpt>
      <trkpt lat="47.29984" lon="-2.24363">
        <ele>102.40000152588</ele>
        <time>2021-06-13T08:28:11.000Z</time>
      </trkpt>
      <trkpt lat="47.29987" lon="-2.24362">
        <ele>102.80000305176</ele>
        <time>2021-06-13T08:28:12.000Z</time>
      </trkpt>
      <trkpt lat="47.2999" lon="-2.24359">
        <ele>103.19999694824</ele>
        <time>2021-06-13T08:28:13.000Z</time>
      </trkpt>
      <trkpt lat="47.29991" lon="-2.24354">
        <ele>103.19999694824</ele>
        <time>2021-06-13T08:28:14.000Z</time>
      </trkpt>
      <trkpt lat="47.29993" lon="-2.24349">
        <ele>103.19999694824</ele>
        <time>2021-06-13T08:28:15.000Z</time>
      </trkpt>
      <trkpt lat="47.30001" lon="-2.24326">
        <ele>103.19999694824</ele>
        <time>2021-06-13T08:28:20.000Z</time>
      </trkpt>
      <trkpt lat="47.3001" lon="-2.24303">
        <ele>103.19999694824</ele>
        <time>2021-06-13T08:28:25.000Z</time>
      </trkpt>
      <trkpt lat="47.30018" lon="-2.24283">
        <ele>103.19999694824</ele>
        <time>2021-06-13T08:28:30.000Z</time>
      </trkpt>
      <trkpt lat="47.30022" lon="-2.24264">
        <ele>103.19999694824</ele>
        <time>2021-06-13T08:28:35.000Z</time>
      </trkpt>
      <trkpt lat="47.30021" lon="-2.24258">
        <ele>103.19999694824</ele>
        <time>2021-06-13T08:28:36.000Z</time>
      </trkpt>
      <trkpt lat="47.3002" lon="-2.24236">
        <ele>103.19999694824</ele>
        <time>2021-06-13T08:28:39.000Z</time>
      </trkpt>
      <trkpt lat="47.3002" lon="-2.24228">
        <ele>102.80000305176</ele>
        <time>2021-06-13T08:28:40.000Z</time>
      </trkpt>
      <trkpt lat="47.30021" lon="-2.2422">
        <ele>102.40000152588</ele>
        <time>2021-06-13T08:28:41.000Z</time>
      </trkpt>
      <trkpt lat="47.30021" lon="-2.24211">
        <ele>101.80000305176</ele>
        <time>2021-06-13T08:28:42.000Z</time>
      </trkpt>
      <trkpt lat="47.30021" lon="-2.24203">
        <ele>101.40000152588</ele>
        <time>2021-06-13T08:28:43.000Z</time>
      </trkpt>
      <trkpt lat="47.3002" lon="-2.24194">
        <ele>101</ele>
        <time>2021-06-13T08:28:44.000Z</time>
      </trkpt>
      <trkpt lat="47.3002" lon="-2.24185">
        <ele>101</ele>
        <time>2021-06-13T08:28:45.000Z</time>
      </trkpt>
      <trkpt lat="47.30019" lon="-2.24177">
        <ele>100.59999847412</ele>
        <time>2021-06-13T08:28:46.000Z</time>
      </trkpt>
      <trkpt lat="47.30018" lon="-2.2417">
        <ele>100.19999694824</ele>
        <time>2021-06-13T08:28:47.000Z</time>
      </trkpt>
      <trkpt lat="47.30017" lon="-2.24163">
        <ele>99.800003051758</ele>
        <time>2021-06-13T08:28:48.000Z</time>
      </trkpt>
      <trkpt lat="47.30016" lon="-2.24158">
        <ele>99.199996948242</ele>
        <time>2021-06-13T08:28:49.000Z</time>
      </trkpt>
      <trkpt lat="47.30015" lon="-2.24154">
        <ele>98.599998474121</ele>
        <time>2021-06-13T08:28:50.000Z</time>
      </trkpt>
      <trkpt lat="47.30014" lon="-2.24151">
        <ele>98</ele>
        <time>2021-06-13T08:28:51.000Z</time>
      </trkpt>
      <trkpt lat="47.30013" lon="-2.24149">
        <ele>96.800003051758</ele>
        <time>2021-06-13T08:28:52.000Z</time>
      </trkpt>
      <trkpt lat="47.30013" lon="-2.24147">
        <ele>96.800003051758</ele>
        <time>2021-06-13T08:28:53.000Z</time>
      </trkpt>
      <trkpt lat="47.30018" lon="-2.24136">
        <ele>97.199996948242</ele>
        <time>2021-06-13T08:29:01.000Z</time>
      </trkpt>
      <trkpt lat="47.30018" lon="-2.24134">
        <ele>97.599998474121</ele>
        <time>2021-06-13T08:29:02.000Z</time>
      </trkpt>
      <trkpt lat="47.30019" lon="-2.24132">
        <ele>98</ele>
        <time>2021-06-13T08:29:03.000Z</time>
      </trkpt>
      <trkpt lat="47.3002" lon="-2.2413">
        <ele>98.400001525879</ele>
        <time>2021-06-13T08:29:04.000Z</time>
      </trkpt>
      <trkpt lat="47.30022" lon="-2.24128">
        <ele>98.800003051758</ele>
        <time>2021-06-13T08:29:05.000Z</time>
      </trkpt>
      <trkpt lat="47.3003" lon="-2.24121">
        <ele>98.800003051758</ele>
        <time>2021-06-13T08:29:08.000Z</time>
      </trkpt>
      <trkpt lat="47.30053" lon="-2.24106">
        <ele>98.800003051758</ele>
        <time>2021-06-13T08:29:14.000Z</time>
      </trkpt>
      <trkpt lat="47.30084" lon="-2.24085">
        <ele>98.800003051758</ele>
        <time>2021-06-13T08:29:22.000Z</time>
      </trkpt>
      <trkpt lat="47.30111" lon="-2.24077">
        <ele>98.800003051758</ele>
        <time>2021-06-13T08:29:24.000Z</time>
      </trkpt>
      <trkpt lat="47.30156" lon="-2.24064">
        <ele>98.800003051758</ele>
        <time>2021-06-13T08:29:26.000Z</time>
      </trkpt>
      <trkpt lat="47.30213" lon="-2.24057">
        <ele>98.800003051758</ele>
        <time>2021-06-13T08:29:31.000Z</time>
      </trkpt>
      <trkpt lat="47.3023" lon="-2.24057">
        <ele>98.800003051758</ele>
        <time>2021-06-13T08:29:33.000Z</time>
      </trkpt>
      <trkpt lat="47.30257" lon="-2.24057">
        <ele>98.800003051758</ele>
        <time>2021-06-13T08:29:37.000Z</time>
      </trkpt>
      <trkpt lat="47.30267" lon="-2.24052">
        <ele>98.800003051758</ele>
        <time>2021-06-13T08:29:39.000Z</time>
      </trkpt>
      <trkpt lat="47.30274" lon="-2.24031">
        <ele>98.400001525879</ele>
        <time>2021-06-13T08:29:42.000Z</time>
      </trkpt>
      <trkpt lat="47.30274" lon="-2.24023">
        <ele>98</ele>
        <time>2021-06-13T08:29:43.000Z</time>
      </trkpt>
      <trkpt lat="47.30274" lon="-2.24015">
        <ele>97.599998474121</ele>
        <time>2021-06-13T08:29:44.000Z</time>
      </trkpt>
      <trkpt lat="47.30273" lon="-2.24006">
        <ele>97.199996948242</ele>
        <time>2021-06-13T08:29:45.000Z</time>
      </trkpt>
      <trkpt lat="47.30272" lon="-2.23996">
        <ele>96.800003051758</ele>
        <time>2021-06-13T08:29:46.000Z</time>
      </trkpt>
      <trkpt lat="47.30271" lon="-2.23977">
        <ele>96.800003051758</ele>
        <time>2021-06-13T08:29:48.000Z</time>
      </trkpt>
      <trkpt lat="47.30262" lon="-2.23939">
        <ele>96.400001525879</ele>
        <time>2021-06-13T08:29:52.000Z</time>
      </trkpt>
      <trkpt lat="47.3026" lon="-2.23929">
        <ele>95.800003051758</ele>
        <time>2021-06-13T08:29:53.000Z</time>
      </trkpt>
      <trkpt lat="47.30258" lon="-2.2392">
        <ele>95.400001525879</ele>
        <time>2021-06-13T08:29:54.000Z</time>
      </trkpt>
      <trkpt lat="47.30257" lon="-2.23912">
        <ele>95</ele>
        <time>2021-06-13T08:29:55.000Z</time>
      </trkpt>
      <trkpt lat="47.30262" lon="-2.23904">
        <ele>94.400001525879</ele>
        <time>2021-06-13T08:29:56.000Z</time>
      </trkpt>
      <trkpt lat="47.30266" lon="-2.23897">
        <ele>94.400001525879</ele>
        <time>2021-06-13T08:29:57.000Z</time>
      </trkpt>
      <trkpt lat="47.30276" lon="-2.23888">
        <ele>94</ele>
        <time>2021-06-13T08:29:59.000Z</time>
      </trkpt>
      <trkpt lat="47.30281" lon="-2.23885">
        <ele>93.599998474121</ele>
        <time>2021-06-13T08:30:00.000Z</time>
      </trkpt>
      <trkpt lat="47.30287" lon="-2.23883">
        <ele>93.199996948242</ele>
        <time>2021-06-13T08:30:01.000Z</time>
      </trkpt>
      <trkpt lat="47.30292" lon="-2.23881">
        <ele>92.800003051758</ele>
        <time>2021-06-13T08:30:02.000Z</time>
      </trkpt>
      <trkpt lat="47.30298" lon="-2.23879">
        <ele>92.400001525879</ele>
        <time>2021-06-13T08:30:03.000Z</time>
      </trkpt>
      <trkpt lat="47.30316" lon="-2.23874">
        <ele>92.400001525879</ele>
        <time>2021-06-13T08:30:06.000Z</time>
      </trkpt>
      <trkpt lat="47.30348" lon="-2.23859">
        <ele>92.400001525879</ele>
        <time>2021-06-13T08:30:12.000Z</time>
      </trkpt>
      <trkpt lat="47.30353" lon="-2.23857">
        <ele>92.400001525879</ele>
        <time>2021-06-13T08:30:13.000Z</time>
      </trkpt>
      <trkpt lat="47.30377" lon="-2.23852">
        <ele>92.400001525879</ele>
        <time>2021-06-13T08:30:18.000Z</time>
      </trkpt>
      <trkpt lat="47.30386" lon="-2.23851">
        <ele>92.400001525879</ele>
        <time>2021-06-13T08:30:20.000Z</time>
      </trkpt>
      <trkpt lat="47.30405" lon="-2.23849">
        <ele>92.400001525879</ele>
        <time>2021-06-13T08:30:24.000Z</time>
      </trkpt>
      <trkpt lat="47.30417" lon="-2.23847">
        <ele>92.400001525879</ele>
        <time>2021-06-13T08:30:27.000Z</time>
      </trkpt>
      <trkpt lat="47.30431" lon="-2.23845">
        <ele>92</ele>
        <time>2021-06-13T08:30:31.000Z</time>
      </trkpt>
      <trkpt lat="47.30436" lon="-2.23844">
        <ele>91.599998474121</ele>
        <time>2021-06-13T08:30:32.000Z</time>
      </trkpt>
      <trkpt lat="47.30441" lon="-2.23843">
        <ele>91.199996948242</ele>
        <time>2021-06-13T08:30:33.000Z</time>
      </trkpt>
      <trkpt lat="47.30446" lon="-2.23843">
        <ele>90.800003051758</ele>
        <time>2021-06-13T08:30:34.000Z</time>
      </trkpt>
      <trkpt lat="47.30451" lon="-2.23842">
        <ele>90.400001525879</ele>
        <time>2021-06-13T08:30:35.000Z</time>
      </trkpt>
      <trkpt lat="47.30467" lon="-2.2384">
        <ele>90.400001525879</ele>
        <time>2021-06-13T08:30:38.000Z</time>
      </trkpt>
      <trkpt lat="47.30494" lon="-2.23841">
        <ele>90.400001525879</ele>
        <time>2021-06-13T08:30:43.000Z</time>
      </trkpt>
      <trkpt lat="47.30499" lon="-2.23843">
        <ele>90.400001525879</ele>
        <time>2021-06-13T08:30:44.000Z</time>
      </trkpt>
      <trkpt lat="47.30515" lon="-2.23869">
        <ele>90.400001525879</ele>
        <time>2021-06-13T08:30:48.000Z</time>
      </trkpt>
      <trkpt lat="47.30542" lon="-2.23909">
        <ele>90.400001525879</ele>
        <time>2021-06-13T08:30:55.000Z</time>
      </trkpt>
      <trkpt lat="47.30546" lon="-2.23912">
        <ele>90.400001525879</ele>
        <time>2021-06-13T08:30:56.000Z</time>
      </trkpt>
      <trkpt lat="47.3055" lon="-2.23916">
        <ele>90.400001525879</ele>
        <time>2021-06-13T08:30:57.000Z</time>
      </trkpt>
      <trkpt lat="47.30558" lon="-2.23932">
        <ele>90.400001525879</ele>
        <time>2021-06-13T08:31:00.000Z</time>
      </trkpt>
      <trkpt lat="47.30563" lon="-2.23946">
        <ele>90.400001525879</ele>
        <time>2021-06-13T08:31:04.000Z</time>
      </trkpt>
      <trkpt lat="47.30569" lon="-2.23966">
        <ele>90.800003051758</ele>
        <time>2021-06-13T08:31:11.000Z</time>
      </trkpt>
      <trkpt lat="47.30569" lon="-2.23969">
        <ele>91.199996948242</ele>
        <time>2021-06-13T08:31:12.000Z</time>
      </trkpt>
      <trkpt lat="47.30569" lon="-2.23973">
        <ele>91.599998474121</ele>
        <time>2021-06-13T08:31:13.000Z</time>
      </trkpt>
      <trkpt lat="47.30569" lon="-2.23977">
        <ele>92</ele>
        <time>2021-06-13T08:31:14.000Z</time>
      </trkpt>
      <trkpt lat="47.30566" lon="-2.23982">
        <ele>92.599998474121</ele>
        <time>2021-06-13T08:31:15.000Z</time>
      </trkpt>
      <trkpt lat="47.30555" lon="-2.23994">
        <ele>92.599998474121</ele>
        <time>2021-06-13T08:31:17.000Z</time>
      </trkpt>
      <trkpt lat="47.30553" lon="-2.23999">
        <ele>93</ele>
        <time>2021-06-13T08:31:18.000Z</time>
      </trkpt>
      <trkpt lat="47.30542" lon="-2.24006">
        <ele>93.400001525879</ele>
        <time>2021-06-13T08:31:19.000Z</time>
      </trkpt>
      <trkpt lat="47.30539" lon="-2.2401">
        <ele>93.800003051758</ele>
        <time>2021-06-13T08:31:20.000Z</time>
      </trkpt>
      <trkpt lat="47.30536" lon="-2.24013">
        <ele>94.800003051758</ele>
        <time>2021-06-13T08:31:21.000Z</time>
      </trkpt>
      <trkpt lat="47.30532" lon="-2.24017">
        <ele>95.199996948242</ele>
        <time>2021-06-13T08:31:22.000Z</time>
      </trkpt>
      <trkpt lat="47.30529" lon="-2.24019">
        <ele>95.599998474121</ele>
        <time>2021-06-13T08:31:23.000Z</time>
      </trkpt>
      <trkpt lat="47.30522" lon="-2.24022">
        <ele>96.199996948242</ele>
        <time>2021-06-13T08:31:24.000Z</time>
      </trkpt>
      <trkpt lat="47.30516" lon="-2.24024">
        <ele>96.599998474121</ele>
        <time>2021-06-13T08:31:25.000Z</time>
      </trkpt>
      <trkpt lat="47.30507" lon="-2.24027">
        <ele>97</ele>
        <time>2021-06-13T08:31:26.000Z</time>
      </trkpt>
      <trkpt lat="47.30501" lon="-2.2403">
        <ele>97</ele>
        <time>2021-06-13T08:31:27.000Z</time>
      </trkpt>
      <trkpt lat="47.30493" lon="-2.24035">
        <ele>97.400001525879</ele>
        <time>2021-06-13T08:31:28.000Z</time>
      </trkpt>
      <trkpt lat="47.30484" lon="-2.2404">
        <ele>97.800003051758</ele>
        <time>2021-06-13T08:31:29.000Z</time>
      </trkpt>
      <trkpt lat="47.30476" lon="-2.24045">
        <ele>98.400001525879</ele>
        <time>2021-06-13T08:31:30.000Z</time>
      </trkpt>
      <trkpt lat="47.3047" lon="-2.2405">
        <ele>98.800003051758</ele>
        <time>2021-06-13T08:31:31.000Z</time>
      </trkpt>
      <trkpt lat="47.30463" lon="-2.24055">
        <ele>99.199996948242</ele>
        <time>2021-06-13T08:31:32.000Z</time>
      </trkpt>
      <trkpt lat="47.30458" lon="-2.24059">
        <ele>99.199996948242</ele>
        <time>2021-06-13T08:31:33.000Z</time>
      </trkpt>
      <trkpt lat="47.30436" lon="-2.2408">
        <ele>99.599998474121</ele>
        <time>2021-06-13T08:31:38.000Z</time>
      </trkpt>
      <trkpt lat="47.30432" lon="-2.24083">
        <ele>100</ele>
        <time>2021-06-13T08:31:39.000Z</time>
      </trkpt>
      <trkpt lat="47.30429" lon="-2.24087">
        <ele>100.40000152588</ele>
        <time>2021-06-13T08:31:40.000Z</time>
      </trkpt>
      <trkpt lat="47.30426" lon="-2.24091">
        <ele>100.80000305176</ele>
        <time>2021-06-13T08:31:41.000Z</time>
      </trkpt>
      <trkpt lat="47.30423" lon="-2.24094">
        <ele>101.19999694824</ele>
        <time>2021-06-13T08:31:42.000Z</time>
      </trkpt>
      <trkpt lat="47.30414" lon="-2.24105">
        <ele>101.59999847412</ele>
        <time>2021-06-13T08:31:45.000Z</time>
      </trkpt>
      <trkpt lat="47.3041" lon="-2.24109">
        <ele>102</ele>
        <time>2021-06-13T08:31:46.000Z</time>
      </trkpt>
      <trkpt lat="47.30406" lon="-2.24113">
        <ele>102.40000152588</ele>
        <time>2021-06-13T08:31:47.000Z</time>
      </trkpt>
      <trkpt lat="47.30402" lon="-2.24117">
        <ele>102.80000305176</ele>
        <time>2021-06-13T08:31:48.000Z</time>
      </trkpt>
      <trkpt lat="47.30398" lon="-2.2412">
        <ele>103.19999694824</ele>
        <time>2021-06-13T08:31:49.000Z</time>
      </trkpt>
      <trkpt lat="47.30384" lon="-2.24132">
        <ele>103.19999694824</ele>
        <time>2021-06-13T08:31:52.000Z</time>
      </trkpt>
      <trkpt lat="47.30367" lon="-2.24154">
        <ele>103.19999694824</ele>
        <time>2021-06-13T08:31:56.000Z</time>
      </trkpt>
      <trkpt lat="47.30362" lon="-2.24161">
        <ele>103.19999694824</ele>
        <time>2021-06-13T08:31:57.000Z</time>
      </trkpt>
      <trkpt lat="47.30349" lon="-2.24195">
        <ele>103.19999694824</ele>
        <time>2021-06-13T08:32:01.000Z</time>
      </trkpt>
      <trkpt lat="47.30348" lon="-2.2421">
        <ele>103.19999694824</ele>
        <time>2021-06-13T08:32:03.000Z</time>
      </trkpt>
      <trkpt lat="47.30345" lon="-2.24224">
        <ele>103.19999694824</ele>
        <time>2021-06-13T08:32:05.000Z</time>
      </trkpt>
      <trkpt lat="47.30343" lon="-2.24244">
        <ele>103.19999694824</ele>
        <time>2021-06-13T08:32:08.000Z</time>
      </trkpt>
      <trkpt lat="47.30348" lon="-2.24255">
        <ele>103.19999694824</ele>
        <time>2021-06-13T08:32:10.000Z</time>
      </trkpt>
      <trkpt lat="47.30353" lon="-2.24266">
        <ele>103.19999694824</ele>
        <time>2021-06-13T08:32:12.000Z</time>
      </trkpt>
      <trkpt lat="47.30365" lon="-2.24286">
        <ele>103.19999694824</ele>
        <time>2021-06-13T08:32:16.000Z</time>
      </trkpt>
      <trkpt lat="47.30387" lon="-2.24292">
        <ele>103.19999694824</ele>
        <time>2021-06-13T08:32:19.000Z</time>
      </trkpt>
      <trkpt lat="47.30407" lon="-2.24292">
        <ele>103.19999694824</ele>
        <time>2021-06-13T08:32:21.000Z</time>
      </trkpt>
      <trkpt lat="47.30467" lon="-2.24293">
        <ele>103.19999694824</ele>
        <time>2021-06-13T08:32:27.000Z</time>
      </trkpt>
      <trkpt lat="47.30498" lon="-2.24308">
        <ele>103.19999694824</ele>
        <time>2021-06-13T08:32:32.000Z</time>
      </trkpt>
      <trkpt lat="47.30504" lon="-2.24313">
        <ele>103.19999694824</ele>
        <time>2021-06-13T08:32:33.000Z</time>
      </trkpt>
      <trkpt lat="47.30534" lon="-2.24342">
        <ele>103.19999694824</ele>
        <time>2021-06-13T08:32:39.000Z</time>
      </trkpt>
      <trkpt lat="47.30539" lon="-2.24346">
        <ele>103.19999694824</ele>
        <time>2021-06-13T08:32:40.000Z</time>
      </trkpt>
      <trkpt lat="47.30559" lon="-2.24366">
        <ele>103.19999694824</ele>
        <time>2021-06-13T08:32:44.000Z</time>
      </trkpt>
      <trkpt lat="47.30586" lon="-2.24395">
        <ele>103.19999694824</ele>
        <time>2021-06-13T08:32:49.000Z</time>
      </trkpt>
      <trkpt lat="47.30611" lon="-2.2442">
        <ele>103.19999694824</ele>
        <time>2021-06-13T08:32:54.000Z</time>
      </trkpt>
      <trkpt lat="47.30624" lon="-2.24427">
        <ele>102.80000305176</ele>
        <time>2021-06-13T08:32:57.000Z</time>
      </trkpt>
      <trkpt lat="47.30628" lon="-2.24429">
        <ele>102.40000152588</ele>
        <time>2021-06-13T08:32:58.000Z</time>
      </trkpt>
      <trkpt lat="47.3063" lon="-2.2443">
        <ele>101.59999847412</ele>
        <time>2021-06-13T08:32:59.000Z</time>
      </trkpt>
      <trkpt lat="47.30632" lon="-2.24433">
        <ele>101.19999694824</ele>
        <time>2021-06-13T08:33:00.000Z</time>
      </trkpt>
      <trkpt lat="47.30634" lon="-2.24436">
        <ele>100.59999847412</ele>
        <time>2021-06-13T08:33:01.000Z</time>
      </trkpt>
      <trkpt lat="47.30635" lon="-2.24441">
        <ele>100</ele>
        <time>2021-06-13T08:33:02.000Z</time>
      </trkpt>
      <trkpt lat="47.30636" lon="-2.24448">
        <ele>99.599998474121</ele>
        <time>2021-06-13T08:33:03.000Z</time>
      </trkpt>
      <trkpt lat="47.30636" lon="-2.24456">
        <ele>99</ele>
        <time>2021-06-13T08:33:04.000Z</time>
      </trkpt>
      <trkpt lat="47.30636" lon="-2.24465">
        <ele>99</ele>
        <time>2021-06-13T08:33:05.000Z</time>
      </trkpt>
      <trkpt lat="47.30635" lon="-2.24475">
        <ele>99</ele>
        <time>2021-06-13T08:33:06.000Z</time>
      </trkpt>
      <trkpt lat="47.30628" lon="-2.24534">
        <ele>99</ele>
        <time>2021-06-13T08:33:11.000Z</time>
      </trkpt>
      <trkpt lat="47.30626" lon="-2.24548">
        <ele>98.599998474121</ele>
        <time>2021-06-13T08:33:12.000Z</time>
      </trkpt>
      <trkpt lat="47.30624" lon="-2.24562">
        <ele>98</ele>
        <time>2021-06-13T08:33:13.000Z</time>
      </trkpt>
      <trkpt lat="47.30623" lon="-2.24575">
        <ele>97.599998474121</ele>
        <time>2021-06-13T08:33:14.000Z</time>
      </trkpt>
      <trkpt lat="47.30621" lon="-2.2459">
        <ele>97.199996948242</ele>
        <time>2021-06-13T08:33:15.000Z</time>
      </trkpt>
      <trkpt lat="47.3062" lon="-2.24604">
        <ele>96.599998474121</ele>
        <time>2021-06-13T08:33:16.000Z</time>
      </trkpt>
      <trkpt lat="47.30619" lon="-2.24618">
        <ele>96.199996948242</ele>
        <time>2021-06-13T08:33:17.000Z</time>
      </trkpt>
      <trkpt lat="47.30619" lon="-2.24631">
        <ele>95.800003051758</ele>
        <time>2021-06-13T08:33:18.000Z</time>
      </trkpt>
      <trkpt lat="47.30622" lon="-2.24643">
        <ele>95.400001525879</ele>
        <time>2021-06-13T08:33:19.000Z</time>
      </trkpt>
      <trkpt lat="47.30626" lon="-2.24655">
        <ele>95</ele>
        <time>2021-06-13T08:33:20.000Z</time>
      </trkpt>
      <trkpt lat="47.30629" lon="-2.24666">
        <ele>94.599998474121</ele>
        <time>2021-06-13T08:33:21.000Z</time>
      </trkpt>
      <trkpt lat="47.30639" lon="-2.24699">
        <ele>94</ele>
        <time>2021-06-13T08:33:24.000Z</time>
      </trkpt>
      <trkpt lat="47.30641" lon="-2.24709">
        <ele>93.599998474121</ele>
        <time>2021-06-13T08:33:25.000Z</time>
      </trkpt>
      <trkpt lat="47.30644" lon="-2.24719">
        <ele>93.199996948242</ele>
        <time>2021-06-13T08:33:26.000Z</time>
      </trkpt>
      <trkpt lat="47.30647" lon="-2.24729">
        <ele>92.800003051758</ele>
        <time>2021-06-13T08:33:27.000Z</time>
      </trkpt>
      <trkpt lat="47.30649" lon="-2.24738">
        <ele>92.199996948242</ele>
        <time>2021-06-13T08:33:28.000Z</time>
      </trkpt>
      <trkpt lat="47.3065" lon="-2.24756">
        <ele>92.199996948242</ele>
        <time>2021-06-13T08:33:30.000Z</time>
      </trkpt>
      <trkpt lat="47.3065" lon="-2.24775">
        <ele>92.199996948242</ele>
        <time>2021-06-13T08:33:33.000Z</time>
      </trkpt>
      <trkpt lat="47.30648" lon="-2.2478">
        <ele>92.199996948242</ele>
        <time>2021-06-13T08:33:34.000Z</time>
      </trkpt>
      <trkpt lat="47.30641" lon="-2.24793">
        <ele>92.199996948242</ele>
        <time>2021-06-13T08:33:37.000Z</time>
      </trkpt>
      <trkpt lat="47.30635" lon="-2.24802">
        <ele>92.199996948242</ele>
        <time>2021-06-13T08:33:39.000Z</time>
      </trkpt>
      <trkpt lat="47.3061" lon="-2.24837">
        <ele>92.199996948242</ele>
        <time>2021-06-13T08:33:47.000Z</time>
      </trkpt>
      <trkpt lat="47.30596" lon="-2.24862">
        <ele>92.199996948242</ele>
        <time>2021-06-13T08:33:53.000Z</time>
      </trkpt>
      <trkpt lat="47.30591" lon="-2.24873">
        <ele>92.199996948242</ele>
        <time>2021-06-13T08:33:58.000Z</time>
      </trkpt>
      <trkpt lat="47.30587" lon="-2.24897">
        <ele>92.199996948242</ele>
        <time>2021-06-13T08:34:04.000Z</time>
      </trkpt>
      <trkpt lat="47.30579" lon="-2.24939">
        <ele>92.199996948242</ele>
        <time>2021-06-13T08:34:10.000Z</time>
      </trkpt>
      <trkpt lat="47.30578" lon="-2.24991">
        <ele>92.199996948242</ele>
        <time>2021-06-13T08:34:17.000Z</time>
      </trkpt>
      <trkpt lat="47.30579" lon="-2.25013">
        <ele>92.199996948242</ele>
        <time>2021-06-13T08:34:20.000Z</time>
      </trkpt>
      <trkpt lat="47.30581" lon="-2.2504">
        <ele>92.199996948242</ele>
        <time>2021-06-13T08:34:24.000Z</time>
      </trkpt>
      <trkpt lat="47.30586" lon="-2.25087">
        <ele>92.199996948242</ele>
        <time>2021-06-13T08:34:31.000Z</time>
      </trkpt>
      <trkpt lat="47.30596" lon="-2.2513">
        <ele>92.199996948242</ele>
        <time>2021-06-13T08:34:38.000Z</time>
      </trkpt>
      <trkpt lat="47.30614" lon="-2.2517">
        <ele>92.199996948242</ele>
        <time>2021-06-13T08:34:45.000Z</time>
      </trkpt>
      <trkpt lat="47.30632" lon="-2.25213">
        <ele>92.199996948242</ele>
        <time>2021-06-13T08:34:53.000Z</time>
      </trkpt>
      <trkpt lat="47.30642" lon="-2.25242">
        <ele>92.199996948242</ele>
        <time>2021-06-13T08:34:59.000Z</time>
      </trkpt>
      <trkpt lat="47.30649" lon="-2.25273">
        <ele>92.199996948242</ele>
        <time>2021-06-13T08:35:06.000Z</time>
      </trkpt>
      <trkpt lat="47.30655" lon="-2.25291">
        <ele>92.199996948242</ele>
        <time>2021-06-13T08:35:12.000Z</time>
      </trkpt>
      <trkpt lat="47.3066" lon="-2.25325">
        <ele>92.199996948242</ele>
        <time>2021-06-13T08:35:21.000Z</time>
      </trkpt>
      <trkpt lat="47.30665" lon="-2.2535">
        <ele>92.199996948242</ele>
        <time>2021-06-13T08:35:29.000Z</time>
      </trkpt>
      <trkpt lat="47.30667" lon="-2.2537">
        <ele>92.199996948242</ele>
        <time>2021-06-13T08:35:36.000Z</time>
      </trkpt>
      <trkpt lat="47.30669" lon="-2.25401">
        <ele>92.199996948242</ele>
        <time>2021-06-13T08:35:44.000Z</time>
      </trkpt>
      <trkpt lat="47.30673" lon="-2.25417">
        <ele>92.199996948242</ele>
        <time>2021-06-13T08:35:47.000Z</time>
      </trkpt>
      <trkpt lat="47.30679" lon="-2.25425">
        <ele>92.199996948242</ele>
        <time>2021-06-13T08:35:49.000Z</time>
      </trkpt>
      <trkpt lat="47.30684" lon="-2.25426">
        <ele>92.199996948242</ele>
        <time>2021-06-13T08:35:50.000Z</time>
      </trkpt>
      <trkpt lat="47.30695" lon="-2.25427">
        <ele>92.199996948242</ele>
        <time>2021-06-13T08:35:52.000Z</time>
      </trkpt>
      <trkpt lat="47.30741" lon="-2.25427">
        <ele>92.199996948242</ele>
        <time>2021-06-13T08:36:00.000Z</time>
      </trkpt>
      <trkpt lat="47.30778" lon="-2.25421">
        <ele>92.199996948242</ele>
        <time>2021-06-13T08:36:07.000Z</time>
      </trkpt>
      <trkpt lat="47.30798" lon="-2.25418">
        <ele>92.199996948242</ele>
        <time>2021-06-13T08:36:12.000Z</time>
      </trkpt>
      <trkpt lat="47.30809" lon="-2.25418">
        <ele>92.800003051758</ele>
        <time>2021-06-13T08:36:15.000Z</time>
      </trkpt>
      <trkpt lat="47.30813" lon="-2.25417">
        <ele>93.199996948242</ele>
        <time>2021-06-13T08:36:16.000Z</time>
      </trkpt>
      <trkpt lat="47.30817" lon="-2.25417">
        <ele>94</ele>
        <time>2021-06-13T08:36:17.000Z</time>
      </trkpt>
      <trkpt lat="47.3082" lon="-2.25417">
        <ele>94.599998474121</ele>
        <time>2021-06-13T08:36:18.000Z</time>
      </trkpt>
      <trkpt lat="47.30846" lon="-2.25408">
        <ele>95</ele>
        <time>2021-06-13T08:36:25.000Z</time>
      </trkpt>
      <trkpt lat="47.3085" lon="-2.25406">
        <ele>95.400001525879</ele>
        <time>2021-06-13T08:36:26.000Z</time>
      </trkpt>
      <trkpt lat="47.30854" lon="-2.25404">
        <ele>95.800003051758</ele>
        <time>2021-06-13T08:36:27.000Z</time>
      </trkpt>
      <trkpt lat="47.30858" lon="-2.25403">
        <ele>96.199996948242</ele>
        <time>2021-06-13T08:36:28.000Z</time>
      </trkpt>
      <trkpt lat="47.30862" lon="-2.25402">
        <ele>96.800003051758</ele>
        <time>2021-06-13T08:36:29.000Z</time>
      </trkpt>
      <trkpt lat="47.30871" lon="-2.254">
        <ele>96.800003051758</ele>
        <time>2021-06-13T08:36:31.000Z</time>
      </trkpt>
      <trkpt lat="47.30902" lon="-2.25397">
        <ele>96.800003051758</ele>
        <time>2021-06-13T08:36:38.000Z</time>
      </trkpt>
      <trkpt lat="47.30919" lon="-2.25397">
        <ele>96.800003051758</ele>
        <time>2021-06-13T08:36:42.000Z</time>
      </trkpt>
      <trkpt lat="47.30928" lon="-2.25398">
        <ele>96.800003051758</ele>
        <time>2021-06-13T08:36:44.000Z</time>
      </trkpt>
      <trkpt lat="47.30936" lon="-2.25397">
        <ele>96.800003051758</ele>
        <time>2021-06-13T08:36:46.000Z</time>
      </trkpt>
      <trkpt lat="47.30942" lon="-2.25388">
        <ele>96.800003051758</ele>
        <time>2021-06-13T08:36:48.000Z</time>
      </trkpt>
      <trkpt lat="47.30953" lon="-2.25352">
        <ele>96.800003051758</ele>
        <time>2021-06-13T08:36:54.000Z</time>
      </trkpt>
      <trkpt lat="47.30961" lon="-2.25305">
        <ele>96.800003051758</ele>
        <time>2021-06-13T08:37:00.000Z</time>
      </trkpt>
      <trkpt lat="47.30965" lon="-2.25291">
        <ele>96.800003051758</ele>
        <time>2021-06-13T08:37:02.000Z</time>
      </trkpt>
      <trkpt lat="47.30971" lon="-2.25281">
        <ele>96.800003051758</ele>
        <time>2021-06-13T08:37:04.000Z</time>
      </trkpt>
      <trkpt lat="47.30981" lon="-2.25261">
        <ele>96.800003051758</ele>
        <time>2021-06-13T08:37:07.000Z</time>
      </trkpt>
      <trkpt lat="47.30988" lon="-2.25249">
        <ele>96.800003051758</ele>
        <time>2021-06-13T08:37:09.000Z</time>
      </trkpt>
      <trkpt lat="47.30989" lon="-2.25245">
        <ele>96.199996948242</ele>
        <time>2021-06-13T08:37:10.000Z</time>
      </trkpt>
      <trkpt lat="47.30991" lon="-2.25241">
        <ele>95.800003051758</ele>
        <time>2021-06-13T08:37:11.000Z</time>
      </trkpt>
      <trkpt lat="47.30993" lon="-2.25236">
        <ele>95.199996948242</ele>
        <time>2021-06-13T08:37:12.000Z</time>
      </trkpt>
      <trkpt lat="47.30995" lon="-2.2523">
        <ele>94.800003051758</ele>
        <time>2021-06-13T08:37:13.000Z</time>
      </trkpt>
      <trkpt lat="47.30997" lon="-2.25223">
        <ele>94.199996948242</ele>
        <time>2021-06-13T08:37:14.000Z</time>
      </trkpt>
      <trkpt lat="47.30999" lon="-2.25207">
        <ele>94.199996948242</ele>
        <time>2021-06-13T08:37:16.000Z</time>
      </trkpt>
      <trkpt lat="47.31005" lon="-2.25172">
        <ele>94.199996948242</ele>
        <time>2021-06-13T08:37:20.000Z</time>
      </trkpt>
      <trkpt lat="47.31007" lon="-2.25165">
        <ele>94.199996948242</ele>
        <time>2021-06-13T08:37:21.000Z</time>
      </trkpt>
      <trkpt lat="47.31017" lon="-2.25143">
        <ele>94.199996948242</ele>
        <time>2021-06-13T08:37:24.000Z</time>
      </trkpt>
      <trkpt lat="47.31023" lon="-2.25135">
        <ele>94.199996948242</ele>
        <time>2021-06-13T08:37:25.000Z</time>
      </trkpt>
      <trkpt lat="47.31054" lon="-2.25081">
        <ele>94.199996948242</ele>
        <time>2021-06-13T08:37:31.000Z</time>
      </trkpt>
      <trkpt lat="47.31082" lon="-2.25058">
        <ele>94.199996948242</ele>
        <time>2021-06-13T08:37:35.000Z</time>
      </trkpt>
      <trkpt lat="47.31089" lon="-2.25055">
        <ele>94.199996948242</ele>
        <time>2021-06-13T08:37:36.000Z</time>
      </trkpt>
      <trkpt lat="47.31124" lon="-2.25038">
        <ele>94.199996948242</ele>
        <time>2021-06-13T08:37:41.000Z</time>
      </trkpt>
      <trkpt lat="47.31131" lon="-2.25033">
        <ele>94.199996948242</ele>
        <time>2021-06-13T08:37:42.000Z</time>
      </trkpt>
      <trkpt lat="47.31157" lon="-2.25009">
        <ele>94.199996948242</ele>
        <time>2021-06-13T08:37:46.000Z</time>
      </trkpt>
      <trkpt lat="47.31168" lon="-2.24997">
        <ele>94.199996948242</ele>
        <time>2021-06-13T08:37:48.000Z</time>
      </trkpt>
      <trkpt lat="47.31173" lon="-2.24991">
        <ele>93.800003051758</ele>
        <time>2021-06-13T08:37:49.000Z</time>
      </trkpt>
      <trkpt lat="47.31178" lon="-2.24988">
        <ele>93.400001525879</ele>
        <time>2021-06-13T08:37:50.000Z</time>
      </trkpt>
      <trkpt lat="47.31183" lon="-2.24987">
        <ele>93</ele>
        <time>2021-06-13T08:37:51.000Z</time>
      </trkpt>
      <trkpt lat="47.31189" lon="-2.24988">
        <ele>92.599998474121</ele>
        <time>2021-06-13T08:37:52.000Z</time>
      </trkpt>
      <trkpt lat="47.31194" lon="-2.24991">
        <ele>92.199996948242</ele>
        <time>2021-06-13T08:37:53.000Z</time>
      </trkpt>
      <trkpt lat="47.31205" lon="-2.25013">
        <ele>92.199996948242</ele>
        <time>2021-06-13T08:37:56.000Z</time>
      </trkpt>
      <trkpt lat="47.31223" lon="-2.2507">
        <ele>92.199996948242</ele>
        <time>2021-06-13T08:38:02.000Z</time>
      </trkpt>
      <trkpt lat="47.31243" lon="-2.25121">
        <ele>92.199996948242</ele>
        <time>2021-06-13T08:38:08.000Z</time>
      </trkpt>
      <trkpt lat="47.31272" lon="-2.25178">
        <ele>92.199996948242</ele>
        <time>2021-06-13T08:38:15.000Z</time>
      </trkpt>
      <trkpt lat="47.31294" lon="-2.2522">
        <ele>92.199996948242</ele>
        <time>2021-06-13T08:38:21.000Z</time>
      </trkpt>
      <trkpt lat="47.31324" lon="-2.25261">
        <ele>92.199996948242</ele>
        <time>2021-06-13T08:38:28.000Z</time>
      </trkpt>
      <trkpt lat="47.31328" lon="-2.25268">
        <ele>92.199996948242</ele>
        <time>2021-06-13T08:38:29.000Z</time>
      </trkpt>
      <trkpt lat="47.31338" lon="-2.25293">
        <ele>92.199996948242</ele>
        <time>2021-06-13T08:38:32.000Z</time>
      </trkpt>
      <trkpt lat="47.31343" lon="-2.25312">
        <ele>92.199996948242</ele>
        <time>2021-06-13T08:38:34.000Z</time>
      </trkpt>
      <trkpt lat="47.31347" lon="-2.25331">
        <ele>92.199996948242</ele>
        <time>2021-06-13T08:38:36.000Z</time>
      </trkpt>
      <trkpt lat="47.31355" lon="-2.25377">
        <ele>92.199996948242</ele>
        <time>2021-06-13T08:38:41.000Z</time>
      </trkpt>
      <trkpt lat="47.31362" lon="-2.25394">
        <ele>92.199996948242</ele>
        <time>2021-06-13T08:38:43.000Z</time>
      </trkpt>
      <trkpt lat="47.31379" lon="-2.25418">
        <ele>92.199996948242</ele>
        <time>2021-06-13T08:38:47.000Z</time>
      </trkpt>
      <trkpt lat="47.31403" lon="-2.25453">
        <ele>92.199996948242</ele>
        <time>2021-06-13T08:38:52.000Z</time>
      </trkpt>
      <trkpt lat="47.31427" lon="-2.25506">
        <ele>92.199996948242</ele>
        <time>2021-06-13T08:38:58.000Z</time>
      </trkpt>
      <trkpt lat="47.31446" lon="-2.2554">
        <ele>92.199996948242</ele>
        <time>2021-06-13T08:39:02.000Z</time>
      </trkpt>
      <trkpt lat="47.31452" lon="-2.25546">
        <ele>92.199996948242</ele>
        <time>2021-06-13T08:39:03.000Z</time>
      </trkpt>
      <trkpt lat="47.31462" lon="-2.25558">
        <ele>92.199996948242</ele>
        <time>2021-06-13T08:39:05.000Z</time>
      </trkpt>
      <trkpt lat="47.31478" lon="-2.25572">
        <ele>92.199996948242</ele>
        <time>2021-06-13T08:39:08.000Z</time>
      </trkpt>
      <trkpt lat="47.31494" lon="-2.25588">
        <ele>92.199996948242</ele>
        <time>2021-06-13T08:39:11.000Z</time>
      </trkpt>
      <trkpt lat="47.31503" lon="-2.25603">
        <ele>92.199996948242</ele>
        <time>2021-06-13T08:39:13.000Z</time>
      </trkpt>
      <trkpt lat="47.31512" lon="-2.25626">
        <ele>92.199996948242</ele>
        <time>2021-06-13T08:39:16.000Z</time>
      </trkpt>
      <trkpt lat="47.31517" lon="-2.25641">
        <ele>92.199996948242</ele>
        <time>2021-06-13T08:39:18.000Z</time>
      </trkpt>
      <trkpt lat="47.31526" lon="-2.25681">
        <ele>92.199996948242</ele>
        <time>2021-06-13T08:39:23.000Z</time>
      </trkpt>
      <trkpt lat="47.31529" lon="-2.25689">
        <ele>92.199996948242</ele>
        <time>2021-06-13T08:39:24.000Z</time>
      </trkpt>
      <trkpt lat="47.31541" lon="-2.2573">
        <ele>92.199996948242</ele>
        <time>2021-06-13T08:39:29.000Z</time>
      </trkpt>
      <trkpt lat="47.31551" lon="-2.25785">
        <ele>92.199996948242</ele>
        <time>2021-06-13T08:39:35.000Z</time>
      </trkpt>
      <trkpt lat="47.31557" lon="-2.25857">
        <ele>92.199996948242</ele>
        <time>2021-06-13T08:39:42.000Z</time>
      </trkpt>
      <trkpt lat="47.31555" lon="-2.25882">
        <ele>91.800003051758</ele>
        <time>2021-06-13T08:39:45.000Z</time>
      </trkpt>
      <trkpt lat="47.31552" lon="-2.25888">
        <ele>91.400001525879</ele>
        <time>2021-06-13T08:39:46.000Z</time>
      </trkpt>
      <trkpt lat="47.3155" lon="-2.25894">
        <ele>91</ele>
        <time>2021-06-13T08:39:47.000Z</time>
      </trkpt>
      <trkpt lat="47.31546" lon="-2.25901">
        <ele>90.599998474121</ele>
        <time>2021-06-13T08:39:48.000Z</time>
      </trkpt>
      <trkpt lat="47.31542" lon="-2.25909">
        <ele>90.199996948242</ele>
        <time>2021-06-13T08:39:49.000Z</time>
      </trkpt>
      <trkpt lat="47.31538" lon="-2.25917">
        <ele>90.199996948242</ele>
        <time>2021-06-13T08:39:50.000Z</time>
      </trkpt>
      <trkpt lat="47.31516" lon="-2.2596">
        <ele>90.199996948242</ele>
        <time>2021-06-13T08:39:56.000Z</time>
      </trkpt>
      <trkpt lat="47.31487" lon="-2.26008">
        <ele>90.199996948242</ele>
        <time>2021-06-13T08:40:03.000Z</time>
      </trkpt>
      <trkpt lat="47.31453" lon="-2.26064">
        <ele>90.199996948242</ele>
        <time>2021-06-13T08:40:11.000Z</time>
      </trkpt>
      <trkpt lat="47.3143" lon="-2.26111">
        <ele>90.199996948242</ele>
        <time>2021-06-13T08:40:17.000Z</time>
      </trkpt>
      <trkpt lat="47.31425" lon="-2.26118">
        <ele>90.199996948242</ele>
        <time>2021-06-13T08:40:18.000Z</time>
      </trkpt>
      <trkpt lat="47.31401" lon="-2.26143">
        <ele>90.199996948242</ele>
        <time>2021-06-13T08:40:22.000Z</time>
      </trkpt>
      <trkpt lat="47.31371" lon="-2.26156">
        <ele>90.199996948242</ele>
        <time>2021-06-13T08:40:26.000Z</time>
      </trkpt>
      <trkpt lat="47.31345" lon="-2.26152">
        <ele>90.199996948242</ele>
        <time>2021-06-13T08:40:30.000Z</time>
      </trkpt>
      <trkpt lat="47.31338" lon="-2.2615">
        <ele>90.199996948242</ele>
        <time>2021-06-13T08:40:31.000Z</time>
      </trkpt>
      <trkpt lat="47.31294" lon="-2.26129">
        <ele>90.199996948242</ele>
        <time>2021-06-13T08:40:38.000Z</time>
      </trkpt>
      <trkpt lat="47.3125" lon="-2.26106">
        <ele>90.199996948242</ele>
        <time>2021-06-13T08:40:45.000Z</time>
      </trkpt>
      <trkpt lat="47.31227" lon="-2.2609">
        <ele>91</ele>
        <time>2021-06-13T08:40:49.000Z</time>
      </trkpt>
      <trkpt lat="47.31222" lon="-2.26086">
        <ele>91.599998474121</ele>
        <time>2021-06-13T08:40:50.000Z</time>
      </trkpt>
      <trkpt lat="47.31217" lon="-2.26083">
        <ele>92</ele>
        <time>2021-06-13T08:40:51.000Z</time>
      </trkpt>
      <trkpt lat="47.31212" lon="-2.2608">
        <ele>92.400001525879</ele>
        <time>2021-06-13T08:40:52.000Z</time>
      </trkpt>
      <trkpt lat="47.31198" lon="-2.26071">
        <ele>92.400001525879</ele>
        <time>2021-06-13T08:40:55.000Z</time>
      </trkpt>
      <trkpt lat="47.31183" lon="-2.2606">
        <ele>92.400001525879</ele>
        <time>2021-06-13T08:40:58.000Z</time>
      </trkpt>
      <trkpt lat="47.31174" lon="-2.26055">
        <ele>92.400001525879</ele>
        <time>2021-06-13T08:41:00.000Z</time>
      </trkpt>
      <trkpt lat="47.31171" lon="-2.26058">
        <ele>92.400001525879</ele>
        <time>2021-06-13T08:41:01.000Z</time>
      </trkpt>
      <trkpt lat="47.31166" lon="-2.26077">
        <ele>92.400001525879</ele>
        <time>2021-06-13T08:41:05.000Z</time>
      </trkpt>
      <trkpt lat="47.31161" lon="-2.26105">
        <ele>92.400001525879</ele>
        <time>2021-06-13T08:41:10.000Z</time>
      </trkpt>
      <trkpt lat="47.31158" lon="-2.2611">
        <ele>92</ele>
        <time>2021-06-13T08:41:12.000Z</time>
      </trkpt>
      <trkpt lat="47.31157" lon="-2.26112">
        <ele>91.599998474121</ele>
        <time>2021-06-13T08:41:13.000Z</time>
      </trkpt>
      <trkpt lat="47.31156" lon="-2.26114">
        <ele>90.800003051758</ele>
        <time>2021-06-13T08:41:14.000Z</time>
      </trkpt>
      <trkpt lat="47.31155" lon="-2.26115">
        <ele>90.400001525879</ele>
        <time>2021-06-13T08:41:15.000Z</time>
      </trkpt>
      <trkpt lat="47.31152" lon="-2.2612">
        <ele>90.400001525879</ele>
        <time>2021-06-13T08:41:22.000Z</time>
      </trkpt>
      <trkpt lat="47.31154" lon="-2.2611">
        <ele>90.400001525879</ele>
        <time>2021-06-13T08:41:28.000Z</time>
      </trkpt>
      <trkpt lat="47.31161" lon="-2.26089">
        <ele>90.400001525879</ele>
        <time>2021-06-13T08:41:35.000Z</time>
      </trkpt>
      <trkpt lat="47.31161" lon="-2.26059">
        <ele>90.400001525879</ele>
        <time>2021-06-13T08:41:40.000Z</time>
      </trkpt>
      <trkpt lat="47.31159" lon="-2.26052">
        <ele>90.400001525879</ele>
        <time>2021-06-13T08:41:41.000Z</time>
      </trkpt>
      <trkpt lat="47.31151" lon="-2.26043">
        <ele>90.400001525879</ele>
        <time>2021-06-13T08:41:43.000Z</time>
      </trkpt>
      <trkpt lat="47.31142" lon="-2.26036">
        <ele>90.400001525879</ele>
        <time>2021-06-13T08:41:45.000Z</time>
      </trkpt>
      <trkpt lat="47.31137" lon="-2.26033">
        <ele>90.800003051758</ele>
        <time>2021-06-13T08:41:46.000Z</time>
      </trkpt>
      <trkpt lat="47.31132" lon="-2.2603">
        <ele>91.199996948242</ele>
        <time>2021-06-13T08:41:47.000Z</time>
      </trkpt>
      <trkpt lat="47.31128" lon="-2.26027">
        <ele>91.599998474121</ele>
        <time>2021-06-13T08:41:48.000Z</time>
      </trkpt>
      <trkpt lat="47.31123" lon="-2.26023">
        <ele>92</ele>
        <time>2021-06-13T08:41:49.000Z</time>
      </trkpt>
      <trkpt lat="47.31119" lon="-2.2602">
        <ele>92.400001525879</ele>
        <time>2021-06-13T08:41:50.000Z</time>
      </trkpt>
      <trkpt lat="47.31093" lon="-2.26005">
        <ele>92.400001525879</ele>
        <time>2021-06-13T08:41:56.000Z</time>
      </trkpt>
      <trkpt lat="47.31088" lon="-2.26004">
        <ele>92.400001525879</ele>
        <time>2021-06-13T08:41:57.000Z</time>
      </trkpt>
      <trkpt lat="47.3107" lon="-2.26011">
        <ele>92.400001525879</ele>
        <time>2021-06-13T08:42:01.000Z</time>
      </trkpt>
      <trkpt lat="47.31066" lon="-2.26016">
        <ele>92.800003051758</ele>
        <time>2021-06-13T08:42:02.000Z</time>
      </trkpt>
      <trkpt lat="47.31062" lon="-2.26021">
        <ele>93.199996948242</ele>
        <time>2021-06-13T08:42:03.000Z</time>
      </trkpt>
      <trkpt lat="47.31058" lon="-2.26026">
        <ele>94</ele>
        <time>2021-06-13T08:42:04.000Z</time>
      </trkpt>
      <trkpt lat="47.31055" lon="-2.26033">
        <ele>94.599998474121</ele>
        <time>2021-06-13T08:42:05.000Z</time>
      </trkpt>
      <trkpt lat="47.31052" lon="-2.26039">
        <ele>94.599998474121</ele>
        <time>2021-06-13T08:42:06.000Z</time>
      </trkpt>
      <trkpt lat="47.31043" lon="-2.26076">
        <ele>94.599998474121</ele>
        <time>2021-06-13T08:42:11.000Z</time>
      </trkpt>
      <trkpt lat="47.31037" lon="-2.26133">
        <ele>94.599998474121</ele>
        <time>2021-06-13T08:42:17.000Z</time>
      </trkpt>
      <trkpt lat="47.31027" lon="-2.26212">
        <ele>94.599998474121</ele>
        <time>2021-06-13T08:42:25.000Z</time>
      </trkpt>
      <trkpt lat="47.31024" lon="-2.26234">
        <ele>94.599998474121</ele>
        <time>2021-06-13T08:42:27.000Z</time>
      </trkpt>
      <trkpt lat="47.31011" lon="-2.26311">
        <ele>94.599998474121</ele>
        <time>2021-06-13T08:42:34.000Z</time>
      </trkpt>
      <trkpt lat="47.31009" lon="-2.26323">
        <ele>94.599998474121</ele>
        <time>2021-06-13T08:42:35.000Z</time>
      </trkpt>
      <trkpt lat="47.30994" lon="-2.26407">
        <ele>94.599998474121</ele>
        <time>2021-06-13T08:42:42.000Z</time>
      </trkpt>
      <trkpt lat="47.30991" lon="-2.26431">
        <ele>94.599998474121</ele>
        <time>2021-06-13T08:42:44.000Z</time>
      </trkpt>
      <trkpt lat="47.30976" lon="-2.26517">
        <ele>94.599998474121</ele>
        <time>2021-06-13T08:42:52.000Z</time>
      </trkpt>
      <trkpt lat="47.30973" lon="-2.26541">
        <ele>94.599998474121</ele>
        <time>2021-06-13T08:42:54.000Z</time>
      </trkpt>
      <trkpt lat="47.30971" lon="-2.26553">
        <ele>94</ele>
        <time>2021-06-13T08:42:55.000Z</time>
      </trkpt>
      <trkpt lat="47.30969" lon="-2.26564">
        <ele>93.599998474121</ele>
        <time>2021-06-13T08:42:56.000Z</time>
      </trkpt>
      <trkpt lat="47.30967" lon="-2.26575">
        <ele>93</ele>
        <time>2021-06-13T08:42:57.000Z</time>
      </trkpt>
      <trkpt lat="47.30965" lon="-2.26586">
        <ele>92.599998474121</ele>
        <time>2021-06-13T08:42:58.000Z</time>
      </trkpt>
      <trkpt lat="47.30963" lon="-2.26596">
        <ele>92</ele>
        <time>2021-06-13T08:42:59.000Z</time>
      </trkpt>
      <trkpt lat="47.30956" lon="-2.26626">
        <ele>92</ele>
        <time>2021-06-13T08:43:02.000Z</time>
      </trkpt>
      <trkpt lat="47.30939" lon="-2.26711">
        <ele>92</ele>
        <time>2021-06-13T08:43:11.000Z</time>
      </trkpt>
      <trkpt lat="47.30938" lon="-2.2672">
        <ele>92</ele>
        <time>2021-06-13T08:43:12.000Z</time>
      </trkpt>
      <trkpt lat="47.30926" lon="-2.26782">
        <ele>92</ele>
        <time>2021-06-13T08:43:19.000Z</time>
      </trkpt>
      <trkpt lat="47.30913" lon="-2.26851">
        <ele>92</ele>
        <time>2021-06-13T08:43:27.000Z</time>
      </trkpt>
      <trkpt lat="47.30908" lon="-2.26883">
        <ele>92</ele>
        <time>2021-06-13T08:43:31.000Z</time>
      </trkpt>
      <trkpt lat="47.30916" lon="-2.26915">
        <ele>92</ele>
        <time>2021-06-13T08:43:35.000Z</time>
      </trkpt>
      <trkpt lat="47.30921" lon="-2.26921">
        <ele>92</ele>
        <time>2021-06-13T08:43:36.000Z</time>
      </trkpt>
      <trkpt lat="47.30943" lon="-2.26942">
        <ele>92</ele>
        <time>2021-06-13T08:43:40.000Z</time>
      </trkpt>
      <trkpt lat="47.30984" lon="-2.26977">
        <ele>92</ele>
        <time>2021-06-13T08:43:47.000Z</time>
      </trkpt>
      <trkpt lat="47.30996" lon="-2.27">
        <ele>92</ele>
        <time>2021-06-13T08:43:50.000Z</time>
      </trkpt>
      <trkpt lat="47.30998" lon="-2.27008">
        <ele>92</ele>
        <time>2021-06-13T08:43:51.000Z</time>
      </trkpt>
      <trkpt lat="47.31" lon="-2.27024">
        <ele>92</ele>
        <time>2021-06-13T08:43:53.000Z</time>
      </trkpt>
      <trkpt lat="47.31" lon="-2.27032">
        <ele>92</ele>
        <time>2021-06-13T08:43:54.000Z</time>
      </trkpt>
      <trkpt lat="47.31" lon="-2.2705">
        <ele>92.599998474121</ele>
        <time>2021-06-13T08:43:56.000Z</time>
      </trkpt>
      <trkpt lat="47.31" lon="-2.27059">
        <ele>93</ele>
        <time>2021-06-13T08:43:57.000Z</time>
      </trkpt>
      <trkpt lat="47.31001" lon="-2.27067">
        <ele>93.400001525879</ele>
        <time>2021-06-13T08:43:58.000Z</time>
      </trkpt>
      <trkpt lat="47.31001" lon="-2.27076">
        <ele>94</ele>
        <time>2021-06-13T08:43:59.000Z</time>
      </trkpt>
      <trkpt lat="47.31001" lon="-2.27085">
        <ele>94.400001525879</ele>
        <time>2021-06-13T08:44:00.000Z</time>
      </trkpt>
      <trkpt lat="47.31002" lon="-2.27093">
        <ele>94.800003051758</ele>
        <time>2021-06-13T08:44:01.000Z</time>
      </trkpt>
      <trkpt lat="47.31002" lon="-2.27101">
        <ele>95.199996948242</ele>
        <time>2021-06-13T08:44:02.000Z</time>
      </trkpt>
      <trkpt lat="47.31002" lon="-2.2711">
        <ele>95.599998474121</ele>
        <time>2021-06-13T08:44:03.000Z</time>
      </trkpt>
      <trkpt lat="47.31002" lon="-2.27119">
        <ele>96</ele>
        <time>2021-06-13T08:44:04.000Z</time>
      </trkpt>
      <trkpt lat="47.31003" lon="-2.27128">
        <ele>96.400001525879</ele>
        <time>2021-06-13T08:44:05.000Z</time>
      </trkpt>
      <trkpt lat="47.31003" lon="-2.27136">
        <ele>96.400001525879</ele>
        <time>2021-06-13T08:44:06.000Z</time>
      </trkpt>
      <trkpt lat="47.31007" lon="-2.27205">
        <ele>96.400001525879</ele>
        <time>2021-06-13T08:44:13.000Z</time>
      </trkpt>
      <trkpt lat="47.31009" lon="-2.27215">
        <ele>96.400001525879</ele>
        <time>2021-06-13T08:44:14.000Z</time>
      </trkpt>
      <trkpt lat="47.31016" lon="-2.27232">
        <ele>96.400001525879</ele>
        <time>2021-06-13T08:44:16.000Z</time>
      </trkpt>
      <trkpt lat="47.31039" lon="-2.27257">
        <ele>96.400001525879</ele>
        <time>2021-06-13T08:44:20.000Z</time>
      </trkpt>
      <trkpt lat="47.31065" lon="-2.27263">
        <ele>96.800003051758</ele>
        <time>2021-06-13T08:44:24.000Z</time>
      </trkpt>
      <trkpt lat="47.31072" lon="-2.27263">
        <ele>97.199996948242</ele>
        <time>2021-06-13T08:44:25.000Z</time>
      </trkpt>
      <trkpt lat="47.31079" lon="-2.27263">
        <ele>97.599998474121</ele>
        <time>2021-06-13T08:44:26.000Z</time>
      </trkpt>
      <trkpt lat="47.31086" lon="-2.27263">
        <ele>98.199996948242</ele>
        <time>2021-06-13T08:44:27.000Z</time>
      </trkpt>
      <trkpt lat="47.31093" lon="-2.27262">
        <ele>98.599998474121</ele>
        <time>2021-06-13T08:44:28.000Z</time>
      </trkpt>
      <trkpt lat="47.31107" lon="-2.27258">
        <ele>98.599998474121</ele>
        <time>2021-06-13T08:44:30.000Z</time>
      </trkpt>
      <trkpt lat="47.31147" lon="-2.27227">
        <ele>98.599998474121</ele>
        <time>2021-06-13T08:44:36.000Z</time>
      </trkpt>
      <trkpt lat="47.31176" lon="-2.27192">
        <ele>98.599998474121</ele>
        <time>2021-06-13T08:44:41.000Z</time>
      </trkpt>
      <trkpt lat="47.31213" lon="-2.27149">
        <ele>98.599998474121</ele>
        <time>2021-06-13T08:44:48.000Z</time>
      </trkpt>
      <trkpt lat="47.31252" lon="-2.27116">
        <ele>98.599998474121</ele>
        <time>2021-06-13T08:44:55.000Z</time>
      </trkpt>
      <trkpt lat="47.313" lon="-2.27085">
        <ele>98.599998474121</ele>
        <time>2021-06-13T08:45:03.000Z</time>
      </trkpt>
      <trkpt lat="47.31352" lon="-2.27066">
        <ele>98.599998474121</ele>
        <time>2021-06-13T08:45:11.000Z</time>
      </trkpt>
      <trkpt lat="47.31397" lon="-2.27045">
        <ele>98.599998474121</ele>
        <time>2021-06-13T08:45:18.000Z</time>
      </trkpt>
      <trkpt lat="47.31417" lon="-2.27031">
        <ele>98</ele>
        <time>2021-06-13T08:45:21.000Z</time>
      </trkpt>
      <trkpt lat="47.31424" lon="-2.27026">
        <ele>97.599998474121</ele>
        <time>2021-06-13T08:45:22.000Z</time>
      </trkpt>
      <trkpt lat="47.31431" lon="-2.2702">
        <ele>97.199996948242</ele>
        <time>2021-06-13T08:45:23.000Z</time>
      </trkpt>
      <trkpt lat="47.31438" lon="-2.27015">
        <ele>96.800003051758</ele>
        <time>2021-06-13T08:45:24.000Z</time>
      </trkpt>
      <trkpt lat="47.31444" lon="-2.2701">
        <ele>96.400001525879</ele>
        <time>2021-06-13T08:45:25.000Z</time>
      </trkpt>
      <trkpt lat="47.31486" lon="-2.26978">
        <ele>96</ele>
        <time>2021-06-13T08:45:32.000Z</time>
      </trkpt>
      <trkpt lat="47.3149" lon="-2.26973">
        <ele>95.599998474121</ele>
        <time>2021-06-13T08:45:33.000Z</time>
      </trkpt>
      <trkpt lat="47.31493" lon="-2.26967">
        <ele>95</ele>
        <time>2021-06-13T08:45:34.000Z</time>
      </trkpt>
      <trkpt lat="47.31497" lon="-2.26959">
        <ele>94.599998474121</ele>
        <time>2021-06-13T08:45:35.000Z</time>
      </trkpt>
      <trkpt lat="47.315" lon="-2.26951">
        <ele>94.199996948242</ele>
        <time>2021-06-13T08:45:36.000Z</time>
      </trkpt>
      <trkpt lat="47.31503" lon="-2.26943">
        <ele>94.199996948242</ele>
        <time>2021-06-13T08:45:37.000Z</time>
      </trkpt>
      <trkpt lat="47.31508" lon="-2.26916">
        <ele>94.199996948242</ele>
        <time>2021-06-13T08:45:40.000Z</time>
      </trkpt>
      <trkpt lat="47.31509" lon="-2.26908">
        <ele>94.199996948242</ele>
        <time>2021-06-13T08:45:41.000Z</time>
      </trkpt>
      <trkpt lat="47.31517" lon="-2.26869">
        <ele>94.199996948242</ele>
        <time>2021-06-13T08:45:46.000Z</time>
      </trkpt>
      <trkpt lat="47.31528" lon="-2.26841">
        <ele>94.199996948242</ele>
        <time>2021-06-13T08:45:50.000Z</time>
      </trkpt>
      <trkpt lat="47.3153" lon="-2.26834">
        <ele>94.199996948242</ele>
        <time>2021-06-13T08:45:51.000Z</time>
      </trkpt>
      <trkpt lat="47.31548" lon="-2.26785">
        <ele>94.199996948242</ele>
        <time>2021-06-13T08:45:58.000Z</time>
      </trkpt>
      <trkpt lat="47.31558" lon="-2.26764">
        <ele>94.199996948242</ele>
        <time>2021-06-13T08:46:01.000Z</time>
      </trkpt>
      <trkpt lat="47.31566" lon="-2.26753">
        <ele>94.199996948242</ele>
        <time>2021-06-13T08:46:03.000Z</time>
      </trkpt>
      <trkpt lat="47.31577" lon="-2.26746">
        <ele>94.199996948242</ele>
        <time>2021-06-13T08:46:05.000Z</time>
      </trkpt>
      <trkpt lat="47.31583" lon="-2.26746">
        <ele>94.199996948242</ele>
        <time>2021-06-13T08:46:06.000Z</time>
      </trkpt>
      <trkpt lat="47.31589" lon="-2.26746">
        <ele>94.199996948242</ele>
        <time>2021-06-13T08:46:07.000Z</time>
      </trkpt>
      <trkpt lat="47.31604" lon="-2.26744">
        <ele>94.199996948242</ele>
        <time>2021-06-13T08:46:10.000Z</time>
      </trkpt>
      <trkpt lat="47.31611" lon="-2.2674">
        <ele>94.199996948242</ele>
        <time>2021-06-13T08:46:12.000Z</time>
      </trkpt>
      <trkpt lat="47.31619" lon="-2.26735">
        <ele>94.199996948242</ele>
        <time>2021-06-13T08:46:16.000Z</time>
      </trkpt>
      <trkpt lat="47.31628" lon="-2.26726">
        <ele>94.199996948242</ele>
        <time>2021-06-13T08:46:24.000Z</time>
      </trkpt>
      <trkpt lat="47.31635" lon="-2.26721">
        <ele>94.199996948242</ele>
        <time>2021-06-13T08:46:30.000Z</time>
      </trkpt>
      <trkpt lat="47.31648" lon="-2.26715">
        <ele>94.199996948242</ele>
        <time>2021-06-13T08:46:37.000Z</time>
      </trkpt>
      <trkpt lat="47.31665" lon="-2.26713">
        <ele>94.199996948242</ele>
        <time>2021-06-13T08:46:42.000Z</time>
      </trkpt>
      <trkpt lat="47.31699" lon="-2.2671">
        <ele>94.199996948242</ele>
        <time>2021-06-13T08:46:48.000Z</time>
      </trkpt>
      <trkpt lat="47.31747" lon="-2.26698">
        <ele>94.199996948242</ele>
        <time>2021-06-13T08:46:55.000Z</time>
      </trkpt>
      <trkpt lat="47.31771" lon="-2.26691">
        <ele>95.199996948242</ele>
        <time>2021-06-13T08:46:59.000Z</time>
      </trkpt>
      <trkpt lat="47.31776" lon="-2.26689">
        <ele>95.599998474121</ele>
        <time>2021-06-13T08:47:00.000Z</time>
      </trkpt>
      <trkpt lat="47.3178" lon="-2.26687">
        <ele>96</ele>
        <time>2021-06-13T08:47:01.000Z</time>
      </trkpt>
      <trkpt lat="47.31784" lon="-2.26686">
        <ele>96.400001525879</ele>
        <time>2021-06-13T08:47:02.000Z</time>
      </trkpt>
      <trkpt lat="47.31801" lon="-2.26687">
        <ele>96.400001525879</ele>
        <time>2021-06-13T08:47:07.000Z</time>
      </trkpt>
      <trkpt lat="47.31805" lon="-2.26692">
        <ele>96.800003051758</ele>
        <time>2021-06-13T08:47:09.000Z</time>
      </trkpt>
      <trkpt lat="47.31808" lon="-2.26695">
        <ele>97.199996948242</ele>
        <time>2021-06-13T08:47:10.000Z</time>
      </trkpt>
      <trkpt lat="47.3181" lon="-2.26697">
        <ele>97.599998474121</ele>
        <time>2021-06-13T08:47:11.000Z</time>
      </trkpt>
      <trkpt lat="47.31814" lon="-2.267">
        <ele>98</ele>
        <time>2021-06-13T08:47:12.000Z</time>
      </trkpt>
      <trkpt lat="47.31819" lon="-2.26705">
        <ele>98.400001525879</ele>
        <time>2021-06-13T08:47:13.000Z</time>
      </trkpt>
      <trkpt lat="47.31829" lon="-2.26713">
        <ele>98.400001525879</ele>
        <time>2021-06-13T08:47:15.000Z</time>
      </trkpt>
      <trkpt lat="47.31839" lon="-2.26718">
        <ele>98.400001525879</ele>
        <time>2021-06-13T08:47:17.000Z</time>
      </trkpt>
      <trkpt lat="47.31843" lon="-2.26719">
        <ele>98.400001525879</ele>
        <time>2021-06-13T08:47:18.000Z</time>
      </trkpt>
      <trkpt lat="47.31857" lon="-2.26717">
        <ele>98.400001525879</ele>
        <time>2021-06-13T08:47:21.000Z</time>
      </trkpt>
      <trkpt lat="47.31866" lon="-2.26712">
        <ele>98.400001525879</ele>
        <time>2021-06-13T08:47:23.000Z</time>
      </trkpt>
      <trkpt lat="47.31888" lon="-2.26696">
        <ele>98.400001525879</ele>
        <time>2021-06-13T08:47:28.000Z</time>
      </trkpt>
      <trkpt lat="47.31918" lon="-2.2667">
        <ele>98.400001525879</ele>
        <time>2021-06-13T08:47:35.000Z</time>
      </trkpt>
      <trkpt lat="47.31946" lon="-2.26648">
        <ele>98.400001525879</ele>
        <time>2021-06-13T08:47:41.000Z</time>
      </trkpt>
      <trkpt lat="47.31982" lon="-2.26624">
        <ele>98.400001525879</ele>
        <time>2021-06-13T08:47:47.000Z</time>
      </trkpt>
      <trkpt lat="47.32035" lon="-2.2659">
        <ele>98.400001525879</ele>
        <time>2021-06-13T08:47:56.000Z</time>
      </trkpt>
      <trkpt lat="47.32078" lon="-2.26574">
        <ele>98.400001525879</ele>
        <time>2021-06-13T08:48:03.000Z</time>
      </trkpt>
      <trkpt lat="47.32118" lon="-2.26578">
        <ele>98.400001525879</ele>
        <time>2021-06-13T08:48:09.000Z</time>
      </trkpt>
      <trkpt lat="47.32161" lon="-2.26593">
        <ele>98.400001525879</ele>
        <time>2021-06-13T08:48:15.000Z</time>
      </trkpt>
      <trkpt lat="47.32185" lon="-2.26596">
        <ele>98.400001525879</ele>
        <time>2021-06-13T08:48:19.000Z</time>
      </trkpt>
      <trkpt lat="47.3222" lon="-2.26595">
        <ele>98</ele>
        <time>2021-06-13T08:48:25.000Z</time>
      </trkpt>
      <trkpt lat="47.32227" lon="-2.26595">
        <ele>97.599998474121</ele>
        <time>2021-06-13T08:48:26.000Z</time>
      </trkpt>
      <trkpt lat="47.32234" lon="-2.26595">
        <ele>97.199996948242</ele>
        <time>2021-06-13T08:48:27.000Z</time>
      </trkpt>
      <trkpt lat="47.3224" lon="-2.26595">
        <ele>96.800003051758</ele>
        <time>2021-06-13T08:48:28.000Z</time>
      </trkpt>
      <trkpt lat="47.32247" lon="-2.26595">
        <ele>96.199996948242</ele>
        <time>2021-06-13T08:48:29.000Z</time>
      </trkpt>
      <trkpt lat="47.32273" lon="-2.26594">
        <ele>96.199996948242</ele>
        <time>2021-06-13T08:48:33.000Z</time>
      </trkpt>
      <trkpt lat="47.32298" lon="-2.26583">
        <ele>96.199996948242</ele>
        <time>2021-06-13T08:48:37.000Z</time>
      </trkpt>
      <trkpt lat="47.32303" lon="-2.26576">
        <ele>96.199996948242</ele>
        <time>2021-06-13T08:48:38.000Z</time>
      </trkpt>
      <trkpt lat="47.32322" lon="-2.26547">
        <ele>96.199996948242</ele>
        <time>2021-06-13T08:48:42.000Z</time>
      </trkpt>
      <trkpt lat="47.32327" lon="-2.26541">
        <ele>96.199996948242</ele>
        <time>2021-06-13T08:48:43.000Z</time>
      </trkpt>
      <trkpt lat="47.3234" lon="-2.26532">
        <ele>96.199996948242</ele>
        <time>2021-06-13T08:48:45.000Z</time>
      </trkpt>
      <trkpt lat="47.32358" lon="-2.2652">
        <ele>96.199996948242</ele>
        <time>2021-06-13T08:48:48.000Z</time>
      </trkpt>
      <trkpt lat="47.3237" lon="-2.26515">
        <ele>96.199996948242</ele>
        <time>2021-06-13T08:48:50.000Z</time>
      </trkpt>
      <trkpt lat="47.32381" lon="-2.26513">
        <ele>96.199996948242</ele>
        <time>2021-06-13T08:48:53.000Z</time>
      </trkpt>
      <trkpt lat="47.32385" lon="-2.26519">
        <ele>96.199996948242</ele>
        <time>2021-06-13T08:48:56.000Z</time>
      </trkpt>
      <trkpt lat="47.32395" lon="-2.2655">
        <ele>96.199996948242</ele>
        <time>2021-06-13T08:49:01.000Z</time>
      </trkpt>
      <trkpt lat="47.32412" lon="-2.26596">
        <ele>96.199996948242</ele>
        <time>2021-06-13T08:49:07.000Z</time>
      </trkpt>
      <trkpt lat="47.32419" lon="-2.26626">
        <ele>96.199996948242</ele>
        <time>2021-06-13T08:49:10.000Z</time>
      </trkpt>
      <trkpt lat="47.32421" lon="-2.26649">
        <ele>96.199996948242</ele>
        <time>2021-06-13T08:49:12.000Z</time>
      </trkpt>
      <trkpt lat="47.3242" lon="-2.26661">
        <ele>96.199996948242</ele>
        <time>2021-06-13T08:49:13.000Z</time>
      </trkpt>
      <trkpt lat="47.32423" lon="-2.2672">
        <ele>96.199996948242</ele>
        <time>2021-06-13T08:49:18.000Z</time>
      </trkpt>
      <trkpt lat="47.32426" lon="-2.26799">
        <ele>96.199996948242</ele>
        <time>2021-06-13T08:49:25.000Z</time>
      </trkpt>
      <trkpt lat="47.32433" lon="-2.26866">
        <ele>96.199996948242</ele>
        <time>2021-06-13T08:49:32.000Z</time>
      </trkpt>
      <trkpt lat="47.32443" lon="-2.26919">
        <ele>96.199996948242</ele>
        <time>2021-06-13T08:49:38.000Z</time>
      </trkpt>
      <trkpt lat="47.32452" lon="-2.26964">
        <ele>96.199996948242</ele>
        <time>2021-06-13T08:49:43.000Z</time>
      </trkpt>
      <trkpt lat="47.32452" lon="-2.26973">
        <ele>96.199996948242</ele>
        <time>2021-06-13T08:49:44.000Z</time>
      </trkpt>
      <trkpt lat="47.32451" lon="-2.2699">
        <ele>96.199996948242</ele>
        <time>2021-06-13T08:49:47.000Z</time>
      </trkpt>
      <trkpt lat="47.32449" lon="-2.26991">
        <ele>96.199996948242</ele>
        <time>2021-06-13T08:49:48.000Z</time>
      </trkpt>
      <trkpt lat="47.32434" lon="-2.26991">
        <ele>96.199996948242</ele>
        <time>2021-06-13T08:49:52.000Z</time>
      </trkpt>
      <trkpt lat="47.32411" lon="-2.26991">
        <ele>96.199996948242</ele>
        <time>2021-06-13T08:49:56.000Z</time>
      </trkpt>
      <trkpt lat="47.32405" lon="-2.26996">
        <ele>96.199996948242</ele>
        <time>2021-06-13T08:49:57.000Z</time>
      </trkpt>
      <trkpt lat="47.32398" lon="-2.27022">
        <ele>96.199996948242</ele>
        <time>2021-06-13T08:50:00.000Z</time>
      </trkpt>
      <trkpt lat="47.32397" lon="-2.27032">
        <ele>96.199996948242</ele>
        <time>2021-06-13T08:50:01.000Z</time>
      </trkpt>
      <trkpt lat="47.32392" lon="-2.27061">
        <ele>96.199996948242</ele>
        <time>2021-06-13T08:50:04.000Z</time>
      </trkpt>
      <trkpt lat="47.32392" lon="-2.2707">
        <ele>96.199996948242</ele>
        <time>2021-06-13T08:50:05.000Z</time>
      </trkpt>
      <trkpt lat="47.32392" lon="-2.27119">
        <ele>96.199996948242</ele>
        <time>2021-06-13T08:50:10.000Z</time>
      </trkpt>
      <trkpt lat="47.32386" lon="-2.27164">
        <ele>96.199996948242</ele>
        <time>2021-06-13T08:50:15.000Z</time>
      </trkpt>
      <trkpt lat="47.32381" lon="-2.27182">
        <ele>96.599998474121</ele>
        <time>2021-06-13T08:50:17.000Z</time>
      </trkpt>
      <trkpt lat="47.32378" lon="-2.27191">
        <ele>97</ele>
        <time>2021-06-13T08:50:18.000Z</time>
      </trkpt>
      <trkpt lat="47.32375" lon="-2.272">
        <ele>97.400001525879</ele>
        <time>2021-06-13T08:50:19.000Z</time>
      </trkpt>
      <trkpt lat="47.32372" lon="-2.27208">
        <ele>97.800003051758</ele>
        <time>2021-06-13T08:50:20.000Z</time>
      </trkpt>
      <trkpt lat="47.32368" lon="-2.27217">
        <ele>98.199996948242</ele>
        <time>2021-06-13T08:50:21.000Z</time>
      </trkpt>
      <trkpt lat="47.32361" lon="-2.27232">
        <ele>98.199996948242</ele>
        <time>2021-06-13T08:50:23.000Z</time>
      </trkpt>
      <trkpt lat="47.32346" lon="-2.27252">
        <ele>98.199996948242</ele>
        <time>2021-06-13T08:50:26.000Z</time>
      </trkpt>
      <trkpt lat="47.32325" lon="-2.27268">
        <ele>98.199996948242</ele>
        <time>2021-06-13T08:50:29.000Z</time>
      </trkpt>
      <trkpt lat="47.32309" lon="-2.27279">
        <ele>98.199996948242</ele>
        <time>2021-06-13T08:50:31.000Z</time>
      </trkpt>
      <trkpt lat="47.32257" lon="-2.2731">
        <ele>98.199996948242</ele>
        <time>2021-06-13T08:50:38.000Z</time>
      </trkpt>
      <trkpt lat="47.32251" lon="-2.27315">
        <ele>98.199996948242</ele>
        <time>2021-06-13T08:50:39.000Z</time>
      </trkpt>
      <trkpt lat="47.32246" lon="-2.27323">
        <ele>98.199996948242</ele>
        <time>2021-06-13T08:50:40.000Z</time>
      </trkpt>
      <trkpt lat="47.32242" lon="-2.27341">
        <ele>98.199996948242</ele>
        <time>2021-06-13T08:50:42.000Z</time>
      </trkpt>
      <trkpt lat="47.32245" lon="-2.27361">
        <ele>98.199996948242</ele>
        <time>2021-06-13T08:50:44.000Z</time>
      </trkpt>
      <trkpt lat="47.32246" lon="-2.27371">
        <ele>98.199996948242</ele>
        <time>2021-06-13T08:50:45.000Z</time>
      </trkpt>
      <trkpt lat="47.32249" lon="-2.2741">
        <ele>98.199996948242</ele>
        <time>2021-06-13T08:50:49.000Z</time>
      </trkpt>
      <trkpt lat="47.32247" lon="-2.2743">
        <ele>98.199996948242</ele>
        <time>2021-06-13T08:50:51.000Z</time>
      </trkpt>
      <trkpt lat="47.32243" lon="-2.27478">
        <ele>98.199996948242</ele>
        <time>2021-06-13T08:50:56.000Z</time>
      </trkpt>
      <trkpt lat="47.32244" lon="-2.27492">
        <ele>98.199996948242</ele>
        <time>2021-06-13T08:50:58.000Z</time>
      </trkpt>
      <trkpt lat="47.32252" lon="-2.27497">
        <ele>98.199996948242</ele>
        <time>2021-06-13T08:51:01.000Z</time>
      </trkpt>
      <trkpt lat="47.3226" lon="-2.27495">
        <ele>98.199996948242</ele>
        <time>2021-06-13T08:51:03.000Z</time>
      </trkpt>
      <trkpt lat="47.32276" lon="-2.27494">
        <ele>98.199996948242</ele>
        <time>2021-06-13T08:51:06.000Z</time>
      </trkpt>
      <trkpt lat="47.32288" lon="-2.27493">
        <ele>98.199996948242</ele>
        <time>2021-06-13T08:51:08.000Z</time>
      </trkpt>
      <trkpt lat="47.32306" lon="-2.27498">
        <ele>98.199996948242</ele>
        <time>2021-06-13T08:51:11.000Z</time>
      </trkpt>
      <trkpt lat="47.32348" lon="-2.27507">
        <ele>98.199996948242</ele>
        <time>2021-06-13T08:51:18.000Z</time>
      </trkpt>
      <trkpt lat="47.32353" lon="-2.27512">
        <ele>97.800003051758</ele>
        <time>2021-06-13T08:51:19.000Z</time>
      </trkpt>
      <trkpt lat="47.32358" lon="-2.27519">
        <ele>97.400001525879</ele>
        <time>2021-06-13T08:51:20.000Z</time>
      </trkpt>
      <trkpt lat="47.3236" lon="-2.27527">
        <ele>97</ele>
        <time>2021-06-13T08:51:21.000Z</time>
      </trkpt>
      <trkpt lat="47.32361" lon="-2.27535">
        <ele>96.599998474121</ele>
        <time>2021-06-13T08:51:22.000Z</time>
      </trkpt>
      <trkpt lat="47.32363" lon="-2.27544">
        <ele>96.199996948242</ele>
        <time>2021-06-13T08:51:23.000Z</time>
      </trkpt>
      <trkpt lat="47.32364" lon="-2.27554">
        <ele>96.199996948242</ele>
        <time>2021-06-13T08:51:24.000Z</time>
      </trkpt>
      <trkpt lat="47.32364" lon="-2.27581">
        <ele>96.199996948242</ele>
        <time>2021-06-13T08:51:27.000Z</time>
      </trkpt>
      <trkpt lat="47.3236" lon="-2.27598">
        <ele>96.199996948242</ele>
        <time>2021-06-13T08:51:29.000Z</time>
      </trkpt>
      <trkpt lat="47.32358" lon="-2.27617">
        <ele>96.199996948242</ele>
        <time>2021-06-13T08:51:31.000Z</time>
      </trkpt>
      <trkpt lat="47.32358" lon="-2.27627">
        <ele>96.199996948242</ele>
        <time>2021-06-13T08:51:32.000Z</time>
      </trkpt>
      <trkpt lat="47.32356" lon="-2.27645">
        <ele>96.199996948242</ele>
        <time>2021-06-13T08:51:34.000Z</time>
      </trkpt>
      <trkpt lat="47.32354" lon="-2.27653">
        <ele>96.199996948242</ele>
        <time>2021-06-13T08:51:35.000Z</time>
      </trkpt>
      <trkpt lat="47.32346" lon="-2.27705">
        <ele>96.199996948242</ele>
        <time>2021-06-13T08:51:41.000Z</time>
      </trkpt>
      <trkpt lat="47.32338" lon="-2.27756">
        <ele>96.199996948242</ele>
        <time>2021-06-13T08:51:48.000Z</time>
      </trkpt>
      <trkpt lat="47.32322" lon="-2.2782">
        <ele>96.199996948242</ele>
        <time>2021-06-13T08:51:57.000Z</time>
      </trkpt>
      <trkpt lat="47.32321" lon="-2.27822">
        <ele>96.199996948242</ele>
        <time>2021-06-13T08:52:00.000Z</time>
      </trkpt>
      <trkpt lat="47.32321" lon="-2.27822">
        <ele>96.199996948242</ele>
        <time>2021-06-13T08:52:01.000Z</time>
      </trkpt>
      <trkpt lat="47.32325" lon="-2.27827">
        <ele>96.199996948242</ele>
        <time>2021-06-13T08:53:22.000Z</time>
      </trkpt>
      <trkpt lat="47.32327" lon="-2.27831">
        <ele>96.199996948242</ele>
        <time>2021-06-13T08:53:24.000Z</time>
      </trkpt>
      <trkpt lat="47.32342" lon="-2.27832">
        <ele>96.199996948242</ele>
        <time>2021-06-13T08:53:28.000Z</time>
      </trkpt>
      <trkpt lat="47.32375" lon="-2.27834">
        <ele>96.199996948242</ele>
        <time>2021-06-13T08:53:34.000Z</time>
      </trkpt>
      <trkpt lat="47.32427" lon="-2.27832">
        <ele>96.199996948242</ele>
        <time>2021-06-13T08:53:43.000Z</time>
      </trkpt>
      <trkpt lat="47.32469" lon="-2.27834">
        <ele>96.199996948242</ele>
        <time>2021-06-13T08:53:50.000Z</time>
      </trkpt>
      <trkpt lat="47.32494" lon="-2.27836">
        <ele>96.199996948242</ele>
        <time>2021-06-13T08:53:54.000Z</time>
      </trkpt>
      <trkpt lat="47.32506" lon="-2.27842">
        <ele>96.199996948242</ele>
        <time>2021-06-13T08:53:56.000Z</time>
      </trkpt>
      <trkpt lat="47.32521" lon="-2.27863">
        <ele>96.199996948242</ele>
        <time>2021-06-13T08:53:59.000Z</time>
      </trkpt>
      <trkpt lat="47.32527" lon="-2.2789">
        <ele>96.199996948242</ele>
        <time>2021-06-13T08:54:02.000Z</time>
      </trkpt>
      <trkpt lat="47.32528" lon="-2.279">
        <ele>96.199996948242</ele>
        <time>2021-06-13T08:54:03.000Z</time>
      </trkpt>
      <trkpt lat="47.32541" lon="-2.27965">
        <ele>96.199996948242</ele>
        <time>2021-06-13T08:54:10.000Z</time>
      </trkpt>
      <trkpt lat="47.32559" lon="-2.28048">
        <ele>96.199996948242</ele>
        <time>2021-06-13T08:54:19.000Z</time>
      </trkpt>
      <trkpt lat="47.32561" lon="-2.28057">
        <ele>96.199996948242</ele>
        <time>2021-06-13T08:54:20.000Z</time>
      </trkpt>
      <trkpt lat="47.32575" lon="-2.28121">
        <ele>96.199996948242</ele>
        <time>2021-06-13T08:54:27.000Z</time>
      </trkpt>
      <trkpt lat="47.32594" lon="-2.28204">
        <ele>96.199996948242</ele>
        <time>2021-06-13T08:54:36.000Z</time>
      </trkpt>
      <trkpt lat="47.32596" lon="-2.28213">
        <ele>96.199996948242</ele>
        <time>2021-06-13T08:54:37.000Z</time>
      </trkpt>
      <trkpt lat="47.32613" lon="-2.28293">
        <ele>96.199996948242</ele>
        <time>2021-06-13T08:54:46.000Z</time>
      </trkpt>
      <trkpt lat="47.32615" lon="-2.28302">
        <ele>96.199996948242</ele>
        <time>2021-06-13T08:54:47.000Z</time>
      </trkpt>
      <trkpt lat="47.32627" lon="-2.28343">
        <ele>96.199996948242</ele>
        <time>2021-06-13T08:54:52.000Z</time>
      </trkpt>
      <trkpt lat="47.3263" lon="-2.28349">
        <ele>96.199996948242</ele>
        <time>2021-06-13T08:54:53.000Z</time>
      </trkpt>
      <trkpt lat="47.32645" lon="-2.28352">
        <ele>96.199996948242</ele>
        <time>2021-06-13T08:54:56.000Z</time>
      </trkpt>
      <trkpt lat="47.32666" lon="-2.2834">
        <ele>96.199996948242</ele>
        <time>2021-06-13T08:55:00.000Z</time>
      </trkpt>
      <trkpt lat="47.32687" lon="-2.28322">
        <ele>96.199996948242</ele>
        <time>2021-06-13T08:55:04.000Z</time>
      </trkpt>
      <trkpt lat="47.32693" lon="-2.28323">
        <ele>96.199996948242</ele>
        <time>2021-06-13T08:55:05.000Z</time>
      </trkpt>
      <trkpt lat="47.32705" lon="-2.28339">
        <ele>96.199996948242</ele>
        <time>2021-06-13T08:55:08.000Z</time>
      </trkpt>
      <trkpt lat="47.32709" lon="-2.28363">
        <ele>96.199996948242</ele>
        <time>2021-06-13T08:55:11.000Z</time>
      </trkpt>
      <trkpt lat="47.3271" lon="-2.28372">
        <ele>96.199996948242</ele>
        <time>2021-06-13T08:55:12.000Z</time>
      </trkpt>
      <trkpt lat="47.32715" lon="-2.28408">
        <ele>96.599998474121</ele>
        <time>2021-06-13T08:55:16.000Z</time>
      </trkpt>
      <trkpt lat="47.32715" lon="-2.28417">
        <ele>97</ele>
        <time>2021-06-13T08:55:17.000Z</time>
      </trkpt>
      <trkpt lat="47.32716" lon="-2.28426">
        <ele>97.400001525879</ele>
        <time>2021-06-13T08:55:18.000Z</time>
      </trkpt>
      <trkpt lat="47.32717" lon="-2.28435">
        <ele>97.800003051758</ele>
        <time>2021-06-13T08:55:19.000Z</time>
      </trkpt>
      <trkpt lat="47.32718" lon="-2.28444">
        <ele>98.199996948242</ele>
        <time>2021-06-13T08:55:20.000Z</time>
      </trkpt>
      <trkpt lat="47.32719" lon="-2.28454">
        <ele>98.199996948242</ele>
        <time>2021-06-13T08:55:21.000Z</time>
      </trkpt>
      <trkpt lat="47.32727" lon="-2.28531">
        <ele>98.199996948242</ele>
        <time>2021-06-13T08:55:29.000Z</time>
      </trkpt>
      <trkpt lat="47.32739" lon="-2.28589">
        <ele>98.199996948242</ele>
        <time>2021-06-13T08:55:35.000Z</time>
      </trkpt>
      <trkpt lat="47.32757" lon="-2.28629">
        <ele>98.199996948242</ele>
        <time>2021-06-13T08:55:40.000Z</time>
      </trkpt>
      <trkpt lat="47.32761" lon="-2.28636">
        <ele>98.599998474121</ele>
        <time>2021-06-13T08:55:41.000Z</time>
      </trkpt>
      <trkpt lat="47.32766" lon="-2.28643">
        <ele>99</ele>
        <time>2021-06-13T08:55:42.000Z</time>
      </trkpt>
      <trkpt lat="47.3277" lon="-2.28649">
        <ele>99.400001525879</ele>
        <time>2021-06-13T08:55:43.000Z</time>
      </trkpt>
      <trkpt lat="47.32774" lon="-2.28656">
        <ele>100</ele>
        <time>2021-06-13T08:55:44.000Z</time>
      </trkpt>
      <trkpt lat="47.32777" lon="-2.28663">
        <ele>100.40000152588</ele>
        <time>2021-06-13T08:55:45.000Z</time>
      </trkpt>
      <trkpt lat="47.32781" lon="-2.2867">
        <ele>100.40000152588</ele>
        <time>2021-06-13T08:55:46.000Z</time>
      </trkpt>
      <trkpt lat="47.32792" lon="-2.28712">
        <ele>100.40000152588</ele>
        <time>2021-06-13T08:55:51.000Z</time>
      </trkpt>
      <trkpt lat="47.32799" lon="-2.28768">
        <ele>100.40000152588</ele>
        <time>2021-06-13T08:55:57.000Z</time>
      </trkpt>
      <trkpt lat="47.32801" lon="-2.28816">
        <ele>100.40000152588</ele>
        <time>2021-06-13T08:56:02.000Z</time>
      </trkpt>
      <trkpt lat="47.32798" lon="-2.28834">
        <ele>100.40000152588</ele>
        <time>2021-06-13T08:56:04.000Z</time>
      </trkpt>
      <trkpt lat="47.32781" lon="-2.28898">
        <ele>100.40000152588</ele>
        <time>2021-06-13T08:56:11.000Z</time>
      </trkpt>
      <trkpt lat="47.32772" lon="-2.28958">
        <ele>100.40000152588</ele>
        <time>2021-06-13T08:56:17.000Z</time>
      </trkpt>
      <trkpt lat="47.32767" lon="-2.29004">
        <ele>100.40000152588</ele>
        <time>2021-06-13T08:56:23.000Z</time>
      </trkpt>
      <trkpt lat="47.32769" lon="-2.29008">
        <ele>100.40000152588</ele>
        <time>2021-06-13T08:56:24.000Z</time>
      </trkpt>
      <trkpt lat="47.32772" lon="-2.29009">
        <ele>100.40000152588</ele>
        <time>2021-06-13T08:56:25.000Z</time>
      </trkpt>
      <trkpt lat="47.32787" lon="-2.29003">
        <ele>100.40000152588</ele>
        <time>2021-06-13T08:56:28.000Z</time>
      </trkpt>
      <trkpt lat="47.32799" lon="-2.28994">
        <ele>100.40000152588</ele>
        <time>2021-06-13T08:56:30.000Z</time>
      </trkpt>
      <trkpt lat="47.3282" lon="-2.28976">
        <ele>100.40000152588</ele>
        <time>2021-06-13T08:56:34.000Z</time>
      </trkpt>
      <trkpt lat="47.32857" lon="-2.28941">
        <ele>100.40000152588</ele>
        <time>2021-06-13T08:56:41.000Z</time>
      </trkpt>
      <trkpt lat="47.32868" lon="-2.28932">
        <ele>100.40000152588</ele>
        <time>2021-06-13T08:56:43.000Z</time>
      </trkpt>
      <trkpt lat="47.32881" lon="-2.28929">
        <ele>100.40000152588</ele>
        <time>2021-06-13T08:56:45.000Z</time>
      </trkpt>
      <trkpt lat="47.32903" lon="-2.28934">
        <ele>100.40000152588</ele>
        <time>2021-06-13T08:56:49.000Z</time>
      </trkpt>
      <trkpt lat="47.32909" lon="-2.28936">
        <ele>100.80000305176</ele>
        <time>2021-06-13T08:56:50.000Z</time>
      </trkpt>
      <trkpt lat="47.32914" lon="-2.28937">
        <ele>101.19999694824</ele>
        <time>2021-06-13T08:56:51.000Z</time>
      </trkpt>
      <trkpt lat="47.32919" lon="-2.28936">
        <ele>102</ele>
        <time>2021-06-13T08:56:52.000Z</time>
      </trkpt>
      <trkpt lat="47.32923" lon="-2.28934">
        <ele>102.40000152588</ele>
        <time>2021-06-13T08:56:53.000Z</time>
      </trkpt>
      <trkpt lat="47.32928" lon="-2.2893">
        <ele>102.40000152588</ele>
        <time>2021-06-13T08:56:54.000Z</time>
      </trkpt>
      <trkpt lat="47.32941" lon="-2.28916">
        <ele>102.40000152588</ele>
        <time>2021-06-13T08:56:57.000Z</time>
      </trkpt>
      <trkpt lat="47.3295" lon="-2.28907">
        <ele>102.40000152588</ele>
        <time>2021-06-13T08:56:59.000Z</time>
      </trkpt>
      <trkpt lat="47.32977" lon="-2.28883">
        <ele>102.80000305176</ele>
        <time>2021-06-13T08:57:04.000Z</time>
      </trkpt>
      <trkpt lat="47.32982" lon="-2.28878">
        <ele>103.19999694824</ele>
        <time>2021-06-13T08:57:05.000Z</time>
      </trkpt>
      <trkpt lat="47.32987" lon="-2.28873">
        <ele>103.59999847412</ele>
        <time>2021-06-13T08:57:06.000Z</time>
      </trkpt>
      <trkpt lat="47.32993" lon="-2.28869">
        <ele>104.19999694824</ele>
        <time>2021-06-13T08:57:07.000Z</time>
      </trkpt>
      <trkpt lat="47.32999" lon="-2.28864">
        <ele>104.59999847412</ele>
        <time>2021-06-13T08:57:08.000Z</time>
      </trkpt>
      <trkpt lat="47.33021" lon="-2.28849">
        <ele>104.59999847412</ele>
        <time>2021-06-13T08:57:12.000Z</time>
      </trkpt>
      <trkpt lat="47.33063" lon="-2.28823">
        <ele>104.59999847412</ele>
        <time>2021-06-13T08:57:19.000Z</time>
      </trkpt>
      <trkpt lat="47.33093" lon="-2.2881">
        <ele>104.59999847412</ele>
        <time>2021-06-13T08:57:24.000Z</time>
      </trkpt>
      <trkpt lat="47.33098" lon="-2.28812">
        <ele>104.59999847412</ele>
        <time>2021-06-13T08:57:25.000Z</time>
      </trkpt>
      <trkpt lat="47.33106" lon="-2.28828">
        <ele>104.59999847412</ele>
        <time>2021-06-13T08:57:28.000Z</time>
      </trkpt>
      <trkpt lat="47.3311" lon="-2.28842">
        <ele>104.59999847412</ele>
        <time>2021-06-13T08:57:30.000Z</time>
      </trkpt>
      <trkpt lat="47.33113" lon="-2.28849">
        <ele>104.59999847412</ele>
        <time>2021-06-13T08:57:31.000Z</time>
      </trkpt>
      <trkpt lat="47.33118" lon="-2.28863">
        <ele>104.59999847412</ele>
        <time>2021-06-13T08:57:33.000Z</time>
      </trkpt>
      <trkpt lat="47.33121" lon="-2.28896">
        <ele>104.59999847412</ele>
        <time>2021-06-13T08:57:37.000Z</time>
      </trkpt>
      <trkpt lat="47.33122" lon="-2.28907">
        <ele>104.59999847412</ele>
        <time>2021-06-13T08:57:38.000Z</time>
      </trkpt>
      <trkpt lat="47.33119" lon="-2.28966">
        <ele>104.59999847412</ele>
        <time>2021-06-13T08:57:45.000Z</time>
      </trkpt>
      <trkpt lat="47.33113" lon="-2.29002">
        <ele>104.59999847412</ele>
        <time>2021-06-13T08:57:49.000Z</time>
      </trkpt>
      <trkpt lat="47.33109" lon="-2.29019">
        <ele>104.59999847412</ele>
        <time>2021-06-13T08:57:51.000Z</time>
      </trkpt>
      <trkpt lat="47.33101" lon="-2.29051">
        <ele>104.59999847412</ele>
        <time>2021-06-13T08:57:55.000Z</time>
      </trkpt>
      <trkpt lat="47.33106" lon="-2.29058">
        <ele>104.59999847412</ele>
        <time>2021-06-13T08:57:58.000Z</time>
      </trkpt>
      <trkpt lat="47.33114" lon="-2.29057">
        <ele>104.59999847412</ele>
        <time>2021-06-13T08:58:01.000Z</time>
      </trkpt>
      <trkpt lat="47.33122" lon="-2.29056">
        <ele>104.59999847412</ele>
        <time>2021-06-13T08:58:03.000Z</time>
      </trkpt>
      <trkpt lat="47.33157" lon="-2.29055">
        <ele>104.59999847412</ele>
        <time>2021-06-13T08:58:08.000Z</time>
      </trkpt>
      <trkpt lat="47.332" lon="-2.29066">
        <ele>104.59999847412</ele>
        <time>2021-06-13T08:58:14.000Z</time>
      </trkpt>
      <trkpt lat="47.33225" lon="-2.29074">
        <ele>104.59999847412</ele>
        <time>2021-06-13T08:58:18.000Z</time>
      </trkpt>
      <trkpt lat="47.33229" lon="-2.2907">
        <ele>104.59999847412</ele>
        <time>2021-06-13T08:58:19.000Z</time>
      </trkpt>
      <trkpt lat="47.33233" lon="-2.29054">
        <ele>104.59999847412</ele>
        <time>2021-06-13T08:58:21.000Z</time>
      </trkpt>
      <trkpt lat="47.33234" lon="-2.29016">
        <ele>104.59999847412</ele>
        <time>2021-06-13T08:58:25.000Z</time>
      </trkpt>
      <trkpt lat="47.33243" lon="-2.2896">
        <ele>104.59999847412</ele>
        <time>2021-06-13T08:58:31.000Z</time>
      </trkpt>
      <trkpt lat="47.33253" lon="-2.28946">
        <ele>104.59999847412</ele>
        <time>2021-06-13T08:58:34.000Z</time>
      </trkpt>
      <trkpt lat="47.33263" lon="-2.28939">
        <ele>104.59999847412</ele>
        <time>2021-06-13T08:58:36.000Z</time>
      </trkpt>
      <trkpt lat="47.33275" lon="-2.28931">
        <ele>104.59999847412</ele>
        <time>2021-06-13T08:58:38.000Z</time>
      </trkpt>
      <trkpt lat="47.33308" lon="-2.28912">
        <ele>104.19999694824</ele>
        <time>2021-06-13T08:58:43.000Z</time>
      </trkpt>
      <trkpt lat="47.33315" lon="-2.28909">
        <ele>103.80000305176</ele>
        <time>2021-06-13T08:58:44.000Z</time>
      </trkpt>
      <trkpt lat="47.33322" lon="-2.28906">
        <ele>103.40000152588</ele>
        <time>2021-06-13T08:58:45.000Z</time>
      </trkpt>
      <trkpt lat="47.33329" lon="-2.28903">
        <ele>103</ele>
        <time>2021-06-13T08:58:46.000Z</time>
      </trkpt>
      <trkpt lat="47.33336" lon="-2.28901">
        <ele>102.59999847412</ele>
        <time>2021-06-13T08:58:47.000Z</time>
      </trkpt>
      <trkpt lat="47.33369" lon="-2.28883">
        <ele>102.59999847412</ele>
        <time>2021-06-13T08:58:52.000Z</time>
      </trkpt>
      <trkpt lat="47.33411" lon="-2.28861">
        <ele>102.59999847412</ele>
        <time>2021-06-13T08:58:58.000Z</time>
      </trkpt>
      <trkpt lat="47.3344" lon="-2.28829">
        <ele>102.59999847412</ele>
        <time>2021-06-13T08:59:03.000Z</time>
      </trkpt>
      <trkpt lat="47.33445" lon="-2.28822">
        <ele>102.19999694824</ele>
        <time>2021-06-13T08:59:04.000Z</time>
      </trkpt>
      <trkpt lat="47.33449" lon="-2.28813">
        <ele>101.59999847412</ele>
        <time>2021-06-13T08:59:05.000Z</time>
      </trkpt>
      <trkpt lat="47.33453" lon="-2.28804">
        <ele>101.19999694824</ele>
        <time>2021-06-13T08:59:06.000Z</time>
      </trkpt>
      <trkpt lat="47.33456" lon="-2.28796">
        <ele>100.80000305176</ele>
        <time>2021-06-13T08:59:07.000Z</time>
      </trkpt>
      <trkpt lat="47.3346" lon="-2.28788">
        <ele>100.40000152588</ele>
        <time>2021-06-13T08:59:08.000Z</time>
      </trkpt>
      <trkpt lat="47.33486" lon="-2.2873">
        <ele>100.40000152588</ele>
        <time>2021-06-13T08:59:15.000Z</time>
      </trkpt>
      <trkpt lat="47.33516" lon="-2.28689">
        <ele>100.40000152588</ele>
        <time>2021-06-13T08:59:21.000Z</time>
      </trkpt>
      <trkpt lat="47.33541" lon="-2.28675">
        <ele>100.40000152588</ele>
        <time>2021-06-13T08:59:25.000Z</time>
      </trkpt>
      <trkpt lat="47.33548" lon="-2.28673">
        <ele>100.40000152588</ele>
        <time>2021-06-13T08:59:26.000Z</time>
      </trkpt>
      <trkpt lat="47.3358" lon="-2.28658">
        <ele>100.40000152588</ele>
        <time>2021-06-13T08:59:30.000Z</time>
      </trkpt>
      <trkpt lat="47.33599" lon="-2.2865">
        <ele>100</ele>
        <time>2021-06-13T08:59:33.000Z</time>
      </trkpt>
      <trkpt lat="47.33605" lon="-2.28648">
        <ele>99.599998474121</ele>
        <time>2021-06-13T08:59:34.000Z</time>
      </trkpt>
      <trkpt lat="47.3361" lon="-2.28646">
        <ele>99</ele>
        <time>2021-06-13T08:59:35.000Z</time>
      </trkpt>
      <trkpt lat="47.33616" lon="-2.28643">
        <ele>98.599998474121</ele>
        <time>2021-06-13T08:59:36.000Z</time>
      </trkpt>
      <trkpt lat="47.33621" lon="-2.2864">
        <ele>98.199996948242</ele>
        <time>2021-06-13T08:59:37.000Z</time>
      </trkpt>
      <trkpt lat="47.33645" lon="-2.28623">
        <ele>98.199996948242</ele>
        <time>2021-06-13T08:59:41.000Z</time>
      </trkpt>
      <trkpt lat="47.33677" lon="-2.28588">
        <ele>98.199996948242</ele>
        <time>2021-06-13T08:59:47.000Z</time>
      </trkpt>
      <trkpt lat="47.33706" lon="-2.28552">
        <ele>98.199996948242</ele>
        <time>2021-06-13T08:59:54.000Z</time>
      </trkpt>
      <trkpt lat="47.33715" lon="-2.28543">
        <ele>98.199996948242</ele>
        <time>2021-06-13T08:59:56.000Z</time>
      </trkpt>
      <trkpt lat="47.33732" lon="-2.2853">
        <ele>98.199996948242</ele>
        <time>2021-06-13T08:59:59.000Z</time>
      </trkpt>
      <trkpt lat="47.33766" lon="-2.28497">
        <ele>98.199996948242</ele>
        <time>2021-06-13T09:00:05.000Z</time>
      </trkpt>
      <trkpt lat="47.33808" lon="-2.28466">
        <ele>98.199996948242</ele>
        <time>2021-06-13T09:00:12.000Z</time>
      </trkpt>
      <trkpt lat="47.33826" lon="-2.28457">
        <ele>98.199996948242</ele>
        <time>2021-06-13T09:00:15.000Z</time>
      </trkpt>
      <trkpt lat="47.33831" lon="-2.28457">
        <ele>98.199996948242</ele>
        <time>2021-06-13T09:00:16.000Z</time>
      </trkpt>
      <trkpt lat="47.33845" lon="-2.28468">
        <ele>98.199996948242</ele>
        <time>2021-06-13T09:00:19.000Z</time>
      </trkpt>
      <trkpt lat="47.33852" lon="-2.28478">
        <ele>97.800003051758</ele>
        <time>2021-06-13T09:00:21.000Z</time>
      </trkpt>
      <trkpt lat="47.33855" lon="-2.28482">
        <ele>97.400001525879</ele>
        <time>2021-06-13T09:00:22.000Z</time>
      </trkpt>
      <trkpt lat="47.33858" lon="-2.28487">
        <ele>97</ele>
        <time>2021-06-13T09:00:23.000Z</time>
      </trkpt>
      <trkpt lat="47.3386" lon="-2.2849">
        <ele>96.599998474121</ele>
        <time>2021-06-13T09:00:24.000Z</time>
      </trkpt>
      <trkpt lat="47.33863" lon="-2.28493">
        <ele>96.199996948242</ele>
        <time>2021-06-13T09:00:25.000Z</time>
      </trkpt>
      <trkpt lat="47.33867" lon="-2.285">
        <ele>96.199996948242</ele>
        <time>2021-06-13T09:00:28.000Z</time>
      </trkpt>
      <trkpt lat="47.33877" lon="-2.28518">
        <ele>96.199996948242</ele>
        <time>2021-06-13T09:00:33.000Z</time>
      </trkpt>
      <trkpt lat="47.33897" lon="-2.28546">
        <ele>96.199996948242</ele>
        <time>2021-06-13T09:00:40.000Z</time>
      </trkpt>
      <trkpt lat="47.33914" lon="-2.28564">
        <ele>96.199996948242</ele>
        <time>2021-06-13T09:00:45.000Z</time>
      </trkpt>
      <trkpt lat="47.33937" lon="-2.28593">
        <ele>96.199996948242</ele>
        <time>2021-06-13T09:00:52.000Z</time>
      </trkpt>
      <trkpt lat="47.3396" lon="-2.28621">
        <ele>96.199996948242</ele>
        <time>2021-06-13T09:01:00.000Z</time>
      </trkpt>
      <trkpt lat="47.33977" lon="-2.28639">
        <ele>96.199996948242</ele>
        <time>2021-06-13T09:01:07.000Z</time>
      </trkpt>
      <trkpt lat="47.33992" lon="-2.28638">
        <ele>96.199996948242</ele>
        <time>2021-06-13T09:01:13.000Z</time>
      </trkpt>
      <trkpt lat="47.34003" lon="-2.28634">
        <ele>96.199996948242</ele>
        <time>2021-06-13T09:01:19.000Z</time>
      </trkpt>
      <trkpt lat="47.34003" lon="-2.28634">
        <ele>96.199996948242</ele>
        <time>2021-06-13T09:01:20.000Z</time>
      </trkpt>
      <trkpt lat="47.34003" lon="-2.28632">
        <ele>98.199996948242</ele>
        <time>2021-06-13T09:16:22.000Z</time>
      </trkpt>
      <trkpt lat="47.34002" lon="-2.28632">
        <ele>98.199996948242</ele>
        <time>2021-06-13T09:16:23.000Z</time>
      </trkpt>
      <trkpt lat="47.33994" lon="-2.28636">
        <ele>98.199996948242</ele>
        <time>2021-06-13T09:16:28.000Z</time>
      </trkpt>
      <trkpt lat="47.33992" lon="-2.2864">
        <ele>98.199996948242</ele>
        <time>2021-06-13T09:16:30.000Z</time>
      </trkpt>
      <trkpt lat="47.3399" lon="-2.28659">
        <ele>98.199996948242</ele>
        <time>2021-06-13T09:16:36.000Z</time>
      </trkpt>
      <trkpt lat="47.33991" lon="-2.28679">
        <ele>98.199996948242</ele>
        <time>2021-06-13T09:16:42.000Z</time>
      </trkpt>
      <trkpt lat="47.33996" lon="-2.28692">
        <ele>98.199996948242</ele>
        <time>2021-06-13T09:16:47.000Z</time>
      </trkpt>
      <trkpt lat="47.34008" lon="-2.28702">
        <ele>98.199996948242</ele>
        <time>2021-06-13T09:16:53.000Z</time>
      </trkpt>
      <trkpt lat="47.34026" lon="-2.28712">
        <ele>98.199996948242</ele>
        <time>2021-06-13T09:16:58.000Z</time>
      </trkpt>
      <trkpt lat="47.34048" lon="-2.28723">
        <ele>98.199996948242</ele>
        <time>2021-06-13T09:17:04.000Z</time>
      </trkpt>
      <trkpt lat="47.34061" lon="-2.28728">
        <ele>98.199996948242</ele>
        <time>2021-06-13T09:17:10.000Z</time>
      </trkpt>
      <trkpt lat="47.34079" lon="-2.28734">
        <ele>98.199996948242</ele>
        <time>2021-06-13T09:17:16.000Z</time>
      </trkpt>
      <trkpt lat="47.34087" lon="-2.28739">
        <ele>98.199996948242</ele>
        <time>2021-06-13T09:17:18.000Z</time>
      </trkpt>
      <trkpt lat="47.34091" lon="-2.28742">
        <ele>98.599998474121</ele>
        <time>2021-06-13T09:17:19.000Z</time>
      </trkpt>
      <trkpt lat="47.34094" lon="-2.28747">
        <ele>99</ele>
        <time>2021-06-13T09:17:20.000Z</time>
      </trkpt>
      <trkpt lat="47.34097" lon="-2.28752">
        <ele>99.400001525879</ele>
        <time>2021-06-13T09:17:21.000Z</time>
      </trkpt>
      <trkpt lat="47.341" lon="-2.28758">
        <ele>99.800003051758</ele>
        <time>2021-06-13T09:17:22.000Z</time>
      </trkpt>
      <trkpt lat="47.34102" lon="-2.28765">
        <ele>100.19999694824</ele>
        <time>2021-06-13T09:17:23.000Z</time>
      </trkpt>
      <trkpt lat="47.34102" lon="-2.28781">
        <ele>100.19999694824</ele>
        <time>2021-06-13T09:17:25.000Z</time>
      </trkpt>
      <trkpt lat="47.34102" lon="-2.28788">
        <ele>100.19999694824</ele>
        <time>2021-06-13T09:17:26.000Z</time>
      </trkpt>
      <trkpt lat="47.34101" lon="-2.28843">
        <ele>100.19999694824</ele>
        <time>2021-06-13T09:17:33.000Z</time>
      </trkpt>
      <trkpt lat="47.34101" lon="-2.28892">
        <ele>100.19999694824</ele>
        <time>2021-06-13T09:17:40.000Z</time>
      </trkpt>
      <trkpt lat="47.34099" lon="-2.28898">
        <ele>100.19999694824</ele>
        <time>2021-06-13T09:17:41.000Z</time>
      </trkpt>
      <trkpt lat="47.34091" lon="-2.28913">
        <ele>100.19999694824</ele>
        <time>2021-06-13T09:17:44.000Z</time>
      </trkpt>
      <trkpt lat="47.34084" lon="-2.28922">
        <ele>100.19999694824</ele>
        <time>2021-06-13T09:17:46.000Z</time>
      </trkpt>
      <trkpt lat="47.34079" lon="-2.28925">
        <ele>100.19999694824</ele>
        <time>2021-06-13T09:17:47.000Z</time>
      </trkpt>
      <trkpt lat="47.34061" lon="-2.28939">
        <ele>100.19999694824</ele>
        <time>2021-06-13T09:17:51.000Z</time>
      </trkpt>
      <trkpt lat="47.34037" lon="-2.28955">
        <ele>100.19999694824</ele>
        <time>2021-06-13T09:17:56.000Z</time>
      </trkpt>
      <trkpt lat="47.34027" lon="-2.28959">
        <ele>100.19999694824</ele>
        <time>2021-06-13T09:17:58.000Z</time>
      </trkpt>
      <trkpt lat="47.33991" lon="-2.28981">
        <ele>100.19999694824</ele>
        <time>2021-06-13T09:18:05.000Z</time>
      </trkpt>
      <trkpt lat="47.33945" lon="-2.29018">
        <ele>100.19999694824</ele>
        <time>2021-06-13T09:18:14.000Z</time>
      </trkpt>
      <trkpt lat="47.33903" lon="-2.29051">
        <ele>100.19999694824</ele>
        <time>2021-06-13T09:18:22.000Z</time>
      </trkpt>
      <trkpt lat="47.33865" lon="-2.2908">
        <ele>100.19999694824</ele>
        <time>2021-06-13T09:18:29.000Z</time>
      </trkpt>
      <trkpt lat="47.3383" lon="-2.29109">
        <ele>100.19999694824</ele>
        <time>2021-06-13T09:18:36.000Z</time>
      </trkpt>
      <trkpt lat="47.33818" lon="-2.29135">
        <ele>100.19999694824</ele>
        <time>2021-06-13T09:18:40.000Z</time>
      </trkpt>
      <trkpt lat="47.33817" lon="-2.29144">
        <ele>100.19999694824</ele>
        <time>2021-06-13T09:18:41.000Z</time>
      </trkpt>
      <trkpt lat="47.33814" lon="-2.29166">
        <ele>100.19999694824</ele>
        <time>2021-06-13T09:18:44.000Z</time>
      </trkpt>
      <trkpt lat="47.33811" lon="-2.29218">
        <ele>100.19999694824</ele>
        <time>2021-06-13T09:18:51.000Z</time>
      </trkpt>
      <trkpt lat="47.33809" lon="-2.29233">
        <ele>100.19999694824</ele>
        <time>2021-06-13T09:18:53.000Z</time>
      </trkpt>
      <trkpt lat="47.33805" lon="-2.29266">
        <ele>100.19999694824</ele>
        <time>2021-06-13T09:18:57.000Z</time>
      </trkpt>
      <trkpt lat="47.33802" lon="-2.29274">
        <ele>100.19999694824</ele>
        <time>2021-06-13T09:18:58.000Z</time>
      </trkpt>
      <trkpt lat="47.33787" lon="-2.29287">
        <ele>100.19999694824</ele>
        <time>2021-06-13T09:19:01.000Z</time>
      </trkpt>
      <trkpt lat="47.33782" lon="-2.29289">
        <ele>100.59999847412</ele>
        <time>2021-06-13T09:19:02.000Z</time>
      </trkpt>
      <trkpt lat="47.33776" lon="-2.29291">
        <ele>101</ele>
        <time>2021-06-13T09:19:03.000Z</time>
      </trkpt>
      <trkpt lat="47.33771" lon="-2.29294">
        <ele>101.40000152588</ele>
        <time>2021-06-13T09:19:04.000Z</time>
      </trkpt>
      <trkpt lat="47.33765" lon="-2.29296">
        <ele>101.80000305176</ele>
        <time>2021-06-13T09:19:05.000Z</time>
      </trkpt>
      <trkpt lat="47.3376" lon="-2.29299">
        <ele>102.19999694824</ele>
        <time>2021-06-13T09:19:06.000Z</time>
      </trkpt>
      <trkpt lat="47.33741" lon="-2.29307">
        <ele>102.19999694824</ele>
        <time>2021-06-13T09:19:09.000Z</time>
      </trkpt>
      <trkpt lat="47.33698" lon="-2.29325">
        <ele>102.19999694824</ele>
        <time>2021-06-13T09:19:16.000Z</time>
      </trkpt>
      <trkpt lat="47.33657" lon="-2.29346">
        <ele>102.19999694824</ele>
        <time>2021-06-13T09:19:23.000Z</time>
      </trkpt>
      <trkpt lat="47.33607" lon="-2.29375">
        <ele>102.19999694824</ele>
        <time>2021-06-13T09:19:32.000Z</time>
      </trkpt>
      <trkpt lat="47.3356" lon="-2.29403">
        <ele>102.19999694824</ele>
        <time>2021-06-13T09:19:40.000Z</time>
      </trkpt>
      <trkpt lat="47.33521" lon="-2.29428">
        <ele>102.19999694824</ele>
        <time>2021-06-13T09:19:47.000Z</time>
      </trkpt>
      <trkpt lat="47.33476" lon="-2.29459">
        <ele>102.19999694824</ele>
        <time>2021-06-13T09:19:55.000Z</time>
      </trkpt>
      <trkpt lat="47.33434" lon="-2.29485">
        <ele>102.19999694824</ele>
        <time>2021-06-13T09:20:02.000Z</time>
      </trkpt>
      <trkpt lat="47.33383" lon="-2.29518">
        <ele>102.19999694824</ele>
        <time>2021-06-13T09:20:10.000Z</time>
      </trkpt>
      <trkpt lat="47.33349" lon="-2.29529">
        <ele>102.19999694824</ele>
        <time>2021-06-13T09:20:15.000Z</time>
      </trkpt>
      <trkpt lat="47.33311" lon="-2.29547">
        <ele>102.59999847412</ele>
        <time>2021-06-13T09:20:21.000Z</time>
      </trkpt>
      <trkpt lat="47.33305" lon="-2.29551">
        <ele>103.19999694824</ele>
        <time>2021-06-13T09:20:22.000Z</time>
      </trkpt>
      <trkpt lat="47.33298" lon="-2.29555">
        <ele>103.59999847412</ele>
        <time>2021-06-13T09:20:23.000Z</time>
      </trkpt>
      <trkpt lat="47.33292" lon="-2.29559">
        <ele>104</ele>
        <time>2021-06-13T09:20:24.000Z</time>
      </trkpt>
      <trkpt lat="47.33286" lon="-2.29563">
        <ele>104.40000152588</ele>
        <time>2021-06-13T09:20:25.000Z</time>
      </trkpt>
      <trkpt lat="47.33267" lon="-2.29575">
        <ele>104.40000152588</ele>
        <time>2021-06-13T09:20:28.000Z</time>
      </trkpt>
      <trkpt lat="47.33249" lon="-2.2959">
        <ele>104.40000152588</ele>
        <time>2021-06-13T09:20:31.000Z</time>
      </trkpt>
      <trkpt lat="47.33239" lon="-2.29605">
        <ele>104.40000152588</ele>
        <time>2021-06-13T09:20:33.000Z</time>
      </trkpt>
      <trkpt lat="47.33232" lon="-2.29622">
        <ele>104.40000152588</ele>
        <time>2021-06-13T09:20:35.000Z</time>
      </trkpt>
      <trkpt lat="47.33229" lon="-2.2963">
        <ele>104.40000152588</ele>
        <time>2021-06-13T09:20:36.000Z</time>
      </trkpt>
      <trkpt lat="47.3322" lon="-2.29645">
        <ele>104.40000152588</ele>
        <time>2021-06-13T09:20:38.000Z</time>
      </trkpt>
      <trkpt lat="47.33204" lon="-2.29662">
        <ele>104.40000152588</ele>
        <time>2021-06-13T09:20:41.000Z</time>
      </trkpt>
      <trkpt lat="47.33192" lon="-2.29672">
        <ele>104.40000152588</ele>
        <time>2021-06-13T09:20:43.000Z</time>
      </trkpt>
      <trkpt lat="47.3318" lon="-2.29679">
        <ele>104.40000152588</ele>
        <time>2021-06-13T09:20:45.000Z</time>
      </trkpt>
      <trkpt lat="47.33167" lon="-2.29683">
        <ele>104.40000152588</ele>
        <time>2021-06-13T09:20:47.000Z</time>
      </trkpt>
      <trkpt lat="47.33134" lon="-2.29692">
        <ele>104.40000152588</ele>
        <time>2021-06-13T09:20:53.000Z</time>
      </trkpt>
      <trkpt lat="47.33097" lon="-2.29701">
        <ele>104.40000152588</ele>
        <time>2021-06-13T09:21:00.000Z</time>
      </trkpt>
      <trkpt lat="47.33061" lon="-2.2971">
        <ele>104.40000152588</ele>
        <time>2021-06-13T09:21:07.000Z</time>
      </trkpt>
      <trkpt lat="47.33046" lon="-2.29713">
        <ele>104.80000305176</ele>
        <time>2021-06-13T09:21:10.000Z</time>
      </trkpt>
      <trkpt lat="47.33041" lon="-2.29715">
        <ele>105.19999694824</ele>
        <time>2021-06-13T09:21:11.000Z</time>
      </trkpt>
      <trkpt lat="47.33036" lon="-2.29716">
        <ele>105.59999847412</ele>
        <time>2021-06-13T09:21:12.000Z</time>
      </trkpt>
      <trkpt lat="47.33032" lon="-2.29717">
        <ele>106</ele>
        <time>2021-06-13T09:21:13.000Z</time>
      </trkpt>
      <trkpt lat="47.33028" lon="-2.29718">
        <ele>106.40000152588</ele>
        <time>2021-06-13T09:21:14.000Z</time>
      </trkpt>
      <trkpt lat="47.33025" lon="-2.29719">
        <ele>106.40000152588</ele>
        <time>2021-06-13T09:21:15.000Z</time>
      </trkpt>
      <trkpt lat="47.33003" lon="-2.29724">
        <ele>106.40000152588</ele>
        <time>2021-06-13T09:21:21.000Z</time>
      </trkpt>
      <trkpt lat="47.32998" lon="-2.29725">
        <ele>106.40000152588</ele>
        <time>2021-06-13T09:21:22.000Z</time>
      </trkpt>
      <trkpt lat="47.32973" lon="-2.29727">
        <ele>106.40000152588</ele>
        <time>2021-06-13T09:21:27.000Z</time>
      </trkpt>
      <trkpt lat="47.32929" lon="-2.29728">
        <ele>106.40000152588</ele>
        <time>2021-06-13T09:21:35.000Z</time>
      </trkpt>
      <trkpt lat="47.32914" lon="-2.29728">
        <ele>106.80000305176</ele>
        <time>2021-06-13T09:21:38.000Z</time>
      </trkpt>
      <trkpt lat="47.32909" lon="-2.29728">
        <ele>107.19999694824</ele>
        <time>2021-06-13T09:21:39.000Z</time>
      </trkpt>
      <trkpt lat="47.32904" lon="-2.29728">
        <ele>107.59999847412</ele>
        <time>2021-06-13T09:21:40.000Z</time>
      </trkpt>
      <trkpt lat="47.32898" lon="-2.29728">
        <ele>108</ele>
        <time>2021-06-13T09:21:41.000Z</time>
      </trkpt>
      <trkpt lat="47.32893" lon="-2.29728">
        <ele>108.59999847412</ele>
        <time>2021-06-13T09:21:42.000Z</time>
      </trkpt>
      <trkpt lat="47.32846" lon="-2.29731">
        <ele>108.59999847412</ele>
        <time>2021-06-13T09:21:51.000Z</time>
      </trkpt>
      <trkpt lat="47.3284" lon="-2.29732">
        <ele>108.59999847412</ele>
        <time>2021-06-13T09:21:52.000Z</time>
      </trkpt>
      <trkpt lat="47.32829" lon="-2.29737">
        <ele>109</ele>
        <time>2021-06-13T09:21:54.000Z</time>
      </trkpt>
      <trkpt lat="47.32824" lon="-2.29739">
        <ele>109.40000152588</ele>
        <time>2021-06-13T09:21:55.000Z</time>
      </trkpt>
      <trkpt lat="47.32819" lon="-2.29742">
        <ele>109.80000305176</ele>
        <time>2021-06-13T09:21:56.000Z</time>
      </trkpt>
      <trkpt lat="47.32815" lon="-2.29745">
        <ele>110.19999694824</ele>
        <time>2021-06-13T09:21:57.000Z</time>
      </trkpt>
      <trkpt lat="47.3281" lon="-2.29749">
        <ele>110.59999847412</ele>
        <time>2021-06-13T09:21:58.000Z</time>
      </trkpt>
      <trkpt lat="47.32781" lon="-2.29777">
        <ele>110.59999847412</ele>
        <time>2021-06-13T09:22:04.000Z</time>
      </trkpt>
      <trkpt lat="47.32744" lon="-2.29815">
        <ele>110.59999847412</ele>
        <time>2021-06-13T09:22:12.000Z</time>
      </trkpt>
      <trkpt lat="47.32718" lon="-2.29832">
        <ele>111</ele>
        <time>2021-06-13T09:22:17.000Z</time>
      </trkpt>
      <trkpt lat="47.32713" lon="-2.29835">
        <ele>111.40000152588</ele>
        <time>2021-06-13T09:22:18.000Z</time>
      </trkpt>
      <trkpt lat="47.32708" lon="-2.29838">
        <ele>111.80000305176</ele>
        <time>2021-06-13T09:22:19.000Z</time>
      </trkpt>
      <trkpt lat="47.32703" lon="-2.29841">
        <ele>112.19999694824</ele>
        <time>2021-06-13T09:22:20.000Z</time>
      </trkpt>
      <trkpt lat="47.32697" lon="-2.29843">
        <ele>112.59999847412</ele>
        <time>2021-06-13T09:22:21.000Z</time>
      </trkpt>
      <trkpt lat="47.32681" lon="-2.29848">
        <ele>112.59999847412</ele>
        <time>2021-06-13T09:22:24.000Z</time>
      </trkpt>
      <trkpt lat="47.32648" lon="-2.29859">
        <ele>112.59999847412</ele>
        <time>2021-06-13T09:22:30.000Z</time>
      </trkpt>
      <trkpt lat="47.32626" lon="-2.2987">
        <ele>113</ele>
        <time>2021-06-13T09:22:34.000Z</time>
      </trkpt>
      <trkpt lat="47.32621" lon="-2.29873">
        <ele>113.40000152588</ele>
        <time>2021-06-13T09:22:35.000Z</time>
      </trkpt>
      <trkpt lat="47.32615" lon="-2.29876">
        <ele>113.80000305176</ele>
        <time>2021-06-13T09:22:36.000Z</time>
      </trkpt>
      <trkpt lat="47.3261" lon="-2.29879">
        <ele>114.19999694824</ele>
        <time>2021-06-13T09:22:37.000Z</time>
      </trkpt>
      <trkpt lat="47.32604" lon="-2.29882">
        <ele>114.59999847412</ele>
        <time>2021-06-13T09:22:38.000Z</time>
      </trkpt>
      <trkpt lat="47.32578" lon="-2.2989">
        <ele>114.59999847412</ele>
        <time>2021-06-13T09:22:43.000Z</time>
      </trkpt>
      <trkpt lat="47.32552" lon="-2.29895">
        <ele>114.59999847412</ele>
        <time>2021-06-13T09:22:49.000Z</time>
      </trkpt>
      <trkpt lat="47.32529" lon="-2.29902">
        <ele>114.59999847412</ele>
        <time>2021-06-13T09:22:54.000Z</time>
      </trkpt>
      <trkpt lat="47.32521" lon="-2.29904">
        <ele>114.59999847412</ele>
        <time>2021-06-13T09:22:56.000Z</time>
      </trkpt>
      <trkpt lat="47.3249" lon="-2.29914">
        <ele>114.59999847412</ele>
        <time>2021-06-13T09:23:04.000Z</time>
      </trkpt>
      <trkpt lat="47.32464" lon="-2.29923">
        <ele>114.59999847412</ele>
        <time>2021-06-13T09:23:11.000Z</time>
      </trkpt>
      <trkpt lat="47.32453" lon="-2.29919">
        <ele>114.59999847412</ele>
        <time>2021-06-13T09:23:14.000Z</time>
      </trkpt>
      <trkpt lat="47.32447" lon="-2.29912">
        <ele>114.59999847412</ele>
        <time>2021-06-13T09:23:16.000Z</time>
      </trkpt>
      <trkpt lat="47.32442" lon="-2.29893">
        <ele>114.59999847412</ele>
        <time>2021-06-13T09:23:19.000Z</time>
      </trkpt>
      <trkpt lat="47.32443" lon="-2.29865">
        <ele>114.59999847412</ele>
        <time>2021-06-13T09:23:23.000Z</time>
      </trkpt>
      <trkpt lat="47.32453" lon="-2.29851">
        <ele>114.59999847412</ele>
        <time>2021-06-13T09:23:26.000Z</time>
      </trkpt>
      <trkpt lat="47.32457" lon="-2.29847">
        <ele>114.59999847412</ele>
        <time>2021-06-13T09:23:27.000Z</time>
      </trkpt>
      <trkpt lat="47.32491" lon="-2.29819">
        <ele>114.59999847412</ele>
        <time>2021-06-13T09:23:34.000Z</time>
      </trkpt>
      <trkpt lat="47.32512" lon="-2.29802">
        <ele>114.59999847412</ele>
        <time>2021-06-13T09:23:38.000Z</time>
      </trkpt>
      <trkpt lat="47.32516" lon="-2.29795">
        <ele>114.59999847412</ele>
        <time>2021-06-13T09:23:39.000Z</time>
      </trkpt>
      <trkpt lat="47.32522" lon="-2.2976">
        <ele>114.59999847412</ele>
        <time>2021-06-13T09:23:43.000Z</time>
      </trkpt>
      <trkpt lat="47.32522" lon="-2.29752">
        <ele>114.59999847412</ele>
        <time>2021-06-13T09:23:44.000Z</time>
      </trkpt>
      <trkpt lat="47.32519" lon="-2.29743">
        <ele>114.59999847412</ele>
        <time>2021-06-13T09:23:45.000Z</time>
      </trkpt>
      <trkpt lat="47.32514" lon="-2.29725">
        <ele>114.59999847412</ele>
        <time>2021-06-13T09:23:47.000Z</time>
      </trkpt>
      <trkpt lat="47.32506" lon="-2.29698">
        <ele>114.59999847412</ele>
        <time>2021-06-13T09:23:50.000Z</time>
      </trkpt>
      <trkpt lat="47.32497" lon="-2.29668">
        <ele>114.59999847412</ele>
        <time>2021-06-13T09:23:53.000Z</time>
      </trkpt>
      <trkpt lat="47.32483" lon="-2.29615">
        <ele>114.59999847412</ele>
        <time>2021-06-13T09:23:58.000Z</time>
      </trkpt>
      <trkpt lat="47.32471" lon="-2.29568">
        <ele>114.19999694824</ele>
        <time>2021-06-13T09:24:02.000Z</time>
      </trkpt>
      <trkpt lat="47.32467" lon="-2.29556">
        <ele>113.80000305176</ele>
        <time>2021-06-13T09:24:03.000Z</time>
      </trkpt>
      <trkpt lat="47.32463" lon="-2.29543">
        <ele>113.19999694824</ele>
        <time>2021-06-13T09:24:04.000Z</time>
      </trkpt>
      <trkpt lat="47.32458" lon="-2.2953">
        <ele>112.80000305176</ele>
        <time>2021-06-13T09:24:05.000Z</time>
      </trkpt>
      <trkpt lat="47.32454" lon="-2.29518">
        <ele>112.40000152588</ele>
        <time>2021-06-13T09:24:06.000Z</time>
      </trkpt>
      <trkpt lat="47.3245" lon="-2.29505">
        <ele>112</ele>
        <time>2021-06-13T09:24:07.000Z</time>
      </trkpt>
      <trkpt lat="47.32446" lon="-2.29493">
        <ele>111.59999847412</ele>
        <time>2021-06-13T09:24:08.000Z</time>
      </trkpt>
      <trkpt lat="47.32442" lon="-2.29481">
        <ele>111.19999694824</ele>
        <time>2021-06-13T09:24:09.000Z</time>
      </trkpt>
      <trkpt lat="47.32439" lon="-2.29469">
        <ele>110.80000305176</ele>
        <time>2021-06-13T09:24:10.000Z</time>
      </trkpt>
      <trkpt lat="47.32436" lon="-2.29458">
        <ele>110.19999694824</ele>
        <time>2021-06-13T09:24:11.000Z</time>
      </trkpt>
      <trkpt lat="47.32435" lon="-2.29447">
        <ele>109.59999847412</ele>
        <time>2021-06-13T09:24:12.000Z</time>
      </trkpt>
      <trkpt lat="47.32435" lon="-2.29436">
        <ele>109.19999694824</ele>
        <time>2021-06-13T09:24:13.000Z</time>
      </trkpt>
      <trkpt lat="47.32434" lon="-2.29425">
        <ele>108.59999847412</ele>
        <time>2021-06-13T09:24:14.000Z</time>
      </trkpt>
      <trkpt lat="47.32433" lon="-2.29414">
        <ele>108.19999694824</ele>
        <time>2021-06-13T09:24:15.000Z</time>
      </trkpt>
      <trkpt lat="47.32431" lon="-2.29403">
        <ele>107.59999847412</ele>
        <time>2021-06-13T09:24:16.000Z</time>
      </trkpt>
      <trkpt lat="47.32429" lon="-2.29392">
        <ele>106.59999847412</ele>
        <time>2021-06-13T09:24:17.000Z</time>
      </trkpt>
      <trkpt lat="47.32427" lon="-2.29381">
        <ele>106</ele>
        <time>2021-06-13T09:24:18.000Z</time>
      </trkpt>
      <trkpt lat="47.32421" lon="-2.29347">
        <ele>106</ele>
        <time>2021-06-13T09:24:21.000Z</time>
      </trkpt>
      <trkpt lat="47.32411" lon="-2.29287">
        <ele>105.59999847412</ele>
        <time>2021-06-13T09:24:27.000Z</time>
      </trkpt>
      <trkpt lat="47.32408" lon="-2.29278">
        <ele>105.19999694824</ele>
        <time>2021-06-13T09:24:28.000Z</time>
      </trkpt>
      <trkpt lat="47.32405" lon="-2.2927">
        <ele>104.80000305176</ele>
        <time>2021-06-13T09:24:29.000Z</time>
      </trkpt>
      <trkpt lat="47.324" lon="-2.29264">
        <ele>104.40000152588</ele>
        <time>2021-06-13T09:24:30.000Z</time>
      </trkpt>
      <trkpt lat="47.32394" lon="-2.29259">
        <ele>104</ele>
        <time>2021-06-13T09:24:31.000Z</time>
      </trkpt>
      <trkpt lat="47.32381" lon="-2.29252">
        <ele>104</ele>
        <time>2021-06-13T09:24:33.000Z</time>
      </trkpt>
      <trkpt lat="47.32375" lon="-2.29249">
        <ele>104</ele>
        <time>2021-06-13T09:24:34.000Z</time>
      </trkpt>
      <trkpt lat="47.32332" lon="-2.29227">
        <ele>104</ele>
        <time>2021-06-13T09:24:41.000Z</time>
      </trkpt>
      <trkpt lat="47.32327" lon="-2.29224">
        <ele>104</ele>
        <time>2021-06-13T09:24:42.000Z</time>
      </trkpt>
      <trkpt lat="47.32312" lon="-2.29215">
        <ele>104</ele>
        <time>2021-06-13T09:24:45.000Z</time>
      </trkpt>
      <trkpt lat="47.32302" lon="-2.29214">
        <ele>104</ele>
        <time>2021-06-13T09:24:47.000Z</time>
      </trkpt>
      <trkpt lat="47.32264" lon="-2.29223">
        <ele>104</ele>
        <time>2021-06-13T09:24:54.000Z</time>
      </trkpt>
      <trkpt lat="47.3225" lon="-2.29226">
        <ele>104</ele>
        <time>2021-06-13T09:24:57.000Z</time>
      </trkpt>
      <trkpt lat="47.32247" lon="-2.29225">
        <ele>104</ele>
        <time>2021-06-13T09:24:58.000Z</time>
      </trkpt>
      <trkpt lat="47.32236" lon="-2.29211">
        <ele>104</ele>
        <time>2021-06-13T09:25:02.000Z</time>
      </trkpt>
      <trkpt lat="47.32221" lon="-2.29181">
        <ele>104</ele>
        <time>2021-06-13T09:25:08.000Z</time>
      </trkpt>
      <trkpt lat="47.32214" lon="-2.29171">
        <ele>104</ele>
        <time>2021-06-13T09:25:10.000Z</time>
      </trkpt>
      <trkpt lat="47.32202" lon="-2.29158">
        <ele>104</ele>
        <time>2021-06-13T09:25:13.000Z</time>
      </trkpt>
      <trkpt lat="47.32174" lon="-2.2913">
        <ele>104</ele>
        <time>2021-06-13T09:25:20.000Z</time>
      </trkpt>
      <trkpt lat="47.32165" lon="-2.29123">
        <ele>104</ele>
        <time>2021-06-13T09:25:22.000Z</time>
      </trkpt>
      <trkpt lat="47.32151" lon="-2.29104">
        <ele>104</ele>
        <time>2021-06-13T09:25:26.000Z</time>
      </trkpt>
      <trkpt lat="47.32141" lon="-2.29076">
        <ele>104</ele>
        <time>2021-06-13T09:25:30.000Z</time>
      </trkpt>
      <trkpt lat="47.32138" lon="-2.29067">
        <ele>104</ele>
        <time>2021-06-13T09:25:31.000Z</time>
      </trkpt>
      <trkpt lat="47.32123" lon="-2.29026">
        <ele>104</ele>
        <time>2021-06-13T09:25:36.000Z</time>
      </trkpt>
      <trkpt lat="47.32116" lon="-2.29013">
        <ele>104</ele>
        <time>2021-06-13T09:25:38.000Z</time>
      </trkpt>
      <trkpt lat="47.32108" lon="-2.28998">
        <ele>104</ele>
        <time>2021-06-13T09:25:41.000Z</time>
      </trkpt>
      <trkpt lat="47.32096" lon="-2.2898">
        <ele>104</ele>
        <time>2021-06-13T09:25:44.000Z</time>
      </trkpt>
      <trkpt lat="47.32091" lon="-2.28975">
        <ele>104</ele>
        <time>2021-06-13T09:25:45.000Z</time>
      </trkpt>
      <trkpt lat="47.32086" lon="-2.28971">
        <ele>103.59999847412</ele>
        <time>2021-06-13T09:25:46.000Z</time>
      </trkpt>
      <trkpt lat="47.3208" lon="-2.28967">
        <ele>103.19999694824</ele>
        <time>2021-06-13T09:25:47.000Z</time>
      </trkpt>
      <trkpt lat="47.32075" lon="-2.28963">
        <ele>102.80000305176</ele>
        <time>2021-06-13T09:25:48.000Z</time>
      </trkpt>
      <trkpt lat="47.32069" lon="-2.28959">
        <ele>102.40000152588</ele>
        <time>2021-06-13T09:25:49.000Z</time>
      </trkpt>
      <trkpt lat="47.32063" lon="-2.28954">
        <ele>102</ele>
        <time>2021-06-13T09:25:50.000Z</time>
      </trkpt>
      <trkpt lat="47.32058" lon="-2.28949">
        <ele>102</ele>
        <time>2021-06-13T09:25:51.000Z</time>
      </trkpt>
      <trkpt lat="47.32048" lon="-2.28927">
        <ele>102</ele>
        <time>2021-06-13T09:25:54.000Z</time>
      </trkpt>
      <trkpt lat="47.32046" lon="-2.28918">
        <ele>102</ele>
        <time>2021-06-13T09:25:55.000Z</time>
      </trkpt>
      <trkpt lat="47.32041" lon="-2.28884">
        <ele>102</ele>
        <time>2021-06-13T09:25:59.000Z</time>
      </trkpt>
      <trkpt lat="47.32039" lon="-2.28877">
        <ele>102</ele>
        <time>2021-06-13T09:26:00.000Z</time>
      </trkpt>
      <trkpt lat="47.32027" lon="-2.2887">
        <ele>102</ele>
        <time>2021-06-13T09:26:03.000Z</time>
      </trkpt>
      <trkpt lat="47.32017" lon="-2.28876">
        <ele>102</ele>
        <time>2021-06-13T09:26:05.000Z</time>
      </trkpt>
      <trkpt lat="47.32006" lon="-2.28881">
        <ele>102</ele>
        <time>2021-06-13T09:26:07.000Z</time>
      </trkpt>
      <trkpt lat="47.3197" lon="-2.28891">
        <ele>102</ele>
        <time>2021-06-13T09:26:13.000Z</time>
      </trkpt>
      <trkpt lat="47.31942" lon="-2.289">
        <ele>102</ele>
        <time>2021-06-13T09:26:18.000Z</time>
      </trkpt>
      <trkpt lat="47.31938" lon="-2.28903">
        <ele>102</ele>
        <time>2021-06-13T09:26:19.000Z</time>
      </trkpt>
      <trkpt lat="47.31915" lon="-2.28925">
        <ele>102</ele>
        <time>2021-06-13T09:26:24.000Z</time>
      </trkpt>
      <trkpt lat="47.31902" lon="-2.28936">
        <ele>102</ele>
        <time>2021-06-13T09:26:27.000Z</time>
      </trkpt>
      <trkpt lat="47.31894" lon="-2.28938">
        <ele>102</ele>
        <time>2021-06-13T09:26:29.000Z</time>
      </trkpt>
      <trkpt lat="47.31868" lon="-2.2894">
        <ele>102</ele>
        <time>2021-06-13T09:26:36.000Z</time>
      </trkpt>
      <trkpt lat="47.31864" lon="-2.28943">
        <ele>102</ele>
        <time>2021-06-13T09:26:37.000Z</time>
      </trkpt>
      <trkpt lat="47.31859" lon="-2.28949">
        <ele>102</ele>
        <time>2021-06-13T09:26:39.000Z</time>
      </trkpt>
      <trkpt lat="47.31857" lon="-2.28967">
        <ele>102</ele>
        <time>2021-06-13T09:26:42.000Z</time>
      </trkpt>
      <trkpt lat="47.31852" lon="-2.2902">
        <ele>102</ele>
        <time>2021-06-13T09:26:48.000Z</time>
      </trkpt>
      <trkpt lat="47.31844" lon="-2.29069">
        <ele>102</ele>
        <time>2021-06-13T09:26:54.000Z</time>
      </trkpt>
      <trkpt lat="47.31841" lon="-2.29087">
        <ele>102.40000152588</ele>
        <time>2021-06-13T09:26:56.000Z</time>
      </trkpt>
      <trkpt lat="47.31839" lon="-2.29095">
        <ele>102.80000305176</ele>
        <time>2021-06-13T09:26:57.000Z</time>
      </trkpt>
      <trkpt lat="47.31838" lon="-2.29103">
        <ele>103.19999694824</ele>
        <time>2021-06-13T09:26:58.000Z</time>
      </trkpt>
      <trkpt lat="47.31837" lon="-2.29111">
        <ele>103.59999847412</ele>
        <time>2021-06-13T09:26:59.000Z</time>
      </trkpt>
      <trkpt lat="47.31836" lon="-2.29119">
        <ele>104</ele>
        <time>2021-06-13T09:27:00.000Z</time>
      </trkpt>
      <trkpt lat="47.31828" lon="-2.29174">
        <ele>104</ele>
        <time>2021-06-13T09:27:07.000Z</time>
      </trkpt>
      <trkpt lat="47.31827" lon="-2.29182">
        <ele>104.40000152588</ele>
        <time>2021-06-13T09:27:08.000Z</time>
      </trkpt>
      <trkpt lat="47.31827" lon="-2.2919">
        <ele>104.80000305176</ele>
        <time>2021-06-13T09:27:09.000Z</time>
      </trkpt>
      <trkpt lat="47.31826" lon="-2.29197">
        <ele>105.19999694824</ele>
        <time>2021-06-13T09:27:10.000Z</time>
      </trkpt>
      <trkpt lat="47.31826" lon="-2.29204">
        <ele>106.19999694824</ele>
        <time>2021-06-13T09:27:11.000Z</time>
      </trkpt>
      <trkpt lat="47.31826" lon="-2.2921">
        <ele>106.19999694824</ele>
        <time>2021-06-13T09:27:12.000Z</time>
      </trkpt>
      <trkpt lat="47.31826" lon="-2.29217">
        <ele>106.19999694824</ele>
        <time>2021-06-13T09:27:13.000Z</time>
      </trkpt>
      <trkpt lat="47.31831" lon="-2.29263">
        <ele>106.19999694824</ele>
        <time>2021-06-13T09:27:20.000Z</time>
      </trkpt>
      <trkpt lat="47.31832" lon="-2.29276">
        <ele>106.59999847412</ele>
        <time>2021-06-13T09:27:22.000Z</time>
      </trkpt>
      <trkpt lat="47.31833" lon="-2.29283">
        <ele>107</ele>
        <time>2021-06-13T09:27:23.000Z</time>
      </trkpt>
      <trkpt lat="47.31833" lon="-2.29289">
        <ele>107.40000152588</ele>
        <time>2021-06-13T09:27:24.000Z</time>
      </trkpt>
      <trkpt lat="47.31834" lon="-2.29296">
        <ele>107.80000305176</ele>
        <time>2021-06-13T09:27:25.000Z</time>
      </trkpt>
      <trkpt lat="47.31834" lon="-2.29303">
        <ele>108.19999694824</ele>
        <time>2021-06-13T09:27:26.000Z</time>
      </trkpt>
      <trkpt lat="47.31835" lon="-2.29323">
        <ele>108.19999694824</ele>
        <time>2021-06-13T09:27:29.000Z</time>
      </trkpt>
      <trkpt lat="47.31843" lon="-2.29372">
        <ele>108.19999694824</ele>
        <time>2021-06-13T09:27:36.000Z</time>
      </trkpt>
      <trkpt lat="47.31849" lon="-2.29409">
        <ele>108.59999847412</ele>
        <time>2021-06-13T09:27:41.000Z</time>
      </trkpt>
      <trkpt lat="47.3185" lon="-2.29417">
        <ele>109</ele>
        <time>2021-06-13T09:27:42.000Z</time>
      </trkpt>
      <trkpt lat="47.3185" lon="-2.29425">
        <ele>109.40000152588</ele>
        <time>2021-06-13T09:27:43.000Z</time>
      </trkpt>
      <trkpt lat="47.3185" lon="-2.29433">
        <ele>110</ele>
        <time>2021-06-13T09:27:44.000Z</time>
      </trkpt>
      <trkpt lat="47.3185" lon="-2.2944">
        <ele>110.40000152588</ele>
        <time>2021-06-13T09:27:45.000Z</time>
      </trkpt>
      <trkpt lat="47.31849" lon="-2.29447">
        <ele>110.40000152588</ele>
        <time>2021-06-13T09:27:46.000Z</time>
      </trkpt>
      <trkpt lat="47.31847" lon="-2.29462">
        <ele>110.40000152588</ele>
        <time>2021-06-13T09:27:48.000Z</time>
      </trkpt>
      <trkpt lat="47.31846" lon="-2.29485">
        <ele>110.40000152588</ele>
        <time>2021-06-13T09:27:51.000Z</time>
      </trkpt>
      <trkpt lat="47.31848" lon="-2.295">
        <ele>110.40000152588</ele>
        <time>2021-06-13T09:27:53.000Z</time>
      </trkpt>
      <trkpt lat="47.31852" lon="-2.29516">
        <ele>110.40000152588</ele>
        <time>2021-06-13T09:27:55.000Z</time>
      </trkpt>
      <trkpt lat="47.31861" lon="-2.29545">
        <ele>110.40000152588</ele>
        <time>2021-06-13T09:27:59.000Z</time>
      </trkpt>
      <trkpt lat="47.31872" lon="-2.2959">
        <ele>110.40000152588</ele>
        <time>2021-06-13T09:28:05.000Z</time>
      </trkpt>
      <trkpt lat="47.31871" lon="-2.29597">
        <ele>110.40000152588</ele>
        <time>2021-06-13T09:28:06.000Z</time>
      </trkpt>
      <trkpt lat="47.3186" lon="-2.29621">
        <ele>110.40000152588</ele>
        <time>2021-06-13T09:28:10.000Z</time>
      </trkpt>
      <trkpt lat="47.31839" lon="-2.29635">
        <ele>110.40000152588</ele>
        <time>2021-06-13T09:28:14.000Z</time>
      </trkpt>
      <trkpt lat="47.31816" lon="-2.29649">
        <ele>110.40000152588</ele>
        <time>2021-06-13T09:28:18.000Z</time>
      </trkpt>
      <trkpt lat="47.31804" lon="-2.29658">
        <ele>110.40000152588</ele>
        <time>2021-06-13T09:28:20.000Z</time>
      </trkpt>
      <trkpt lat="47.31759" lon="-2.29692">
        <ele>110.40000152588</ele>
        <time>2021-06-13T09:28:28.000Z</time>
      </trkpt>
      <trkpt lat="47.31726" lon="-2.29718">
        <ele>110.40000152588</ele>
        <time>2021-06-13T09:28:34.000Z</time>
      </trkpt>
      <trkpt lat="47.31705" lon="-2.29733">
        <ele>110.80000305176</ele>
        <time>2021-06-13T09:28:38.000Z</time>
      </trkpt>
      <trkpt lat="47.317" lon="-2.29735">
        <ele>111.19999694824</ele>
        <time>2021-06-13T09:28:39.000Z</time>
      </trkpt>
      <trkpt lat="47.31694" lon="-2.29738">
        <ele>111.59999847412</ele>
        <time>2021-06-13T09:28:40.000Z</time>
      </trkpt>
      <trkpt lat="47.31689" lon="-2.2974">
        <ele>112</ele>
        <time>2021-06-13T09:28:41.000Z</time>
      </trkpt>
      <trkpt lat="47.31683" lon="-2.29742">
        <ele>112.40000152588</ele>
        <time>2021-06-13T09:28:42.000Z</time>
      </trkpt>
      <trkpt lat="47.31671" lon="-2.29744">
        <ele>112.40000152588</ele>
        <time>2021-06-13T09:28:44.000Z</time>
      </trkpt>
      <trkpt lat="47.31665" lon="-2.29743">
        <ele>112.40000152588</ele>
        <time>2021-06-13T09:28:45.000Z</time>
      </trkpt>
      <trkpt lat="47.31656" lon="-2.29732">
        <ele>112.40000152588</ele>
        <time>2021-06-13T09:28:47.000Z</time>
      </trkpt>
      <trkpt lat="47.3165" lon="-2.29715">
        <ele>112.40000152588</ele>
        <time>2021-06-13T09:28:49.000Z</time>
      </trkpt>
      <trkpt lat="47.31641" lon="-2.29688">
        <ele>112.40000152588</ele>
        <time>2021-06-13T09:28:52.000Z</time>
      </trkpt>
      <trkpt lat="47.31635" lon="-2.29672">
        <ele>112.40000152588</ele>
        <time>2021-06-13T09:28:54.000Z</time>
      </trkpt>
      <trkpt lat="47.31624" lon="-2.29648">
        <ele>112.40000152588</ele>
        <time>2021-06-13T09:28:57.000Z</time>
      </trkpt>
      <trkpt lat="47.31607" lon="-2.29617">
        <ele>112.40000152588</ele>
        <time>2021-06-13T09:29:01.000Z</time>
      </trkpt>
      <trkpt lat="47.31598" lon="-2.29607">
        <ele>112.40000152588</ele>
        <time>2021-06-13T09:29:03.000Z</time>
      </trkpt>
      <trkpt lat="47.31577" lon="-2.29585">
        <ele>112.40000152588</ele>
        <time>2021-06-13T09:29:07.000Z</time>
      </trkpt>
      <trkpt lat="47.31573" lon="-2.29578">
        <ele>112.40000152588</ele>
        <time>2021-06-13T09:29:08.000Z</time>
      </trkpt>
      <trkpt lat="47.31549" lon="-2.29535">
        <ele>112.40000152588</ele>
        <time>2021-06-13T09:29:14.000Z</time>
      </trkpt>
      <trkpt lat="47.31546" lon="-2.29526">
        <ele>112.40000152588</ele>
        <time>2021-06-13T09:29:15.000Z</time>
      </trkpt>
      <trkpt lat="47.31541" lon="-2.29499">
        <ele>112.40000152588</ele>
        <time>2021-06-13T09:29:18.000Z</time>
      </trkpt>
      <trkpt lat="47.31539" lon="-2.2949">
        <ele>112.40000152588</ele>
        <time>2021-06-13T09:29:19.000Z</time>
      </trkpt>
      <trkpt lat="47.3153" lon="-2.29453">
        <ele>112.40000152588</ele>
        <time>2021-06-13T09:29:23.000Z</time>
      </trkpt>
      <trkpt lat="47.31526" lon="-2.29444">
        <ele>112</ele>
        <time>2021-06-13T09:29:24.000Z</time>
      </trkpt>
      <trkpt lat="47.31522" lon="-2.29436">
        <ele>111.59999847412</ele>
        <time>2021-06-13T09:29:25.000Z</time>
      </trkpt>
      <trkpt lat="47.31519" lon="-2.29428">
        <ele>111.19999694824</ele>
        <time>2021-06-13T09:29:26.000Z</time>
      </trkpt>
      <trkpt lat="47.31514" lon="-2.2942">
        <ele>110.80000305176</ele>
        <time>2021-06-13T09:29:27.000Z</time>
      </trkpt>
      <trkpt lat="47.3151" lon="-2.29413">
        <ele>110.40000152588</ele>
        <time>2021-06-13T09:29:28.000Z</time>
      </trkpt>
      <trkpt lat="47.31506" lon="-2.29406">
        <ele>110.40000152588</ele>
        <time>2021-06-13T09:29:29.000Z</time>
      </trkpt>
      <trkpt lat="47.31501" lon="-2.294">
        <ele>110.40000152588</ele>
        <time>2021-06-13T09:29:30.000Z</time>
      </trkpt>
      <trkpt lat="47.31485" lon="-2.29395">
        <ele>110.40000152588</ele>
        <time>2021-06-13T09:29:33.000Z</time>
      </trkpt>
      <trkpt lat="47.3148" lon="-2.29395">
        <ele>110</ele>
        <time>2021-06-13T09:29:34.000Z</time>
      </trkpt>
      <trkpt lat="47.31475" lon="-2.29396">
        <ele>109.59999847412</ele>
        <time>2021-06-13T09:29:35.000Z</time>
      </trkpt>
      <trkpt lat="47.3147" lon="-2.29396">
        <ele>109.19999694824</ele>
        <time>2021-06-13T09:29:36.000Z</time>
      </trkpt>
      <trkpt lat="47.31464" lon="-2.29396">
        <ele>108.80000305176</ele>
        <time>2021-06-13T09:29:37.000Z</time>
      </trkpt>
      <trkpt lat="47.31458" lon="-2.29394">
        <ele>108.40000152588</ele>
        <time>2021-06-13T09:29:38.000Z</time>
      </trkpt>
      <trkpt lat="47.31442" lon="-2.29379">
        <ele>108.40000152588</ele>
        <time>2021-06-13T09:29:41.000Z</time>
      </trkpt>
      <trkpt lat="47.31432" lon="-2.29364">
        <ele>108.40000152588</ele>
        <time>2021-06-13T09:29:43.000Z</time>
      </trkpt>
      <trkpt lat="47.31411" lon="-2.29335">
        <ele>108.40000152588</ele>
        <time>2021-06-13T09:29:47.000Z</time>
      </trkpt>
      <trkpt lat="47.31405" lon="-2.29328">
        <ele>108.40000152588</ele>
        <time>2021-06-13T09:29:48.000Z</time>
      </trkpt>
      <trkpt lat="47.31383" lon="-2.29319">
        <ele>108</ele>
        <time>2021-06-13T09:29:51.000Z</time>
      </trkpt>
      <trkpt lat="47.31375" lon="-2.29316">
        <ele>107.59999847412</ele>
        <time>2021-06-13T09:29:52.000Z</time>
      </trkpt>
      <trkpt lat="47.31368" lon="-2.29313">
        <ele>107.19999694824</ele>
        <time>2021-06-13T09:29:53.000Z</time>
      </trkpt>
      <trkpt lat="47.31361" lon="-2.2931">
        <ele>106.80000305176</ele>
        <time>2021-06-13T09:29:54.000Z</time>
      </trkpt>
      <trkpt lat="47.31353" lon="-2.29307">
        <ele>106.40000152588</ele>
        <time>2021-06-13T09:29:55.000Z</time>
      </trkpt>
      <trkpt lat="47.3134" lon="-2.29301">
        <ele>106.40000152588</ele>
        <time>2021-06-13T09:29:57.000Z</time>
      </trkpt>
      <trkpt lat="47.31326" lon="-2.29298">
        <ele>106.40000152588</ele>
        <time>2021-06-13T09:29:59.000Z</time>
      </trkpt>
      <trkpt lat="47.31313" lon="-2.29296">
        <ele>106.40000152588</ele>
        <time>2021-06-13T09:30:01.000Z</time>
      </trkpt>
      <trkpt lat="47.31299" lon="-2.29299">
        <ele>106.40000152588</ele>
        <time>2021-06-13T09:30:03.000Z</time>
      </trkpt>
      <trkpt lat="47.31292" lon="-2.29303">
        <ele>106</ele>
        <time>2021-06-13T09:30:04.000Z</time>
      </trkpt>
      <trkpt lat="47.31287" lon="-2.29308">
        <ele>105.40000152588</ele>
        <time>2021-06-13T09:30:05.000Z</time>
      </trkpt>
      <trkpt lat="47.31284" lon="-2.29313">
        <ele>105</ele>
        <time>2021-06-13T09:30:06.000Z</time>
      </trkpt>
      <trkpt lat="47.31281" lon="-2.29317">
        <ele>104.59999847412</ele>
        <time>2021-06-13T09:30:07.000Z</time>
      </trkpt>
      <trkpt lat="47.31279" lon="-2.29321">
        <ele>104.19999694824</ele>
        <time>2021-06-13T09:30:08.000Z</time>
      </trkpt>
      <trkpt lat="47.31276" lon="-2.29328">
        <ele>104.19999694824</ele>
        <time>2021-06-13T09:30:10.000Z</time>
      </trkpt>
      <trkpt lat="47.31273" lon="-2.29339">
        <ele>104.19999694824</ele>
        <time>2021-06-13T09:30:15.000Z</time>
      </trkpt>
      <trkpt lat="47.31265" lon="-2.2935">
        <ele>104.19999694824</ele>
        <time>2021-06-13T09:30:21.000Z</time>
      </trkpt>
      <trkpt lat="47.31263" lon="-2.2936">
        <ele>104.19999694824</ele>
        <time>2021-06-13T09:30:23.000Z</time>
      </trkpt>
      <trkpt lat="47.3126" lon="-2.2937">
        <ele>104.19999694824</ele>
        <time>2021-06-13T09:30:25.000Z</time>
      </trkpt>
      <trkpt lat="47.31258" lon="-2.29375">
        <ele>104.19999694824</ele>
        <time>2021-06-13T09:30:26.000Z</time>
      </trkpt>
      <trkpt lat="47.31246" lon="-2.29389">
        <ele>104.19999694824</ele>
        <time>2021-06-13T09:30:29.000Z</time>
      </trkpt>
      <trkpt lat="47.31241" lon="-2.29393">
        <ele>104.19999694824</ele>
        <time>2021-06-13T09:30:30.000Z</time>
      </trkpt>
      <trkpt lat="47.31218" lon="-2.2941">
        <ele>104.19999694824</ele>
        <time>2021-06-13T09:30:34.000Z</time>
      </trkpt>
      <trkpt lat="47.3118" lon="-2.29437">
        <ele>104.19999694824</ele>
        <time>2021-06-13T09:30:40.000Z</time>
      </trkpt>
      <trkpt lat="47.3115" lon="-2.29466">
        <ele>104.19999694824</ele>
        <time>2021-06-13T09:30:45.000Z</time>
      </trkpt>
      <trkpt lat="47.31146" lon="-2.29474">
        <ele>104.19999694824</ele>
        <time>2021-06-13T09:30:46.000Z</time>
      </trkpt>
      <trkpt lat="47.31145" lon="-2.29482">
        <ele>103.59999847412</ele>
        <time>2021-06-13T09:30:47.000Z</time>
      </trkpt>
      <trkpt lat="47.31144" lon="-2.2949">
        <ele>103.19999694824</ele>
        <time>2021-06-13T09:30:48.000Z</time>
      </trkpt>
      <trkpt lat="47.31145" lon="-2.29499">
        <ele>102.80000305176</ele>
        <time>2021-06-13T09:30:49.000Z</time>
      </trkpt>
      <trkpt lat="47.31145" lon="-2.29507">
        <ele>102.40000152588</ele>
        <time>2021-06-13T09:30:50.000Z</time>
      </trkpt>
      <trkpt lat="47.31147" lon="-2.29515">
        <ele>102</ele>
        <time>2021-06-13T09:30:51.000Z</time>
      </trkpt>
      <trkpt lat="47.31149" lon="-2.29524">
        <ele>102</ele>
        <time>2021-06-13T09:30:52.000Z</time>
      </trkpt>
      <trkpt lat="47.31154" lon="-2.29542">
        <ele>102</ele>
        <time>2021-06-13T09:30:54.000Z</time>
      </trkpt>
      <trkpt lat="47.31165" lon="-2.29576">
        <ele>102</ele>
        <time>2021-06-13T09:30:58.000Z</time>
      </trkpt>
      <trkpt lat="47.31165" lon="-2.29583">
        <ele>102</ele>
        <time>2021-06-13T09:30:59.000Z</time>
      </trkpt>
      <trkpt lat="47.31156" lon="-2.29599">
        <ele>102</ele>
        <time>2021-06-13T09:31:02.000Z</time>
      </trkpt>
      <trkpt lat="47.31151" lon="-2.29603">
        <ele>102</ele>
        <time>2021-06-13T09:31:03.000Z</time>
      </trkpt>
      <trkpt lat="47.31123" lon="-2.29624">
        <ele>102</ele>
        <time>2021-06-13T09:31:08.000Z</time>
      </trkpt>
      <trkpt lat="47.31095" lon="-2.29655">
        <ele>102</ele>
        <time>2021-06-13T09:31:14.000Z</time>
      </trkpt>
      <trkpt lat="47.31061" lon="-2.2969">
        <ele>102</ele>
        <time>2021-06-13T09:31:21.000Z</time>
      </trkpt>
      <trkpt lat="47.31048" lon="-2.29699">
        <ele>102</ele>
        <time>2021-06-13T09:31:25.000Z</time>
      </trkpt>
      <trkpt lat="47.31041" lon="-2.297">
        <ele>102</ele>
        <time>2021-06-13T09:31:30.000Z</time>
      </trkpt>
      <trkpt lat="47.31042" lon="-2.297">
        <ele>102</ele>
        <time>2021-06-13T09:31:31.000Z</time>
      </trkpt>
      <trkpt lat="47.31039" lon="-2.29699">
        <ele>102</ele>
        <time>2021-06-13T09:31:34.000Z</time>
      </trkpt>
      <trkpt lat="47.31037" lon="-2.29696">
        <ele>102</ele>
        <time>2021-06-13T09:31:35.000Z</time>
      </trkpt>
      <trkpt lat="47.31026" lon="-2.29676">
        <ele>102</ele>
        <time>2021-06-13T09:31:40.000Z</time>
      </trkpt>
      <trkpt lat="47.31014" lon="-2.29639">
        <ele>102</ele>
        <time>2021-06-13T09:31:45.000Z</time>
      </trkpt>
      <trkpt lat="47.30998" lon="-2.29606">
        <ele>102</ele>
        <time>2021-06-13T09:31:49.000Z</time>
      </trkpt>
      <trkpt lat="47.30992" lon="-2.29599">
        <ele>102</ele>
        <time>2021-06-13T09:31:50.000Z</time>
      </trkpt>
      <trkpt lat="47.30981" lon="-2.29588">
        <ele>102</ele>
        <time>2021-06-13T09:31:52.000Z</time>
      </trkpt>
      <trkpt lat="47.30967" lon="-2.29583">
        <ele>102.40000152588</ele>
        <time>2021-06-13T09:31:54.000Z</time>
      </trkpt>
      <trkpt lat="47.3096" lon="-2.29581">
        <ele>102.80000305176</ele>
        <time>2021-06-13T09:31:55.000Z</time>
      </trkpt>
      <trkpt lat="47.30953" lon="-2.2958">
        <ele>103.19999694824</ele>
        <time>2021-06-13T09:31:56.000Z</time>
      </trkpt>
      <trkpt lat="47.30946" lon="-2.29578">
        <ele>103.59999847412</ele>
        <time>2021-06-13T09:31:57.000Z</time>
      </trkpt>
      <trkpt lat="47.3094" lon="-2.29576">
        <ele>104</ele>
        <time>2021-06-13T09:31:58.000Z</time>
      </trkpt>
      <trkpt lat="47.30926" lon="-2.29572">
        <ele>104</ele>
        <time>2021-06-13T09:32:00.000Z</time>
      </trkpt>
      <trkpt lat="47.30876" lon="-2.29557">
        <ele>104</ele>
        <time>2021-06-13T09:32:07.000Z</time>
      </trkpt>
      <trkpt lat="47.30832" lon="-2.29548">
        <ele>104</ele>
        <time>2021-06-13T09:32:13.000Z</time>
      </trkpt>
      <trkpt lat="47.30825" lon="-2.29548">
        <ele>104</ele>
        <time>2021-06-13T09:32:14.000Z</time>
      </trkpt>
      <trkpt lat="47.30795" lon="-2.29554">
        <ele>104</ele>
        <time>2021-06-13T09:32:18.000Z</time>
      </trkpt>
      <trkpt lat="47.30773" lon="-2.2956">
        <ele>103.59999847412</ele>
        <time>2021-06-13T09:32:21.000Z</time>
      </trkpt>
      <trkpt lat="47.30765" lon="-2.29563">
        <ele>103.19999694824</ele>
        <time>2021-06-13T09:32:22.000Z</time>
      </trkpt>
      <trkpt lat="47.30758" lon="-2.29566">
        <ele>102.80000305176</ele>
        <time>2021-06-13T09:32:23.000Z</time>
      </trkpt>
      <trkpt lat="47.3075" lon="-2.29568">
        <ele>102.40000152588</ele>
        <time>2021-06-13T09:32:24.000Z</time>
      </trkpt>
      <trkpt lat="47.30742" lon="-2.29571">
        <ele>102</ele>
        <time>2021-06-13T09:32:25.000Z</time>
      </trkpt>
      <trkpt lat="47.3069" lon="-2.29588">
        <ele>102</ele>
        <time>2021-06-13T09:32:32.000Z</time>
      </trkpt>
      <trkpt lat="47.30644" lon="-2.296">
        <ele>102</ele>
        <time>2021-06-13T09:32:38.000Z</time>
      </trkpt>
      <trkpt lat="47.30604" lon="-2.29614">
        <ele>102</ele>
        <time>2021-06-13T09:32:43.000Z</time>
      </trkpt>
      <trkpt lat="47.30558" lon="-2.29627">
        <ele>102</ele>
        <time>2021-06-13T09:32:49.000Z</time>
      </trkpt>
      <trkpt lat="47.3055" lon="-2.2963">
        <ele>101.59999847412</ele>
        <time>2021-06-13T09:32:50.000Z</time>
      </trkpt>
      <trkpt lat="47.30542" lon="-2.29633">
        <ele>101</ele>
        <time>2021-06-13T09:32:51.000Z</time>
      </trkpt>
      <trkpt lat="47.30535" lon="-2.29635">
        <ele>100.59999847412</ele>
        <time>2021-06-13T09:32:52.000Z</time>
      </trkpt>
      <trkpt lat="47.30527" lon="-2.29638">
        <ele>100.19999694824</ele>
        <time>2021-06-13T09:32:53.000Z</time>
      </trkpt>
      <trkpt lat="47.30519" lon="-2.2964">
        <ele>99.599998474121</ele>
        <time>2021-06-13T09:32:54.000Z</time>
      </trkpt>
      <trkpt lat="47.30502" lon="-2.29645">
        <ele>99.599998474121</ele>
        <time>2021-06-13T09:32:56.000Z</time>
      </trkpt>
      <trkpt lat="47.30442" lon="-2.29666">
        <ele>99.599998474121</ele>
        <time>2021-06-13T09:33:03.000Z</time>
      </trkpt>
      <trkpt lat="47.30383" lon="-2.29683">
        <ele>99.599998474121</ele>
        <time>2021-06-13T09:33:10.000Z</time>
      </trkpt>
      <trkpt lat="47.30328" lon="-2.29701">
        <ele>99.599998474121</ele>
        <time>2021-06-13T09:33:17.000Z</time>
      </trkpt>
      <trkpt lat="47.30286" lon="-2.29714">
        <ele>99.599998474121</ele>
        <time>2021-06-13T09:33:23.000Z</time>
      </trkpt>
      <trkpt lat="47.30264" lon="-2.29719">
        <ele>99.599998474121</ele>
        <time>2021-06-13T09:33:26.000Z</time>
      </trkpt>
      <trkpt lat="47.30257" lon="-2.29718">
        <ele>99.599998474121</ele>
        <time>2021-06-13T09:33:27.000Z</time>
      </trkpt>
      <trkpt lat="47.30228" lon="-2.29705">
        <ele>99.599998474121</ele>
        <time>2021-06-13T09:33:31.000Z</time>
      </trkpt>
      <trkpt lat="47.30213" lon="-2.29695">
        <ele>99.599998474121</ele>
        <time>2021-06-13T09:33:33.000Z</time>
      </trkpt>
      <trkpt lat="47.302" lon="-2.29689">
        <ele>99.599998474121</ele>
        <time>2021-06-13T09:33:35.000Z</time>
      </trkpt>
      <trkpt lat="47.30165" lon="-2.29672">
        <ele>99.599998474121</ele>
        <time>2021-06-13T09:33:41.000Z</time>
      </trkpt>
      <trkpt lat="47.30138" lon="-2.29661">
        <ele>99.599998474121</ele>
        <time>2021-06-13T09:33:46.000Z</time>
      </trkpt>
      <trkpt lat="47.30126" lon="-2.29659">
        <ele>99.599998474121</ele>
        <time>2021-06-13T09:33:48.000Z</time>
      </trkpt>
      <trkpt lat="47.30104" lon="-2.29654">
        <ele>99.599998474121</ele>
        <time>2021-06-13T09:33:52.000Z</time>
      </trkpt>
      <trkpt lat="47.30093" lon="-2.2965">
        <ele>99.599998474121</ele>
        <time>2021-06-13T09:33:54.000Z</time>
      </trkpt>
      <trkpt lat="47.30054" lon="-2.29639">
        <ele>99.599998474121</ele>
        <time>2021-06-13T09:34:01.000Z</time>
      </trkpt>
      <trkpt lat="47.30015" lon="-2.29635">
        <ele>99.599998474121</ele>
        <time>2021-06-13T09:34:08.000Z</time>
      </trkpt>
      <trkpt lat="47.29978" lon="-2.29636">
        <ele>99.599998474121</ele>
        <time>2021-06-13T09:34:15.000Z</time>
      </trkpt>
      <trkpt lat="47.29949" lon="-2.29642">
        <ele>99.599998474121</ele>
        <time>2021-06-13T09:34:21.000Z</time>
      </trkpt>
      <trkpt lat="47.29922" lon="-2.29654">
        <ele>99.599998474121</ele>
        <time>2021-06-13T09:34:27.000Z</time>
      </trkpt>
      <trkpt lat="47.29914" lon="-2.2966">
        <ele>99.599998474121</ele>
        <time>2021-06-13T09:34:29.000Z</time>
      </trkpt>
      <trkpt lat="47.29913" lon="-2.29666">
        <ele>100.19999694824</ele>
        <time>2021-06-13T09:34:30.000Z</time>
      </trkpt>
      <trkpt lat="47.29913" lon="-2.29673">
        <ele>100.59999847412</ele>
        <time>2021-06-13T09:34:31.000Z</time>
      </trkpt>
      <trkpt lat="47.29914" lon="-2.29679">
        <ele>101</ele>
        <time>2021-06-13T09:34:32.000Z</time>
      </trkpt>
      <trkpt lat="47.29916" lon="-2.29686">
        <ele>101.40000152588</ele>
        <time>2021-06-13T09:34:33.000Z</time>
      </trkpt>
      <trkpt lat="47.29918" lon="-2.29694">
        <ele>102</ele>
        <time>2021-06-13T09:34:34.000Z</time>
      </trkpt>
      <trkpt lat="47.2992" lon="-2.29701">
        <ele>102</ele>
        <time>2021-06-13T09:34:35.000Z</time>
      </trkpt>
      <trkpt lat="47.29942" lon="-2.2976">
        <ele>102</ele>
        <time>2021-06-13T09:34:43.000Z</time>
      </trkpt>
      <trkpt lat="47.29951" lon="-2.29789">
        <ele>102</ele>
        <time>2021-06-13T09:34:47.000Z</time>
      </trkpt>
      <trkpt lat="47.2995" lon="-2.29796">
        <ele>102</ele>
        <time>2021-06-13T09:34:48.000Z</time>
      </trkpt>
      <trkpt lat="47.29939" lon="-2.29811">
        <ele>102</ele>
        <time>2021-06-13T09:34:51.000Z</time>
      </trkpt>
      <trkpt lat="47.29917" lon="-2.29829">
        <ele>102</ele>
        <time>2021-06-13T09:34:56.000Z</time>
      </trkpt>
      <trkpt lat="47.29908" lon="-2.29835">
        <ele>102</ele>
        <time>2021-06-13T09:34:58.000Z</time>
      </trkpt>
      <trkpt lat="47.29904" lon="-2.29847">
        <ele>102</ele>
        <time>2021-06-13T09:35:00.000Z</time>
      </trkpt>
      <trkpt lat="47.29905" lon="-2.29874">
        <ele>102</ele>
        <time>2021-06-13T09:35:03.000Z</time>
      </trkpt>
      <trkpt lat="47.29905" lon="-2.29884">
        <ele>102</ele>
        <time>2021-06-13T09:35:04.000Z</time>
      </trkpt>
      <trkpt lat="47.29908" lon="-2.29914">
        <ele>102</ele>
        <time>2021-06-13T09:35:07.000Z</time>
      </trkpt>
      <trkpt lat="47.29905" lon="-2.29931">
        <ele>102</ele>
        <time>2021-06-13T09:35:09.000Z</time>
      </trkpt>
      <trkpt lat="47.29895" lon="-2.2994">
        <ele>102</ele>
        <time>2021-06-13T09:35:11.000Z</time>
      </trkpt>
      <trkpt lat="47.29883" lon="-2.29942">
        <ele>102</ele>
        <time>2021-06-13T09:35:13.000Z</time>
      </trkpt>
      <trkpt lat="47.29871" lon="-2.29945">
        <ele>102</ele>
        <time>2021-06-13T09:35:15.000Z</time>
      </trkpt>
      <trkpt lat="47.29834" lon="-2.29954">
        <ele>102</ele>
        <time>2021-06-13T09:35:21.000Z</time>
      </trkpt>
      <trkpt lat="47.29827" lon="-2.29954">
        <ele>102</ele>
        <time>2021-06-13T09:35:22.000Z</time>
      </trkpt>
      <trkpt lat="47.29801" lon="-2.29953">
        <ele>102</ele>
        <time>2021-06-13T09:35:26.000Z</time>
      </trkpt>
      <trkpt lat="47.29788" lon="-2.29954">
        <ele>102</ele>
        <time>2021-06-13T09:35:28.000Z</time>
      </trkpt>
      <trkpt lat="47.29777" lon="-2.29958">
        <ele>102</ele>
        <time>2021-06-13T09:35:30.000Z</time>
      </trkpt>
      <trkpt lat="47.29767" lon="-2.29965">
        <ele>102</ele>
        <time>2021-06-13T09:35:32.000Z</time>
      </trkpt>
      <trkpt lat="47.29755" lon="-2.29975">
        <ele>102</ele>
        <time>2021-06-13T09:35:34.000Z</time>
      </trkpt>
      <trkpt lat="47.29716" lon="-2.29997">
        <ele>102</ele>
        <time>2021-06-13T09:35:40.000Z</time>
      </trkpt>
      <trkpt lat="47.29679" lon="-2.29999">
        <ele>102</ele>
        <time>2021-06-13T09:35:45.000Z</time>
      </trkpt>
      <trkpt lat="47.29664" lon="-2.29996">
        <ele>102</ele>
        <time>2021-06-13T09:35:47.000Z</time>
      </trkpt>
      <trkpt lat="47.29653" lon="-2.29988">
        <ele>102</ele>
        <time>2021-06-13T09:35:49.000Z</time>
      </trkpt>
      <trkpt lat="47.29636" lon="-2.29985">
        <ele>102</ele>
        <time>2021-06-13T09:35:52.000Z</time>
      </trkpt>
      <trkpt lat="47.29625" lon="-2.29992">
        <ele>102</ele>
        <time>2021-06-13T09:35:54.000Z</time>
      </trkpt>
      <trkpt lat="47.29612" lon="-2.29998">
        <ele>102</ele>
        <time>2021-06-13T09:35:56.000Z</time>
      </trkpt>
      <trkpt lat="47.29567" lon="-2.30013">
        <ele>102</ele>
        <time>2021-06-13T09:36:02.000Z</time>
      </trkpt>
      <trkpt lat="47.29524" lon="-2.3003">
        <ele>102</ele>
        <time>2021-06-13T09:36:09.000Z</time>
      </trkpt>
      <trkpt lat="47.29507" lon="-2.30027">
        <ele>102</ele>
        <time>2021-06-13T09:36:12.000Z</time>
      </trkpt>
      <trkpt lat="47.29493" lon="-2.30029">
        <ele>102</ele>
        <time>2021-06-13T09:36:16.000Z</time>
      </trkpt>
      <trkpt lat="47.29465" lon="-2.30032">
        <ele>102</ele>
        <time>2021-06-13T09:36:21.000Z</time>
      </trkpt>
      <trkpt lat="47.29426" lon="-2.30033">
        <ele>102</ele>
        <time>2021-06-13T09:36:27.000Z</time>
      </trkpt>
      <trkpt lat="47.294" lon="-2.30029">
        <ele>102</ele>
        <time>2021-06-13T09:36:31.000Z</time>
      </trkpt>
      <trkpt lat="47.29389" lon="-2.30025">
        <ele>102</ele>
        <time>2021-06-13T09:36:33.000Z</time>
      </trkpt>
      <trkpt lat="47.29373" lon="-2.30018">
        <ele>102</ele>
        <time>2021-06-13T09:36:36.000Z</time>
      </trkpt>
      <trkpt lat="47.2936" lon="-2.30011">
        <ele>102</ele>
        <time>2021-06-13T09:36:39.000Z</time>
      </trkpt>
      <trkpt lat="47.29356" lon="-2.30009">
        <ele>102.40000152588</ele>
        <time>2021-06-13T09:36:40.000Z</time>
      </trkpt>
      <trkpt lat="47.29352" lon="-2.30008">
        <ele>102.80000305176</ele>
        <time>2021-06-13T09:36:41.000Z</time>
      </trkpt>
      <trkpt lat="47.29349" lon="-2.30007">
        <ele>103.19999694824</ele>
        <time>2021-06-13T09:36:42.000Z</time>
      </trkpt>
      <trkpt lat="47.29347" lon="-2.30006">
        <ele>103.59999847412</ele>
        <time>2021-06-13T09:36:43.000Z</time>
      </trkpt>
      <trkpt lat="47.29344" lon="-2.30007">
        <ele>104.19999694824</ele>
        <time>2021-06-13T09:36:44.000Z</time>
      </trkpt>
      <trkpt lat="47.29344" lon="-2.30011">
        <ele>104.19999694824</ele>
        <time>2021-06-13T09:36:45.000Z</time>
      </trkpt>
      <trkpt lat="47.29343" lon="-2.30021">
        <ele>104.19999694824</ele>
        <time>2021-06-13T09:36:47.000Z</time>
      </trkpt>
      <trkpt lat="47.29341" lon="-2.30057">
        <ele>104.19999694824</ele>
        <time>2021-06-13T09:36:52.000Z</time>
      </trkpt>
      <trkpt lat="47.29333" lon="-2.30117">
        <ele>104.19999694824</ele>
        <time>2021-06-13T09:36:59.000Z</time>
      </trkpt>
      <trkpt lat="47.29322" lon="-2.30138">
        <ele>104.19999694824</ele>
        <time>2021-06-13T09:37:03.000Z</time>
      </trkpt>
      <trkpt lat="47.29309" lon="-2.30137">
        <ele>104.19999694824</ele>
        <time>2021-06-13T09:37:06.000Z</time>
      </trkpt>
      <trkpt lat="47.29281" lon="-2.30135">
        <ele>104.19999694824</ele>
        <time>2021-06-13T09:37:12.000Z</time>
      </trkpt>
      <trkpt lat="47.29273" lon="-2.30136">
        <ele>104.19999694824</ele>
        <time>2021-06-13T09:37:14.000Z</time>
      </trkpt>
      <trkpt lat="47.29261" lon="-2.30139">
        <ele>104.19999694824</ele>
        <time>2021-06-13T09:37:17.000Z</time>
      </trkpt>
      <trkpt lat="47.29256" lon="-2.3014">
        <ele>104.19999694824</ele>
        <time>2021-06-13T09:37:18.000Z</time>
      </trkpt>
      <trkpt lat="47.29231" lon="-2.30145">
        <ele>104.19999694824</ele>
        <time>2021-06-13T09:37:23.000Z</time>
      </trkpt>
      <trkpt lat="47.29197" lon="-2.30162">
        <ele>104.19999694824</ele>
        <time>2021-06-13T09:37:29.000Z</time>
      </trkpt>
      <trkpt lat="47.29153" lon="-2.30187">
        <ele>104.19999694824</ele>
        <time>2021-06-13T09:37:37.000Z</time>
      </trkpt>
      <trkpt lat="47.29147" lon="-2.3019">
        <ele>104.19999694824</ele>
        <time>2021-06-13T09:37:38.000Z</time>
      </trkpt>
      <trkpt lat="47.2912" lon="-2.30204">
        <ele>104.19999694824</ele>
        <time>2021-06-13T09:37:43.000Z</time>
      </trkpt>
      <trkpt lat="47.29082" lon="-2.30225">
        <ele>104.19999694824</ele>
        <time>2021-06-13T09:37:51.000Z</time>
      </trkpt>
      <trkpt lat="47.29048" lon="-2.30239">
        <ele>104.19999694824</ele>
        <time>2021-06-13T09:37:58.000Z</time>
      </trkpt>
      <trkpt lat="47.29029" lon="-2.30246">
        <ele>104.19999694824</ele>
        <time>2021-06-13T09:38:02.000Z</time>
      </trkpt>
      <trkpt lat="47.29015" lon="-2.30249">
        <ele>104.19999694824</ele>
        <time>2021-06-13T09:38:05.000Z</time>
      </trkpt>
      <trkpt lat="47.28986" lon="-2.30253">
        <ele>104.19999694824</ele>
        <time>2021-06-13T09:38:12.000Z</time>
      </trkpt>
      <trkpt lat="47.28972" lon="-2.30256">
        <ele>104.19999694824</ele>
        <time>2021-06-13T09:38:16.000Z</time>
      </trkpt>
      <trkpt lat="47.28969" lon="-2.30275">
        <ele>104.19999694824</ele>
        <time>2021-06-13T09:38:19.000Z</time>
      </trkpt>
      <trkpt lat="47.28971" lon="-2.30297">
        <ele>104.19999694824</ele>
        <time>2021-06-13T09:38:22.000Z</time>
      </trkpt>
      <trkpt lat="47.28972" lon="-2.30305">
        <ele>104.19999694824</ele>
        <time>2021-06-13T09:38:23.000Z</time>
      </trkpt>
      <trkpt lat="47.28973" lon="-2.30328">
        <ele>104.59999847412</ele>
        <time>2021-06-13T09:38:26.000Z</time>
      </trkpt>
      <trkpt lat="47.28973" lon="-2.30336">
        <ele>105</ele>
        <time>2021-06-13T09:38:27.000Z</time>
      </trkpt>
      <trkpt lat="47.28973" lon="-2.30343">
        <ele>105.40000152588</ele>
        <time>2021-06-13T09:38:28.000Z</time>
      </trkpt>
      <trkpt lat="47.28973" lon="-2.30351">
        <ele>105.80000305176</ele>
        <time>2021-06-13T09:38:29.000Z</time>
      </trkpt>
      <trkpt lat="47.28973" lon="-2.30359">
        <ele>106.19999694824</ele>
        <time>2021-06-13T09:38:30.000Z</time>
      </trkpt>
      <trkpt lat="47.28973" lon="-2.30367">
        <ele>106.19999694824</ele>
        <time>2021-06-13T09:38:31.000Z</time>
      </trkpt>
      <trkpt lat="47.28973" lon="-2.30393">
        <ele>106.19999694824</ele>
        <time>2021-06-13T09:38:34.000Z</time>
      </trkpt>
      <trkpt lat="47.28974" lon="-2.30412">
        <ele>106.19999694824</ele>
        <time>2021-06-13T09:38:37.000Z</time>
      </trkpt>
      <trkpt lat="47.2898" lon="-2.30453">
        <ele>106.19999694824</ele>
        <time>2021-06-13T09:38:43.000Z</time>
      </trkpt>
      <trkpt lat="47.28986" lon="-2.30497">
        <ele>106.59999847412</ele>
        <time>2021-06-13T09:38:48.000Z</time>
      </trkpt>
      <trkpt lat="47.28987" lon="-2.30505">
        <ele>107</ele>
        <time>2021-06-13T09:38:49.000Z</time>
      </trkpt>
      <trkpt lat="47.28988" lon="-2.30513">
        <ele>107.40000152588</ele>
        <time>2021-06-13T09:38:50.000Z</time>
      </trkpt>
      <trkpt lat="47.28989" lon="-2.3052">
        <ele>107.80000305176</ele>
        <time>2021-06-13T09:38:51.000Z</time>
      </trkpt>
      <trkpt lat="47.2899" lon="-2.30528">
        <ele>108.19999694824</ele>
        <time>2021-06-13T09:38:52.000Z</time>
      </trkpt>
      <trkpt lat="47.28993" lon="-2.30544">
        <ele>108.19999694824</ele>
        <time>2021-06-13T09:38:54.000Z</time>
      </trkpt>
      <trkpt lat="47.29" lon="-2.30608">
        <ele>108.19999694824</ele>
        <time>2021-06-13T09:39:01.000Z</time>
      </trkpt>
      <trkpt lat="47.29" lon="-2.30615">
        <ele>108.19999694824</ele>
        <time>2021-06-13T09:39:02.000Z</time>
      </trkpt>
      <trkpt lat="47.28994" lon="-2.30627">
        <ele>108.19999694824</ele>
        <time>2021-06-13T09:39:04.000Z</time>
      </trkpt>
      <trkpt lat="47.28985" lon="-2.30634">
        <ele>108.19999694824</ele>
        <time>2021-06-13T09:39:06.000Z</time>
      </trkpt>
      <trkpt lat="47.28981" lon="-2.30636">
        <ele>108.19999694824</ele>
        <time>2021-06-13T09:39:07.000Z</time>
      </trkpt>
      <trkpt lat="47.28957" lon="-2.30658">
        <ele>108.19999694824</ele>
        <time>2021-06-13T09:39:12.000Z</time>
      </trkpt>
      <trkpt lat="47.28924" lon="-2.30696">
        <ele>108.19999694824</ele>
        <time>2021-06-13T09:39:19.000Z</time>
      </trkpt>
      <trkpt lat="47.28895" lon="-2.30738">
        <ele>108.19999694824</ele>
        <time>2021-06-13T09:39:26.000Z</time>
      </trkpt>
      <trkpt lat="47.28861" lon="-2.30789">
        <ele>108.19999694824</ele>
        <time>2021-06-13T09:39:34.000Z</time>
      </trkpt>
      <trkpt lat="47.28828" lon="-2.30852">
        <ele>108.19999694824</ele>
        <time>2021-06-13T09:39:43.000Z</time>
      </trkpt>
      <trkpt lat="47.28817" lon="-2.30874">
        <ele>108.59999847412</ele>
        <time>2021-06-13T09:39:46.000Z</time>
      </trkpt>
      <trkpt lat="47.28813" lon="-2.30881">
        <ele>109</ele>
        <time>2021-06-13T09:39:47.000Z</time>
      </trkpt>
      <trkpt lat="47.2881" lon="-2.30889">
        <ele>109.59999847412</ele>
        <time>2021-06-13T09:39:48.000Z</time>
      </trkpt>
      <trkpt lat="47.28806" lon="-2.30896">
        <ele>110</ele>
        <time>2021-06-13T09:39:49.000Z</time>
      </trkpt>
      <trkpt lat="47.28803" lon="-2.30902">
        <ele>110.40000152588</ele>
        <time>2021-06-13T09:39:50.000Z</time>
      </trkpt>
      <trkpt lat="47.28799" lon="-2.30909">
        <ele>110.40000152588</ele>
        <time>2021-06-13T09:39:51.000Z</time>
      </trkpt>
      <trkpt lat="47.28779" lon="-2.30958">
        <ele>110.40000152588</ele>
        <time>2021-06-13T09:39:57.000Z</time>
      </trkpt>
      <trkpt lat="47.28766" lon="-2.30989">
        <ele>110.80000305176</ele>
        <time>2021-06-13T09:40:01.000Z</time>
      </trkpt>
      <trkpt lat="47.28763" lon="-2.30997">
        <ele>111.19999694824</ele>
        <time>2021-06-13T09:40:02.000Z</time>
      </trkpt>
      <trkpt lat="47.28761" lon="-2.31006">
        <ele>111.59999847412</ele>
        <time>2021-06-13T09:40:03.000Z</time>
      </trkpt>
      <trkpt lat="47.28758" lon="-2.31014">
        <ele>112</ele>
        <time>2021-06-13T09:40:04.000Z</time>
      </trkpt>
      <trkpt lat="47.28756" lon="-2.31022">
        <ele>112.40000152588</ele>
        <time>2021-06-13T09:40:05.000Z</time>
      </trkpt>
      <trkpt lat="47.2874" lon="-2.3107">
        <ele>112.40000152588</ele>
        <time>2021-06-13T09:40:11.000Z</time>
      </trkpt>
      <trkpt lat="47.28728" lon="-2.3112">
        <ele>112.40000152588</ele>
        <time>2021-06-13T09:40:17.000Z</time>
      </trkpt>
      <trkpt lat="47.28726" lon="-2.31128">
        <ele>112.80000305176</ele>
        <time>2021-06-13T09:40:18.000Z</time>
      </trkpt>
      <trkpt lat="47.28725" lon="-2.31136">
        <ele>113.19999694824</ele>
        <time>2021-06-13T09:40:19.000Z</time>
      </trkpt>
      <trkpt lat="47.28723" lon="-2.31145">
        <ele>113.59999847412</ele>
        <time>2021-06-13T09:40:20.000Z</time>
      </trkpt>
      <trkpt lat="47.28722" lon="-2.31153">
        <ele>114</ele>
        <time>2021-06-13T09:40:21.000Z</time>
      </trkpt>
      <trkpt lat="47.28721" lon="-2.31161">
        <ele>114.59999847412</ele>
        <time>2021-06-13T09:40:22.000Z</time>
      </trkpt>
      <trkpt lat="47.28715" lon="-2.31177">
        <ele>114.59999847412</ele>
        <time>2021-06-13T09:40:24.000Z</time>
      </trkpt>
      <trkpt lat="47.28697" lon="-2.312">
        <ele>114.59999847412</ele>
        <time>2021-06-13T09:40:28.000Z</time>
      </trkpt>
      <trkpt lat="47.28692" lon="-2.31205">
        <ele>114.59999847412</ele>
        <time>2021-06-13T09:40:29.000Z</time>
      </trkpt>
      <trkpt lat="47.28678" lon="-2.31221">
        <ele>115</ele>
        <time>2021-06-13T09:40:32.000Z</time>
      </trkpt>
      <trkpt lat="47.28674" lon="-2.31226">
        <ele>115.40000152588</ele>
        <time>2021-06-13T09:40:33.000Z</time>
      </trkpt>
      <trkpt lat="47.28669" lon="-2.31232">
        <ele>115.80000305176</ele>
        <time>2021-06-13T09:40:34.000Z</time>
      </trkpt>
      <trkpt lat="47.28665" lon="-2.31237">
        <ele>116.19999694824</ele>
        <time>2021-06-13T09:40:35.000Z</time>
      </trkpt>
      <trkpt lat="47.28661" lon="-2.31242">
        <ele>116.59999847412</ele>
        <time>2021-06-13T09:40:36.000Z</time>
      </trkpt>
      <trkpt lat="47.28657" lon="-2.31247">
        <ele>116.59999847412</ele>
        <time>2021-06-13T09:40:37.000Z</time>
      </trkpt>
      <trkpt lat="47.28654" lon="-2.31254">
        <ele>116.59999847412</ele>
        <time>2021-06-13T09:40:38.000Z</time>
      </trkpt>
      <trkpt lat="47.2865" lon="-2.31278">
        <ele>116.59999847412</ele>
        <time>2021-06-13T09:40:41.000Z</time>
      </trkpt>
      <trkpt lat="47.2865" lon="-2.31286">
        <ele>116.59999847412</ele>
        <time>2021-06-13T09:40:42.000Z</time>
      </trkpt>
      <trkpt lat="47.2865" lon="-2.31303">
        <ele>116.59999847412</ele>
        <time>2021-06-13T09:40:44.000Z</time>
      </trkpt>
      <trkpt lat="47.28653" lon="-2.31319">
        <ele>116.59999847412</ele>
        <time>2021-06-13T09:40:46.000Z</time>
      </trkpt>
      <trkpt lat="47.28655" lon="-2.31327">
        <ele>117.40000152588</ele>
        <time>2021-06-13T09:40:47.000Z</time>
      </trkpt>
      <trkpt lat="47.28657" lon="-2.31335">
        <ele>117.80000305176</ele>
        <time>2021-06-13T09:40:48.000Z</time>
      </trkpt>
      <trkpt lat="47.28659" lon="-2.31342">
        <ele>118.19999694824</ele>
        <time>2021-06-13T09:40:49.000Z</time>
      </trkpt>
      <trkpt lat="47.28662" lon="-2.31349">
        <ele>118.59999847412</ele>
        <time>2021-06-13T09:40:50.000Z</time>
      </trkpt>
      <trkpt lat="47.28668" lon="-2.31364">
        <ele>118.59999847412</ele>
        <time>2021-06-13T09:40:52.000Z</time>
      </trkpt>
      <trkpt lat="47.28685" lon="-2.31397">
        <ele>118.59999847412</ele>
        <time>2021-06-13T09:40:57.000Z</time>
      </trkpt>
      <trkpt lat="47.28688" lon="-2.31412">
        <ele>119.19999694824</ele>
        <time>2021-06-13T09:40:59.000Z</time>
      </trkpt>
      <trkpt lat="47.28687" lon="-2.3142">
        <ele>119.59999847412</ele>
        <time>2021-06-13T09:41:00.000Z</time>
      </trkpt>
      <trkpt lat="47.28685" lon="-2.31428">
        <ele>120</ele>
        <time>2021-06-13T09:41:01.000Z</time>
      </trkpt>
      <trkpt lat="47.28682" lon="-2.31435">
        <ele>120.40000152588</ele>
        <time>2021-06-13T09:41:02.000Z</time>
      </trkpt>
      <trkpt lat="47.28679" lon="-2.31442">
        <ele>120.80000305176</ele>
        <time>2021-06-13T09:41:03.000Z</time>
      </trkpt>
      <trkpt lat="47.28665" lon="-2.31455">
        <ele>120.80000305176</ele>
        <time>2021-06-13T09:41:06.000Z</time>
      </trkpt>
      <trkpt lat="47.28656" lon="-2.31459">
        <ele>120.80000305176</ele>
        <time>2021-06-13T09:41:08.000Z</time>
      </trkpt>
      <trkpt lat="47.2864" lon="-2.31466">
        <ele>120.80000305176</ele>
        <time>2021-06-13T09:41:11.000Z</time>
      </trkpt>
      <trkpt lat="47.28618" lon="-2.31481">
        <ele>120.80000305176</ele>
        <time>2021-06-13T09:41:16.000Z</time>
      </trkpt>
      <trkpt lat="47.28617" lon="-2.31488">
        <ele>120.80000305176</ele>
        <time>2021-06-13T09:41:17.000Z</time>
      </trkpt>
      <trkpt lat="47.28622" lon="-2.31514">
        <ele>120.80000305176</ele>
        <time>2021-06-13T09:41:20.000Z</time>
      </trkpt>
      <trkpt lat="47.28624" lon="-2.31533">
        <ele>120.80000305176</ele>
        <time>2021-06-13T09:41:22.000Z</time>
      </trkpt>
      <trkpt lat="47.28624" lon="-2.31563">
        <ele>120.80000305176</ele>
        <time>2021-06-13T09:41:25.000Z</time>
      </trkpt>
      <trkpt lat="47.28622" lon="-2.31649">
        <ele>120.80000305176</ele>
        <time>2021-06-13T09:41:34.000Z</time>
      </trkpt>
      <trkpt lat="47.28629" lon="-2.31713">
        <ele>120.80000305176</ele>
        <time>2021-06-13T09:41:41.000Z</time>
      </trkpt>
      <trkpt lat="47.28641" lon="-2.31794">
        <ele>120.80000305176</ele>
        <time>2021-06-13T09:41:50.000Z</time>
      </trkpt>
      <trkpt lat="47.28649" lon="-2.31865">
        <ele>120.80000305176</ele>
        <time>2021-06-13T09:41:58.000Z</time>
      </trkpt>
      <trkpt lat="47.28656" lon="-2.3193">
        <ele>120.80000305176</ele>
        <time>2021-06-13T09:42:05.000Z</time>
      </trkpt>
      <trkpt lat="47.28667" lon="-2.31996">
        <ele>120.80000305176</ele>
        <time>2021-06-13T09:42:12.000Z</time>
      </trkpt>
      <trkpt lat="47.28682" lon="-2.32061">
        <ele>120.80000305176</ele>
        <time>2021-06-13T09:42:19.000Z</time>
      </trkpt>
      <trkpt lat="47.28692" lon="-2.3213">
        <ele>120.80000305176</ele>
        <time>2021-06-13T09:42:26.000Z</time>
      </trkpt>
      <trkpt lat="47.28685" lon="-2.32162">
        <ele>120.80000305176</ele>
        <time>2021-06-13T09:42:29.000Z</time>
      </trkpt>
      <trkpt lat="47.28676" lon="-2.32182">
        <ele>120.80000305176</ele>
        <time>2021-06-13T09:42:31.000Z</time>
      </trkpt>
      <trkpt lat="47.28666" lon="-2.322">
        <ele>120.80000305176</ele>
        <time>2021-06-13T09:42:33.000Z</time>
      </trkpt>
      <trkpt lat="47.28648" lon="-2.32224">
        <ele>120.40000152588</ele>
        <time>2021-06-13T09:42:36.000Z</time>
      </trkpt>
      <trkpt lat="47.28641" lon="-2.32232">
        <ele>120</ele>
        <time>2021-06-13T09:42:37.000Z</time>
      </trkpt>
      <trkpt lat="47.28633" lon="-2.32238">
        <ele>119.59999847412</ele>
        <time>2021-06-13T09:42:38.000Z</time>
      </trkpt>
      <trkpt lat="47.28624" lon="-2.32242">
        <ele>119</ele>
        <time>2021-06-13T09:42:39.000Z</time>
      </trkpt>
      <trkpt lat="47.28615" lon="-2.32247">
        <ele>118.59999847412</ele>
        <time>2021-06-13T09:42:40.000Z</time>
      </trkpt>
      <trkpt lat="47.28581" lon="-2.32272">
        <ele>118.19999694824</ele>
        <time>2021-06-13T09:42:44.000Z</time>
      </trkpt>
      <trkpt lat="47.28574" lon="-2.32279">
        <ele>117.80000305176</ele>
        <time>2021-06-13T09:42:45.000Z</time>
      </trkpt>
      <trkpt lat="47.28566" lon="-2.32286">
        <ele>117.40000152588</ele>
        <time>2021-06-13T09:42:46.000Z</time>
      </trkpt>
      <trkpt lat="47.28559" lon="-2.32293">
        <ele>117</ele>
        <time>2021-06-13T09:42:47.000Z</time>
      </trkpt>
      <trkpt lat="47.28552" lon="-2.32301">
        <ele>116.59999847412</ele>
        <time>2021-06-13T09:42:48.000Z</time>
      </trkpt>
      <trkpt lat="47.28528" lon="-2.32324">
        <ele>116.19999694824</ele>
        <time>2021-06-13T09:42:51.000Z</time>
      </trkpt>
      <trkpt lat="47.2852" lon="-2.32331">
        <ele>115.59999847412</ele>
        <time>2021-06-13T09:42:52.000Z</time>
      </trkpt>
      <trkpt lat="47.28512" lon="-2.32337">
        <ele>115.19999694824</ele>
        <time>2021-06-13T09:42:53.000Z</time>
      </trkpt>
      <trkpt lat="47.28505" lon="-2.32342">
        <ele>114.80000305176</ele>
        <time>2021-06-13T09:42:54.000Z</time>
      </trkpt>
      <trkpt lat="47.28497" lon="-2.32347">
        <ele>114.40000152588</ele>
        <time>2021-06-13T09:42:55.000Z</time>
      </trkpt>
      <trkpt lat="47.28489" lon="-2.32352">
        <ele>114.40000152588</ele>
        <time>2021-06-13T09:42:56.000Z</time>
      </trkpt>
      <trkpt lat="47.2844" lon="-2.32385">
        <ele>114.40000152588</ele>
        <time>2021-06-13T09:43:03.000Z</time>
      </trkpt>
      <trkpt lat="47.28428" lon="-2.32392">
        <ele>113.80000305176</ele>
        <time>2021-06-13T09:43:05.000Z</time>
      </trkpt>
      <trkpt lat="47.28422" lon="-2.32396">
        <ele>113.40000152588</ele>
        <time>2021-06-13T09:43:06.000Z</time>
      </trkpt>
      <trkpt lat="47.28416" lon="-2.32399">
        <ele>113</ele>
        <time>2021-06-13T09:43:07.000Z</time>
      </trkpt>
      <trkpt lat="47.28411" lon="-2.32402">
        <ele>112.40000152588</ele>
        <time>2021-06-13T09:43:08.000Z</time>
      </trkpt>
      <trkpt lat="47.28405" lon="-2.32406">
        <ele>112</ele>
        <time>2021-06-13T09:43:09.000Z</time>
      </trkpt>
      <trkpt lat="47.284" lon="-2.3241">
        <ele>112</ele>
        <time>2021-06-13T09:43:10.000Z</time>
      </trkpt>
      <trkpt lat="47.28378" lon="-2.32423">
        <ele>112</ele>
        <time>2021-06-13T09:43:15.000Z</time>
      </trkpt>
      <trkpt lat="47.28373" lon="-2.32437">
        <ele>112</ele>
        <time>2021-06-13T09:43:18.000Z</time>
      </trkpt>
      <trkpt lat="47.28379" lon="-2.32461">
        <ele>112</ele>
        <time>2021-06-13T09:43:22.000Z</time>
      </trkpt>
      <trkpt lat="47.28388" lon="-2.32503">
        <ele>112</ele>
        <time>2021-06-13T09:43:27.000Z</time>
      </trkpt>
      <trkpt lat="47.28402" lon="-2.32562">
        <ele>112</ele>
        <time>2021-06-13T09:43:34.000Z</time>
      </trkpt>
      <trkpt lat="47.28411" lon="-2.32599">
        <ele>112</ele>
        <time>2021-06-13T09:43:39.000Z</time>
      </trkpt>
      <trkpt lat="47.28412" lon="-2.32605">
        <ele>112</ele>
        <time>2021-06-13T09:43:40.000Z</time>
      </trkpt>
      <trkpt lat="47.28404" lon="-2.32613">
        <ele>112</ele>
        <time>2021-06-13T09:43:43.000Z</time>
      </trkpt>
      <trkpt lat="47.28401" lon="-2.32612">
        <ele>111.59999847412</ele>
        <time>2021-06-13T09:43:44.000Z</time>
      </trkpt>
      <trkpt lat="47.28398" lon="-2.32609">
        <ele>111.19999694824</ele>
        <time>2021-06-13T09:43:45.000Z</time>
      </trkpt>
      <trkpt lat="47.28395" lon="-2.32607">
        <ele>110.80000305176</ele>
        <time>2021-06-13T09:43:46.000Z</time>
      </trkpt>
      <trkpt lat="47.28393" lon="-2.32602">
        <ele>110.40000152588</ele>
        <time>2021-06-13T09:43:47.000Z</time>
      </trkpt>
      <trkpt lat="47.28392" lon="-2.32598">
        <ele>110</ele>
        <time>2021-06-13T09:43:48.000Z</time>
      </trkpt>
      <trkpt lat="47.28382" lon="-2.32586">
        <ele>110</ele>
        <time>2021-06-13T09:43:52.000Z</time>
      </trkpt>
      <trkpt lat="47.2837" lon="-2.32586">
        <ele>110</ele>
        <time>2021-06-13T09:43:55.000Z</time>
      </trkpt>
      <trkpt lat="47.28366" lon="-2.32586">
        <ele>110</ele>
        <time>2021-06-13T09:43:56.000Z</time>
      </trkpt>
      <trkpt lat="47.28361" lon="-2.32582">
        <ele>110</ele>
        <time>2021-06-13T09:43:58.000Z</time>
      </trkpt>
      <trkpt lat="47.28359" lon="-2.32578">
        <ele>110</ele>
        <time>2021-06-13T09:43:59.000Z</time>
      </trkpt>
      <trkpt lat="47.28355" lon="-2.32555">
        <ele>110</ele>
        <time>2021-06-13T09:44:04.000Z</time>
      </trkpt>
      <trkpt lat="47.28349" lon="-2.32537">
        <ele>110</ele>
        <time>2021-06-13T09:44:08.000Z</time>
      </trkpt>
      <trkpt lat="47.28346" lon="-2.32536">
        <ele>110</ele>
        <time>2021-06-13T09:44:09.000Z</time>
      </trkpt>
      <trkpt lat="47.28323" lon="-2.32534">
        <ele>110</ele>
        <time>2021-06-13T09:44:14.000Z</time>
      </trkpt>
      <trkpt lat="47.28308" lon="-2.32534">
        <ele>110</ele>
        <time>2021-06-13T09:44:17.000Z</time>
      </trkpt>
      <trkpt lat="47.28297" lon="-2.32534">
        <ele>110</ele>
        <time>2021-06-13T09:44:19.000Z</time>
      </trkpt>
      <trkpt lat="47.28266" lon="-2.32524">
        <ele>110</ele>
        <time>2021-06-13T09:44:25.000Z</time>
      </trkpt>
      <trkpt lat="47.28249" lon="-2.32504">
        <ele>110</ele>
        <time>2021-06-13T09:44:29.000Z</time>
      </trkpt>
      <trkpt lat="47.28237" lon="-2.32488">
        <ele>110</ele>
        <time>2021-06-13T09:44:32.000Z</time>
      </trkpt>
      <trkpt lat="47.28228" lon="-2.32477">
        <ele>110</ele>
        <time>2021-06-13T09:44:34.000Z</time>
      </trkpt>
      <trkpt lat="47.28222" lon="-2.32473">
        <ele>110</ele>
        <time>2021-06-13T09:44:35.000Z</time>
      </trkpt>
      <trkpt lat="47.28203" lon="-2.32462">
        <ele>110</ele>
        <time>2021-06-13T09:44:38.000Z</time>
      </trkpt>
      <trkpt lat="47.28197" lon="-2.3246">
        <ele>110</ele>
        <time>2021-06-13T09:44:39.000Z</time>
      </trkpt>
      <trkpt lat="47.28152" lon="-2.32454">
        <ele>110</ele>
        <time>2021-06-13T09:44:47.000Z</time>
      </trkpt>
      <trkpt lat="47.28125" lon="-2.32455">
        <ele>110</ele>
        <time>2021-06-13T09:44:52.000Z</time>
      </trkpt>
      <trkpt lat="47.28103" lon="-2.32444">
        <ele>110</ele>
        <time>2021-06-13T09:44:57.000Z</time>
      </trkpt>
      <trkpt lat="47.28099" lon="-2.32441">
        <ele>110</ele>
        <time>2021-06-13T09:44:58.000Z</time>
      </trkpt>
      <trkpt lat="47.28085" lon="-2.32432">
        <ele>110</ele>
        <time>2021-06-13T09:45:01.000Z</time>
      </trkpt>
      <trkpt lat="47.2808" lon="-2.32431">
        <ele>110</ele>
        <time>2021-06-13T09:45:02.000Z</time>
      </trkpt>
      <trkpt lat="47.28052" lon="-2.32429">
        <ele>110</ele>
        <time>2021-06-13T09:45:07.000Z</time>
      </trkpt>
      <trkpt lat="47.28046" lon="-2.32428">
        <ele>110.40000152588</ele>
        <time>2021-06-13T09:45:08.000Z</time>
      </trkpt>
      <trkpt lat="47.2804" lon="-2.32428">
        <ele>110.80000305176</ele>
        <time>2021-06-13T09:45:09.000Z</time>
      </trkpt>
      <trkpt lat="47.28034" lon="-2.32427">
        <ele>111.19999694824</ele>
        <time>2021-06-13T09:45:10.000Z</time>
      </trkpt>
      <trkpt lat="47.28028" lon="-2.32426">
        <ele>111.59999847412</ele>
        <time>2021-06-13T09:45:11.000Z</time>
      </trkpt>
      <trkpt lat="47.28022" lon="-2.32425">
        <ele>112</ele>
        <time>2021-06-13T09:45:12.000Z</time>
      </trkpt>
      <trkpt lat="47.28009" lon="-2.32421">
        <ele>112</ele>
        <time>2021-06-13T09:45:14.000Z</time>
      </trkpt>
      <trkpt lat="47.27974" lon="-2.32412">
        <ele>112</ele>
        <time>2021-06-13T09:45:20.000Z</time>
      </trkpt>
      <trkpt lat="47.27955" lon="-2.32404">
        <ele>112</ele>
        <time>2021-06-13T09:45:25.000Z</time>
      </trkpt>
      <trkpt lat="47.27941" lon="-2.32402">
        <ele>112</ele>
        <time>2021-06-13T09:45:31.000Z</time>
      </trkpt>
      <trkpt lat="47.2794" lon="-2.32401">
        <ele>112</ele>
        <time>2021-06-13T09:45:34.000Z</time>
      </trkpt>
      <trkpt lat="47.27936" lon="-2.32398">
        <ele>112</ele>
        <time>2021-06-13T09:45:59.000Z</time>
      </trkpt>
      <trkpt lat="47.27934" lon="-2.32397">
        <ele>112</ele>
        <time>2021-06-13T09:46:00.000Z</time>
      </trkpt>
      <trkpt lat="47.27923" lon="-2.32392">
        <ele>112</ele>
        <time>2021-06-13T09:46:06.000Z</time>
      </trkpt>
      <trkpt lat="47.27922" lon="-2.3239">
        <ele>112</ele>
        <time>2021-06-13T09:46:07.000Z</time>
      </trkpt>
      <trkpt lat="47.27907" lon="-2.32384">
        <ele>112</ele>
        <time>2021-06-13T09:46:13.000Z</time>
      </trkpt>
      <trkpt lat="47.279" lon="-2.32384">
        <ele>112</ele>
        <time>2021-06-13T09:46:18.000Z</time>
      </trkpt>
      <trkpt lat="47.27896" lon="-2.32384">
        <ele>112</ele>
        <time>2021-06-13T09:46:48.000Z</time>
      </trkpt>
      <trkpt lat="47.27884" lon="-2.32389">
        <ele>112</ele>
        <time>2021-06-13T09:46:53.000Z</time>
      </trkpt>
      <trkpt lat="47.27868" lon="-2.32385">
        <ele>112</ele>
        <time>2021-06-13T09:46:58.000Z</time>
      </trkpt>
      <trkpt lat="47.27855" lon="-2.32381">
        <ele>112</ele>
        <time>2021-06-13T09:47:03.000Z</time>
      </trkpt>
      <trkpt lat="47.27836" lon="-2.32383">
        <ele>112</ele>
        <time>2021-06-13T09:47:09.000Z</time>
      </trkpt>
      <trkpt lat="47.27828" lon="-2.32385">
        <ele>112.40000152588</ele>
        <time>2021-06-13T09:47:11.000Z</time>
      </trkpt>
      <trkpt lat="47.27824" lon="-2.32385">
        <ele>112.80000305176</ele>
        <time>2021-06-13T09:47:12.000Z</time>
      </trkpt>
      <trkpt lat="47.27821" lon="-2.32385">
        <ele>113.40000152588</ele>
        <time>2021-06-13T09:47:13.000Z</time>
      </trkpt>
      <trkpt lat="47.27818" lon="-2.32386">
        <ele>113.80000305176</ele>
        <time>2021-06-13T09:47:14.000Z</time>
      </trkpt>
      <trkpt lat="47.27815" lon="-2.32386">
        <ele>114.19999694824</ele>
        <time>2021-06-13T09:47:15.000Z</time>
      </trkpt>
      <trkpt lat="47.27811" lon="-2.32386">
        <ele>114.19999694824</ele>
        <time>2021-06-13T09:47:16.000Z</time>
      </trkpt>
      <trkpt lat="47.27794" lon="-2.32387">
        <ele>114.19999694824</ele>
        <time>2021-06-13T09:47:21.000Z</time>
      </trkpt>
      <trkpt lat="47.27789" lon="-2.32388">
        <ele>114.19999694824</ele>
        <time>2021-06-13T09:47:23.000Z</time>
      </trkpt>
      <trkpt lat="47.27782" lon="-2.32389">
        <ele>114.19999694824</ele>
        <time>2021-06-13T09:47:25.000Z</time>
      </trkpt>
      <trkpt lat="47.27779" lon="-2.32387">
        <ele>114.19999694824</ele>
        <time>2021-06-13T09:47:26.000Z</time>
      </trkpt>
      <trkpt lat="47.27774" lon="-2.32379">
        <ele>114.19999694824</ele>
        <time>2021-06-13T09:47:28.000Z</time>
      </trkpt>
      <trkpt lat="47.27758" lon="-2.32366">
        <ele>114.19999694824</ele>
        <time>2021-06-13T09:47:33.000Z</time>
      </trkpt>
      <trkpt lat="47.27747" lon="-2.3236">
        <ele>114.19999694824</ele>
        <time>2021-06-13T09:47:36.000Z</time>
      </trkpt>
      <trkpt lat="47.27737" lon="-2.32352">
        <ele>114.19999694824</ele>
        <time>2021-06-13T09:47:39.000Z</time>
      </trkpt>
      <trkpt lat="47.27723" lon="-2.32344">
        <ele>114.19999694824</ele>
        <time>2021-06-13T09:47:45.000Z</time>
      </trkpt>
      <trkpt lat="47.2772" lon="-2.32343">
        <ele>114.19999694824</ele>
        <time>2021-06-13T09:47:47.000Z</time>
      </trkpt>
      <trkpt lat="47.27716" lon="-2.3234">
        <ele>114.19999694824</ele>
        <time>2021-06-13T09:47:58.000Z</time>
      </trkpt>
      <trkpt lat="47.27714" lon="-2.32338">
        <ele>114.19999694824</ele>
        <time>2021-06-13T09:47:59.000Z</time>
      </trkpt>
      <trkpt lat="47.27697" lon="-2.32332">
        <ele>114.19999694824</ele>
        <time>2021-06-13T09:48:06.000Z</time>
      </trkpt>
      <trkpt lat="47.27668" lon="-2.32321">
        <ele>114.19999694824</ele>
        <time>2021-06-13T09:48:13.000Z</time>
      </trkpt>
      <trkpt lat="47.27647" lon="-2.32313">
        <ele>114.19999694824</ele>
        <time>2021-06-13T09:48:19.000Z</time>
      </trkpt>
      <trkpt lat="47.27628" lon="-2.323">
        <ele>114.19999694824</ele>
        <time>2021-06-13T09:48:25.000Z</time>
      </trkpt>
      <trkpt lat="47.27615" lon="-2.32292">
        <ele>114.19999694824</ele>
        <time>2021-06-13T09:48:30.000Z</time>
      </trkpt>
      <trkpt lat="47.27603" lon="-2.32282">
        <ele>114.19999694824</ele>
        <time>2021-06-13T09:48:35.000Z</time>
      </trkpt>
      <trkpt lat="47.27602" lon="-2.32282">
        <ele>113.80000305176</ele>
        <time>2021-06-13T09:48:36.000Z</time>
      </trkpt>
      <trkpt lat="47.27602" lon="-2.32282">
        <ele>113.40000152588</ele>
        <time>2021-06-13T09:48:37.000Z</time>
      </trkpt>
      <trkpt lat="47.27599" lon="-2.32278">
        <ele>112.19999694824</ele>
        <time>2021-06-13T09:49:19.000Z</time>
      </trkpt>
      <trkpt lat="47.27597" lon="-2.32276">
        <ele>112.19999694824</ele>
        <time>2021-06-13T09:49:20.000Z</time>
      </trkpt>
      <trkpt lat="47.27582" lon="-2.32265">
        <ele>112.19999694824</ele>
        <time>2021-06-13T09:49:25.000Z</time>
      </trkpt>
      <trkpt lat="47.27562" lon="-2.32246">
        <ele>112.19999694824</ele>
        <time>2021-06-13T09:49:30.000Z</time>
      </trkpt>
      <trkpt lat="47.27528" lon="-2.32219">
        <ele>112.19999694824</ele>
        <time>2021-06-13T09:49:36.000Z</time>
      </trkpt>
      <trkpt lat="47.27523" lon="-2.32212">
        <ele>112.19999694824</ele>
        <time>2021-06-13T09:49:37.000Z</time>
      </trkpt>
      <trkpt lat="47.27518" lon="-2.32205">
        <ele>111.59999847412</ele>
        <time>2021-06-13T09:49:38.000Z</time>
      </trkpt>
      <trkpt lat="47.27512" lon="-2.32197">
        <ele>111.19999694824</ele>
        <time>2021-06-13T09:49:39.000Z</time>
      </trkpt>
      <trkpt lat="47.27506" lon="-2.3219">
        <ele>110.59999847412</ele>
        <time>2021-06-13T09:49:40.000Z</time>
      </trkpt>
      <trkpt lat="47.275" lon="-2.32183">
        <ele>110.19999694824</ele>
        <time>2021-06-13T09:49:41.000Z</time>
      </trkpt>
      <trkpt lat="47.27494" lon="-2.32175">
        <ele>109.80000305176</ele>
        <time>2021-06-13T09:49:42.000Z</time>
      </trkpt>
      <trkpt lat="47.27469" lon="-2.32144">
        <ele>109.19999694824</ele>
        <time>2021-06-13T09:49:46.000Z</time>
      </trkpt>
      <trkpt lat="47.27464" lon="-2.32137">
        <ele>108.80000305176</ele>
        <time>2021-06-13T09:49:47.000Z</time>
      </trkpt>
      <trkpt lat="47.27458" lon="-2.3213">
        <ele>108.40000152588</ele>
        <time>2021-06-13T09:49:48.000Z</time>
      </trkpt>
      <trkpt lat="47.27453" lon="-2.32123">
        <ele>107.59999847412</ele>
        <time>2021-06-13T09:49:49.000Z</time>
      </trkpt>
      <trkpt lat="47.27427" lon="-2.32088">
        <ele>107.59999847412</ele>
        <time>2021-06-13T09:49:54.000Z</time>
      </trkpt>
      <trkpt lat="47.27388" lon="-2.32046">
        <ele>107.19999694824</ele>
        <time>2021-06-13T09:50:01.000Z</time>
      </trkpt>
      <trkpt lat="47.27381" lon="-2.32039">
        <ele>106.80000305176</ele>
        <time>2021-06-13T09:50:02.000Z</time>
      </trkpt>
      <trkpt lat="47.27375" lon="-2.32033">
        <ele>106.40000152588</ele>
        <time>2021-06-13T09:50:03.000Z</time>
      </trkpt>
      <trkpt lat="47.27369" lon="-2.32026">
        <ele>106</ele>
        <time>2021-06-13T09:50:04.000Z</time>
      </trkpt>
      <trkpt lat="47.27362" lon="-2.3202">
        <ele>105.40000152588</ele>
        <time>2021-06-13T09:50:05.000Z</time>
      </trkpt>
      <trkpt lat="47.27351" lon="-2.32008">
        <ele>105</ele>
        <time>2021-06-13T09:50:07.000Z</time>
      </trkpt>
      <trkpt lat="47.27346" lon="-2.32004">
        <ele>104.40000152588</ele>
        <time>2021-06-13T09:50:08.000Z</time>
      </trkpt>
      <trkpt lat="47.27342" lon="-2.32001">
        <ele>104</ele>
        <time>2021-06-13T09:50:09.000Z</time>
      </trkpt>
      <trkpt lat="47.2734" lon="-2.31998">
        <ele>103.40000152588</ele>
        <time>2021-06-13T09:50:10.000Z</time>
      </trkpt>
      <trkpt lat="47.27338" lon="-2.31997">
        <ele>103</ele>
        <time>2021-06-13T09:50:11.000Z</time>
      </trkpt>
      <trkpt lat="47.27337" lon="-2.31996">
        <ele>102.40000152588</ele>
        <time>2021-06-13T09:50:12.000Z</time>
      </trkpt>
      <trkpt lat="47.27336" lon="-2.31996">
        <ele>101.80000305176</ele>
        <time>2021-06-13T09:50:13.000Z</time>
      </trkpt>
      <trkpt lat="47.27334" lon="-2.31995">
        <ele>100.80000305176</ele>
        <time>2021-06-13T09:50:14.000Z</time>
      </trkpt>
      <trkpt lat="47.27334" lon="-2.31993">
        <ele>100.80000305176</ele>
        <time>2021-06-13T09:50:16.000Z</time>
      </trkpt>
      <trkpt lat="47.27331" lon="-2.3199">
        <ele>100.80000305176</ele>
        <time>2021-06-13T09:50:47.000Z</time>
      </trkpt>
      <trkpt lat="47.27315" lon="-2.31973">
        <ele>100.80000305176</ele>
        <time>2021-06-13T09:50:53.000Z</time>
      </trkpt>
      <trkpt lat="47.27297" lon="-2.31957">
        <ele>100.80000305176</ele>
        <time>2021-06-13T09:50:59.000Z</time>
      </trkpt>
      <trkpt lat="47.27276" lon="-2.31946">
        <ele>100.80000305176</ele>
        <time>2021-06-13T09:51:05.000Z</time>
      </trkpt>
      <trkpt lat="47.27246" lon="-2.31936">
        <ele>100.80000305176</ele>
        <time>2021-06-13T09:51:12.000Z</time>
      </trkpt>
      <trkpt lat="47.27225" lon="-2.31929">
        <ele>100.80000305176</ele>
        <time>2021-06-13T09:51:16.000Z</time>
      </trkpt>
      <trkpt lat="47.27219" lon="-2.31931">
        <ele>100.80000305176</ele>
        <time>2021-06-13T09:51:17.000Z</time>
      </trkpt>
      <trkpt lat="47.27208" lon="-2.31943">
        <ele>100.80000305176</ele>
        <time>2021-06-13T09:51:20.000Z</time>
      </trkpt>
      <trkpt lat="47.27201" lon="-2.31954">
        <ele>100.80000305176</ele>
        <time>2021-06-13T09:51:22.000Z</time>
      </trkpt>
      <trkpt lat="47.27193" lon="-2.31963">
        <ele>100.80000305176</ele>
        <time>2021-06-13T09:51:24.000Z</time>
      </trkpt>
      <trkpt lat="47.27188" lon="-2.31967">
        <ele>100.80000305176</ele>
        <time>2021-06-13T09:51:25.000Z</time>
      </trkpt>
      <trkpt lat="47.27177" lon="-2.3198">
        <ele>100.80000305176</ele>
        <time>2021-06-13T09:51:28.000Z</time>
      </trkpt>
      <trkpt lat="47.27169" lon="-2.31991">
        <ele>100.80000305176</ele>
        <time>2021-06-13T09:51:30.000Z</time>
      </trkpt>
      <trkpt lat="47.27155" lon="-2.31991">
        <ele>100.80000305176</ele>
        <time>2021-06-13T09:51:33.000Z</time>
      </trkpt>
      <trkpt lat="47.27145" lon="-2.31983">
        <ele>100.80000305176</ele>
        <time>2021-06-13T09:51:36.000Z</time>
      </trkpt>
      <trkpt lat="47.27141" lon="-2.31979">
        <ele>100.80000305176</ele>
        <time>2021-06-13T09:51:37.000Z</time>
      </trkpt>
      <trkpt lat="47.27136" lon="-2.31975">
        <ele>100.80000305176</ele>
        <time>2021-06-13T09:51:38.000Z</time>
      </trkpt>
      <trkpt lat="47.27121" lon="-2.31965">
        <ele>100.80000305176</ele>
        <time>2021-06-13T09:51:41.000Z</time>
      </trkpt>
      <trkpt lat="47.27113" lon="-2.31959">
        <ele>100.80000305176</ele>
        <time>2021-06-13T09:51:43.000Z</time>
      </trkpt>
      <trkpt lat="47.27095" lon="-2.31949">
        <ele>100.80000305176</ele>
        <time>2021-06-13T09:51:47.000Z</time>
      </trkpt>
      <trkpt lat="47.27083" lon="-2.31948">
        <ele>100.80000305176</ele>
        <time>2021-06-13T09:51:49.000Z</time>
      </trkpt>
      <trkpt lat="47.2706" lon="-2.31951">
        <ele>101.19999694824</ele>
        <time>2021-06-13T09:51:53.000Z</time>
      </trkpt>
      <trkpt lat="47.27055" lon="-2.31951">
        <ele>101.59999847412</ele>
        <time>2021-06-13T09:51:54.000Z</time>
      </trkpt>
      <trkpt lat="47.27049" lon="-2.31952">
        <ele>102</ele>
        <time>2021-06-13T09:51:55.000Z</time>
      </trkpt>
      <trkpt lat="47.27044" lon="-2.31953">
        <ele>102.40000152588</ele>
        <time>2021-06-13T09:51:56.000Z</time>
      </trkpt>
      <trkpt lat="47.27039" lon="-2.31955">
        <ele>102.80000305176</ele>
        <time>2021-06-13T09:51:57.000Z</time>
      </trkpt>
      <trkpt lat="47.27031" lon="-2.3196">
        <ele>102.80000305176</ele>
        <time>2021-06-13T09:51:59.000Z</time>
      </trkpt>
      <trkpt lat="47.27009" lon="-2.31979">
        <ele>102.80000305176</ele>
        <time>2021-06-13T09:52:03.000Z</time>
      </trkpt>
      <trkpt lat="47.27008" lon="-2.31985">
        <ele>102.80000305176</ele>
        <time>2021-06-13T09:52:04.000Z</time>
      </trkpt>
      <trkpt lat="47.27012" lon="-2.32006">
        <ele>102.80000305176</ele>
        <time>2021-06-13T09:52:07.000Z</time>
      </trkpt>
      <trkpt lat="47.2702" lon="-2.32047">
        <ele>102.80000305176</ele>
        <time>2021-06-13T09:52:12.000Z</time>
      </trkpt>
      <trkpt lat="47.2702" lon="-2.32057">
        <ele>102.80000305176</ele>
        <time>2021-06-13T09:52:13.000Z</time>
      </trkpt>
      <trkpt lat="47.27017" lon="-2.32085">
        <ele>102.80000305176</ele>
        <time>2021-06-13T09:52:16.000Z</time>
      </trkpt>
      <trkpt lat="47.27012" lon="-2.32111">
        <ele>102.40000152588</ele>
        <time>2021-06-13T09:52:19.000Z</time>
      </trkpt>
      <trkpt lat="47.27008" lon="-2.32118">
        <ele>102</ele>
        <time>2021-06-13T09:52:20.000Z</time>
      </trkpt>
      <trkpt lat="47.27006" lon="-2.32124">
        <ele>101.40000152588</ele>
        <time>2021-06-13T09:52:21.000Z</time>
      </trkpt>
      <trkpt lat="47.27002" lon="-2.32128">
        <ele>101</ele>
        <time>2021-06-13T09:52:22.000Z</time>
      </trkpt>
      <trkpt lat="47.26997" lon="-2.32132">
        <ele>100.59999847412</ele>
        <time>2021-06-13T09:52:23.000Z</time>
      </trkpt>
      <trkpt lat="47.26993" lon="-2.32137">
        <ele>100.19999694824</ele>
        <time>2021-06-13T09:52:24.000Z</time>
      </trkpt>
      <trkpt lat="47.26991" lon="-2.32144">
        <ele>99.800003051758</ele>
        <time>2021-06-13T09:52:25.000Z</time>
      </trkpt>
      <trkpt lat="47.26992" lon="-2.32151">
        <ele>99.400001525879</ele>
        <time>2021-06-13T09:52:26.000Z</time>
      </trkpt>
      <trkpt lat="47.26995" lon="-2.32158">
        <ele>99</ele>
        <time>2021-06-13T09:52:27.000Z</time>
      </trkpt>
      <trkpt lat="47.26998" lon="-2.32164">
        <ele>98.599998474121</ele>
        <time>2021-06-13T09:52:28.000Z</time>
      </trkpt>
      <trkpt lat="47.27002" lon="-2.32168">
        <ele>98.599998474121</ele>
        <time>2021-06-13T09:52:29.000Z</time>
      </trkpt>
      <trkpt lat="47.2701" lon="-2.32181">
        <ele>98.599998474121</ele>
        <time>2021-06-13T09:52:31.000Z</time>
      </trkpt>
      <trkpt lat="47.27016" lon="-2.32193">
        <ele>98.599998474121</ele>
        <time>2021-06-13T09:52:33.000Z</time>
      </trkpt>
      <trkpt lat="47.27019" lon="-2.322">
        <ele>98.599998474121</ele>
        <time>2021-06-13T09:52:34.000Z</time>
      </trkpt>
      <trkpt lat="47.2702" lon="-2.32209">
        <ele>98.599998474121</ele>
        <time>2021-06-13T09:52:35.000Z</time>
      </trkpt>
      <trkpt lat="47.27022" lon="-2.32235">
        <ele>98.599998474121</ele>
        <time>2021-06-13T09:52:38.000Z</time>
      </trkpt>
      <trkpt lat="47.2702" lon="-2.32308">
        <ele>98.599998474121</ele>
        <time>2021-06-13T09:52:46.000Z</time>
      </trkpt>
      <trkpt lat="47.2702" lon="-2.32346">
        <ele>98.599998474121</ele>
        <time>2021-06-13T09:52:50.000Z</time>
      </trkpt>
      <trkpt lat="47.27021" lon="-2.32355">
        <ele>98.599998474121</ele>
        <time>2021-06-13T09:52:51.000Z</time>
      </trkpt>
      <trkpt lat="47.27027" lon="-2.32419">
        <ele>98.599998474121</ele>
        <time>2021-06-13T09:52:58.000Z</time>
      </trkpt>
      <trkpt lat="47.27029" lon="-2.3248">
        <ele>98.599998474121</ele>
        <time>2021-06-13T09:53:05.000Z</time>
      </trkpt>
      <trkpt lat="47.2702" lon="-2.32498">
        <ele>98.599998474121</ele>
        <time>2021-06-13T09:53:08.000Z</time>
      </trkpt>
      <trkpt lat="47.27001" lon="-2.32502">
        <ele>98.599998474121</ele>
        <time>2021-06-13T09:53:12.000Z</time>
      </trkpt>
      <trkpt lat="47.26991" lon="-2.32486">
        <ele>98.599998474121</ele>
        <time>2021-06-13T09:53:15.000Z</time>
      </trkpt>
      <trkpt lat="47.26988" lon="-2.32479">
        <ele>98.599998474121</ele>
        <time>2021-06-13T09:53:16.000Z</time>
      </trkpt>
      <trkpt lat="47.26975" lon="-2.32454">
        <ele>98.599998474121</ele>
        <time>2021-06-13T09:53:20.000Z</time>
      </trkpt>
      <trkpt lat="47.26967" lon="-2.32444">
        <ele>98.599998474121</ele>
        <time>2021-06-13T09:53:22.000Z</time>
      </trkpt>
      <trkpt lat="47.26954" lon="-2.32428">
        <ele>98.599998474121</ele>
        <time>2021-06-13T09:53:25.000Z</time>
      </trkpt>
      <trkpt lat="47.26951" lon="-2.32422">
        <ele>99</ele>
        <time>2021-06-13T09:53:26.000Z</time>
      </trkpt>
      <trkpt lat="47.26948" lon="-2.32416">
        <ele>99.400001525879</ele>
        <time>2021-06-13T09:53:27.000Z</time>
      </trkpt>
      <trkpt lat="47.26945" lon="-2.32409">
        <ele>99.800003051758</ele>
        <time>2021-06-13T09:53:28.000Z</time>
      </trkpt>
      <trkpt lat="47.26942" lon="-2.32402">
        <ele>100.40000152588</ele>
        <time>2021-06-13T09:53:29.000Z</time>
      </trkpt>
      <trkpt lat="47.2694" lon="-2.32394">
        <ele>100.80000305176</ele>
        <time>2021-06-13T09:53:30.000Z</time>
      </trkpt>
      <trkpt lat="47.26928" lon="-2.32348">
        <ele>100.80000305176</ele>
        <time>2021-06-13T09:53:36.000Z</time>
      </trkpt>
      <trkpt lat="47.26925" lon="-2.32343">
        <ele>100.80000305176</ele>
        <time>2021-06-13T09:53:37.000Z</time>
      </trkpt>
      <trkpt lat="47.26917" lon="-2.32335">
        <ele>100.80000305176</ele>
        <time>2021-06-13T09:53:39.000Z</time>
      </trkpt>
      <trkpt lat="47.26908" lon="-2.32333">
        <ele>100.80000305176</ele>
        <time>2021-06-13T09:53:41.000Z</time>
      </trkpt>
      <trkpt lat="47.26895" lon="-2.32339">
        <ele>100.80000305176</ele>
        <time>2021-06-13T09:53:44.000Z</time>
      </trkpt>
      <trkpt lat="47.26891" lon="-2.32341">
        <ele>100.80000305176</ele>
        <time>2021-06-13T09:53:45.000Z</time>
      </trkpt>
      <trkpt lat="47.26877" lon="-2.32344">
        <ele>101.19999694824</ele>
        <time>2021-06-13T09:53:48.000Z</time>
      </trkpt>
      <trkpt lat="47.26873" lon="-2.32346">
        <ele>101.59999847412</ele>
        <time>2021-06-13T09:53:49.000Z</time>
      </trkpt>
      <trkpt lat="47.26868" lon="-2.32347">
        <ele>102</ele>
        <time>2021-06-13T09:53:50.000Z</time>
      </trkpt>
      <trkpt lat="47.26864" lon="-2.32348">
        <ele>102.59999847412</ele>
        <time>2021-06-13T09:53:51.000Z</time>
      </trkpt>
      <trkpt lat="47.26859" lon="-2.32349">
        <ele>103</ele>
        <time>2021-06-13T09:53:52.000Z</time>
      </trkpt>
      <trkpt lat="47.26841" lon="-2.32353">
        <ele>103.40000152588</ele>
        <time>2021-06-13T09:53:56.000Z</time>
      </trkpt>
      <trkpt lat="47.26837" lon="-2.32354">
        <ele>104.19999694824</ele>
        <time>2021-06-13T09:53:57.000Z</time>
      </trkpt>
      <trkpt lat="47.26833" lon="-2.32354">
        <ele>104.80000305176</ele>
        <time>2021-06-13T09:53:58.000Z</time>
      </trkpt>
      <trkpt lat="47.26829" lon="-2.32354">
        <ele>105.19999694824</ele>
        <time>2021-06-13T09:53:59.000Z</time>
      </trkpt>
      <trkpt lat="47.26824" lon="-2.32354">
        <ele>105.19999694824</ele>
        <time>2021-06-13T09:54:00.000Z</time>
      </trkpt>
      <trkpt lat="47.26816" lon="-2.32355">
        <ele>105.59999847412</ele>
        <time>2021-06-13T09:54:02.000Z</time>
      </trkpt>
      <trkpt lat="47.26812" lon="-2.32355">
        <ele>106</ele>
        <time>2021-06-13T09:54:03.000Z</time>
      </trkpt>
      <trkpt lat="47.26809" lon="-2.32357">
        <ele>106.40000152588</ele>
        <time>2021-06-13T09:54:04.000Z</time>
      </trkpt>
      <trkpt lat="47.26805" lon="-2.32358">
        <ele>106.80000305176</ele>
        <time>2021-06-13T09:54:05.000Z</time>
      </trkpt>
      <trkpt lat="47.26801" lon="-2.32359">
        <ele>107.19999694824</ele>
        <time>2021-06-13T09:54:06.000Z</time>
      </trkpt>
      <trkpt lat="47.26793" lon="-2.32361">
        <ele>107.19999694824</ele>
        <time>2021-06-13T09:54:08.000Z</time>
      </trkpt>
      <trkpt lat="47.2679" lon="-2.32362">
        <ele>107.59999847412</ele>
        <time>2021-06-13T09:54:09.000Z</time>
      </trkpt>
      <trkpt lat="47.26787" lon="-2.32363">
        <ele>108.19999694824</ele>
        <time>2021-06-13T09:54:10.000Z</time>
      </trkpt>
      <trkpt lat="47.26784" lon="-2.32364">
        <ele>108.59999847412</ele>
        <time>2021-06-13T09:54:11.000Z</time>
      </trkpt>
      <trkpt lat="47.26781" lon="-2.32365">
        <ele>109</ele>
        <time>2021-06-13T09:54:12.000Z</time>
      </trkpt>
      <trkpt lat="47.26779" lon="-2.32366">
        <ele>109.40000152588</ele>
        <time>2021-06-13T09:54:13.000Z</time>
      </trkpt>
      <trkpt lat="47.26777" lon="-2.32367">
        <ele>109.40000152588</ele>
        <time>2021-06-13T09:54:14.000Z</time>
      </trkpt>
      <trkpt lat="47.26772" lon="-2.32371">
        <ele>109.40000152588</ele>
        <time>2021-06-13T09:54:19.000Z</time>
      </trkpt>
      <trkpt lat="47.26772" lon="-2.32373">
        <ele>109.40000152588</ele>
        <time>2021-06-13T09:54:38.000Z</time>
      </trkpt>
      <trkpt lat="47.26774" lon="-2.32384">
        <ele>109.40000152588</ele>
        <time>2021-06-13T09:54:41.000Z</time>
      </trkpt>
      <trkpt lat="47.2678" lon="-2.32413">
        <ele>109.40000152588</ele>
        <time>2021-06-13T09:54:47.000Z</time>
      </trkpt>
      <trkpt lat="47.26789" lon="-2.32466">
        <ele>109.40000152588</ele>
        <time>2021-06-13T09:54:54.000Z</time>
      </trkpt>
      <trkpt lat="47.26795" lon="-2.3253">
        <ele>109.40000152588</ele>
        <time>2021-06-13T09:55:01.000Z</time>
      </trkpt>
      <trkpt lat="47.26799" lon="-2.32589">
        <ele>109.40000152588</ele>
        <time>2021-06-13T09:55:07.000Z</time>
      </trkpt>
      <trkpt lat="47.26807" lon="-2.32641">
        <ele>109.40000152588</ele>
        <time>2021-06-13T09:55:13.000Z</time>
      </trkpt>
      <trkpt lat="47.26808" lon="-2.32657">
        <ele>109.40000152588</ele>
        <time>2021-06-13T09:55:15.000Z</time>
      </trkpt>
      <trkpt lat="47.26804" lon="-2.32671">
        <ele>109.40000152588</ele>
        <time>2021-06-13T09:55:17.000Z</time>
      </trkpt>
      <trkpt lat="47.268" lon="-2.32695">
        <ele>109.40000152588</ele>
        <time>2021-06-13T09:55:20.000Z</time>
      </trkpt>
      <trkpt lat="47.26802" lon="-2.32704">
        <ele>109.40000152588</ele>
        <time>2021-06-13T09:55:21.000Z</time>
      </trkpt>
      <trkpt lat="47.26807" lon="-2.32719">
        <ele>109.40000152588</ele>
        <time>2021-06-13T09:55:23.000Z</time>
      </trkpt>
      <trkpt lat="47.26819" lon="-2.32743">
        <ele>109.40000152588</ele>
        <time>2021-06-13T09:55:26.000Z</time>
      </trkpt>
      <trkpt lat="47.26822" lon="-2.32751">
        <ele>109.40000152588</ele>
        <time>2021-06-13T09:55:27.000Z</time>
      </trkpt>
      <trkpt lat="47.2683" lon="-2.3277">
        <ele>109.40000152588</ele>
        <time>2021-06-13T09:55:29.000Z</time>
      </trkpt>
      <trkpt lat="47.26836" lon="-2.32791">
        <ele>109</ele>
        <time>2021-06-13T09:55:31.000Z</time>
      </trkpt>
      <trkpt lat="47.26839" lon="-2.32802">
        <ele>108.59999847412</ele>
        <time>2021-06-13T09:55:32.000Z</time>
      </trkpt>
      <trkpt lat="47.26842" lon="-2.32813">
        <ele>108</ele>
        <time>2021-06-13T09:55:33.000Z</time>
      </trkpt>
      <trkpt lat="47.26846" lon="-2.32823">
        <ele>107</ele>
        <time>2021-06-13T09:55:34.000Z</time>
      </trkpt>
      <trkpt lat="47.2685" lon="-2.32834">
        <ele>106.40000152588</ele>
        <time>2021-06-13T09:55:35.000Z</time>
      </trkpt>
      <trkpt lat="47.26853" lon="-2.32844">
        <ele>105.59999847412</ele>
        <time>2021-06-13T09:55:36.000Z</time>
      </trkpt>
      <trkpt lat="47.26857" lon="-2.32854">
        <ele>104.80000305176</ele>
        <time>2021-06-13T09:55:37.000Z</time>
      </trkpt>
      <trkpt lat="47.2686" lon="-2.32862">
        <ele>104</ele>
        <time>2021-06-13T09:55:38.000Z</time>
      </trkpt>
      <trkpt lat="47.26862" lon="-2.32868">
        <ele>103</ele>
        <time>2021-06-13T09:55:39.000Z</time>
      </trkpt>
      <trkpt lat="47.26859" lon="-2.32874">
        <ele>102.19999694824</ele>
        <time>2021-06-13T09:55:40.000Z</time>
      </trkpt>
      <trkpt lat="47.26856" lon="-2.32878">
        <ele>101.19999694824</ele>
        <time>2021-06-13T09:55:41.000Z</time>
      </trkpt>
      <trkpt lat="47.26851" lon="-2.3288">
        <ele>100.19999694824</ele>
        <time>2021-06-13T09:55:42.000Z</time>
      </trkpt>
      <trkpt lat="47.26846" lon="-2.32883">
        <ele>99.599998474121</ele>
        <time>2021-06-13T09:55:43.000Z</time>
      </trkpt>
      <trkpt lat="47.2684" lon="-2.32884">
        <ele>99</ele>
        <time>2021-06-13T09:55:44.000Z</time>
      </trkpt>
      <trkpt lat="47.26835" lon="-2.32886">
        <ele>98.400001525879</ele>
        <time>2021-06-13T09:55:45.000Z</time>
      </trkpt>
      <trkpt lat="47.26828" lon="-2.3289">
        <ele>97.800003051758</ele>
        <time>2021-06-13T09:55:46.000Z</time>
      </trkpt>
      <trkpt lat="47.26823" lon="-2.32894">
        <ele>97.199996948242</ele>
        <time>2021-06-13T09:55:47.000Z</time>
      </trkpt>
      <trkpt lat="47.26817" lon="-2.32899">
        <ele>97.199996948242</ele>
        <time>2021-06-13T09:55:48.000Z</time>
      </trkpt>
      <trkpt lat="47.26787" lon="-2.32928">
        <ele>97.199996948242</ele>
        <time>2021-06-13T09:55:54.000Z</time>
      </trkpt>
      <trkpt lat="47.26777" lon="-2.32939">
        <ele>97.199996948242</ele>
        <time>2021-06-13T09:55:56.000Z</time>
      </trkpt>
      <trkpt lat="47.26762" lon="-2.32955">
        <ele>97.199996948242</ele>
        <time>2021-06-13T09:55:59.000Z</time>
      </trkpt>
      <trkpt lat="47.26742" lon="-2.32978">
        <ele>97.199996948242</ele>
        <time>2021-06-13T09:56:03.000Z</time>
      </trkpt>
      <trkpt lat="47.26738" lon="-2.32985">
        <ele>97.199996948242</ele>
        <time>2021-06-13T09:56:04.000Z</time>
      </trkpt>
      <trkpt lat="47.26731" lon="-2.33011">
        <ele>97.199996948242</ele>
        <time>2021-06-13T09:56:07.000Z</time>
      </trkpt>
      <trkpt lat="47.26731" lon="-2.33027">
        <ele>97.199996948242</ele>
        <time>2021-06-13T09:56:09.000Z</time>
      </trkpt>
      <trkpt lat="47.2673" lon="-2.33043">
        <ele>97.199996948242</ele>
        <time>2021-06-13T09:56:11.000Z</time>
      </trkpt>
      <trkpt lat="47.26716" lon="-2.33073">
        <ele>97.199996948242</ele>
        <time>2021-06-13T09:56:15.000Z</time>
      </trkpt>
      <trkpt lat="47.26707" lon="-2.33084">
        <ele>97.199996948242</ele>
        <time>2021-06-13T09:56:17.000Z</time>
      </trkpt>
      <trkpt lat="47.26685" lon="-2.33108">
        <ele>97.199996948242</ele>
        <time>2021-06-13T09:56:22.000Z</time>
      </trkpt>
      <trkpt lat="47.26664" lon="-2.33126">
        <ele>97.199996948242</ele>
        <time>2021-06-13T09:56:27.000Z</time>
      </trkpt>
      <trkpt lat="47.2664" lon="-2.33144">
        <ele>97.199996948242</ele>
        <time>2021-06-13T09:56:33.000Z</time>
      </trkpt>
      <trkpt lat="47.26621" lon="-2.33152">
        <ele>96.800003051758</ele>
        <time>2021-06-13T09:56:38.000Z</time>
      </trkpt>
      <trkpt lat="47.26618" lon="-2.33151">
        <ele>96.400001525879</ele>
        <time>2021-06-13T09:56:39.000Z</time>
      </trkpt>
      <trkpt lat="47.26614" lon="-2.3315">
        <ele>96</ele>
        <time>2021-06-13T09:56:40.000Z</time>
      </trkpt>
      <trkpt lat="47.26611" lon="-2.33149">
        <ele>95.599998474121</ele>
        <time>2021-06-13T09:56:41.000Z</time>
      </trkpt>
      <trkpt lat="47.26607" lon="-2.33149">
        <ele>95.199996948242</ele>
        <time>2021-06-13T09:56:42.000Z</time>
      </trkpt>
      <trkpt lat="47.26602" lon="-2.33147">
        <ele>95.199996948242</ele>
        <time>2021-06-13T09:56:44.000Z</time>
      </trkpt>
      <trkpt lat="47.26596" lon="-2.33148">
        <ele>95.199996948242</ele>
        <time>2021-06-13T09:56:49.000Z</time>
      </trkpt>
      <trkpt lat="47.26595" lon="-2.33149">
        <ele>95.199996948242</ele>
        <time>2021-06-13T09:57:18.000Z</time>
      </trkpt>
      <trkpt lat="47.26593" lon="-2.33154">
        <ele>95.199996948242</ele>
        <time>2021-06-13T09:57:20.000Z</time>
      </trkpt>
      <trkpt lat="47.26587" lon="-2.33175">
        <ele>95.199996948242</ele>
        <time>2021-06-13T09:57:26.000Z</time>
      </trkpt>
      <trkpt lat="47.26577" lon="-2.33194">
        <ele>95.199996948242</ele>
        <time>2021-06-13T09:57:31.000Z</time>
      </trkpt>
      <trkpt lat="47.26555" lon="-2.33207">
        <ele>95.199996948242</ele>
        <time>2021-06-13T09:57:37.000Z</time>
      </trkpt>
      <trkpt lat="47.26524" lon="-2.33225">
        <ele>95.199996948242</ele>
        <time>2021-06-13T09:57:46.000Z</time>
      </trkpt>
      <trkpt lat="47.26498" lon="-2.33243">
        <ele>95.199996948242</ele>
        <time>2021-06-13T09:57:54.000Z</time>
      </trkpt>
      <trkpt lat="47.26486" lon="-2.33263">
        <ele>95.199996948242</ele>
        <time>2021-06-13T09:57:59.000Z</time>
      </trkpt>
      <trkpt lat="47.26472" lon="-2.33299">
        <ele>95.199996948242</ele>
        <time>2021-06-13T09:58:06.000Z</time>
      </trkpt>
      <trkpt lat="47.2647" lon="-2.33304">
        <ele>95.199996948242</ele>
        <time>2021-06-13T09:58:07.000Z</time>
      </trkpt>
      <trkpt lat="47.26467" lon="-2.33309">
        <ele>95.199996948242</ele>
        <time>2021-06-13T09:58:08.000Z</time>
      </trkpt>
      <trkpt lat="47.26463" lon="-2.33312">
        <ele>95.199996948242</ele>
        <time>2021-06-13T09:58:09.000Z</time>
      </trkpt>
      <trkpt lat="47.26428" lon="-2.33339">
        <ele>95.199996948242</ele>
        <time>2021-06-13T09:58:17.000Z</time>
      </trkpt>
      <trkpt lat="47.26397" lon="-2.33361">
        <ele>95.199996948242</ele>
        <time>2021-06-13T09:58:24.000Z</time>
      </trkpt>
      <trkpt lat="47.26392" lon="-2.33364">
        <ele>94.599998474121</ele>
        <time>2021-06-13T09:58:25.000Z</time>
      </trkpt>
      <trkpt lat="47.26388" lon="-2.33367">
        <ele>94</ele>
        <time>2021-06-13T09:58:26.000Z</time>
      </trkpt>
      <trkpt lat="47.26383" lon="-2.3337">
        <ele>93.400001525879</ele>
        <time>2021-06-13T09:58:27.000Z</time>
      </trkpt>
      <trkpt lat="47.26379" lon="-2.33372">
        <ele>93.800003051758</ele>
        <time>2021-06-13T09:58:28.000Z</time>
      </trkpt>
      <trkpt lat="47.26374" lon="-2.33374">
        <ele>94.400001525879</ele>
        <time>2021-06-13T09:58:29.000Z</time>
      </trkpt>
      <trkpt lat="47.26369" lon="-2.33377">
        <ele>94.599998474121</ele>
        <time>2021-06-13T09:58:30.000Z</time>
      </trkpt>
      <trkpt lat="47.26364" lon="-2.3338">
        <ele>95</ele>
        <time>2021-06-13T09:58:31.000Z</time>
      </trkpt>
      <trkpt lat="47.2633" lon="-2.33397">
        <ele>95</ele>
        <time>2021-06-13T09:58:38.000Z</time>
      </trkpt>
      <trkpt lat="47.26312" lon="-2.3341">
        <ele>95</ele>
        <time>2021-06-13T09:58:42.000Z</time>
      </trkpt>
      <trkpt lat="47.26308" lon="-2.33414">
        <ele>95</ele>
        <time>2021-06-13T09:58:43.000Z</time>
      </trkpt>
      <trkpt lat="47.26304" lon="-2.33417">
        <ele>95</ele>
        <time>2021-06-13T09:58:44.000Z</time>
      </trkpt>
      <trkpt lat="47.2629" lon="-2.33422">
        <ele>95</ele>
        <time>2021-06-13T09:58:47.000Z</time>
      </trkpt>
      <trkpt lat="47.26255" lon="-2.33431">
        <ele>95</ele>
        <time>2021-06-13T09:58:54.000Z</time>
      </trkpt>
      <trkpt lat="47.26226" lon="-2.33438">
        <ele>95</ele>
        <time>2021-06-13T09:59:00.000Z</time>
      </trkpt>
      <trkpt lat="47.26193" lon="-2.33446">
        <ele>95</ele>
        <time>2021-06-13T09:59:07.000Z</time>
      </trkpt>
      <trkpt lat="47.26166" lon="-2.33444">
        <ele>95</ele>
        <time>2021-06-13T09:59:13.000Z</time>
      </trkpt>
      <trkpt lat="47.26162" lon="-2.33442">
        <ele>95</ele>
        <time>2021-06-13T09:59:14.000Z</time>
      </trkpt>
      <trkpt lat="47.26142" lon="-2.33434">
        <ele>95</ele>
        <time>2021-06-13T09:59:19.000Z</time>
      </trkpt>
      <trkpt lat="47.26139" lon="-2.33434">
        <ele>95</ele>
        <time>2021-06-13T09:59:20.000Z</time>
      </trkpt>
      <trkpt lat="47.26137" lon="-2.33437">
        <ele>95</ele>
        <time>2021-06-13T09:59:22.000Z</time>
      </trkpt>
      <trkpt lat="47.26136" lon="-2.33443">
        <ele>95</ele>
        <time>2021-06-13T09:59:24.000Z</time>
      </trkpt>
      <trkpt lat="47.26132" lon="-2.33452">
        <ele>95</ele>
        <time>2021-06-13T09:59:26.000Z</time>
      </trkpt>
      <trkpt lat="47.26127" lon="-2.33462">
        <ele>95</ele>
        <time>2021-06-13T09:59:28.000Z</time>
      </trkpt>
      <trkpt lat="47.2612" lon="-2.33481">
        <ele>95</ele>
        <time>2021-06-13T09:59:31.000Z</time>
      </trkpt>
      <trkpt lat="47.26118" lon="-2.33487">
        <ele>95</ele>
        <time>2021-06-13T09:59:32.000Z</time>
      </trkpt>
      <trkpt lat="47.2611" lon="-2.33493">
        <ele>95</ele>
        <time>2021-06-13T09:59:34.000Z</time>
      </trkpt>
      <trkpt lat="47.26099" lon="-2.3349">
        <ele>95</ele>
        <time>2021-06-13T09:59:37.000Z</time>
      </trkpt>
      <trkpt lat="47.26095" lon="-2.33489">
        <ele>95</ele>
        <time>2021-06-13T09:59:38.000Z</time>
      </trkpt>
      <trkpt lat="47.26083" lon="-2.33484">
        <ele>95</ele>
        <time>2021-06-13T09:59:43.000Z</time>
      </trkpt>
      <trkpt lat="47.26078" lon="-2.33475">
        <ele>95</ele>
        <time>2021-06-13T09:59:45.000Z</time>
      </trkpt>
      <trkpt lat="47.26071" lon="-2.33467">
        <ele>95</ele>
        <time>2021-06-13T09:59:47.000Z</time>
      </trkpt>
      <trkpt lat="47.26067" lon="-2.33462">
        <ele>95</ele>
        <time>2021-06-13T09:59:48.000Z</time>
      </trkpt>
      <trkpt lat="47.26059" lon="-2.33453">
        <ele>95</ele>
        <time>2021-06-13T09:59:50.000Z</time>
      </trkpt>
      <trkpt lat="47.26054" lon="-2.33453">
        <ele>95</ele>
        <time>2021-06-13T09:59:51.000Z</time>
      </trkpt>
      <trkpt lat="47.26042" lon="-2.33465">
        <ele>95</ele>
        <time>2021-06-13T09:59:54.000Z</time>
      </trkpt>
      <trkpt lat="47.26025" lon="-2.33486">
        <ele>95</ele>
        <time>2021-06-13T09:59:58.000Z</time>
      </trkpt>
      <trkpt lat="47.26008" lon="-2.33493">
        <ele>95</ele>
        <time>2021-06-13T10:00:01.000Z</time>
      </trkpt>
      <trkpt lat="47.25997" lon="-2.33495">
        <ele>95</ele>
        <time>2021-06-13T10:00:03.000Z</time>
      </trkpt>
      <trkpt lat="47.25992" lon="-2.33496">
        <ele>95</ele>
        <time>2021-06-13T10:00:04.000Z</time>
      </trkpt>
      <trkpt lat="47.25985" lon="-2.335">
        <ele>95</ele>
        <time>2021-06-13T10:00:06.000Z</time>
      </trkpt>
      <trkpt lat="47.25974" lon="-2.33511">
        <ele>95</ele>
        <time>2021-06-13T10:00:10.000Z</time>
      </trkpt>
      <trkpt lat="47.2596" lon="-2.33512">
        <ele>95</ele>
        <time>2021-06-13T10:00:13.000Z</time>
      </trkpt>
      <trkpt lat="47.25955" lon="-2.33513">
        <ele>95</ele>
        <time>2021-06-13T10:00:14.000Z</time>
      </trkpt>
      <trkpt lat="47.25937" lon="-2.33526">
        <ele>95</ele>
        <time>2021-06-13T10:00:18.000Z</time>
      </trkpt>
      <trkpt lat="47.25912" lon="-2.33548">
        <ele>95</ele>
        <time>2021-06-13T10:00:24.000Z</time>
      </trkpt>
      <trkpt lat="47.25878" lon="-2.33575">
        <ele>95.800003051758</ele>
        <time>2021-06-13T10:00:32.000Z</time>
      </trkpt>
      <trkpt lat="47.25873" lon="-2.33577">
        <ele>96.199996948242</ele>
        <time>2021-06-13T10:00:33.000Z</time>
      </trkpt>
      <trkpt lat="47.25868" lon="-2.33579">
        <ele>96.599998474121</ele>
        <time>2021-06-13T10:00:34.000Z</time>
      </trkpt>
      <trkpt lat="47.25863" lon="-2.3358">
        <ele>97</ele>
        <time>2021-06-13T10:00:35.000Z</time>
      </trkpt>
      <trkpt lat="47.25854" lon="-2.33581">
        <ele>97</ele>
        <time>2021-06-13T10:00:37.000Z</time>
      </trkpt>
      <trkpt lat="47.25817" lon="-2.33582">
        <ele>97</ele>
        <time>2021-06-13T10:00:44.000Z</time>
      </trkpt>
      <trkpt lat="47.25775" lon="-2.33584">
        <ele>97</ele>
        <time>2021-06-13T10:00:52.000Z</time>
      </trkpt>
      <trkpt lat="47.25754" lon="-2.33585">
        <ele>97</ele>
        <time>2021-06-13T10:00:56.000Z</time>
      </trkpt>
      <trkpt lat="47.25743" lon="-2.33588">
        <ele>97</ele>
        <time>2021-06-13T10:00:58.000Z</time>
      </trkpt>
      <trkpt lat="47.25728" lon="-2.33585">
        <ele>97</ele>
        <time>2021-06-13T10:01:01.000Z</time>
      </trkpt>
      <trkpt lat="47.25717" lon="-2.33585">
        <ele>97</ele>
        <time>2021-06-13T10:01:03.000Z</time>
      </trkpt>
      <trkpt lat="47.25691" lon="-2.33585">
        <ele>97</ele>
        <time>2021-06-13T10:01:08.000Z</time>
      </trkpt>
      <trkpt lat="47.25661" lon="-2.33579">
        <ele>97</ele>
        <time>2021-06-13T10:01:14.000Z</time>
      </trkpt>
      <trkpt lat="47.25625" lon="-2.33562">
        <ele>97</ele>
        <time>2021-06-13T10:01:21.000Z</time>
      </trkpt>
      <trkpt lat="47.25616" lon="-2.33555">
        <ele>97.599998474121</ele>
        <time>2021-06-13T10:01:23.000Z</time>
      </trkpt>
      <trkpt lat="47.25611" lon="-2.33551">
        <ele>98</ele>
        <time>2021-06-13T10:01:24.000Z</time>
      </trkpt>
      <trkpt lat="47.25607" lon="-2.33548">
        <ele>98.400001525879</ele>
        <time>2021-06-13T10:01:25.000Z</time>
      </trkpt>
      <trkpt lat="47.25603" lon="-2.33544">
        <ele>98.800003051758</ele>
        <time>2021-06-13T10:01:26.000Z</time>
      </trkpt>
      <trkpt lat="47.25598" lon="-2.3354">
        <ele>99.199996948242</ele>
        <time>2021-06-13T10:01:27.000Z</time>
      </trkpt>
      <trkpt lat="47.2557" lon="-2.33504">
        <ele>99.199996948242</ele>
        <time>2021-06-13T10:01:34.000Z</time>
      </trkpt>
      <trkpt lat="47.25547" lon="-2.33461">
        <ele>99.199996948242</ele>
        <time>2021-06-13T10:01:41.000Z</time>
      </trkpt>
      <trkpt lat="47.25529" lon="-2.33404">
        <ele>99.199996948242</ele>
        <time>2021-06-13T10:01:49.000Z</time>
      </trkpt>
      <trkpt lat="47.25522" lon="-2.33346">
        <ele>99.199996948242</ele>
        <time>2021-06-13T10:01:56.000Z</time>
      </trkpt>
      <trkpt lat="47.25514" lon="-2.33278">
        <ele>99.199996948242</ele>
        <time>2021-06-13T10:02:04.000Z</time>
      </trkpt>
      <trkpt lat="47.25506" lon="-2.33222">
        <ele>99.199996948242</ele>
        <time>2021-06-13T10:02:11.000Z</time>
      </trkpt>
      <trkpt lat="47.25499" lon="-2.33168">
        <ele>99.199996948242</ele>
        <time>2021-06-13T10:02:18.000Z</time>
      </trkpt>
      <trkpt lat="47.25491" lon="-2.3311">
        <ele>99.199996948242</ele>
        <time>2021-06-13T10:02:26.000Z</time>
      </trkpt>
      <trkpt lat="47.25488" lon="-2.33099">
        <ele>99.199996948242</ele>
        <time>2021-06-13T10:02:29.000Z</time>
      </trkpt>
      <trkpt lat="47.25485" lon="-2.33096">
        <ele>99.199996948242</ele>
        <time>2021-06-13T10:02:30.000Z</time>
      </trkpt>
      <trkpt lat="47.25473" lon="-2.331">
        <ele>99.199996948242</ele>
        <time>2021-06-13T10:02:33.000Z</time>
      </trkpt>
      <trkpt lat="47.25469" lon="-2.33102">
        <ele>99.199996948242</ele>
        <time>2021-06-13T10:02:34.000Z</time>
      </trkpt>
      <trkpt lat="47.25442" lon="-2.33114">
        <ele>99.199996948242</ele>
        <time>2021-06-13T10:02:40.000Z</time>
      </trkpt>
      <trkpt lat="47.25412" lon="-2.33124">
        <ele>99.199996948242</ele>
        <time>2021-06-13T10:02:47.000Z</time>
      </trkpt>
      <trkpt lat="47.25393" lon="-2.33137">
        <ele>99.199996948242</ele>
        <time>2021-06-13T10:02:53.000Z</time>
      </trkpt>
      <trkpt lat="47.25386" lon="-2.33141">
        <ele>99.199996948242</ele>
        <time>2021-06-13T10:02:55.000Z</time>
      </trkpt>
      <trkpt lat="47.25383" lon="-2.3314">
        <ele>99.199996948242</ele>
        <time>2021-06-13T10:02:56.000Z</time>
      </trkpt>
      <trkpt lat="47.25377" lon="-2.33121">
        <ele>99.199996948242</ele>
        <time>2021-06-13T10:03:00.000Z</time>
      </trkpt>
      <trkpt lat="47.25369" lon="-2.33104">
        <ele>99.199996948242</ele>
        <time>2021-06-13T10:03:05.000Z</time>
      </trkpt>
      <trkpt lat="47.25361" lon="-2.3309">
        <ele>99.199996948242</ele>
        <time>2021-06-13T10:03:11.000Z</time>
      </trkpt>
      <trkpt lat="47.25361" lon="-2.33091">
        <ele>99.199996948242</ele>
        <time>2021-06-13T10:03:12.000Z</time>
      </trkpt>
      <trkpt lat="47.25361" lon="-2.33088">
        <ele>97.199996948242</ele>
        <time>2021-06-13T10:12:06.000Z</time>
      </trkpt>
      <trkpt lat="47.2536" lon="-2.33082">
        <ele>97.199996948242</ele>
        <time>2021-06-13T10:12:08.000Z</time>
      </trkpt>
      <trkpt lat="47.25354" lon="-2.33067">
        <ele>97.199996948242</ele>
        <time>2021-06-13T10:12:13.000Z</time>
      </trkpt>
      <trkpt lat="47.25352" lon="-2.33063">
        <ele>97.199996948242</ele>
        <time>2021-06-13T10:12:14.000Z</time>
      </trkpt>
      <trkpt lat="47.25344" lon="-2.33043">
        <ele>97.199996948242</ele>
        <time>2021-06-13T10:12:18.000Z</time>
      </trkpt>
      <trkpt lat="47.25339" lon="-2.33032">
        <ele>97.599998474121</ele>
        <time>2021-06-13T10:12:20.000Z</time>
      </trkpt>
      <trkpt lat="47.25337" lon="-2.33027">
        <ele>98</ele>
        <time>2021-06-13T10:12:21.000Z</time>
      </trkpt>
      <trkpt lat="47.25335" lon="-2.33021">
        <ele>98.400001525879</ele>
        <time>2021-06-13T10:12:22.000Z</time>
      </trkpt>
      <trkpt lat="47.25332" lon="-2.33016">
        <ele>99</ele>
        <time>2021-06-13T10:12:23.000Z</time>
      </trkpt>
      <trkpt lat="47.2533" lon="-2.3301">
        <ele>99.400001525879</ele>
        <time>2021-06-13T10:12:24.000Z</time>
      </trkpt>
      <trkpt lat="47.2532" lon="-2.32984">
        <ele>99.400001525879</ele>
        <time>2021-06-13T10:12:28.000Z</time>
      </trkpt>
      <trkpt lat="47.25315" lon="-2.32971">
        <ele>99.400001525879</ele>
        <time>2021-06-13T10:12:30.000Z</time>
      </trkpt>
      <trkpt lat="47.25307" lon="-2.32945">
        <ele>99.400001525879</ele>
        <time>2021-06-13T10:12:34.000Z</time>
      </trkpt>
      <trkpt lat="47.25308" lon="-2.3292">
        <ele>99.400001525879</ele>
        <time>2021-06-13T10:12:38.000Z</time>
      </trkpt>
      <trkpt lat="47.25323" lon="-2.32902">
        <ele>99.400001525879</ele>
        <time>2021-06-13T10:12:42.000Z</time>
      </trkpt>
      <trkpt lat="47.25357" lon="-2.32873">
        <ele>99.400001525879</ele>
        <time>2021-06-13T10:12:50.000Z</time>
      </trkpt>
      <trkpt lat="47.25388" lon="-2.32839">
        <ele>99.400001525879</ele>
        <time>2021-06-13T10:12:58.000Z</time>
      </trkpt>
      <trkpt lat="47.25418" lon="-2.32797">
        <ele>99.400001525879</ele>
        <time>2021-06-13T10:13:07.000Z</time>
      </trkpt>
      <trkpt lat="47.25423" lon="-2.32787">
        <ele>99.400001525879</ele>
        <time>2021-06-13T10:13:09.000Z</time>
      </trkpt>
      <trkpt lat="47.25428" lon="-2.32772">
        <ele>99.400001525879</ele>
        <time>2021-06-13T10:13:12.000Z</time>
      </trkpt>
      <trkpt lat="47.25434" lon="-2.32765">
        <ele>99.800003051758</ele>
        <time>2021-06-13T10:13:14.000Z</time>
      </trkpt>
      <trkpt lat="47.25438" lon="-2.32761">
        <ele>100.19999694824</ele>
        <time>2021-06-13T10:13:15.000Z</time>
      </trkpt>
      <trkpt lat="47.25441" lon="-2.32757">
        <ele>100.59999847412</ele>
        <time>2021-06-13T10:13:16.000Z</time>
      </trkpt>
      <trkpt lat="47.25444" lon="-2.32752">
        <ele>101.40000152588</ele>
        <time>2021-06-13T10:13:17.000Z</time>
      </trkpt>
      <trkpt lat="47.25457" lon="-2.32734">
        <ele>101.40000152588</ele>
        <time>2021-06-13T10:13:21.000Z</time>
      </trkpt>
      <trkpt lat="47.25467" lon="-2.32721">
        <ele>101.40000152588</ele>
        <time>2021-06-13T10:13:24.000Z</time>
      </trkpt>
      <trkpt lat="47.25482" lon="-2.32698">
        <ele>101.40000152588</ele>
        <time>2021-06-13T10:13:29.000Z</time>
      </trkpt>
      <trkpt lat="47.25487" lon="-2.3268">
        <ele>101.40000152588</ele>
        <time>2021-06-13T10:13:32.000Z</time>
      </trkpt>
      <trkpt lat="47.25488" lon="-2.32667">
        <ele>101.40000152588</ele>
        <time>2021-06-13T10:13:34.000Z</time>
      </trkpt>
      <trkpt lat="47.25487" lon="-2.32661">
        <ele>101.40000152588</ele>
        <time>2021-06-13T10:13:35.000Z</time>
      </trkpt>
      <trkpt lat="47.25486" lon="-2.32648">
        <ele>101.40000152588</ele>
        <time>2021-06-13T10:13:37.000Z</time>
      </trkpt>
      <trkpt lat="47.25483" lon="-2.32636">
        <ele>101.80000305176</ele>
        <time>2021-06-13T10:13:39.000Z</time>
      </trkpt>
      <trkpt lat="47.25482" lon="-2.3263">
        <ele>102.19999694824</ele>
        <time>2021-06-13T10:13:40.000Z</time>
      </trkpt>
      <trkpt lat="47.2548" lon="-2.32624">
        <ele>102.80000305176</ele>
        <time>2021-06-13T10:13:41.000Z</time>
      </trkpt>
      <trkpt lat="47.25479" lon="-2.32618">
        <ele>103.59999847412</ele>
        <time>2021-06-13T10:13:42.000Z</time>
      </trkpt>
      <trkpt lat="47.25477" lon="-2.32606">
        <ele>103.59999847412</ele>
        <time>2021-06-13T10:13:44.000Z</time>
      </trkpt>
      <trkpt lat="47.25478" lon="-2.32566">
        <ele>103.59999847412</ele>
        <time>2021-06-13T10:13:51.000Z</time>
      </trkpt>
      <trkpt lat="47.25491" lon="-2.32551">
        <ele>103.59999847412</ele>
        <time>2021-06-13T10:13:55.000Z</time>
      </trkpt>
      <trkpt lat="47.25517" lon="-2.32527">
        <ele>103.19999694824</ele>
        <time>2021-06-13T10:14:01.000Z</time>
      </trkpt>
      <trkpt lat="47.25521" lon="-2.32523">
        <ele>102.80000305176</ele>
        <time>2021-06-13T10:14:02.000Z</time>
      </trkpt>
      <trkpt lat="47.25526" lon="-2.32518">
        <ele>102.19999694824</ele>
        <time>2021-06-13T10:14:03.000Z</time>
      </trkpt>
      <trkpt lat="47.2553" lon="-2.32513">
        <ele>101.80000305176</ele>
        <time>2021-06-13T10:14:04.000Z</time>
      </trkpt>
      <trkpt lat="47.25535" lon="-2.32508">
        <ele>101.40000152588</ele>
        <time>2021-06-13T10:14:05.000Z</time>
      </trkpt>
      <trkpt lat="47.25556" lon="-2.32488">
        <ele>101.40000152588</ele>
        <time>2021-06-13T10:14:09.000Z</time>
      </trkpt>
      <trkpt lat="47.25578" lon="-2.32466">
        <ele>101</ele>
        <time>2021-06-13T10:14:13.000Z</time>
      </trkpt>
      <trkpt lat="47.25584" lon="-2.3246">
        <ele>100.59999847412</ele>
        <time>2021-06-13T10:14:14.000Z</time>
      </trkpt>
      <trkpt lat="47.2559" lon="-2.32454">
        <ele>100.19999694824</ele>
        <time>2021-06-13T10:14:15.000Z</time>
      </trkpt>
      <trkpt lat="47.25596" lon="-2.32448">
        <ele>99.599998474121</ele>
        <time>2021-06-13T10:14:16.000Z</time>
      </trkpt>
      <trkpt lat="47.25601" lon="-2.32442">
        <ele>99.199996948242</ele>
        <time>2021-06-13T10:14:17.000Z</time>
      </trkpt>
      <trkpt lat="47.25631" lon="-2.32409">
        <ele>98.800003051758</ele>
        <time>2021-06-13T10:14:22.000Z</time>
      </trkpt>
      <trkpt lat="47.25638" lon="-2.32405">
        <ele>98.400001525879</ele>
        <time>2021-06-13T10:14:23.000Z</time>
      </trkpt>
      <trkpt lat="47.25644" lon="-2.32402">
        <ele>98</ele>
        <time>2021-06-13T10:14:24.000Z</time>
      </trkpt>
      <trkpt lat="47.25651" lon="-2.32401">
        <ele>97.599998474121</ele>
        <time>2021-06-13T10:14:25.000Z</time>
      </trkpt>
      <trkpt lat="47.25657" lon="-2.324">
        <ele>97.199996948242</ele>
        <time>2021-06-13T10:14:26.000Z</time>
      </trkpt>
      <trkpt lat="47.25663" lon="-2.32402">
        <ele>97.199996948242</ele>
        <time>2021-06-13T10:14:27.000Z</time>
      </trkpt>
      <trkpt lat="47.25672" lon="-2.32413">
        <ele>96.800003051758</ele>
        <time>2021-06-13T10:14:29.000Z</time>
      </trkpt>
      <trkpt lat="47.25678" lon="-2.32417">
        <ele>96.400001525879</ele>
        <time>2021-06-13T10:14:30.000Z</time>
      </trkpt>
      <trkpt lat="47.25683" lon="-2.32419">
        <ele>95.400001525879</ele>
        <time>2021-06-13T10:14:31.000Z</time>
      </trkpt>
      <trkpt lat="47.2569" lon="-2.3242">
        <ele>95</ele>
        <time>2021-06-13T10:14:32.000Z</time>
      </trkpt>
      <trkpt lat="47.25702" lon="-2.32421">
        <ele>95</ele>
        <time>2021-06-13T10:14:34.000Z</time>
      </trkpt>
      <trkpt lat="47.25751" lon="-2.32423">
        <ele>95</ele>
        <time>2021-06-13T10:14:42.000Z</time>
      </trkpt>
      <trkpt lat="47.25756" lon="-2.32422">
        <ele>95</ele>
        <time>2021-06-13T10:14:43.000Z</time>
      </trkpt>
      <trkpt lat="47.25769" lon="-2.32414">
        <ele>95</ele>
        <time>2021-06-13T10:14:46.000Z</time>
      </trkpt>
      <trkpt lat="47.2578" lon="-2.32415">
        <ele>95</ele>
        <time>2021-06-13T10:14:49.000Z</time>
      </trkpt>
      <trkpt lat="47.25793" lon="-2.32436">
        <ele>95</ele>
        <time>2021-06-13T10:14:53.000Z</time>
      </trkpt>
      <trkpt lat="47.2581" lon="-2.32457">
        <ele>95</ele>
        <time>2021-06-13T10:14:57.000Z</time>
      </trkpt>
      <trkpt lat="47.25822" lon="-2.32464">
        <ele>95</ele>
        <time>2021-06-13T10:14:59.000Z</time>
      </trkpt>
      <trkpt lat="47.25844" lon="-2.32474">
        <ele>95</ele>
        <time>2021-06-13T10:15:03.000Z</time>
      </trkpt>
      <trkpt lat="47.25866" lon="-2.32475">
        <ele>95</ele>
        <time>2021-06-13T10:15:07.000Z</time>
      </trkpt>
      <trkpt lat="47.25871" lon="-2.32474">
        <ele>95</ele>
        <time>2021-06-13T10:15:08.000Z</time>
      </trkpt>
      <trkpt lat="47.25891" lon="-2.32466">
        <ele>95</ele>
        <time>2021-06-13T10:15:12.000Z</time>
      </trkpt>
      <trkpt lat="47.25896" lon="-2.32461">
        <ele>95</ele>
        <time>2021-06-13T10:15:13.000Z</time>
      </trkpt>
      <trkpt lat="47.25921" lon="-2.32431">
        <ele>95</ele>
        <time>2021-06-13T10:15:19.000Z</time>
      </trkpt>
      <trkpt lat="47.25946" lon="-2.32396">
        <ele>95</ele>
        <time>2021-06-13T10:15:26.000Z</time>
      </trkpt>
      <trkpt lat="47.25969" lon="-2.32366">
        <ele>95</ele>
        <time>2021-06-13T10:15:33.000Z</time>
      </trkpt>
      <trkpt lat="47.25984" lon="-2.32349">
        <ele>95</ele>
        <time>2021-06-13T10:15:37.000Z</time>
      </trkpt>
      <trkpt lat="47.25991" lon="-2.32339">
        <ele>95</ele>
        <time>2021-06-13T10:15:39.000Z</time>
      </trkpt>
      <trkpt lat="47.26015" lon="-2.32308">
        <ele>95</ele>
        <time>2021-06-13T10:15:46.000Z</time>
      </trkpt>
      <trkpt lat="47.26042" lon="-2.32277">
        <ele>95</ele>
        <time>2021-06-13T10:15:53.000Z</time>
      </trkpt>
      <trkpt lat="47.26066" lon="-2.3225">
        <ele>95</ele>
        <time>2021-06-13T10:15:59.000Z</time>
      </trkpt>
      <trkpt lat="47.2609" lon="-2.32219">
        <ele>95</ele>
        <time>2021-06-13T10:16:06.000Z</time>
      </trkpt>
      <trkpt lat="47.26102" lon="-2.32197">
        <ele>95</ele>
        <time>2021-06-13T10:16:10.000Z</time>
      </trkpt>
      <trkpt lat="47.26106" lon="-2.32185">
        <ele>95</ele>
        <time>2021-06-13T10:16:12.000Z</time>
      </trkpt>
      <trkpt lat="47.26117" lon="-2.3215">
        <ele>95</ele>
        <time>2021-06-13T10:16:18.000Z</time>
      </trkpt>
      <trkpt lat="47.26129" lon="-2.32105">
        <ele>95</ele>
        <time>2021-06-13T10:16:25.000Z</time>
      </trkpt>
      <trkpt lat="47.26145" lon="-2.32061">
        <ele>95</ele>
        <time>2021-06-13T10:16:32.000Z</time>
      </trkpt>
      <trkpt lat="47.26147" lon="-2.32055">
        <ele>95</ele>
        <time>2021-06-13T10:16:33.000Z</time>
      </trkpt>
      <trkpt lat="47.26163" lon="-2.32021">
        <ele>95</ele>
        <time>2021-06-13T10:16:40.000Z</time>
      </trkpt>
      <trkpt lat="47.26166" lon="-2.3202">
        <ele>95</ele>
        <time>2021-06-13T10:16:41.000Z</time>
      </trkpt>
      <trkpt lat="47.26173" lon="-2.32021">
        <ele>95</ele>
        <time>2021-06-13T10:16:43.000Z</time>
      </trkpt>
      <trkpt lat="47.26188" lon="-2.32025">
        <ele>95</ele>
        <time>2021-06-13T10:16:49.000Z</time>
      </trkpt>
      <trkpt lat="47.26193" lon="-2.32023">
        <ele>95</ele>
        <time>2021-06-13T10:16:52.000Z</time>
      </trkpt>
      <trkpt lat="47.26194" lon="-2.32018">
        <ele>95</ele>
        <time>2021-06-13T10:16:54.000Z</time>
      </trkpt>
      <trkpt lat="47.26197" lon="-2.32009">
        <ele>94.599998474121</ele>
        <time>2021-06-13T10:16:57.000Z</time>
      </trkpt>
      <trkpt lat="47.26199" lon="-2.32006">
        <ele>94.199996948242</ele>
        <time>2021-06-13T10:16:58.000Z</time>
      </trkpt>
      <trkpt lat="47.26202" lon="-2.32002">
        <ele>93.800003051758</ele>
        <time>2021-06-13T10:16:59.000Z</time>
      </trkpt>
      <trkpt lat="47.26205" lon="-2.32">
        <ele>93</ele>
        <time>2021-06-13T10:17:00.000Z</time>
      </trkpt>
      <trkpt lat="47.26218" lon="-2.31985">
        <ele>93</ele>
        <time>2021-06-13T10:17:05.000Z</time>
      </trkpt>
      <trkpt lat="47.26227" lon="-2.31978">
        <ele>93</ele>
        <time>2021-06-13T10:17:08.000Z</time>
      </trkpt>
      <trkpt lat="47.26236" lon="-2.31971">
        <ele>93</ele>
        <time>2021-06-13T10:17:11.000Z</time>
      </trkpt>
      <trkpt lat="47.26244" lon="-2.31953">
        <ele>93</ele>
        <time>2021-06-13T10:17:15.000Z</time>
      </trkpt>
      <trkpt lat="47.2626" lon="-2.31927">
        <ele>93</ele>
        <time>2021-06-13T10:17:22.000Z</time>
      </trkpt>
      <trkpt lat="47.26277" lon="-2.31907">
        <ele>93</ele>
        <time>2021-06-13T10:17:28.000Z</time>
      </trkpt>
      <trkpt lat="47.26292" lon="-2.31887">
        <ele>93</ele>
        <time>2021-06-13T10:17:33.000Z</time>
      </trkpt>
      <trkpt lat="47.26293" lon="-2.31881">
        <ele>93</ele>
        <time>2021-06-13T10:17:34.000Z</time>
      </trkpt>
      <trkpt lat="47.26296" lon="-2.31847">
        <ele>93</ele>
        <time>2021-06-13T10:17:40.000Z</time>
      </trkpt>
      <trkpt lat="47.26296" lon="-2.31841">
        <ele>93</ele>
        <time>2021-06-13T10:17:41.000Z</time>
      </trkpt>
      <trkpt lat="47.26301" lon="-2.31808">
        <ele>93</ele>
        <time>2021-06-13T10:17:47.000Z</time>
      </trkpt>
      <trkpt lat="47.26302" lon="-2.31774">
        <ele>93</ele>
        <time>2021-06-13T10:17:53.000Z</time>
      </trkpt>
      <trkpt lat="47.26301" lon="-2.31738">
        <ele>93.400001525879</ele>
        <time>2021-06-13T10:17:59.000Z</time>
      </trkpt>
      <trkpt lat="47.263" lon="-2.31732">
        <ele>93.800003051758</ele>
        <time>2021-06-13T10:18:00.000Z</time>
      </trkpt>
      <trkpt lat="47.26301" lon="-2.31726">
        <ele>94.199996948242</ele>
        <time>2021-06-13T10:18:01.000Z</time>
      </trkpt>
      <trkpt lat="47.26304" lon="-2.31721">
        <ele>94.599998474121</ele>
        <time>2021-06-13T10:18:02.000Z</time>
      </trkpt>
      <trkpt lat="47.26307" lon="-2.31718">
        <ele>95</ele>
        <time>2021-06-13T10:18:03.000Z</time>
      </trkpt>
      <trkpt lat="47.26327" lon="-2.31708">
        <ele>95</ele>
        <time>2021-06-13T10:18:09.000Z</time>
      </trkpt>
      <trkpt lat="47.26331" lon="-2.31702">
        <ele>95</ele>
        <time>2021-06-13T10:18:11.000Z</time>
      </trkpt>
      <trkpt lat="47.26334" lon="-2.31693">
        <ele>95</ele>
        <time>2021-06-13T10:18:13.000Z</time>
      </trkpt>
      <trkpt lat="47.26338" lon="-2.31688">
        <ele>95</ele>
        <time>2021-06-13T10:18:15.000Z</time>
      </trkpt>
      <trkpt lat="47.26343" lon="-2.31684">
        <ele>95</ele>
        <time>2021-06-13T10:18:17.000Z</time>
      </trkpt>
      <trkpt lat="47.26356" lon="-2.31678">
        <ele>95.400001525879</ele>
        <time>2021-06-13T10:18:21.000Z</time>
      </trkpt>
      <trkpt lat="47.26358" lon="-2.31677">
        <ele>96</ele>
        <time>2021-06-13T10:18:22.000Z</time>
      </trkpt>
      <trkpt lat="47.26361" lon="-2.31676">
        <ele>96.400001525879</ele>
        <time>2021-06-13T10:18:23.000Z</time>
      </trkpt>
      <trkpt lat="47.26363" lon="-2.31674">
        <ele>96.800003051758</ele>
        <time>2021-06-13T10:18:24.000Z</time>
      </trkpt>
      <trkpt lat="47.26366" lon="-2.31672">
        <ele>97.199996948242</ele>
        <time>2021-06-13T10:18:25.000Z</time>
      </trkpt>
      <trkpt lat="47.26381" lon="-2.31664">
        <ele>97.199996948242</ele>
        <time>2021-06-13T10:18:30.000Z</time>
      </trkpt>
      <trkpt lat="47.264" lon="-2.31656">
        <ele>97.199996948242</ele>
        <time>2021-06-13T10:18:36.000Z</time>
      </trkpt>
      <trkpt lat="47.26412" lon="-2.31646">
        <ele>97.199996948242</ele>
        <time>2021-06-13T10:18:41.000Z</time>
      </trkpt>
      <trkpt lat="47.26413" lon="-2.31626">
        <ele>97.199996948242</ele>
        <time>2021-06-13T10:18:46.000Z</time>
      </trkpt>
      <trkpt lat="47.26412" lon="-2.31599">
        <ele>97.199996948242</ele>
        <time>2021-06-13T10:18:52.000Z</time>
      </trkpt>
      <trkpt lat="47.26411" lon="-2.31586">
        <ele>97.599998474121</ele>
        <time>2021-06-13T10:18:55.000Z</time>
      </trkpt>
      <trkpt lat="47.26412" lon="-2.31582">
        <ele>98</ele>
        <time>2021-06-13T10:18:56.000Z</time>
      </trkpt>
      <trkpt lat="47.26412" lon="-2.31577">
        <ele>98.400001525879</ele>
        <time>2021-06-13T10:18:57.000Z</time>
      </trkpt>
      <trkpt lat="47.26412" lon="-2.31573">
        <ele>98.800003051758</ele>
        <time>2021-06-13T10:18:58.000Z</time>
      </trkpt>
      <trkpt lat="47.26412" lon="-2.3157">
        <ele>99.199996948242</ele>
        <time>2021-06-13T10:18:59.000Z</time>
      </trkpt>
      <trkpt lat="47.26411" lon="-2.31566">
        <ele>99.199996948242</ele>
        <time>2021-06-13T10:19:00.000Z</time>
      </trkpt>
      <trkpt lat="47.26413" lon="-2.31553">
        <ele>99.199996948242</ele>
        <time>2021-06-13T10:19:04.000Z</time>
      </trkpt>
      <trkpt lat="47.26415" lon="-2.31554">
        <ele>99.199996948242</ele>
        <time>2021-06-13T10:19:05.000Z</time>
      </trkpt>
      <trkpt lat="47.26418" lon="-2.31555">
        <ele>99.199996948242</ele>
        <time>2021-06-13T10:19:10.000Z</time>
      </trkpt>
    </trkseg>
  </trk>
</gpx>